<?xml version="1.0" encoding="UTF-8" standalone="no" ?>
<gpx xmlns="http://www.topografix.com/GPX/1/1" xmlns:xsi="http://www.w3.org/2001/XMLSchema-instance" xsi:schemaLocation="http://www.topografix.com/GPX/1/1 http://www.topografix.com/GPX/1/1/gpx.xsd" version="1.1" creator="VisuGPX - https://www.visugpx.com">
  <metadata>
    <name>Jura : Creux de Croue - Suisse</name>
    <desc><![CDATA[Séjour dans le Haut Jura :
Grenam13
]]></desc>
  </metadata>
  <trk>
    <name><![CDATA[07-JUIN-15 15:38:58]]></name>
    <trkseg>
      <trkpt lat="46.45467" lon="6.10872">
        <ele>1150.35</ele>
        <time>2015-06-07T07:33:53Z</time>
      </trkpt>
      <trkpt lat="46.45467" lon="6.10871">
        <ele>1154.68</ele>
        <time>2015-06-07T07:34:05Z</time>
      </trkpt>
      <trkpt lat="46.45466" lon="6.10872">
        <ele>1159.97</ele>
        <time>2015-06-07T07:34:07Z</time>
      </trkpt>
      <trkpt lat="46.45466" lon="6.10872">
        <ele>1159.97</ele>
        <time>2015-06-07T07:34:08Z</time>
      </trkpt>
      <trkpt lat="46.45466" lon="6.10871">
        <ele>1163.33</ele>
        <time>2015-06-07T07:34:10Z</time>
      </trkpt>
      <trkpt lat="46.45466" lon="6.10871">
        <ele>1166.7</ele>
        <time>2015-06-07T07:34:12Z</time>
      </trkpt>
      <trkpt lat="46.45466" lon="6.1087">
        <ele>1171.02</ele>
        <time>2015-06-07T07:34:15Z</time>
      </trkpt>
      <trkpt lat="46.45466" lon="6.1087">
        <ele>1173.91</ele>
        <time>2015-06-07T07:34:18Z</time>
      </trkpt>
      <trkpt lat="46.45466" lon="6.1087">
        <ele>1179.67</ele>
        <time>2015-06-07T07:34:20Z</time>
      </trkpt>
      <trkpt lat="46.45467" lon="6.1087">
        <ele>1178.23</ele>
        <time>2015-06-07T07:34:21Z</time>
      </trkpt>
      <trkpt lat="46.45467" lon="6.10868">
        <ele>1183.04</ele>
        <time>2015-06-07T07:34:25Z</time>
      </trkpt>
      <trkpt lat="46.45467" lon="6.10868">
        <ele>1182.56</ele>
        <time>2015-06-07T07:34:26Z</time>
      </trkpt>
      <trkpt lat="46.45465" lon="6.10869">
        <ele>1186.4</ele>
        <time>2015-06-07T07:34:31Z</time>
      </trkpt>
      <trkpt lat="46.45466" lon="6.10869">
        <ele>1189.29</ele>
        <time>2015-06-07T07:34:37Z</time>
      </trkpt>
      <trkpt lat="46.45466" lon="6.10869">
        <ele>1191.21</ele>
        <time>2015-06-07T07:34:40Z</time>
      </trkpt>
      <trkpt lat="46.45467" lon="6.10869">
        <ele>1193.61</ele>
        <time>2015-06-07T07:34:47Z</time>
      </trkpt>
      <trkpt lat="46.45466" lon="6.10867">
        <ele>1195.06</ele>
        <time>2015-06-07T07:34:51Z</time>
      </trkpt>
      <trkpt lat="46.45463" lon="6.1087">
        <ele>1196.98</ele>
        <time>2015-06-07T07:34:59Z</time>
      </trkpt>
      <trkpt lat="46.45463" lon="6.10873">
        <ele>1197.46</ele>
        <time>2015-06-07T07:35:08Z</time>
      </trkpt>
      <trkpt lat="46.45462" lon="6.1087">
        <ele>1198.42</ele>
        <time>2015-06-07T07:35:22Z</time>
      </trkpt>
      <trkpt lat="46.45462" lon="6.10872">
        <ele>1198.9</ele>
        <time>2015-06-07T07:35:33Z</time>
      </trkpt>
      <trkpt lat="46.45463" lon="6.10873">
        <ele>1198.9</ele>
        <time>2015-06-07T07:35:43Z</time>
      </trkpt>
      <trkpt lat="46.45464" lon="6.1087">
        <ele>1198.9</ele>
        <time>2015-06-07T07:35:49Z</time>
      </trkpt>
      <trkpt lat="46.45466" lon="6.10868">
        <ele>1199.38</ele>
        <time>2015-06-07T07:36:01Z</time>
      </trkpt>
      <trkpt lat="46.45466" lon="6.10868">
        <ele>1198.9</ele>
        <time>2015-06-07T07:36:13Z</time>
      </trkpt>
      <trkpt lat="46.45467" lon="6.10867">
        <ele>1199.38</ele>
        <time>2015-06-07T07:36:22Z</time>
      </trkpt>
      <trkpt lat="46.45467" lon="6.10867">
        <ele>1200.34</ele>
        <time>2015-06-07T07:36:33Z</time>
      </trkpt>
      <trkpt lat="46.45466" lon="6.10867">
        <ele>1199.38</ele>
        <time>2015-06-07T07:36:46Z</time>
      </trkpt>
      <trkpt lat="46.45467" lon="6.10867">
        <ele>1199.38</ele>
        <time>2015-06-07T07:36:57Z</time>
      </trkpt>
      <trkpt lat="46.45467" lon="6.10866">
        <ele>1199.38</ele>
        <time>2015-06-07T07:37:10Z</time>
      </trkpt>
      <trkpt lat="46.45467" lon="6.10866">
        <ele>1199.38</ele>
        <time>2015-06-07T07:37:23Z</time>
      </trkpt>
      <trkpt lat="46.45468" lon="6.10867">
        <ele>1199.38</ele>
        <time>2015-06-07T07:37:31Z</time>
      </trkpt>
      <trkpt lat="46.45466" lon="6.10866">
        <ele>1198.9</ele>
        <time>2015-06-07T07:37:39Z</time>
      </trkpt>
      <trkpt lat="46.45466" lon="6.10866">
        <ele>1199.38</ele>
        <time>2015-06-07T07:37:47Z</time>
      </trkpt>
      <trkpt lat="46.45467" lon="6.10866">
        <ele>1199.38</ele>
        <time>2015-06-07T07:37:56Z</time>
      </trkpt>
      <trkpt lat="46.45467" lon="6.10866">
        <ele>1199.38</ele>
        <time>2015-06-07T07:38:10Z</time>
      </trkpt>
      <trkpt lat="46.45467" lon="6.10866">
        <ele>1198.9</ele>
        <time>2015-06-07T07:38:23Z</time>
      </trkpt>
      <trkpt lat="46.45466" lon="6.10867">
        <ele>1199.38</ele>
        <time>2015-06-07T07:38:30Z</time>
      </trkpt>
      <trkpt lat="46.45466" lon="6.10867">
        <ele>1197.94</ele>
        <time>2015-06-07T07:38:41Z</time>
      </trkpt>
      <trkpt lat="46.45466" lon="6.10867">
        <ele>1200.82</ele>
        <time>2015-06-07T07:38:42Z</time>
      </trkpt>
      <trkpt lat="46.45467" lon="6.10868">
        <ele>1197.46</ele>
        <time>2015-06-07T07:38:53Z</time>
      </trkpt>
      <trkpt lat="46.45467" lon="6.10868">
        <ele>1201.3</ele>
        <time>2015-06-07T07:38:54Z</time>
      </trkpt>
      <trkpt lat="46.45467" lon="6.10868">
        <ele>1199.86</ele>
        <time>2015-06-07T07:39:08Z</time>
      </trkpt>
      <trkpt lat="46.45467" lon="6.10868">
        <ele>1199.86</ele>
        <time>2015-06-07T07:39:19Z</time>
      </trkpt>
      <trkpt lat="46.45467" lon="6.10868">
        <ele>1199.38</ele>
        <time>2015-06-07T07:39:28Z</time>
      </trkpt>
      <trkpt lat="46.45466" lon="6.1087">
        <ele>1199.38</ele>
        <time>2015-06-07T07:39:36Z</time>
      </trkpt>
      <trkpt lat="46.45464" lon="6.10875">
        <ele>1199.38</ele>
        <time>2015-06-07T07:39:45Z</time>
      </trkpt>
      <trkpt lat="46.45464" lon="6.10874">
        <ele>1199.86</ele>
        <time>2015-06-07T07:39:52Z</time>
      </trkpt>
      <trkpt lat="46.45464" lon="6.10874">
        <ele>1199.86</ele>
        <time>2015-06-07T07:40:03Z</time>
      </trkpt>
      <trkpt lat="46.45464" lon="6.10875">
        <ele>1199.38</ele>
        <time>2015-06-07T07:40:11Z</time>
      </trkpt>
      <trkpt lat="46.45464" lon="6.10875">
        <ele>1199.38</ele>
        <time>2015-06-07T07:40:22Z</time>
      </trkpt>
      <trkpt lat="46.45464" lon="6.10876">
        <ele>1199.38</ele>
        <time>2015-06-07T07:40:37Z</time>
      </trkpt>
      <trkpt lat="46.45464" lon="6.10876">
        <ele>1199.86</ele>
        <time>2015-06-07T07:40:50Z</time>
      </trkpt>
      <trkpt lat="46.45464" lon="6.10876">
        <ele>1200.82</ele>
        <time>2015-06-07T07:41:02Z</time>
      </trkpt>
      <trkpt lat="46.45464" lon="6.10876">
        <ele>1199.86</ele>
        <time>2015-06-07T07:41:04Z</time>
      </trkpt>
      <trkpt lat="46.45461" lon="6.10878">
        <ele>1199.86</ele>
        <time>2015-06-07T07:41:08Z</time>
      </trkpt>
      <trkpt lat="46.45458" lon="6.1088">
        <ele>1199.86</ele>
        <time>2015-06-07T07:41:16Z</time>
      </trkpt>
      <trkpt lat="46.45457" lon="6.1088">
        <ele>1199.86</ele>
        <time>2015-06-07T07:41:25Z</time>
      </trkpt>
      <trkpt lat="46.45458" lon="6.1088">
        <ele>1199.86</ele>
        <time>2015-06-07T07:41:31Z</time>
      </trkpt>
      <trkpt lat="46.45464" lon="6.10877">
        <ele>1199.86</ele>
        <time>2015-06-07T07:41:39Z</time>
      </trkpt>
      <trkpt lat="46.45464" lon="6.10877">
        <ele>1199.38</ele>
        <time>2015-06-07T07:41:46Z</time>
      </trkpt>
      <trkpt lat="46.45464" lon="6.10877">
        <ele>1199.86</ele>
        <time>2015-06-07T07:41:59Z</time>
      </trkpt>
      <trkpt lat="46.45463" lon="6.10877">
        <ele>1200.82</ele>
        <time>2015-06-07T07:42:12Z</time>
      </trkpt>
      <trkpt lat="46.45463" lon="6.10879">
        <ele>1199.86</ele>
        <time>2015-06-07T07:42:19Z</time>
      </trkpt>
      <trkpt lat="46.45463" lon="6.1088">
        <ele>1199.86</ele>
        <time>2015-06-07T07:42:20Z</time>
      </trkpt>
      <trkpt lat="46.4546" lon="6.10884">
        <ele>1199.38</ele>
        <time>2015-06-07T07:42:28Z</time>
      </trkpt>
      <trkpt lat="46.4546" lon="6.10883">
        <ele>1199.86</ele>
        <time>2015-06-07T07:42:39Z</time>
      </trkpt>
      <trkpt lat="46.4546" lon="6.10884">
        <ele>1199.86</ele>
        <time>2015-06-07T07:42:47Z</time>
      </trkpt>
      <trkpt lat="46.45461" lon="6.10889">
        <ele>1199.38</ele>
        <time>2015-06-07T07:42:51Z</time>
      </trkpt>
      <trkpt lat="46.4546" lon="6.10896">
        <ele>1199.38</ele>
        <time>2015-06-07T07:42:56Z</time>
      </trkpt>
      <trkpt lat="46.45459" lon="6.10899">
        <ele>1199.38</ele>
        <time>2015-06-07T07:42:58Z</time>
      </trkpt>
      <trkpt lat="46.4546" lon="6.10902">
        <ele>1199.86</ele>
        <time>2015-06-07T07:43:00Z</time>
      </trkpt>
      <trkpt lat="46.4546" lon="6.10905">
        <ele>1199.86</ele>
        <time>2015-06-07T07:43:02Z</time>
      </trkpt>
      <trkpt lat="46.45458" lon="6.10916">
        <ele>1199.86</ele>
        <time>2015-06-07T07:43:08Z</time>
      </trkpt>
      <trkpt lat="46.45456" lon="6.10925">
        <ele>1199.86</ele>
        <time>2015-06-07T07:43:16Z</time>
      </trkpt>
      <trkpt lat="46.45457" lon="6.10926">
        <ele>1200.82</ele>
        <time>2015-06-07T07:43:17Z</time>
      </trkpt>
      <trkpt lat="46.45456" lon="6.10935">
        <ele>1199.86</ele>
        <time>2015-06-07T07:43:23Z</time>
      </trkpt>
      <trkpt lat="46.45456" lon="6.10941">
        <ele>1199.86</ele>
        <time>2015-06-07T07:43:27Z</time>
      </trkpt>
      <trkpt lat="46.45455" lon="6.10946">
        <ele>1199.86</ele>
        <time>2015-06-07T07:43:31Z</time>
      </trkpt>
      <trkpt lat="46.45454" lon="6.10951">
        <ele>1199.86</ele>
        <time>2015-06-07T07:43:35Z</time>
      </trkpt>
      <trkpt lat="46.45453" lon="6.10963">
        <ele>1199.86</ele>
        <time>2015-06-07T07:43:43Z</time>
      </trkpt>
      <trkpt lat="46.45452" lon="6.10966">
        <ele>1199.86</ele>
        <time>2015-06-07T07:43:45Z</time>
      </trkpt>
      <trkpt lat="46.45451" lon="6.10971">
        <ele>1199.86</ele>
        <time>2015-06-07T07:43:48Z</time>
      </trkpt>
      <trkpt lat="46.45451" lon="6.10978">
        <ele>1199.86</ele>
        <time>2015-06-07T07:43:53Z</time>
      </trkpt>
      <trkpt lat="46.45452" lon="6.10991">
        <ele>1199.86</ele>
        <time>2015-06-07T07:44:02Z</time>
      </trkpt>
      <trkpt lat="46.45452" lon="6.10997">
        <ele>1200.34</ele>
        <time>2015-06-07T07:44:06Z</time>
      </trkpt>
      <trkpt lat="46.45449" lon="6.11008">
        <ele>1199.86</ele>
        <time>2015-06-07T07:44:12Z</time>
      </trkpt>
      <trkpt lat="46.45448" lon="6.11008">
        <ele>1199.86</ele>
        <time>2015-06-07T07:44:13Z</time>
      </trkpt>
      <trkpt lat="46.45447" lon="6.11014">
        <ele>1199.86</ele>
        <time>2015-06-07T07:44:17Z</time>
      </trkpt>
      <trkpt lat="46.45446" lon="6.11018">
        <ele>1199.86</ele>
        <time>2015-06-07T07:44:20Z</time>
      </trkpt>
      <trkpt lat="46.45445" lon="6.11028">
        <ele>1199.86</ele>
        <time>2015-06-07T07:44:26Z</time>
      </trkpt>
      <trkpt lat="46.45445" lon="6.11029">
        <ele>1199.86</ele>
        <time>2015-06-07T07:44:27Z</time>
      </trkpt>
      <trkpt lat="46.45445" lon="6.11032">
        <ele>1200.34</ele>
        <time>2015-06-07T07:44:33Z</time>
      </trkpt>
      <trkpt lat="46.45447" lon="6.11036">
        <ele>1201.79</ele>
        <time>2015-06-07T07:44:37Z</time>
      </trkpt>
      <trkpt lat="46.45447" lon="6.11042">
        <ele>1200.82</ele>
        <time>2015-06-07T07:44:41Z</time>
      </trkpt>
      <trkpt lat="46.45447" lon="6.11048">
        <ele>1201.3</ele>
        <time>2015-06-07T07:44:44Z</time>
      </trkpt>
      <trkpt lat="46.45446" lon="6.11053">
        <ele>1200.82</ele>
        <time>2015-06-07T07:44:48Z</time>
      </trkpt>
      <trkpt lat="46.45446" lon="6.1106">
        <ele>1200.34</ele>
        <time>2015-06-07T07:44:53Z</time>
      </trkpt>
      <trkpt lat="46.45446" lon="6.11065">
        <ele>1200.82</ele>
        <time>2015-06-07T07:44:57Z</time>
      </trkpt>
      <trkpt lat="46.45446" lon="6.11071">
        <ele>1201.3</ele>
        <time>2015-06-07T07:45:01Z</time>
      </trkpt>
      <trkpt lat="46.45447" lon="6.11078">
        <ele>1200.82</ele>
        <time>2015-06-07T07:45:05Z</time>
      </trkpt>
      <trkpt lat="46.45447" lon="6.11085">
        <ele>1200.82</ele>
        <time>2015-06-07T07:45:09Z</time>
      </trkpt>
      <trkpt lat="46.45446" lon="6.11089">
        <ele>1201.3</ele>
        <time>2015-06-07T07:45:12Z</time>
      </trkpt>
      <trkpt lat="46.45446" lon="6.111">
        <ele>1202.27</ele>
        <time>2015-06-07T07:45:18Z</time>
      </trkpt>
      <trkpt lat="46.45446" lon="6.11104">
        <ele>1201.3</ele>
        <time>2015-06-07T07:45:21Z</time>
      </trkpt>
      <trkpt lat="46.45446" lon="6.11107">
        <ele>1201.3</ele>
        <time>2015-06-07T07:45:26Z</time>
      </trkpt>
      <trkpt lat="46.45446" lon="6.11112">
        <ele>1201.3</ele>
        <time>2015-06-07T07:45:28Z</time>
      </trkpt>
      <trkpt lat="46.45445" lon="6.11124">
        <ele>1201.3</ele>
        <time>2015-06-07T07:45:33Z</time>
      </trkpt>
      <trkpt lat="46.45445" lon="6.11132">
        <ele>1201.3</ele>
        <time>2015-06-07T07:45:38Z</time>
      </trkpt>
      <trkpt lat="46.45445" lon="6.11133">
        <ele>1201.3</ele>
        <time>2015-06-07T07:45:39Z</time>
      </trkpt>
      <trkpt lat="46.45445" lon="6.11143">
        <ele>1201.3</ele>
        <time>2015-06-07T07:45:45Z</time>
      </trkpt>
      <trkpt lat="46.45445" lon="6.11148">
        <ele>1201.3</ele>
        <time>2015-06-07T07:45:49Z</time>
      </trkpt>
      <trkpt lat="46.45445" lon="6.11154">
        <ele>1201.3</ele>
        <time>2015-06-07T07:45:52Z</time>
      </trkpt>
      <trkpt lat="46.45447" lon="6.11166">
        <ele>1201.79</ele>
        <time>2015-06-07T07:46:00Z</time>
      </trkpt>
      <trkpt lat="46.45447" lon="6.11171">
        <ele>1201.79</ele>
        <time>2015-06-07T07:46:03Z</time>
      </trkpt>
      <trkpt lat="46.45447" lon="6.11174">
        <ele>1201.79</ele>
        <time>2015-06-07T07:46:05Z</time>
      </trkpt>
      <trkpt lat="46.45448" lon="6.11184">
        <ele>1202.27</ele>
        <time>2015-06-07T07:46:12Z</time>
      </trkpt>
      <trkpt lat="46.45448" lon="6.11192">
        <ele>1202.27</ele>
        <time>2015-06-07T07:46:16Z</time>
      </trkpt>
      <trkpt lat="46.45448" lon="6.11199">
        <ele>1202.27</ele>
        <time>2015-06-07T07:46:20Z</time>
      </trkpt>
      <trkpt lat="46.45448" lon="6.11211">
        <ele>1202.27</ele>
        <time>2015-06-07T07:46:28Z</time>
      </trkpt>
      <trkpt lat="46.45449" lon="6.11214">
        <ele>1202.27</ele>
        <time>2015-06-07T07:46:30Z</time>
      </trkpt>
      <trkpt lat="46.45449" lon="6.1122">
        <ele>1202.27</ele>
        <time>2015-06-07T07:46:34Z</time>
      </trkpt>
      <trkpt lat="46.45453" lon="6.11223">
        <ele>1202.27</ele>
        <time>2015-06-07T07:46:41Z</time>
      </trkpt>
      <trkpt lat="46.45454" lon="6.11221">
        <ele>1202.75</ele>
        <time>2015-06-07T07:46:48Z</time>
      </trkpt>
      <trkpt lat="46.45456" lon="6.11219">
        <ele>1203.23</ele>
        <time>2015-06-07T07:46:56Z</time>
      </trkpt>
      <trkpt lat="46.45456" lon="6.11219">
        <ele>1203.23</ele>
        <time>2015-06-07T07:47:03Z</time>
      </trkpt>
      <trkpt lat="46.45455" lon="6.1122">
        <ele>1203.23</ele>
        <time>2015-06-07T07:47:17Z</time>
      </trkpt>
      <trkpt lat="46.45455" lon="6.1122">
        <ele>1203.23</ele>
        <time>2015-06-07T07:47:24Z</time>
      </trkpt>
      <trkpt lat="46.45456" lon="6.11219">
        <ele>1203.71</ele>
        <time>2015-06-07T07:47:35Z</time>
      </trkpt>
      <trkpt lat="46.45456" lon="6.11219">
        <ele>1203.71</ele>
        <time>2015-06-07T07:47:41Z</time>
      </trkpt>
      <trkpt lat="46.45456" lon="6.11218">
        <ele>1203.23</ele>
        <time>2015-06-07T07:47:57Z</time>
      </trkpt>
      <trkpt lat="46.45456" lon="6.11218">
        <ele>1203.23</ele>
        <time>2015-06-07T07:47:58Z</time>
      </trkpt>
      <trkpt lat="46.45457" lon="6.11218">
        <ele>1203.23</ele>
        <time>2015-06-07T07:48:05Z</time>
      </trkpt>
      <trkpt lat="46.45457" lon="6.11218">
        <ele>1203.23</ele>
        <time>2015-06-07T07:48:10Z</time>
      </trkpt>
      <trkpt lat="46.45458" lon="6.11216">
        <ele>1203.23</ele>
        <time>2015-06-07T07:48:18Z</time>
      </trkpt>
      <trkpt lat="46.45457" lon="6.11215">
        <ele>1203.23</ele>
        <time>2015-06-07T07:48:24Z</time>
      </trkpt>
      <trkpt lat="46.45458" lon="6.11215">
        <ele>1203.23</ele>
        <time>2015-06-07T07:48:34Z</time>
      </trkpt>
      <trkpt lat="46.45458" lon="6.11214">
        <ele>1203.23</ele>
        <time>2015-06-07T07:48:42Z</time>
      </trkpt>
      <trkpt lat="46.45458" lon="6.11214">
        <ele>1203.23</ele>
        <time>2015-06-07T07:48:49Z</time>
      </trkpt>
      <trkpt lat="46.45459" lon="6.11213">
        <ele>1204.19</ele>
        <time>2015-06-07T07:48:54Z</time>
      </trkpt>
      <trkpt lat="46.45458" lon="6.11213">
        <ele>1204.19</ele>
        <time>2015-06-07T07:48:56Z</time>
      </trkpt>
      <trkpt lat="46.45457" lon="6.11212">
        <ele>1203.71</ele>
        <time>2015-06-07T07:49:02Z</time>
      </trkpt>
      <trkpt lat="46.45457" lon="6.1121">
        <ele>1204.67</ele>
        <time>2015-06-07T07:49:08Z</time>
      </trkpt>
      <trkpt lat="46.45458" lon="6.11209">
        <ele>1204.19</ele>
        <time>2015-06-07T07:49:14Z</time>
      </trkpt>
      <trkpt lat="46.45459" lon="6.11209">
        <ele>1204.19</ele>
        <time>2015-06-07T07:49:25Z</time>
      </trkpt>
      <trkpt lat="46.45459" lon="6.11209">
        <ele>1203.71</ele>
        <time>2015-06-07T07:49:31Z</time>
      </trkpt>
      <trkpt lat="46.45457" lon="6.11208">
        <ele>1204.19</ele>
        <time>2015-06-07T07:49:37Z</time>
      </trkpt>
      <trkpt lat="46.45457" lon="6.11208">
        <ele>1203.71</ele>
        <time>2015-06-07T07:49:42Z</time>
      </trkpt>
      <trkpt lat="46.45457" lon="6.11208">
        <ele>1203.71</ele>
        <time>2015-06-07T07:49:49Z</time>
      </trkpt>
      <trkpt lat="46.45456" lon="6.11209">
        <ele>1203.71</ele>
        <time>2015-06-07T07:49:56Z</time>
      </trkpt>
      <trkpt lat="46.45456" lon="6.1121">
        <ele>1204.19</ele>
        <time>2015-06-07T07:50:01Z</time>
      </trkpt>
      <trkpt lat="46.45458" lon="6.11207">
        <ele>1204.19</ele>
        <time>2015-06-07T07:50:09Z</time>
      </trkpt>
      <trkpt lat="46.45458" lon="6.11204">
        <ele>1204.67</ele>
        <time>2015-06-07T07:50:19Z</time>
      </trkpt>
      <trkpt lat="46.45458" lon="6.11203">
        <ele>1204.19</ele>
        <time>2015-06-07T07:50:30Z</time>
      </trkpt>
      <trkpt lat="46.45459" lon="6.11201">
        <ele>1204.19</ele>
        <time>2015-06-07T07:50:38Z</time>
      </trkpt>
      <trkpt lat="46.45462" lon="6.11195">
        <ele>1204.67</ele>
        <time>2015-06-07T07:50:42Z</time>
      </trkpt>
      <trkpt lat="46.45466" lon="6.11185">
        <ele>1205.15</ele>
        <time>2015-06-07T07:50:49Z</time>
      </trkpt>
      <trkpt lat="46.45468" lon="6.11177">
        <ele>1205.63</ele>
        <time>2015-06-07T07:50:54Z</time>
      </trkpt>
      <trkpt lat="46.45473" lon="6.11167">
        <ele>1206.11</ele>
        <time>2015-06-07T07:51:00Z</time>
      </trkpt>
      <trkpt lat="46.45476" lon="6.11162">
        <ele>1206.59</ele>
        <time>2015-06-07T07:51:03Z</time>
      </trkpt>
      <trkpt lat="46.45483" lon="6.11158">
        <ele>1207.07</ele>
        <time>2015-06-07T07:51:10Z</time>
      </trkpt>
      <trkpt lat="46.45486" lon="6.11156">
        <ele>1208.51</ele>
        <time>2015-06-07T07:51:18Z</time>
      </trkpt>
      <trkpt lat="46.45484" lon="6.11154">
        <ele>1207.55</ele>
        <time>2015-06-07T07:51:24Z</time>
      </trkpt>
      <trkpt lat="46.45484" lon="6.11151">
        <ele>1207.55</ele>
        <time>2015-06-07T07:51:26Z</time>
      </trkpt>
      <trkpt lat="46.45483" lon="6.11148">
        <ele>1207.55</ele>
        <time>2015-06-07T07:51:28Z</time>
      </trkpt>
      <trkpt lat="46.45484" lon="6.11137">
        <ele>1208.03</ele>
        <time>2015-06-07T07:51:36Z</time>
      </trkpt>
      <trkpt lat="46.45484" lon="6.11133">
        <ele>1208.51</ele>
        <time>2015-06-07T07:51:41Z</time>
      </trkpt>
      <trkpt lat="46.45483" lon="6.1113">
        <ele>1209</ele>
        <time>2015-06-07T07:51:43Z</time>
      </trkpt>
      <trkpt lat="46.45484" lon="6.11123">
        <ele>1209</ele>
        <time>2015-06-07T07:51:48Z</time>
      </trkpt>
      <trkpt lat="46.45485" lon="6.11116">
        <ele>1209.48</ele>
        <time>2015-06-07T07:51:52Z</time>
      </trkpt>
      <trkpt lat="46.45486" lon="6.11111">
        <ele>1209.96</ele>
        <time>2015-06-07T07:51:55Z</time>
      </trkpt>
      <trkpt lat="46.45487" lon="6.11108">
        <ele>1209.96</ele>
        <time>2015-06-07T07:51:57Z</time>
      </trkpt>
      <trkpt lat="46.45489" lon="6.11098">
        <ele>1210.44</ele>
        <time>2015-06-07T07:52:03Z</time>
      </trkpt>
      <trkpt lat="46.4549" lon="6.11096">
        <ele>1210.44</ele>
        <time>2015-06-07T07:52:04Z</time>
      </trkpt>
      <trkpt lat="46.4549" lon="6.11086">
        <ele>1210.92</ele>
        <time>2015-06-07T07:52:12Z</time>
      </trkpt>
      <trkpt lat="46.45491" lon="6.11078">
        <ele>1211.4</ele>
        <time>2015-06-07T07:52:17Z</time>
      </trkpt>
      <trkpt lat="46.45494" lon="6.11067">
        <ele>1211.88</ele>
        <time>2015-06-07T07:52:25Z</time>
      </trkpt>
      <trkpt lat="46.45497" lon="6.11059">
        <ele>1212.84</ele>
        <time>2015-06-07T07:52:32Z</time>
      </trkpt>
      <trkpt lat="46.45498" lon="6.11056">
        <ele>1212.84</ele>
        <time>2015-06-07T07:52:34Z</time>
      </trkpt>
      <trkpt lat="46.45504" lon="6.11046">
        <ele>1213.32</ele>
        <time>2015-06-07T07:52:43Z</time>
      </trkpt>
      <trkpt lat="46.45509" lon="6.11037">
        <ele>1213.8</ele>
        <time>2015-06-07T07:52:50Z</time>
      </trkpt>
      <trkpt lat="46.45515" lon="6.11031">
        <ele>1213.32</ele>
        <time>2015-06-07T07:52:57Z</time>
      </trkpt>
      <trkpt lat="46.45519" lon="6.11029">
        <ele>1214.76</ele>
        <time>2015-06-07T07:53:00Z</time>
      </trkpt>
      <trkpt lat="46.45523" lon="6.11027">
        <ele>1214.76</ele>
        <time>2015-06-07T07:53:09Z</time>
      </trkpt>
      <trkpt lat="46.45523" lon="6.11025">
        <ele>1215.24</ele>
        <time>2015-06-07T07:53:14Z</time>
      </trkpt>
      <trkpt lat="46.45525" lon="6.11022">
        <ele>1215.24</ele>
        <time>2015-06-07T07:53:21Z</time>
      </trkpt>
      <trkpt lat="46.45526" lon="6.11021">
        <ele>1215.72</ele>
        <time>2015-06-07T07:53:22Z</time>
      </trkpt>
      <trkpt lat="46.45528" lon="6.11019">
        <ele>1215.72</ele>
        <time>2015-06-07T07:53:24Z</time>
      </trkpt>
      <trkpt lat="46.45535" lon="6.11011">
        <ele>1216.69</ele>
        <time>2015-06-07T07:53:32Z</time>
      </trkpt>
      <trkpt lat="46.45541" lon="6.11004">
        <ele>1217.17</ele>
        <time>2015-06-07T07:53:38Z</time>
      </trkpt>
      <trkpt lat="46.45544" lon="6.11002">
        <ele>1217.17</ele>
        <time>2015-06-07T07:53:46Z</time>
      </trkpt>
      <trkpt lat="46.45544" lon="6.11002">
        <ele>1217.17</ele>
        <time>2015-06-07T07:53:49Z</time>
      </trkpt>
      <trkpt lat="46.45548" lon="6.10998">
        <ele>1217.65</ele>
        <time>2015-06-07T07:53:54Z</time>
      </trkpt>
      <trkpt lat="46.45552" lon="6.10995">
        <ele>1218.13</ele>
        <time>2015-06-07T07:54:01Z</time>
      </trkpt>
      <trkpt lat="46.45552" lon="6.10994">
        <ele>1218.13</ele>
        <time>2015-06-07T07:54:13Z</time>
      </trkpt>
      <trkpt lat="46.45554" lon="6.10994">
        <ele>1218.13</ele>
        <time>2015-06-07T07:54:22Z</time>
      </trkpt>
      <trkpt lat="46.45562" lon="6.10992">
        <ele>1219.09</ele>
        <time>2015-06-07T07:54:31Z</time>
      </trkpt>
      <trkpt lat="46.45572" lon="6.10984">
        <ele>1220.53</ele>
        <time>2015-06-07T07:54:39Z</time>
      </trkpt>
      <trkpt lat="46.45574" lon="6.10983">
        <ele>1220.53</ele>
        <time>2015-06-07T07:54:41Z</time>
      </trkpt>
      <trkpt lat="46.45578" lon="6.1098">
        <ele>1221.01</ele>
        <time>2015-06-07T07:54:44Z</time>
      </trkpt>
      <trkpt lat="46.45587" lon="6.10974">
        <ele>1221.49</ele>
        <time>2015-06-07T07:54:51Z</time>
      </trkpt>
      <trkpt lat="46.45596" lon="6.1097">
        <ele>1221.97</ele>
        <time>2015-06-07T07:54:59Z</time>
      </trkpt>
      <trkpt lat="46.45604" lon="6.1097">
        <ele>1223.42</ele>
        <time>2015-06-07T07:55:06Z</time>
      </trkpt>
      <trkpt lat="46.45606" lon="6.1097">
        <ele>1222.93</ele>
        <time>2015-06-07T07:55:12Z</time>
      </trkpt>
      <trkpt lat="46.45613" lon="6.10969">
        <ele>1223.9</ele>
        <time>2015-06-07T07:55:18Z</time>
      </trkpt>
      <trkpt lat="46.45623" lon="6.1097">
        <ele>1224.86</ele>
        <time>2015-06-07T07:55:26Z</time>
      </trkpt>
      <trkpt lat="46.45624" lon="6.1097">
        <ele>1224.86</ele>
        <time>2015-06-07T07:55:27Z</time>
      </trkpt>
      <trkpt lat="46.4563" lon="6.1097">
        <ele>1225.34</ele>
        <time>2015-06-07T07:55:32Z</time>
      </trkpt>
      <trkpt lat="46.45638" lon="6.10972">
        <ele>1225.82</ele>
        <time>2015-06-07T07:55:39Z</time>
      </trkpt>
      <trkpt lat="46.45645" lon="6.10974">
        <ele>1227.26</ele>
        <time>2015-06-07T07:55:45Z</time>
      </trkpt>
      <trkpt lat="46.45651" lon="6.10976">
        <ele>1227.74</ele>
        <time>2015-06-07T07:55:51Z</time>
      </trkpt>
      <trkpt lat="46.45657" lon="6.10979">
        <ele>1228.22</ele>
        <time>2015-06-07T07:55:56Z</time>
      </trkpt>
      <trkpt lat="46.45665" lon="6.10983">
        <ele>1229.18</ele>
        <time>2015-06-07T07:56:02Z</time>
      </trkpt>
      <trkpt lat="46.45666" lon="6.10984">
        <ele>1229.66</ele>
        <time>2015-06-07T07:56:04Z</time>
      </trkpt>
      <trkpt lat="46.45675" lon="6.10987">
        <ele>1231.11</ele>
        <time>2015-06-07T07:56:11Z</time>
      </trkpt>
      <trkpt lat="46.45682" lon="6.10989">
        <ele>1232.07</ele>
        <time>2015-06-07T07:56:17Z</time>
      </trkpt>
      <trkpt lat="46.4569" lon="6.10992">
        <ele>1233.03</ele>
        <time>2015-06-07T07:56:23Z</time>
      </trkpt>
      <trkpt lat="46.45698" lon="6.10994">
        <ele>1233.51</ele>
        <time>2015-06-07T07:56:29Z</time>
      </trkpt>
      <trkpt lat="46.45706" lon="6.10997">
        <ele>1233.99</ele>
        <time>2015-06-07T07:56:36Z</time>
      </trkpt>
      <trkpt lat="46.45711" lon="6.10999">
        <ele>1234.47</ele>
        <time>2015-06-07T07:56:42Z</time>
      </trkpt>
      <trkpt lat="46.45712" lon="6.11">
        <ele>1234.95</ele>
        <time>2015-06-07T07:56:43Z</time>
      </trkpt>
      <trkpt lat="46.45714" lon="6.11001">
        <ele>1234.95</ele>
        <time>2015-06-07T07:56:45Z</time>
      </trkpt>
      <trkpt lat="46.45725" lon="6.11006">
        <ele>1235.91</ele>
        <time>2015-06-07T07:56:53Z</time>
      </trkpt>
      <trkpt lat="46.45734" lon="6.1101">
        <ele>1237.35</ele>
        <time>2015-06-07T07:57:01Z</time>
      </trkpt>
      <trkpt lat="46.45737" lon="6.11012">
        <ele>1237.83</ele>
        <time>2015-06-07T07:57:04Z</time>
      </trkpt>
      <trkpt lat="46.45744" lon="6.11019">
        <ele>1238.8</ele>
        <time>2015-06-07T07:57:11Z</time>
      </trkpt>
      <trkpt lat="46.45749" lon="6.11026">
        <ele>1239.76</ele>
        <time>2015-06-07T07:57:17Z</time>
      </trkpt>
      <trkpt lat="46.45751" lon="6.11027">
        <ele>1240.72</ele>
        <time>2015-06-07T07:57:19Z</time>
      </trkpt>
      <trkpt lat="46.45755" lon="6.11031">
        <ele>1240.24</ele>
        <time>2015-06-07T07:57:23Z</time>
      </trkpt>
      <trkpt lat="46.45761" lon="6.1104">
        <ele>1241.2</ele>
        <time>2015-06-07T07:57:30Z</time>
      </trkpt>
      <trkpt lat="46.45766" lon="6.11048">
        <ele>1242.16</ele>
        <time>2015-06-07T07:57:36Z</time>
      </trkpt>
      <trkpt lat="46.45768" lon="6.11052">
        <ele>1242.16</ele>
        <time>2015-06-07T07:57:39Z</time>
      </trkpt>
      <trkpt lat="46.45774" lon="6.11063">
        <ele>1243.6</ele>
        <time>2015-06-07T07:57:47Z</time>
      </trkpt>
      <trkpt lat="46.45781" lon="6.11069">
        <ele>1244.08</ele>
        <time>2015-06-07T07:57:53Z</time>
      </trkpt>
      <trkpt lat="46.45784" lon="6.11072">
        <ele>1244.56</ele>
        <time>2015-06-07T07:57:56Z</time>
      </trkpt>
      <trkpt lat="46.45789" lon="6.11081">
        <ele>1245.04</ele>
        <time>2015-06-07T07:58:04Z</time>
      </trkpt>
      <trkpt lat="46.45794" lon="6.11093">
        <ele>1246.01</ele>
        <time>2015-06-07T07:58:12Z</time>
      </trkpt>
      <trkpt lat="46.458" lon="6.111">
        <ele>1246.49</ele>
        <time>2015-06-07T07:58:18Z</time>
      </trkpt>
      <trkpt lat="46.45807" lon="6.11109">
        <ele>1246.97</ele>
        <time>2015-06-07T07:58:26Z</time>
      </trkpt>
      <trkpt lat="46.45812" lon="6.11116">
        <ele>1247.93</ele>
        <time>2015-06-07T07:58:33Z</time>
      </trkpt>
      <trkpt lat="46.45818" lon="6.11123">
        <ele>1248.41</ele>
        <time>2015-06-07T07:58:39Z</time>
      </trkpt>
      <trkpt lat="46.45822" lon="6.1113">
        <ele>1248.89</ele>
        <time>2015-06-07T07:58:45Z</time>
      </trkpt>
      <trkpt lat="46.45824" lon="6.11132">
        <ele>1249.37</ele>
        <time>2015-06-07T07:58:47Z</time>
      </trkpt>
      <trkpt lat="46.45832" lon="6.11137">
        <ele>1249.37</ele>
        <time>2015-06-07T07:58:54Z</time>
      </trkpt>
      <trkpt lat="46.45836" lon="6.11139">
        <ele>1250.33</ele>
        <time>2015-06-07T07:58:59Z</time>
      </trkpt>
      <trkpt lat="46.4584" lon="6.11141">
        <ele>1250.81</ele>
        <time>2015-06-07T07:59:03Z</time>
      </trkpt>
      <trkpt lat="46.45851" lon="6.11152">
        <ele>1251.29</ele>
        <time>2015-06-07T07:59:12Z</time>
      </trkpt>
      <trkpt lat="46.4586" lon="6.11161">
        <ele>1252.25</ele>
        <time>2015-06-07T07:59:21Z</time>
      </trkpt>
      <trkpt lat="46.45868" lon="6.11167">
        <ele>1252.74</ele>
        <time>2015-06-07T07:59:29Z</time>
      </trkpt>
      <trkpt lat="46.45873" lon="6.11177">
        <ele>1253.22</ele>
        <time>2015-06-07T07:59:37Z</time>
      </trkpt>
      <trkpt lat="46.45875" lon="6.1118">
        <ele>1253.22</ele>
        <time>2015-06-07T07:59:40Z</time>
      </trkpt>
      <trkpt lat="46.45882" lon="6.11184">
        <ele>1253.7</ele>
        <time>2015-06-07T07:59:48Z</time>
      </trkpt>
      <trkpt lat="46.45885" lon="6.11183">
        <ele>1253.7</ele>
        <time>2015-06-07T07:59:55Z</time>
      </trkpt>
      <trkpt lat="46.45892" lon="6.11192">
        <ele>1254.18</ele>
        <time>2015-06-07T08:00:02Z</time>
      </trkpt>
      <trkpt lat="46.45898" lon="6.11197">
        <ele>1254.18</ele>
        <time>2015-06-07T08:00:08Z</time>
      </trkpt>
      <trkpt lat="46.45898" lon="6.11197">
        <ele>1254.18</ele>
        <time>2015-06-07T08:00:09Z</time>
      </trkpt>
      <trkpt lat="46.45907" lon="6.11204">
        <ele>1255.14</ele>
        <time>2015-06-07T08:00:17Z</time>
      </trkpt>
      <trkpt lat="46.45916" lon="6.11209">
        <ele>1255.62</ele>
        <time>2015-06-07T08:00:24Z</time>
      </trkpt>
      <trkpt lat="46.45925" lon="6.11215">
        <ele>1256.1</ele>
        <time>2015-06-07T08:00:31Z</time>
      </trkpt>
      <trkpt lat="46.45933" lon="6.1122">
        <ele>1256.58</ele>
        <time>2015-06-07T08:00:39Z</time>
      </trkpt>
      <trkpt lat="46.45937" lon="6.11223">
        <ele>1256.58</ele>
        <time>2015-06-07T08:00:42Z</time>
      </trkpt>
      <trkpt lat="46.45947" lon="6.11227">
        <ele>1256.58</ele>
        <time>2015-06-07T08:00:50Z</time>
      </trkpt>
      <trkpt lat="46.45951" lon="6.11231">
        <ele>1256.58</ele>
        <time>2015-06-07T08:00:53Z</time>
      </trkpt>
      <trkpt lat="46.45958" lon="6.11236">
        <ele>1257.06</ele>
        <time>2015-06-07T08:00:59Z</time>
      </trkpt>
      <trkpt lat="46.45966" lon="6.11239">
        <ele>1257.06</ele>
        <time>2015-06-07T08:01:06Z</time>
      </trkpt>
      <trkpt lat="46.45976" lon="6.11244">
        <ele>1258.02</ele>
        <time>2015-06-07T08:01:13Z</time>
      </trkpt>
      <trkpt lat="46.45982" lon="6.11248">
        <ele>1259.46</ele>
        <time>2015-06-07T08:01:19Z</time>
      </trkpt>
      <trkpt lat="46.45989" lon="6.11253">
        <ele>1258.98</ele>
        <time>2015-06-07T08:01:25Z</time>
      </trkpt>
      <trkpt lat="46.45999" lon="6.11257">
        <ele>1258.98</ele>
        <time>2015-06-07T08:01:33Z</time>
      </trkpt>
      <trkpt lat="46.46007" lon="6.11262">
        <ele>1259.94</ele>
        <time>2015-06-07T08:01:40Z</time>
      </trkpt>
      <trkpt lat="46.46014" lon="6.11266">
        <ele>1260.43</ele>
        <time>2015-06-07T08:01:47Z</time>
      </trkpt>
      <trkpt lat="46.4602" lon="6.11269">
        <ele>1260.91</ele>
        <time>2015-06-07T08:01:52Z</time>
      </trkpt>
      <trkpt lat="46.46027" lon="6.11276">
        <ele>1261.87</ele>
        <time>2015-06-07T08:01:59Z</time>
      </trkpt>
      <trkpt lat="46.46035" lon="6.1128">
        <ele>1262.35</ele>
        <time>2015-06-07T08:02:06Z</time>
      </trkpt>
      <trkpt lat="46.46041" lon="6.11283">
        <ele>1262.83</ele>
        <time>2015-06-07T08:02:12Z</time>
      </trkpt>
      <trkpt lat="46.46052" lon="6.11289">
        <ele>1263.79</ele>
        <time>2015-06-07T08:02:22Z</time>
      </trkpt>
      <trkpt lat="46.46053" lon="6.1129">
        <ele>1263.79</ele>
        <time>2015-06-07T08:02:23Z</time>
      </trkpt>
      <trkpt lat="46.46064" lon="6.11296">
        <ele>1264.75</ele>
        <time>2015-06-07T08:02:33Z</time>
      </trkpt>
      <trkpt lat="46.46065" lon="6.11297">
        <ele>1264.75</ele>
        <time>2015-06-07T08:02:34Z</time>
      </trkpt>
      <trkpt lat="46.46074" lon="6.11301">
        <ele>1265.71</ele>
        <time>2015-06-07T08:02:42Z</time>
      </trkpt>
      <trkpt lat="46.46081" lon="6.11305">
        <ele>1266.19</ele>
        <time>2015-06-07T08:02:50Z</time>
      </trkpt>
      <trkpt lat="46.46088" lon="6.11309">
        <ele>1267.16</ele>
        <time>2015-06-07T08:02:57Z</time>
      </trkpt>
      <trkpt lat="46.46095" lon="6.11313">
        <ele>1267.64</ele>
        <time>2015-06-07T08:03:04Z</time>
      </trkpt>
      <trkpt lat="46.46102" lon="6.11316">
        <ele>1267.64</ele>
        <time>2015-06-07T08:03:11Z</time>
      </trkpt>
      <trkpt lat="46.46112" lon="6.11322">
        <ele>1269.56</ele>
        <time>2015-06-07T08:03:20Z</time>
      </trkpt>
      <trkpt lat="46.4612" lon="6.11326">
        <ele>1269.08</ele>
        <time>2015-06-07T08:03:28Z</time>
      </trkpt>
      <trkpt lat="46.4613" lon="6.11332">
        <ele>1269.56</ele>
        <time>2015-06-07T08:03:37Z</time>
      </trkpt>
      <trkpt lat="46.46139" lon="6.11338">
        <ele>1270.04</ele>
        <time>2015-06-07T08:03:44Z</time>
      </trkpt>
      <trkpt lat="46.46148" lon="6.11343">
        <ele>1270.04</ele>
        <time>2015-06-07T08:03:53Z</time>
      </trkpt>
      <trkpt lat="46.46151" lon="6.11344">
        <ele>1270.04</ele>
        <time>2015-06-07T08:03:56Z</time>
      </trkpt>
      <trkpt lat="46.4616" lon="6.11351">
        <ele>1270.04</ele>
        <time>2015-06-07T08:04:04Z</time>
      </trkpt>
      <trkpt lat="46.46166" lon="6.11355">
        <ele>1270.04</ele>
        <time>2015-06-07T08:04:10Z</time>
      </trkpt>
      <trkpt lat="46.4617" lon="6.11356">
        <ele>1270.04</ele>
        <time>2015-06-07T08:04:13Z</time>
      </trkpt>
      <trkpt lat="46.46176" lon="6.11361">
        <ele>1270.04</ele>
        <time>2015-06-07T08:04:19Z</time>
      </trkpt>
      <trkpt lat="46.4618" lon="6.11362">
        <ele>1270.04</ele>
        <time>2015-06-07T08:04:22Z</time>
      </trkpt>
      <trkpt lat="46.46182" lon="6.11364">
        <ele>1269.56</ele>
        <time>2015-06-07T08:04:24Z</time>
      </trkpt>
      <trkpt lat="46.46184" lon="6.11364">
        <ele>1269.56</ele>
        <time>2015-06-07T08:04:26Z</time>
      </trkpt>
      <trkpt lat="46.46188" lon="6.11368">
        <ele>1269.08</ele>
        <time>2015-06-07T08:04:31Z</time>
      </trkpt>
      <trkpt lat="46.46193" lon="6.1137">
        <ele>1269.08</ele>
        <time>2015-06-07T08:04:35Z</time>
      </trkpt>
      <trkpt lat="46.462" lon="6.11379">
        <ele>1269.08</ele>
        <time>2015-06-07T08:04:43Z</time>
      </trkpt>
      <trkpt lat="46.46206" lon="6.11385">
        <ele>1269.08</ele>
        <time>2015-06-07T08:04:49Z</time>
      </trkpt>
      <trkpt lat="46.46212" lon="6.11391">
        <ele>1269.08</ele>
        <time>2015-06-07T08:04:55Z</time>
      </trkpt>
      <trkpt lat="46.46214" lon="6.11392">
        <ele>1269.08</ele>
        <time>2015-06-07T08:04:57Z</time>
      </trkpt>
      <trkpt lat="46.46221" lon="6.11399">
        <ele>1269.56</ele>
        <time>2015-06-07T08:05:04Z</time>
      </trkpt>
      <trkpt lat="46.46228" lon="6.11402">
        <ele>1269.56</ele>
        <time>2015-06-07T08:05:10Z</time>
      </trkpt>
      <trkpt lat="46.46234" lon="6.11407">
        <ele>1270.04</ele>
        <time>2015-06-07T08:05:16Z</time>
      </trkpt>
      <trkpt lat="46.4624" lon="6.11413">
        <ele>1270.52</ele>
        <time>2015-06-07T08:05:22Z</time>
      </trkpt>
      <trkpt lat="46.46245" lon="6.1142">
        <ele>1271.48</ele>
        <time>2015-06-07T08:05:28Z</time>
      </trkpt>
      <trkpt lat="46.4625" lon="6.11425">
        <ele>1271</ele>
        <time>2015-06-07T08:05:33Z</time>
      </trkpt>
      <trkpt lat="46.46255" lon="6.11437">
        <ele>1271.96</ele>
        <time>2015-06-07T08:05:41Z</time>
      </trkpt>
      <trkpt lat="46.46261" lon="6.11446">
        <ele>1272.44</ele>
        <time>2015-06-07T08:05:47Z</time>
      </trkpt>
      <trkpt lat="46.46265" lon="6.11457">
        <ele>1272.92</ele>
        <time>2015-06-07T08:05:54Z</time>
      </trkpt>
      <trkpt lat="46.46268" lon="6.11462">
        <ele>1272.92</ele>
        <time>2015-06-07T08:05:58Z</time>
      </trkpt>
      <trkpt lat="46.4627" lon="6.11465">
        <ele>1273.4</ele>
        <time>2015-06-07T08:06:01Z</time>
      </trkpt>
      <trkpt lat="46.46272" lon="6.11468">
        <ele>1273.4</ele>
        <time>2015-06-07T08:06:04Z</time>
      </trkpt>
      <trkpt lat="46.46279" lon="6.11479">
        <ele>1274.36</ele>
        <time>2015-06-07T08:06:12Z</time>
      </trkpt>
      <trkpt lat="46.46285" lon="6.11487">
        <ele>1274.85</ele>
        <time>2015-06-07T08:06:18Z</time>
      </trkpt>
      <trkpt lat="46.46288" lon="6.11497">
        <ele>1275.33</ele>
        <time>2015-06-07T08:06:25Z</time>
      </trkpt>
      <trkpt lat="46.4629" lon="6.11505">
        <ele>1275.81</ele>
        <time>2015-06-07T08:06:30Z</time>
      </trkpt>
      <trkpt lat="46.46295" lon="6.11515">
        <ele>1275.81</ele>
        <time>2015-06-07T08:06:37Z</time>
      </trkpt>
      <trkpt lat="46.46298" lon="6.1152">
        <ele>1276.29</ele>
        <time>2015-06-07T08:06:41Z</time>
      </trkpt>
      <trkpt lat="46.46301" lon="6.11525">
        <ele>1276.77</ele>
        <time>2015-06-07T08:06:45Z</time>
      </trkpt>
      <trkpt lat="46.46308" lon="6.11533">
        <ele>1277.25</ele>
        <time>2015-06-07T08:06:54Z</time>
      </trkpt>
      <trkpt lat="46.46312" lon="6.11541">
        <ele>1277.73</ele>
        <time>2015-06-07T08:07:00Z</time>
      </trkpt>
      <trkpt lat="46.46313" lon="6.11542">
        <ele>1277.73</ele>
        <time>2015-06-07T08:07:01Z</time>
      </trkpt>
      <trkpt lat="46.46317" lon="6.1155">
        <ele>1278.69</ele>
        <time>2015-06-07T08:07:07Z</time>
      </trkpt>
      <trkpt lat="46.46322" lon="6.11559">
        <ele>1278.69</ele>
        <time>2015-06-07T08:07:14Z</time>
      </trkpt>
      <trkpt lat="46.46328" lon="6.11569">
        <ele>1279.65</ele>
        <time>2015-06-07T08:07:23Z</time>
      </trkpt>
      <trkpt lat="46.46334" lon="6.11579">
        <ele>1279.65</ele>
        <time>2015-06-07T08:07:31Z</time>
      </trkpt>
      <trkpt lat="46.46335" lon="6.11582">
        <ele>1279.65</ele>
        <time>2015-06-07T08:07:33Z</time>
      </trkpt>
      <trkpt lat="46.4634" lon="6.11596">
        <ele>1279.65</ele>
        <time>2015-06-07T08:07:42Z</time>
      </trkpt>
      <trkpt lat="46.46345" lon="6.11605">
        <ele>1280.13</ele>
        <time>2015-06-07T08:07:49Z</time>
      </trkpt>
      <trkpt lat="46.4635" lon="6.11614">
        <ele>1280.61</ele>
        <time>2015-06-07T08:07:55Z</time>
      </trkpt>
      <trkpt lat="46.46355" lon="6.11627">
        <ele>1281.09</ele>
        <time>2015-06-07T08:08:03Z</time>
      </trkpt>
      <trkpt lat="46.46357" lon="6.11629">
        <ele>1281.09</ele>
        <time>2015-06-07T08:08:05Z</time>
      </trkpt>
      <trkpt lat="46.46362" lon="6.11639">
        <ele>1281.57</ele>
        <time>2015-06-07T08:08:13Z</time>
      </trkpt>
      <trkpt lat="46.46367" lon="6.11645">
        <ele>1283.02</ele>
        <time>2015-06-07T08:08:19Z</time>
      </trkpt>
      <trkpt lat="46.46369" lon="6.11649">
        <ele>1283.02</ele>
        <time>2015-06-07T08:08:22Z</time>
      </trkpt>
      <trkpt lat="46.46371" lon="6.11652">
        <ele>1283.5</ele>
        <time>2015-06-07T08:08:24Z</time>
      </trkpt>
      <trkpt lat="46.46376" lon="6.11663">
        <ele>1283.5</ele>
        <time>2015-06-07T08:08:31Z</time>
      </trkpt>
      <trkpt lat="46.46381" lon="6.11672">
        <ele>1283.5</ele>
        <time>2015-06-07T08:08:37Z</time>
      </trkpt>
      <trkpt lat="46.46382" lon="6.11674">
        <ele>1283.5</ele>
        <time>2015-06-07T08:08:38Z</time>
      </trkpt>
      <trkpt lat="46.46386" lon="6.11677">
        <ele>1283.5</ele>
        <time>2015-06-07T08:08:42Z</time>
      </trkpt>
      <trkpt lat="46.46393" lon="6.11679">
        <ele>1283.98</ele>
        <time>2015-06-07T08:08:49Z</time>
      </trkpt>
      <trkpt lat="46.46399" lon="6.11679">
        <ele>1284.94</ele>
        <time>2015-06-07T08:08:55Z</time>
      </trkpt>
      <trkpt lat="46.46403" lon="6.1168">
        <ele>1285.42</ele>
        <time>2015-06-07T08:09:01Z</time>
      </trkpt>
      <trkpt lat="46.46408" lon="6.11681">
        <ele>1286.38</ele>
        <time>2015-06-07T08:09:08Z</time>
      </trkpt>
      <trkpt lat="46.46412" lon="6.11683">
        <ele>1286.86</ele>
        <time>2015-06-07T08:09:17Z</time>
      </trkpt>
      <trkpt lat="46.46414" lon="6.11684">
        <ele>1288.3</ele>
        <time>2015-06-07T08:09:25Z</time>
      </trkpt>
      <trkpt lat="46.46418" lon="6.11682">
        <ele>1289.75</ele>
        <time>2015-06-07T08:09:34Z</time>
      </trkpt>
      <trkpt lat="46.4642" lon="6.11682">
        <ele>1291.19</ele>
        <time>2015-06-07T08:09:41Z</time>
      </trkpt>
      <trkpt lat="46.46424" lon="6.11682">
        <ele>1292.15</ele>
        <time>2015-06-07T08:09:48Z</time>
      </trkpt>
      <trkpt lat="46.46427" lon="6.11683">
        <ele>1293.59</ele>
        <time>2015-06-07T08:09:54Z</time>
      </trkpt>
      <trkpt lat="46.46435" lon="6.11682">
        <ele>1295.03</ele>
        <time>2015-06-07T08:10:02Z</time>
      </trkpt>
      <trkpt lat="46.46437" lon="6.11686">
        <ele>1295.99</ele>
        <time>2015-06-07T08:10:09Z</time>
      </trkpt>
      <trkpt lat="46.46439" lon="6.1169">
        <ele>1297.44</ele>
        <time>2015-06-07T08:10:15Z</time>
      </trkpt>
      <trkpt lat="46.46445" lon="6.11694">
        <ele>1298.4</ele>
        <time>2015-06-07T08:10:23Z</time>
      </trkpt>
      <trkpt lat="46.46447" lon="6.11696">
        <ele>1299.36</ele>
        <time>2015-06-07T08:10:27Z</time>
      </trkpt>
      <trkpt lat="46.46452" lon="6.11699">
        <ele>1299.36</ele>
        <time>2015-06-07T08:10:35Z</time>
      </trkpt>
      <trkpt lat="46.46455" lon="6.11698">
        <ele>1299.36</ele>
        <time>2015-06-07T08:10:44Z</time>
      </trkpt>
      <trkpt lat="46.46456" lon="6.11698">
        <ele>1299.36</ele>
        <time>2015-06-07T08:10:58Z</time>
      </trkpt>
      <trkpt lat="46.46457" lon="6.117">
        <ele>1299.84</ele>
        <time>2015-06-07T08:11:05Z</time>
      </trkpt>
      <trkpt lat="46.46458" lon="6.117">
        <ele>1299.36</ele>
        <time>2015-06-07T08:11:16Z</time>
      </trkpt>
      <trkpt lat="46.46458" lon="6.11702">
        <ele>1299.84</ele>
        <time>2015-06-07T08:11:25Z</time>
      </trkpt>
      <trkpt lat="46.46458" lon="6.11703">
        <ele>1299.84</ele>
        <time>2015-06-07T08:11:42Z</time>
      </trkpt>
      <trkpt lat="46.46458" lon="6.11704">
        <ele>1299.84</ele>
        <time>2015-06-07T08:11:55Z</time>
      </trkpt>
      <trkpt lat="46.46459" lon="6.11704">
        <ele>1300.32</ele>
        <time>2015-06-07T08:12:08Z</time>
      </trkpt>
      <trkpt lat="46.46458" lon="6.11704">
        <ele>1300.32</ele>
        <time>2015-06-07T08:12:19Z</time>
      </trkpt>
      <trkpt lat="46.46458" lon="6.11706">
        <ele>1300.32</ele>
        <time>2015-06-07T08:12:33Z</time>
      </trkpt>
      <trkpt lat="46.46458" lon="6.11706">
        <ele>1302.24</ele>
        <time>2015-06-07T08:12:46Z</time>
      </trkpt>
      <trkpt lat="46.46458" lon="6.11706">
        <ele>1300.32</ele>
        <time>2015-06-07T08:12:56Z</time>
      </trkpt>
      <trkpt lat="46.4646" lon="6.11709">
        <ele>1300.32</ele>
        <time>2015-06-07T08:13:04Z</time>
      </trkpt>
      <trkpt lat="46.46465" lon="6.11716">
        <ele>1300.8</ele>
        <time>2015-06-07T08:13:13Z</time>
      </trkpt>
      <trkpt lat="46.4647" lon="6.11725">
        <ele>1301.76</ele>
        <time>2015-06-07T08:13:20Z</time>
      </trkpt>
      <trkpt lat="46.46473" lon="6.11733">
        <ele>1301.76</ele>
        <time>2015-06-07T08:13:27Z</time>
      </trkpt>
      <trkpt lat="46.46477" lon="6.11745">
        <ele>1302.24</ele>
        <time>2015-06-07T08:13:34Z</time>
      </trkpt>
      <trkpt lat="46.46478" lon="6.11756">
        <ele>1303.2</ele>
        <time>2015-06-07T08:13:41Z</time>
      </trkpt>
      <trkpt lat="46.46481" lon="6.11765">
        <ele>1303.69</ele>
        <time>2015-06-07T08:13:49Z</time>
      </trkpt>
      <trkpt lat="46.46484" lon="6.1178">
        <ele>1304.17</ele>
        <time>2015-06-07T08:13:57Z</time>
      </trkpt>
      <trkpt lat="46.4649" lon="6.11785">
        <ele>1304.65</ele>
        <time>2015-06-07T08:14:04Z</time>
      </trkpt>
      <trkpt lat="46.4649" lon="6.11798">
        <ele>1305.13</ele>
        <time>2015-06-07T08:14:11Z</time>
      </trkpt>
      <trkpt lat="46.46491" lon="6.11809">
        <ele>1305.61</ele>
        <time>2015-06-07T08:14:19Z</time>
      </trkpt>
      <trkpt lat="46.46488" lon="6.11824">
        <ele>1306.57</ele>
        <time>2015-06-07T08:14:28Z</time>
      </trkpt>
      <trkpt lat="46.46488" lon="6.11836">
        <ele>1307.05</ele>
        <time>2015-06-07T08:14:35Z</time>
      </trkpt>
      <trkpt lat="46.46488" lon="6.11852">
        <ele>1308.01</ele>
        <time>2015-06-07T08:14:43Z</time>
      </trkpt>
      <trkpt lat="46.46489" lon="6.11865">
        <ele>1308.97</ele>
        <time>2015-06-07T08:14:52Z</time>
      </trkpt>
      <trkpt lat="46.4649" lon="6.11875">
        <ele>1309.93</ele>
        <time>2015-06-07T08:14:59Z</time>
      </trkpt>
      <trkpt lat="46.4649" lon="6.11887">
        <ele>1310.9</ele>
        <time>2015-06-07T08:15:07Z</time>
      </trkpt>
      <trkpt lat="46.46491" lon="6.11896">
        <ele>1311.38</ele>
        <time>2015-06-07T08:15:13Z</time>
      </trkpt>
      <trkpt lat="46.46494" lon="6.11904">
        <ele>1311.86</ele>
        <time>2015-06-07T08:15:20Z</time>
      </trkpt>
      <trkpt lat="46.46495" lon="6.11916">
        <ele>1312.82</ele>
        <time>2015-06-07T08:15:28Z</time>
      </trkpt>
      <trkpt lat="46.46495" lon="6.1193">
        <ele>1313.78</ele>
        <time>2015-06-07T08:15:37Z</time>
      </trkpt>
      <trkpt lat="46.46498" lon="6.1194">
        <ele>1314.26</ele>
        <time>2015-06-07T08:15:44Z</time>
      </trkpt>
      <trkpt lat="46.46498" lon="6.11953">
        <ele>1315.22</ele>
        <time>2015-06-07T08:15:52Z</time>
      </trkpt>
      <trkpt lat="46.46498" lon="6.11962">
        <ele>1316.18</ele>
        <time>2015-06-07T08:15:59Z</time>
      </trkpt>
      <trkpt lat="46.465" lon="6.11969">
        <ele>1317.14</ele>
        <time>2015-06-07T08:16:06Z</time>
      </trkpt>
      <trkpt lat="46.465" lon="6.11986">
        <ele>1317.62</ele>
        <time>2015-06-07T08:16:13Z</time>
      </trkpt>
      <trkpt lat="46.46499" lon="6.11996">
        <ele>1318.59</ele>
        <time>2015-06-07T08:16:21Z</time>
      </trkpt>
      <trkpt lat="46.46497" lon="6.1201">
        <ele>1319.55</ele>
        <time>2015-06-07T08:16:29Z</time>
      </trkpt>
      <trkpt lat="46.46495" lon="6.12021">
        <ele>1320.51</ele>
        <time>2015-06-07T08:16:37Z</time>
      </trkpt>
      <trkpt lat="46.46491" lon="6.12036">
        <ele>1320.99</ele>
        <time>2015-06-07T08:16:45Z</time>
      </trkpt>
      <trkpt lat="46.4649" lon="6.12049">
        <ele>1321.95</ele>
        <time>2015-06-07T08:16:53Z</time>
      </trkpt>
      <trkpt lat="46.46489" lon="6.12052">
        <ele>1321.95</ele>
        <time>2015-06-07T08:16:55Z</time>
      </trkpt>
      <trkpt lat="46.46491" lon="6.12061">
        <ele>1322.43</ele>
        <time>2015-06-07T08:17:00Z</time>
      </trkpt>
      <trkpt lat="46.46494" lon="6.12077">
        <ele>1322.91</ele>
        <time>2015-06-07T08:17:08Z</time>
      </trkpt>
      <trkpt lat="46.46499" lon="6.12086">
        <ele>1323.87</ele>
        <time>2015-06-07T08:17:16Z</time>
      </trkpt>
      <trkpt lat="46.46504" lon="6.12091">
        <ele>1324.83</ele>
        <time>2015-06-07T08:17:22Z</time>
      </trkpt>
      <trkpt lat="46.46508" lon="6.12096">
        <ele>1325.31</ele>
        <time>2015-06-07T08:17:29Z</time>
      </trkpt>
      <trkpt lat="46.46511" lon="6.12103">
        <ele>1326.28</ele>
        <time>2015-06-07T08:17:36Z</time>
      </trkpt>
      <trkpt lat="46.46517" lon="6.12109">
        <ele>1327.24</ele>
        <time>2015-06-07T08:17:44Z</time>
      </trkpt>
      <trkpt lat="46.46525" lon="6.12117">
        <ele>1328.2</ele>
        <time>2015-06-07T08:17:53Z</time>
      </trkpt>
      <trkpt lat="46.46533" lon="6.12127">
        <ele>1328.68</ele>
        <time>2015-06-07T08:18:02Z</time>
      </trkpt>
      <trkpt lat="46.46539" lon="6.12132">
        <ele>1329.64</ele>
        <time>2015-06-07T08:18:09Z</time>
      </trkpt>
      <trkpt lat="46.46545" lon="6.12142">
        <ele>1330.12</ele>
        <time>2015-06-07T08:18:18Z</time>
      </trkpt>
      <trkpt lat="46.46549" lon="6.12145">
        <ele>1331.08</ele>
        <time>2015-06-07T08:18:24Z</time>
      </trkpt>
      <trkpt lat="46.46555" lon="6.12147">
        <ele>1331.56</ele>
        <time>2015-06-07T08:18:30Z</time>
      </trkpt>
      <trkpt lat="46.46565" lon="6.12153">
        <ele>1332.52</ele>
        <time>2015-06-07T08:18:38Z</time>
      </trkpt>
      <trkpt lat="46.46571" lon="6.12158">
        <ele>1333.01</ele>
        <time>2015-06-07T08:18:45Z</time>
      </trkpt>
      <trkpt lat="46.46578" lon="6.12166">
        <ele>1333.49</ele>
        <time>2015-06-07T08:18:54Z</time>
      </trkpt>
      <trkpt lat="46.46584" lon="6.12174">
        <ele>1334.45</ele>
        <time>2015-06-07T08:19:02Z</time>
      </trkpt>
      <trkpt lat="46.46593" lon="6.12182">
        <ele>1334.93</ele>
        <time>2015-06-07T08:19:11Z</time>
      </trkpt>
      <trkpt lat="46.466" lon="6.12192">
        <ele>1335.89</ele>
        <time>2015-06-07T08:19:20Z</time>
      </trkpt>
      <trkpt lat="46.46607" lon="6.12199">
        <ele>1335.89</ele>
        <time>2015-06-07T08:19:28Z</time>
      </trkpt>
      <trkpt lat="46.46613" lon="6.12206">
        <ele>1336.37</ele>
        <time>2015-06-07T08:19:36Z</time>
      </trkpt>
      <trkpt lat="46.46621" lon="6.12213">
        <ele>1337.33</ele>
        <time>2015-06-07T08:19:45Z</time>
      </trkpt>
      <trkpt lat="46.46627" lon="6.12217">
        <ele>1338.29</ele>
        <time>2015-06-07T08:19:52Z</time>
      </trkpt>
      <trkpt lat="46.46634" lon="6.12223">
        <ele>1339.25</ele>
        <time>2015-06-07T08:19:59Z</time>
      </trkpt>
      <trkpt lat="46.46641" lon="6.12228">
        <ele>1340.22</ele>
        <time>2015-06-07T08:20:06Z</time>
      </trkpt>
      <trkpt lat="46.4665" lon="6.12232">
        <ele>1340.7</ele>
        <time>2015-06-07T08:20:14Z</time>
      </trkpt>
      <trkpt lat="46.46651" lon="6.12234">
        <ele>1340.7</ele>
        <time>2015-06-07T08:20:15Z</time>
      </trkpt>
      <trkpt lat="46.46656" lon="6.12237">
        <ele>1341.18</ele>
        <time>2015-06-07T08:20:20Z</time>
      </trkpt>
      <trkpt lat="46.46662" lon="6.12242">
        <ele>1341.66</ele>
        <time>2015-06-07T08:20:28Z</time>
      </trkpt>
      <trkpt lat="46.46667" lon="6.12245">
        <ele>1342.14</ele>
        <time>2015-06-07T08:20:35Z</time>
      </trkpt>
      <trkpt lat="46.46675" lon="6.12252">
        <ele>1342.62</ele>
        <time>2015-06-07T08:20:42Z</time>
      </trkpt>
      <trkpt lat="46.46678" lon="6.12253">
        <ele>1343.1</ele>
        <time>2015-06-07T08:20:44Z</time>
      </trkpt>
      <trkpt lat="46.46685" lon="6.12256">
        <ele>1343.58</ele>
        <time>2015-06-07T08:20:51Z</time>
      </trkpt>
      <trkpt lat="46.46692" lon="6.12258">
        <ele>1344.54</ele>
        <time>2015-06-07T08:20:58Z</time>
      </trkpt>
      <trkpt lat="46.46698" lon="6.12254">
        <ele>1345.5</ele>
        <time>2015-06-07T08:21:04Z</time>
      </trkpt>
      <trkpt lat="46.46702" lon="6.12251">
        <ele>1346.46</ele>
        <time>2015-06-07T08:21:10Z</time>
      </trkpt>
      <trkpt lat="46.46705" lon="6.12251">
        <ele>1346.94</ele>
        <time>2015-06-07T08:21:18Z</time>
      </trkpt>
      <trkpt lat="46.46708" lon="6.12248">
        <ele>1347.43</ele>
        <time>2015-06-07T08:21:25Z</time>
      </trkpt>
      <trkpt lat="46.4672" lon="6.12246">
        <ele>1348.39</ele>
        <time>2015-06-07T08:21:31Z</time>
      </trkpt>
      <trkpt lat="46.46723" lon="6.12244">
        <ele>1348.39</ele>
        <time>2015-06-07T08:21:39Z</time>
      </trkpt>
      <trkpt lat="46.46737" lon="6.12235">
        <ele>1349.35</ele>
        <time>2015-06-07T08:21:47Z</time>
      </trkpt>
      <trkpt lat="46.46743" lon="6.12233">
        <ele>1349.83</ele>
        <time>2015-06-07T08:21:54Z</time>
      </trkpt>
      <trkpt lat="46.46743" lon="6.1223">
        <ele>1349.83</ele>
        <time>2015-06-07T08:22:03Z</time>
      </trkpt>
      <trkpt lat="46.46742" lon="6.12227">
        <ele>1350.31</ele>
        <time>2015-06-07T08:22:20Z</time>
      </trkpt>
      <trkpt lat="46.46743" lon="6.12227">
        <ele>1350.31</ele>
        <time>2015-06-07T08:22:35Z</time>
      </trkpt>
      <trkpt lat="46.46743" lon="6.12227">
        <ele>1350.31</ele>
        <time>2015-06-07T08:22:49Z</time>
      </trkpt>
      <trkpt lat="46.46742" lon="6.12227">
        <ele>1350.31</ele>
        <time>2015-06-07T08:23:06Z</time>
      </trkpt>
      <trkpt lat="46.46745" lon="6.12226">
        <ele>1350.79</ele>
        <time>2015-06-07T08:23:15Z</time>
      </trkpt>
      <trkpt lat="46.46748" lon="6.12223">
        <ele>1352.23</ele>
        <time>2015-06-07T08:23:22Z</time>
      </trkpt>
      <trkpt lat="46.46756" lon="6.12214">
        <ele>1352.23</ele>
        <time>2015-06-07T08:23:28Z</time>
      </trkpt>
      <trkpt lat="46.46761" lon="6.12205">
        <ele>1352.71</ele>
        <time>2015-06-07T08:23:35Z</time>
      </trkpt>
      <trkpt lat="46.46769" lon="6.1219">
        <ele>1353.67</ele>
        <time>2015-06-07T08:23:44Z</time>
      </trkpt>
      <trkpt lat="46.46773" lon="6.12175">
        <ele>1354.63</ele>
        <time>2015-06-07T08:23:53Z</time>
      </trkpt>
      <trkpt lat="46.46777" lon="6.12166">
        <ele>1355.12</ele>
        <time>2015-06-07T08:23:58Z</time>
      </trkpt>
      <trkpt lat="46.4678" lon="6.12158">
        <ele>1355.12</ele>
        <time>2015-06-07T08:24:06Z</time>
      </trkpt>
      <trkpt lat="46.46782" lon="6.12155">
        <ele>1355.6</ele>
        <time>2015-06-07T08:24:11Z</time>
      </trkpt>
      <trkpt lat="46.46783" lon="6.12143">
        <ele>1355.6</ele>
        <time>2015-06-07T08:24:18Z</time>
      </trkpt>
      <trkpt lat="46.46782" lon="6.12135">
        <ele>1356.08</ele>
        <time>2015-06-07T08:24:25Z</time>
      </trkpt>
      <trkpt lat="46.46785" lon="6.12126">
        <ele>1356.56</ele>
        <time>2015-06-07T08:24:32Z</time>
      </trkpt>
      <trkpt lat="46.46786" lon="6.1212">
        <ele>1356.56</ele>
        <time>2015-06-07T08:24:38Z</time>
      </trkpt>
      <trkpt lat="46.46789" lon="6.12109">
        <ele>1357.52</ele>
        <time>2015-06-07T08:24:45Z</time>
      </trkpt>
      <trkpt lat="46.46793" lon="6.12104">
        <ele>1357.52</ele>
        <time>2015-06-07T08:24:53Z</time>
      </trkpt>
      <trkpt lat="46.46795" lon="6.12099">
        <ele>1358</ele>
        <time>2015-06-07T08:24:59Z</time>
      </trkpt>
      <trkpt lat="46.46797" lon="6.12093">
        <ele>1358.48</ele>
        <time>2015-06-07T08:25:05Z</time>
      </trkpt>
      <trkpt lat="46.46799" lon="6.1209">
        <ele>1358.48</ele>
        <time>2015-06-07T08:25:08Z</time>
      </trkpt>
      <trkpt lat="46.46803" lon="6.12086">
        <ele>1359.44</ele>
        <time>2015-06-07T08:25:16Z</time>
      </trkpt>
      <trkpt lat="46.46809" lon="6.12078">
        <ele>1360.88</ele>
        <time>2015-06-07T08:25:25Z</time>
      </trkpt>
      <trkpt lat="46.46813" lon="6.12071">
        <ele>1361.84</ele>
        <time>2015-06-07T08:25:30Z</time>
      </trkpt>
      <trkpt lat="46.46818" lon="6.12061">
        <ele>1362.33</ele>
        <time>2015-06-07T08:25:38Z</time>
      </trkpt>
      <trkpt lat="46.46825" lon="6.12049">
        <ele>1363.29</ele>
        <time>2015-06-07T08:25:45Z</time>
      </trkpt>
      <trkpt lat="46.46828" lon="6.12043">
        <ele>1363.29</ele>
        <time>2015-06-07T08:25:52Z</time>
      </trkpt>
      <trkpt lat="46.46834" lon="6.12034">
        <ele>1364.25</ele>
        <time>2015-06-07T08:26:01Z</time>
      </trkpt>
      <trkpt lat="46.46835" lon="6.12029">
        <ele>1365.21</ele>
        <time>2015-06-07T08:26:09Z</time>
      </trkpt>
      <trkpt lat="46.46845" lon="6.12021">
        <ele>1365.69</ele>
        <time>2015-06-07T08:26:16Z</time>
      </trkpt>
      <trkpt lat="46.4685" lon="6.12013">
        <ele>1366.17</ele>
        <time>2015-06-07T08:26:22Z</time>
      </trkpt>
      <trkpt lat="46.46855" lon="6.12004">
        <ele>1366.65</ele>
        <time>2015-06-07T08:26:28Z</time>
      </trkpt>
      <trkpt lat="46.46859" lon="6.11998">
        <ele>1367.13</ele>
        <time>2015-06-07T08:26:34Z</time>
      </trkpt>
      <trkpt lat="46.46863" lon="6.11992">
        <ele>1368.09</ele>
        <time>2015-06-07T08:26:42Z</time>
      </trkpt>
      <trkpt lat="46.46865" lon="6.11988">
        <ele>1369.54</ele>
        <time>2015-06-07T08:26:49Z</time>
      </trkpt>
      <trkpt lat="46.46869" lon="6.11983">
        <ele>1370.5</ele>
        <time>2015-06-07T08:26:57Z</time>
      </trkpt>
      <trkpt lat="46.46875" lon="6.1197">
        <ele>1371.94</ele>
        <time>2015-06-07T08:27:06Z</time>
      </trkpt>
      <trkpt lat="46.46879" lon="6.1196">
        <ele>1373.38</ele>
        <time>2015-06-07T08:27:14Z</time>
      </trkpt>
      <trkpt lat="46.46882" lon="6.11953">
        <ele>1374.82</ele>
        <time>2015-06-07T08:27:22Z</time>
      </trkpt>
      <trkpt lat="46.46884" lon="6.11948">
        <ele>1374.34</ele>
        <time>2015-06-07T08:27:26Z</time>
      </trkpt>
      <trkpt lat="46.46891" lon="6.11938">
        <ele>1374.82</ele>
        <time>2015-06-07T08:27:34Z</time>
      </trkpt>
      <trkpt lat="46.46898" lon="6.11929">
        <ele>1375.3</ele>
        <time>2015-06-07T08:27:42Z</time>
      </trkpt>
      <trkpt lat="46.46906" lon="6.11926">
        <ele>1375.78</ele>
        <time>2015-06-07T08:27:50Z</time>
      </trkpt>
      <trkpt lat="46.46911" lon="6.11925">
        <ele>1376.26</ele>
        <time>2015-06-07T08:27:58Z</time>
      </trkpt>
      <trkpt lat="46.46912" lon="6.11925">
        <ele>1376.26</ele>
        <time>2015-06-07T08:27:59Z</time>
      </trkpt>
      <trkpt lat="46.4692" lon="6.11926">
        <ele>1376.75</ele>
        <time>2015-06-07T08:28:08Z</time>
      </trkpt>
      <trkpt lat="46.46926" lon="6.11928">
        <ele>1377.23</ele>
        <time>2015-06-07T08:28:14Z</time>
      </trkpt>
      <trkpt lat="46.46933" lon="6.11926">
        <ele>1377.71</ele>
        <time>2015-06-07T08:28:21Z</time>
      </trkpt>
      <trkpt lat="46.46939" lon="6.11924">
        <ele>1378.67</ele>
        <time>2015-06-07T08:28:28Z</time>
      </trkpt>
      <trkpt lat="46.46943" lon="6.11922">
        <ele>1378.67</ele>
        <time>2015-06-07T08:28:35Z</time>
      </trkpt>
      <trkpt lat="46.46952" lon="6.11921">
        <ele>1380.11</ele>
        <time>2015-06-07T08:28:43Z</time>
      </trkpt>
      <trkpt lat="46.46962" lon="6.11919">
        <ele>1380.59</ele>
        <time>2015-06-07T08:28:51Z</time>
      </trkpt>
      <trkpt lat="46.46968" lon="6.11916">
        <ele>1381.55</ele>
        <time>2015-06-07T08:28:59Z</time>
      </trkpt>
      <trkpt lat="46.46973" lon="6.11916">
        <ele>1382.51</ele>
        <time>2015-06-07T08:29:05Z</time>
      </trkpt>
      <trkpt lat="46.46974" lon="6.11916">
        <ele>1382.51</ele>
        <time>2015-06-07T08:29:06Z</time>
      </trkpt>
      <trkpt lat="46.46982" lon="6.1192">
        <ele>1383.96</ele>
        <time>2015-06-07T08:29:14Z</time>
      </trkpt>
      <trkpt lat="46.46988" lon="6.11923">
        <ele>1385.4</ele>
        <time>2015-06-07T08:29:23Z</time>
      </trkpt>
      <trkpt lat="46.46991" lon="6.11922">
        <ele>1385.88</ele>
        <time>2015-06-07T08:29:31Z</time>
      </trkpt>
      <trkpt lat="46.4699" lon="6.11921">
        <ele>1385.88</ele>
        <time>2015-06-07T08:29:43Z</time>
      </trkpt>
      <trkpt lat="46.46991" lon="6.11921">
        <ele>1386.84</ele>
        <time>2015-06-07T08:29:53Z</time>
      </trkpt>
      <trkpt lat="46.46996" lon="6.11925">
        <ele>1387.8</ele>
        <time>2015-06-07T08:30:01Z</time>
      </trkpt>
      <trkpt lat="46.46999" lon="6.11927">
        <ele>1387.8</ele>
        <time>2015-06-07T08:30:10Z</time>
      </trkpt>
      <trkpt lat="46.47" lon="6.11926">
        <ele>1388.28</ele>
        <time>2015-06-07T08:30:20Z</time>
      </trkpt>
      <trkpt lat="46.47001" lon="6.11926">
        <ele>1388.76</ele>
        <time>2015-06-07T08:30:33Z</time>
      </trkpt>
      <trkpt lat="46.47004" lon="6.11931">
        <ele>1389.24</ele>
        <time>2015-06-07T08:30:41Z</time>
      </trkpt>
      <trkpt lat="46.47007" lon="6.11934">
        <ele>1390.2</ele>
        <time>2015-06-07T08:30:49Z</time>
      </trkpt>
      <trkpt lat="46.47014" lon="6.1194">
        <ele>1391.17</ele>
        <time>2015-06-07T08:30:56Z</time>
      </trkpt>
      <trkpt lat="46.47015" lon="6.11939">
        <ele>1391.17</ele>
        <time>2015-06-07T08:31:03Z</time>
      </trkpt>
      <trkpt lat="46.47017" lon="6.11939">
        <ele>1391.17</ele>
        <time>2015-06-07T08:31:14Z</time>
      </trkpt>
      <trkpt lat="46.47018" lon="6.11939">
        <ele>1391.17</ele>
        <time>2015-06-07T08:31:27Z</time>
      </trkpt>
      <trkpt lat="46.47017" lon="6.11939">
        <ele>1391.65</ele>
        <time>2015-06-07T08:31:41Z</time>
      </trkpt>
      <trkpt lat="46.47017" lon="6.1194">
        <ele>1391.17</ele>
        <time>2015-06-07T08:31:53Z</time>
      </trkpt>
      <trkpt lat="46.47017" lon="6.1194">
        <ele>1391.65</ele>
        <time>2015-06-07T08:32:09Z</time>
      </trkpt>
      <trkpt lat="46.47018" lon="6.11941">
        <ele>1391.65</ele>
        <time>2015-06-07T08:32:18Z</time>
      </trkpt>
      <trkpt lat="46.47018" lon="6.11941">
        <ele>1391.65</ele>
        <time>2015-06-07T08:32:31Z</time>
      </trkpt>
      <trkpt lat="46.47019" lon="6.11942">
        <ele>1391.65</ele>
        <time>2015-06-07T08:32:45Z</time>
      </trkpt>
      <trkpt lat="46.4702" lon="6.11943">
        <ele>1391.65</ele>
        <time>2015-06-07T08:33:02Z</time>
      </trkpt>
      <trkpt lat="46.47021" lon="6.11943">
        <ele>1391.65</ele>
        <time>2015-06-07T08:33:18Z</time>
      </trkpt>
      <trkpt lat="46.4702" lon="6.11943">
        <ele>1391.65</ele>
        <time>2015-06-07T08:33:32Z</time>
      </trkpt>
      <trkpt lat="46.4702" lon="6.11943">
        <ele>1391.65</ele>
        <time>2015-06-07T08:33:50Z</time>
      </trkpt>
      <trkpt lat="46.4702" lon="6.11943">
        <ele>1392.13</ele>
        <time>2015-06-07T08:34:05Z</time>
      </trkpt>
      <trkpt lat="46.4702" lon="6.11943">
        <ele>1392.13</ele>
        <time>2015-06-07T08:34:19Z</time>
      </trkpt>
      <trkpt lat="46.4702" lon="6.11943">
        <ele>1393.57</ele>
        <time>2015-06-07T08:34:32Z</time>
      </trkpt>
      <trkpt lat="46.4702" lon="6.11943">
        <ele>1392.61</ele>
        <time>2015-06-07T08:34:43Z</time>
      </trkpt>
      <trkpt lat="46.47021" lon="6.11943">
        <ele>1392.61</ele>
        <time>2015-06-07T08:34:58Z</time>
      </trkpt>
      <trkpt lat="46.47022" lon="6.11942">
        <ele>1393.09</ele>
        <time>2015-06-07T08:35:07Z</time>
      </trkpt>
      <trkpt lat="46.47024" lon="6.11944">
        <ele>1393.57</ele>
        <time>2015-06-07T08:35:10Z</time>
      </trkpt>
      <trkpt lat="46.47028" lon="6.11947">
        <ele>1394.53</ele>
        <time>2015-06-07T08:35:15Z</time>
      </trkpt>
      <trkpt lat="46.47033" lon="6.11954">
        <ele>1395.01</ele>
        <time>2015-06-07T08:35:22Z</time>
      </trkpt>
      <trkpt lat="46.47036" lon="6.11958">
        <ele>1395.49</ele>
        <time>2015-06-07T08:35:26Z</time>
      </trkpt>
      <trkpt lat="46.47041" lon="6.11965">
        <ele>1395.97</ele>
        <time>2015-06-07T08:35:33Z</time>
      </trkpt>
      <trkpt lat="46.47047" lon="6.11971">
        <ele>1397.41</ele>
        <time>2015-06-07T08:35:41Z</time>
      </trkpt>
      <trkpt lat="46.47053" lon="6.11974">
        <ele>1398.37</ele>
        <time>2015-06-07T08:35:50Z</time>
      </trkpt>
      <trkpt lat="46.47056" lon="6.11977">
        <ele>1399.34</ele>
        <time>2015-06-07T08:35:57Z</time>
      </trkpt>
      <trkpt lat="46.47063" lon="6.11976">
        <ele>1399.82</ele>
        <time>2015-06-07T08:36:06Z</time>
      </trkpt>
      <trkpt lat="46.47069" lon="6.11977">
        <ele>1401.26</ele>
        <time>2015-06-07T08:36:16Z</time>
      </trkpt>
      <trkpt lat="46.47072" lon="6.11978">
        <ele>1401.74</ele>
        <time>2015-06-07T08:36:20Z</time>
      </trkpt>
      <trkpt lat="46.4708" lon="6.11973">
        <ele>1401.74</ele>
        <time>2015-06-07T08:36:27Z</time>
      </trkpt>
      <trkpt lat="46.47081" lon="6.11972">
        <ele>1401.74</ele>
        <time>2015-06-07T08:36:28Z</time>
      </trkpt>
      <trkpt lat="46.47088" lon="6.11971">
        <ele>1402.22</ele>
        <time>2015-06-07T08:36:35Z</time>
      </trkpt>
      <trkpt lat="46.47094" lon="6.11968">
        <ele>1402.7</ele>
        <time>2015-06-07T08:36:43Z</time>
      </trkpt>
      <trkpt lat="46.47102" lon="6.11968">
        <ele>1404.14</ele>
        <time>2015-06-07T08:36:52Z</time>
      </trkpt>
      <trkpt lat="46.4711" lon="6.11964">
        <ele>1404.62</ele>
        <time>2015-06-07T08:37:01Z</time>
      </trkpt>
      <trkpt lat="46.47113" lon="6.11961">
        <ele>1405.58</ele>
        <time>2015-06-07T08:37:08Z</time>
      </trkpt>
      <trkpt lat="46.47122" lon="6.11959">
        <ele>1406.55</ele>
        <time>2015-06-07T08:37:16Z</time>
      </trkpt>
      <trkpt lat="46.47131" lon="6.11958">
        <ele>1407.51</ele>
        <time>2015-06-07T08:37:24Z</time>
      </trkpt>
      <trkpt lat="46.47132" lon="6.11958">
        <ele>1407.51</ele>
        <time>2015-06-07T08:37:25Z</time>
      </trkpt>
      <trkpt lat="46.47137" lon="6.11958">
        <ele>1407.51</ele>
        <time>2015-06-07T08:37:30Z</time>
      </trkpt>
      <trkpt lat="46.47145" lon="6.11955">
        <ele>1407.99</ele>
        <time>2015-06-07T08:37:38Z</time>
      </trkpt>
      <trkpt lat="46.47151" lon="6.11947">
        <ele>1408.47</ele>
        <time>2015-06-07T08:37:44Z</time>
      </trkpt>
      <trkpt lat="46.47156" lon="6.11942">
        <ele>1408.47</ele>
        <time>2015-06-07T08:37:51Z</time>
      </trkpt>
      <trkpt lat="46.47156" lon="6.11944">
        <ele>1405.58</ele>
        <time>2015-06-07T08:37:59Z</time>
      </trkpt>
      <trkpt lat="46.47157" lon="6.11945">
        <ele>1412.31</ele>
        <time>2015-06-07T08:38:00Z</time>
      </trkpt>
      <trkpt lat="46.47157" lon="6.11945">
        <ele>1408.95</ele>
        <time>2015-06-07T08:38:01Z</time>
      </trkpt>
      <trkpt lat="46.47159" lon="6.11949">
        <ele>1409.43</ele>
        <time>2015-06-07T08:38:08Z</time>
      </trkpt>
      <trkpt lat="46.47159" lon="6.11949">
        <ele>1409.43</ele>
        <time>2015-06-07T08:38:13Z</time>
      </trkpt>
      <trkpt lat="46.47156" lon="6.11949">
        <ele>1409.43</ele>
        <time>2015-06-07T08:38:20Z</time>
      </trkpt>
      <trkpt lat="46.47156" lon="6.11949">
        <ele>1408.95</ele>
        <time>2015-06-07T08:38:26Z</time>
      </trkpt>
      <trkpt lat="46.47156" lon="6.11952">
        <ele>1409.91</ele>
        <time>2015-06-07T08:38:32Z</time>
      </trkpt>
      <trkpt lat="46.47159" lon="6.11953">
        <ele>1409.91</ele>
        <time>2015-06-07T08:38:36Z</time>
      </trkpt>
      <trkpt lat="46.47162" lon="6.11957">
        <ele>1409.91</ele>
        <time>2015-06-07T08:38:42Z</time>
      </trkpt>
      <trkpt lat="46.47166" lon="6.1196">
        <ele>1410.39</ele>
        <time>2015-06-07T08:38:49Z</time>
      </trkpt>
      <trkpt lat="46.47168" lon="6.11962">
        <ele>1410.87</ele>
        <time>2015-06-07T08:38:57Z</time>
      </trkpt>
      <trkpt lat="46.4717" lon="6.11967">
        <ele>1411.83</ele>
        <time>2015-06-07T08:39:02Z</time>
      </trkpt>
      <trkpt lat="46.47171" lon="6.11968">
        <ele>1411.83</ele>
        <time>2015-06-07T08:39:06Z</time>
      </trkpt>
      <trkpt lat="46.47171" lon="6.11968">
        <ele>1411.83</ele>
        <time>2015-06-07T08:39:07Z</time>
      </trkpt>
      <trkpt lat="46.47173" lon="6.11971">
        <ele>1411.83</ele>
        <time>2015-06-07T08:39:10Z</time>
      </trkpt>
      <trkpt lat="46.47176" lon="6.11974">
        <ele>1412.79</ele>
        <time>2015-06-07T08:39:16Z</time>
      </trkpt>
      <trkpt lat="46.47178" lon="6.11976">
        <ele>1413.28</ele>
        <time>2015-06-07T08:39:21Z</time>
      </trkpt>
      <trkpt lat="46.47182" lon="6.11976">
        <ele>1413.76</ele>
        <time>2015-06-07T08:39:25Z</time>
      </trkpt>
      <trkpt lat="46.47182" lon="6.11975">
        <ele>1414.24</ele>
        <time>2015-06-07T08:39:31Z</time>
      </trkpt>
      <trkpt lat="46.47183" lon="6.11974">
        <ele>1414.24</ele>
        <time>2015-06-07T08:39:39Z</time>
      </trkpt>
      <trkpt lat="46.47183" lon="6.11974">
        <ele>1413.28</ele>
        <time>2015-06-07T08:39:46Z</time>
      </trkpt>
      <trkpt lat="46.47184" lon="6.11973">
        <ele>1414.24</ele>
        <time>2015-06-07T08:40:03Z</time>
      </trkpt>
      <trkpt lat="46.47184" lon="6.11972">
        <ele>1414.24</ele>
        <time>2015-06-07T08:40:17Z</time>
      </trkpt>
      <trkpt lat="46.47185" lon="6.11973">
        <ele>1414.24</ele>
        <time>2015-06-07T08:40:31Z</time>
      </trkpt>
      <trkpt lat="46.47185" lon="6.11973">
        <ele>1414.24</ele>
        <time>2015-06-07T08:40:48Z</time>
      </trkpt>
      <trkpt lat="46.47186" lon="6.11972">
        <ele>1414.72</ele>
        <time>2015-06-07T08:41:00Z</time>
      </trkpt>
      <trkpt lat="46.47191" lon="6.11972">
        <ele>1415.2</ele>
        <time>2015-06-07T08:41:07Z</time>
      </trkpt>
      <trkpt lat="46.47196" lon="6.11974">
        <ele>1414.72</ele>
        <time>2015-06-07T08:41:15Z</time>
      </trkpt>
      <trkpt lat="46.47201" lon="6.11977">
        <ele>1414.72</ele>
        <time>2015-06-07T08:41:25Z</time>
      </trkpt>
      <trkpt lat="46.47201" lon="6.11977">
        <ele>1414.72</ele>
        <time>2015-06-07T08:41:41Z</time>
      </trkpt>
      <trkpt lat="46.472" lon="6.11978">
        <ele>1415.2</ele>
        <time>2015-06-07T08:41:55Z</time>
      </trkpt>
      <trkpt lat="46.47201" lon="6.11978">
        <ele>1414.72</ele>
        <time>2015-06-07T08:42:06Z</time>
      </trkpt>
      <trkpt lat="46.47202" lon="6.11978">
        <ele>1414.72</ele>
        <time>2015-06-07T08:42:24Z</time>
      </trkpt>
      <trkpt lat="46.47202" lon="6.11978">
        <ele>1415.2</ele>
        <time>2015-06-07T08:42:39Z</time>
      </trkpt>
      <trkpt lat="46.47203" lon="6.11979">
        <ele>1415.2</ele>
        <time>2015-06-07T08:42:51Z</time>
      </trkpt>
      <trkpt lat="46.47208" lon="6.11983">
        <ele>1415.2</ele>
        <time>2015-06-07T08:42:58Z</time>
      </trkpt>
      <trkpt lat="46.47212" lon="6.11987">
        <ele>1415.68</ele>
        <time>2015-06-07T08:43:05Z</time>
      </trkpt>
      <trkpt lat="46.47216" lon="6.11994">
        <ele>1416.64</ele>
        <time>2015-06-07T08:43:12Z</time>
      </trkpt>
      <trkpt lat="46.47222" lon="6.12003">
        <ele>1417.12</ele>
        <time>2015-06-07T08:43:19Z</time>
      </trkpt>
      <trkpt lat="46.47231" lon="6.1201">
        <ele>1417.6</ele>
        <time>2015-06-07T08:43:25Z</time>
      </trkpt>
      <trkpt lat="46.4724" lon="6.12014">
        <ele>1417.12</ele>
        <time>2015-06-07T08:43:33Z</time>
      </trkpt>
      <trkpt lat="46.47246" lon="6.1202">
        <ele>1418.08</ele>
        <time>2015-06-07T08:43:42Z</time>
      </trkpt>
      <trkpt lat="46.4725" lon="6.12022">
        <ele>1419.04</ele>
        <time>2015-06-07T08:43:48Z</time>
      </trkpt>
      <trkpt lat="46.47256" lon="6.12026">
        <ele>1420</ele>
        <time>2015-06-07T08:43:55Z</time>
      </trkpt>
      <trkpt lat="46.47261" lon="6.12027">
        <ele>1420</ele>
        <time>2015-06-07T08:44:00Z</time>
      </trkpt>
      <trkpt lat="46.47266" lon="6.12028">
        <ele>1420</ele>
        <time>2015-06-07T08:44:06Z</time>
      </trkpt>
      <trkpt lat="46.47274" lon="6.12031">
        <ele>1420.49</ele>
        <time>2015-06-07T08:44:15Z</time>
      </trkpt>
      <trkpt lat="46.4728" lon="6.12034">
        <ele>1420.97</ele>
        <time>2015-06-07T08:44:24Z</time>
      </trkpt>
      <trkpt lat="46.47283" lon="6.12034">
        <ele>1420.97</ele>
        <time>2015-06-07T08:44:30Z</time>
      </trkpt>
      <trkpt lat="46.47293" lon="6.1204">
        <ele>1422.41</ele>
        <time>2015-06-07T08:44:39Z</time>
      </trkpt>
      <trkpt lat="46.47298" lon="6.12043">
        <ele>1423.37</ele>
        <time>2015-06-07T08:44:46Z</time>
      </trkpt>
      <trkpt lat="46.47299" lon="6.12043">
        <ele>1423.37</ele>
        <time>2015-06-07T08:44:47Z</time>
      </trkpt>
      <trkpt lat="46.47308" lon="6.12049">
        <ele>1424.33</ele>
        <time>2015-06-07T08:44:56Z</time>
      </trkpt>
      <trkpt lat="46.47313" lon="6.12052">
        <ele>1425.29</ele>
        <time>2015-06-07T08:45:04Z</time>
      </trkpt>
      <trkpt lat="46.47319" lon="6.12054">
        <ele>1426.25</ele>
        <time>2015-06-07T08:45:12Z</time>
      </trkpt>
      <trkpt lat="46.4733" lon="6.12057">
        <ele>1427.21</ele>
        <time>2015-06-07T08:45:20Z</time>
      </trkpt>
      <trkpt lat="46.47332" lon="6.12058">
        <ele>1427.7</ele>
        <time>2015-06-07T08:45:28Z</time>
      </trkpt>
      <trkpt lat="46.47337" lon="6.1206">
        <ele>1429.14</ele>
        <time>2015-06-07T08:45:38Z</time>
      </trkpt>
      <trkpt lat="46.47341" lon="6.1206">
        <ele>1430.1</ele>
        <time>2015-06-07T08:45:45Z</time>
      </trkpt>
      <trkpt lat="46.47344" lon="6.1206">
        <ele>1430.58</ele>
        <time>2015-06-07T08:45:52Z</time>
      </trkpt>
      <trkpt lat="46.47351" lon="6.12059">
        <ele>1431.06</ele>
        <time>2015-06-07T08:45:59Z</time>
      </trkpt>
      <trkpt lat="46.47355" lon="6.12059">
        <ele>1431.54</ele>
        <time>2015-06-07T08:46:01Z</time>
      </trkpt>
      <trkpt lat="46.47365" lon="6.12058">
        <ele>1432.5</ele>
        <time>2015-06-07T08:46:09Z</time>
      </trkpt>
      <trkpt lat="46.47367" lon="6.12058">
        <ele>1432.5</ele>
        <time>2015-06-07T08:46:10Z</time>
      </trkpt>
      <trkpt lat="46.47376" lon="6.12057">
        <ele>1432.98</ele>
        <time>2015-06-07T08:46:18Z</time>
      </trkpt>
      <trkpt lat="46.47384" lon="6.12056">
        <ele>1433.46</ele>
        <time>2015-06-07T08:46:26Z</time>
      </trkpt>
      <trkpt lat="46.47391" lon="6.12057">
        <ele>1435.39</ele>
        <time>2015-06-07T08:46:33Z</time>
      </trkpt>
      <trkpt lat="46.47395" lon="6.12059">
        <ele>1434.91</ele>
        <time>2015-06-07T08:46:38Z</time>
      </trkpt>
      <trkpt lat="46.47402" lon="6.1206">
        <ele>1436.35</ele>
        <time>2015-06-07T08:46:45Z</time>
      </trkpt>
      <trkpt lat="46.47404" lon="6.1206">
        <ele>1436.35</ele>
        <time>2015-06-07T08:46:47Z</time>
      </trkpt>
      <trkpt lat="46.47412" lon="6.12059">
        <ele>1437.31</ele>
        <time>2015-06-07T08:46:54Z</time>
      </trkpt>
      <trkpt lat="46.47419" lon="6.12056">
        <ele>1437.31</ele>
        <time>2015-06-07T08:47:01Z</time>
      </trkpt>
      <trkpt lat="46.47423" lon="6.12057">
        <ele>1438.27</ele>
        <time>2015-06-07T08:47:07Z</time>
      </trkpt>
      <trkpt lat="46.47427" lon="6.12059">
        <ele>1438.75</ele>
        <time>2015-06-07T08:47:10Z</time>
      </trkpt>
      <trkpt lat="46.4743" lon="6.12062">
        <ele>1439.71</ele>
        <time>2015-06-07T08:47:15Z</time>
      </trkpt>
      <trkpt lat="46.47432" lon="6.12069">
        <ele>1441.15</ele>
        <time>2015-06-07T08:47:21Z</time>
      </trkpt>
      <trkpt lat="46.47434" lon="6.12075">
        <ele>1442.11</ele>
        <time>2015-06-07T08:47:27Z</time>
      </trkpt>
      <trkpt lat="46.47437" lon="6.12079">
        <ele>1443.56</ele>
        <time>2015-06-07T08:47:33Z</time>
      </trkpt>
      <trkpt lat="46.47441" lon="6.12087">
        <ele>1443.56</ele>
        <time>2015-06-07T08:47:39Z</time>
      </trkpt>
      <trkpt lat="46.47447" lon="6.12092">
        <ele>1444.52</ele>
        <time>2015-06-07T08:47:46Z</time>
      </trkpt>
      <trkpt lat="46.47451" lon="6.12094">
        <ele>1445.96</ele>
        <time>2015-06-07T08:47:52Z</time>
      </trkpt>
      <trkpt lat="46.47455" lon="6.12097">
        <ele>1447.4</ele>
        <time>2015-06-07T08:47:59Z</time>
      </trkpt>
      <trkpt lat="46.4746" lon="6.12101">
        <ele>1449.32</ele>
        <time>2015-06-07T08:48:05Z</time>
      </trkpt>
      <trkpt lat="46.47462" lon="6.12103">
        <ele>1449.32</ele>
        <time>2015-06-07T08:48:10Z</time>
      </trkpt>
      <trkpt lat="46.47467" lon="6.12102">
        <ele>1450.77</ele>
        <time>2015-06-07T08:48:16Z</time>
      </trkpt>
      <trkpt lat="46.47473" lon="6.121">
        <ele>1451.73</ele>
        <time>2015-06-07T08:48:23Z</time>
      </trkpt>
      <trkpt lat="46.47478" lon="6.121">
        <ele>1452.69</ele>
        <time>2015-06-07T08:48:29Z</time>
      </trkpt>
      <trkpt lat="46.47483" lon="6.12098">
        <ele>1453.65</ele>
        <time>2015-06-07T08:48:37Z</time>
      </trkpt>
      <trkpt lat="46.47487" lon="6.12098">
        <ele>1454.13</ele>
        <time>2015-06-07T08:48:41Z</time>
      </trkpt>
      <trkpt lat="46.47489" lon="6.121">
        <ele>1454.13</ele>
        <time>2015-06-07T08:48:48Z</time>
      </trkpt>
      <trkpt lat="46.47488" lon="6.121">
        <ele>1454.61</ele>
        <time>2015-06-07T08:48:59Z</time>
      </trkpt>
      <trkpt lat="46.47489" lon="6.12101">
        <ele>1454.61</ele>
        <time>2015-06-07T08:49:13Z</time>
      </trkpt>
      <trkpt lat="46.47489" lon="6.121">
        <ele>1454.61</ele>
        <time>2015-06-07T08:49:27Z</time>
      </trkpt>
      <trkpt lat="46.47489" lon="6.12099">
        <ele>1454.61</ele>
        <time>2015-06-07T08:49:39Z</time>
      </trkpt>
      <trkpt lat="46.47488" lon="6.12099">
        <ele>1454.61</ele>
        <time>2015-06-07T08:49:52Z</time>
      </trkpt>
      <trkpt lat="46.47489" lon="6.12099">
        <ele>1454.61</ele>
        <time>2015-06-07T08:50:07Z</time>
      </trkpt>
      <trkpt lat="46.47489" lon="6.12098">
        <ele>1454.61</ele>
        <time>2015-06-07T08:50:16Z</time>
      </trkpt>
      <trkpt lat="46.47489" lon="6.12097">
        <ele>1455.09</ele>
        <time>2015-06-07T08:50:26Z</time>
      </trkpt>
      <trkpt lat="46.47489" lon="6.12098">
        <ele>1455.09</ele>
        <time>2015-06-07T08:50:43Z</time>
      </trkpt>
      <trkpt lat="46.4749" lon="6.12098">
        <ele>1455.09</ele>
        <time>2015-06-07T08:50:59Z</time>
      </trkpt>
      <trkpt lat="46.4749" lon="6.12097">
        <ele>1455.09</ele>
        <time>2015-06-07T08:51:15Z</time>
      </trkpt>
      <trkpt lat="46.4749" lon="6.12097">
        <ele>1455.09</ele>
        <time>2015-06-07T08:51:24Z</time>
      </trkpt>
      <trkpt lat="46.47496" lon="6.12096">
        <ele>1456.53</ele>
        <time>2015-06-07T08:51:30Z</time>
      </trkpt>
      <trkpt lat="46.47502" lon="6.12095">
        <ele>1457.98</ele>
        <time>2015-06-07T08:51:39Z</time>
      </trkpt>
      <trkpt lat="46.47507" lon="6.12092">
        <ele>1458.94</ele>
        <time>2015-06-07T08:51:46Z</time>
      </trkpt>
      <trkpt lat="46.47511" lon="6.12087">
        <ele>1460.86</ele>
        <time>2015-06-07T08:51:53Z</time>
      </trkpt>
      <trkpt lat="46.47514" lon="6.12082">
        <ele>1461.82</ele>
        <time>2015-06-07T08:52:01Z</time>
      </trkpt>
      <trkpt lat="46.47519" lon="6.12082">
        <ele>1463.26</ele>
        <time>2015-06-07T08:52:09Z</time>
      </trkpt>
      <trkpt lat="46.47523" lon="6.12079">
        <ele>1464.71</ele>
        <time>2015-06-07T08:52:16Z</time>
      </trkpt>
      <trkpt lat="46.47526" lon="6.12074">
        <ele>1465.67</ele>
        <time>2015-06-07T08:52:25Z</time>
      </trkpt>
      <trkpt lat="46.47529" lon="6.12073">
        <ele>1466.63</ele>
        <time>2015-06-07T08:52:33Z</time>
      </trkpt>
      <trkpt lat="46.47531" lon="6.12071">
        <ele>1467.59</ele>
        <time>2015-06-07T08:52:40Z</time>
      </trkpt>
      <trkpt lat="46.47537" lon="6.12072">
        <ele>1469.03</ele>
        <time>2015-06-07T08:52:46Z</time>
      </trkpt>
      <trkpt lat="46.47548" lon="6.12075">
        <ele>1470.47</ele>
        <time>2015-06-07T08:52:53Z</time>
      </trkpt>
      <trkpt lat="46.47555" lon="6.1208">
        <ele>1470.95</ele>
        <time>2015-06-07T08:53:01Z</time>
      </trkpt>
      <trkpt lat="46.47564" lon="6.12083">
        <ele>1471.92</ele>
        <time>2015-06-07T08:53:08Z</time>
      </trkpt>
      <trkpt lat="46.47565" lon="6.12081">
        <ele>1472.4</ele>
        <time>2015-06-07T08:53:14Z</time>
      </trkpt>
      <trkpt lat="46.47566" lon="6.1208">
        <ele>1472.88</ele>
        <time>2015-06-07T08:53:25Z</time>
      </trkpt>
      <trkpt lat="46.47567" lon="6.12078">
        <ele>1474.32</ele>
        <time>2015-06-07T08:53:33Z</time>
      </trkpt>
      <trkpt lat="46.47569" lon="6.12077">
        <ele>1475.28</ele>
        <time>2015-06-07T08:53:44Z</time>
      </trkpt>
      <trkpt lat="46.47573" lon="6.12075">
        <ele>1476.72</ele>
        <time>2015-06-07T08:53:54Z</time>
      </trkpt>
      <trkpt lat="46.47579" lon="6.12078">
        <ele>1477.2</ele>
        <time>2015-06-07T08:54:01Z</time>
      </trkpt>
      <trkpt lat="46.47582" lon="6.1208">
        <ele>1478.65</ele>
        <time>2015-06-07T08:54:09Z</time>
      </trkpt>
      <trkpt lat="46.4759" lon="6.12085">
        <ele>1479.61</ele>
        <time>2015-06-07T08:54:17Z</time>
      </trkpt>
      <trkpt lat="46.47598" lon="6.1209">
        <ele>1480.09</ele>
        <time>2015-06-07T08:54:24Z</time>
      </trkpt>
      <trkpt lat="46.47604" lon="6.12096">
        <ele>1480.57</ele>
        <time>2015-06-07T08:54:30Z</time>
      </trkpt>
      <trkpt lat="46.47606" lon="6.12099">
        <ele>1481.05</ele>
        <time>2015-06-07T08:54:37Z</time>
      </trkpt>
      <trkpt lat="46.47608" lon="6.12102">
        <ele>1481.53</ele>
        <time>2015-06-07T08:54:43Z</time>
      </trkpt>
      <trkpt lat="46.47613" lon="6.12108">
        <ele>1482.01</ele>
        <time>2015-06-07T08:54:50Z</time>
      </trkpt>
      <trkpt lat="46.47616" lon="6.1211">
        <ele>1482.01</ele>
        <time>2015-06-07T08:54:56Z</time>
      </trkpt>
      <trkpt lat="46.47619" lon="6.12117">
        <ele>1482.01</ele>
        <time>2015-06-07T08:55:01Z</time>
      </trkpt>
      <trkpt lat="46.47622" lon="6.12122">
        <ele>1482.49</ele>
        <time>2015-06-07T08:55:07Z</time>
      </trkpt>
      <trkpt lat="46.47625" lon="6.12131">
        <ele>1483.45</ele>
        <time>2015-06-07T08:55:14Z</time>
      </trkpt>
      <trkpt lat="46.47626" lon="6.12136">
        <ele>1483.93</ele>
        <time>2015-06-07T08:55:17Z</time>
      </trkpt>
      <trkpt lat="46.47628" lon="6.12146">
        <ele>1484.89</ele>
        <time>2015-06-07T08:55:24Z</time>
      </trkpt>
      <trkpt lat="46.47632" lon="6.12151">
        <ele>1484.89</ele>
        <time>2015-06-07T08:55:29Z</time>
      </trkpt>
      <trkpt lat="46.47634" lon="6.12154">
        <ele>1484.89</ele>
        <time>2015-06-07T08:55:31Z</time>
      </trkpt>
      <trkpt lat="46.47639" lon="6.12162">
        <ele>1486.34</ele>
        <time>2015-06-07T08:55:39Z</time>
      </trkpt>
      <trkpt lat="46.47643" lon="6.12165">
        <ele>1486.82</ele>
        <time>2015-06-07T08:55:46Z</time>
      </trkpt>
      <trkpt lat="46.47647" lon="6.12168">
        <ele>1487.3</ele>
        <time>2015-06-07T08:55:53Z</time>
      </trkpt>
      <trkpt lat="46.4765" lon="6.12177">
        <ele>1487.78</ele>
        <time>2015-06-07T08:56:00Z</time>
      </trkpt>
      <trkpt lat="46.47653" lon="6.1218">
        <ele>1488.26</ele>
        <time>2015-06-07T08:56:07Z</time>
      </trkpt>
      <trkpt lat="46.47656" lon="6.12178">
        <ele>1488.74</ele>
        <time>2015-06-07T08:56:13Z</time>
      </trkpt>
      <trkpt lat="46.47658" lon="6.12177">
        <ele>1488.26</ele>
        <time>2015-06-07T08:56:21Z</time>
      </trkpt>
      <trkpt lat="46.47662" lon="6.12176">
        <ele>1488.74</ele>
        <time>2015-06-07T08:56:24Z</time>
      </trkpt>
      <trkpt lat="46.47668" lon="6.12171">
        <ele>1491.14</ele>
        <time>2015-06-07T08:56:32Z</time>
      </trkpt>
      <trkpt lat="46.47667" lon="6.12171">
        <ele>1491.14</ele>
        <time>2015-06-07T08:56:41Z</time>
      </trkpt>
      <trkpt lat="46.47667" lon="6.1217">
        <ele>1491.62</ele>
        <time>2015-06-07T08:56:56Z</time>
      </trkpt>
      <trkpt lat="46.47667" lon="6.1217">
        <ele>1491.62</ele>
        <time>2015-06-07T08:57:13Z</time>
      </trkpt>
      <trkpt lat="46.47667" lon="6.1217">
        <ele>1491.62</ele>
        <time>2015-06-07T08:57:28Z</time>
      </trkpt>
      <trkpt lat="46.47668" lon="6.1217">
        <ele>1493.06</ele>
        <time>2015-06-07T08:57:36Z</time>
      </trkpt>
      <trkpt lat="46.47669" lon="6.12169">
        <ele>1493.06</ele>
        <time>2015-06-07T08:57:47Z</time>
      </trkpt>
      <trkpt lat="46.47669" lon="6.12169">
        <ele>1493.55</ele>
        <time>2015-06-07T08:57:55Z</time>
      </trkpt>
      <trkpt lat="46.47673" lon="6.12171">
        <ele>1494.99</ele>
        <time>2015-06-07T08:58:03Z</time>
      </trkpt>
      <trkpt lat="46.47681" lon="6.12177">
        <ele>1494.99</ele>
        <time>2015-06-07T08:58:10Z</time>
      </trkpt>
      <trkpt lat="46.47687" lon="6.12183">
        <ele>1495.47</ele>
        <time>2015-06-07T08:58:19Z</time>
      </trkpt>
      <trkpt lat="46.47698" lon="6.12191">
        <ele>1495.95</ele>
        <time>2015-06-07T08:58:29Z</time>
      </trkpt>
      <trkpt lat="46.47702" lon="6.12193">
        <ele>1496.43</ele>
        <time>2015-06-07T08:58:34Z</time>
      </trkpt>
      <trkpt lat="46.47705" lon="6.12194">
        <ele>1495.95</ele>
        <time>2015-06-07T08:58:37Z</time>
      </trkpt>
      <trkpt lat="46.47714" lon="6.12203">
        <ele>1496.91</ele>
        <time>2015-06-07T08:58:47Z</time>
      </trkpt>
      <trkpt lat="46.47718" lon="6.12209">
        <ele>1497.87</ele>
        <time>2015-06-07T08:58:55Z</time>
      </trkpt>
      <trkpt lat="46.47719" lon="6.12209">
        <ele>1498.35</ele>
        <time>2015-06-07T08:58:56Z</time>
      </trkpt>
      <trkpt lat="46.47726" lon="6.12214">
        <ele>1497.39</ele>
        <time>2015-06-07T08:59:01Z</time>
      </trkpt>
      <trkpt lat="46.47728" lon="6.12217">
        <ele>1497.39</ele>
        <time>2015-06-07T08:59:03Z</time>
      </trkpt>
      <trkpt lat="46.47735" lon="6.12224">
        <ele>1498.83</ele>
        <time>2015-06-07T08:59:12Z</time>
      </trkpt>
      <trkpt lat="46.4774" lon="6.12226">
        <ele>1500.76</ele>
        <time>2015-06-07T08:59:20Z</time>
      </trkpt>
      <trkpt lat="46.47743" lon="6.12232">
        <ele>1501.72</ele>
        <time>2015-06-07T08:59:28Z</time>
      </trkpt>
      <trkpt lat="46.47747" lon="6.12239">
        <ele>1502.2</ele>
        <time>2015-06-07T08:59:35Z</time>
      </trkpt>
      <trkpt lat="46.4775" lon="6.12242">
        <ele>1502.68</ele>
        <time>2015-06-07T08:59:42Z</time>
      </trkpt>
      <trkpt lat="46.47752" lon="6.12251">
        <ele>1503.64</ele>
        <time>2015-06-07T08:59:50Z</time>
      </trkpt>
      <trkpt lat="46.47755" lon="6.12255">
        <ele>1503.64</ele>
        <time>2015-06-07T08:59:57Z</time>
      </trkpt>
      <trkpt lat="46.47758" lon="6.12256">
        <ele>1503.64</ele>
        <time>2015-06-07T09:00:00Z</time>
      </trkpt>
      <trkpt lat="46.47762" lon="6.12258">
        <ele>1503.16</ele>
        <time>2015-06-07T09:00:03Z</time>
      </trkpt>
      <trkpt lat="46.47768" lon="6.12265">
        <ele>1503.16</ele>
        <time>2015-06-07T09:00:12Z</time>
      </trkpt>
      <trkpt lat="46.47768" lon="6.12265">
        <ele>1503.16</ele>
        <time>2015-06-07T09:00:13Z</time>
      </trkpt>
      <trkpt lat="46.47773" lon="6.12269">
        <ele>1502.68</ele>
        <time>2015-06-07T09:00:20Z</time>
      </trkpt>
      <trkpt lat="46.47773" lon="6.12272">
        <ele>1502.68</ele>
        <time>2015-06-07T09:00:28Z</time>
      </trkpt>
      <trkpt lat="46.47772" lon="6.12272">
        <ele>1502.68</ele>
        <time>2015-06-07T09:00:36Z</time>
      </trkpt>
      <trkpt lat="46.47773" lon="6.12272">
        <ele>1502.68</ele>
        <time>2015-06-07T09:00:48Z</time>
      </trkpt>
      <trkpt lat="46.47773" lon="6.12271">
        <ele>1502.68</ele>
        <time>2015-06-07T09:00:57Z</time>
      </trkpt>
      <trkpt lat="46.47772" lon="6.12271">
        <ele>1502.68</ele>
        <time>2015-06-07T09:01:11Z</time>
      </trkpt>
      <trkpt lat="46.47772" lon="6.12273">
        <ele>1502.68</ele>
        <time>2015-06-07T09:01:27Z</time>
      </trkpt>
      <trkpt lat="46.47773" lon="6.12273">
        <ele>1503.16</ele>
        <time>2015-06-07T09:01:42Z</time>
      </trkpt>
      <trkpt lat="46.47773" lon="6.12272">
        <ele>1503.16</ele>
        <time>2015-06-07T09:01:50Z</time>
      </trkpt>
      <trkpt lat="46.47774" lon="6.12268">
        <ele>1503.16</ele>
        <time>2015-06-07T09:01:56Z</time>
      </trkpt>
      <trkpt lat="46.47775" lon="6.12264">
        <ele>1503.16</ele>
        <time>2015-06-07T09:02:13Z</time>
      </trkpt>
      <trkpt lat="46.47775" lon="6.12264">
        <ele>1503.16</ele>
        <time>2015-06-07T09:02:27Z</time>
      </trkpt>
      <trkpt lat="46.47775" lon="6.12264">
        <ele>1503.16</ele>
        <time>2015-06-07T09:02:42Z</time>
      </trkpt>
      <trkpt lat="46.47776" lon="6.12264">
        <ele>1503.16</ele>
        <time>2015-06-07T09:02:58Z</time>
      </trkpt>
      <trkpt lat="46.47776" lon="6.12264">
        <ele>1503.16</ele>
        <time>2015-06-07T09:03:15Z</time>
      </trkpt>
      <trkpt lat="46.47776" lon="6.12264">
        <ele>1503.16</ele>
        <time>2015-06-07T09:03:29Z</time>
      </trkpt>
      <trkpt lat="46.47777" lon="6.12263">
        <ele>1503.16</ele>
        <time>2015-06-07T09:03:44Z</time>
      </trkpt>
      <trkpt lat="46.47776" lon="6.12265">
        <ele>1503.16</ele>
        <time>2015-06-07T09:04:00Z</time>
      </trkpt>
      <trkpt lat="46.47776" lon="6.12266">
        <ele>1503.16</ele>
        <time>2015-06-07T09:04:16Z</time>
      </trkpt>
      <trkpt lat="46.47776" lon="6.12265">
        <ele>1503.64</ele>
        <time>2015-06-07T09:04:26Z</time>
      </trkpt>
      <trkpt lat="46.47775" lon="6.12263">
        <ele>1503.16</ele>
        <time>2015-06-07T09:04:38Z</time>
      </trkpt>
      <trkpt lat="46.47773" lon="6.12265">
        <ele>1503.16</ele>
        <time>2015-06-07T09:04:51Z</time>
      </trkpt>
      <trkpt lat="46.47771" lon="6.12268">
        <ele>1503.16</ele>
        <time>2015-06-07T09:05:06Z</time>
      </trkpt>
      <trkpt lat="46.4777" lon="6.1227">
        <ele>1503.64</ele>
        <time>2015-06-07T09:05:22Z</time>
      </trkpt>
      <trkpt lat="46.47772" lon="6.12273">
        <ele>1503.64</ele>
        <time>2015-06-07T09:05:34Z</time>
      </trkpt>
      <trkpt lat="46.47777" lon="6.12273">
        <ele>1503.16</ele>
        <time>2015-06-07T09:05:41Z</time>
      </trkpt>
      <trkpt lat="46.47778" lon="6.12273">
        <ele>1503.16</ele>
        <time>2015-06-07T09:05:42Z</time>
      </trkpt>
      <trkpt lat="46.4778" lon="6.12271">
        <ele>1503.16</ele>
        <time>2015-06-07T09:05:44Z</time>
      </trkpt>
      <trkpt lat="46.47782" lon="6.12264">
        <ele>1503.16</ele>
        <time>2015-06-07T09:05:48Z</time>
      </trkpt>
      <trkpt lat="46.47782" lon="6.1226">
        <ele>1503.16</ele>
        <time>2015-06-07T09:05:50Z</time>
      </trkpt>
      <trkpt lat="46.47785" lon="6.12257">
        <ele>1503.16</ele>
        <time>2015-06-07T09:05:52Z</time>
      </trkpt>
      <trkpt lat="46.47791" lon="6.12248">
        <ele>1503.16</ele>
        <time>2015-06-07T09:05:59Z</time>
      </trkpt>
      <trkpt lat="46.47795" lon="6.12243">
        <ele>1502.68</ele>
        <time>2015-06-07T09:06:05Z</time>
      </trkpt>
      <trkpt lat="46.47796" lon="6.12238">
        <ele>1502.68</ele>
        <time>2015-06-07T09:06:12Z</time>
      </trkpt>
      <trkpt lat="46.47796" lon="6.12238">
        <ele>1502.68</ele>
        <time>2015-06-07T09:06:20Z</time>
      </trkpt>
      <trkpt lat="46.47797" lon="6.12237">
        <ele>1502.68</ele>
        <time>2015-06-07T09:06:34Z</time>
      </trkpt>
      <trkpt lat="46.47798" lon="6.12234">
        <ele>1502.68</ele>
        <time>2015-06-07T09:06:40Z</time>
      </trkpt>
      <trkpt lat="46.47798" lon="6.12234">
        <ele>1502.68</ele>
        <time>2015-06-07T09:06:41Z</time>
      </trkpt>
      <trkpt lat="46.478" lon="6.12232">
        <ele>1502.68</ele>
        <time>2015-06-07T09:06:43Z</time>
      </trkpt>
      <trkpt lat="46.47804" lon="6.12222">
        <ele>1502.68</ele>
        <time>2015-06-07T09:06:49Z</time>
      </trkpt>
      <trkpt lat="46.47807" lon="6.1222">
        <ele>1503.16</ele>
        <time>2015-06-07T09:06:52Z</time>
      </trkpt>
      <trkpt lat="46.47815" lon="6.12221">
        <ele>1503.16</ele>
        <time>2015-06-07T09:06:58Z</time>
      </trkpt>
      <trkpt lat="46.47819" lon="6.12222">
        <ele>1503.16</ele>
        <time>2015-06-07T09:07:01Z</time>
      </trkpt>
      <trkpt lat="46.47829" lon="6.1222">
        <ele>1502.68</ele>
        <time>2015-06-07T09:07:09Z</time>
      </trkpt>
      <trkpt lat="46.47831" lon="6.12218">
        <ele>1502.2</ele>
        <time>2015-06-07T09:07:11Z</time>
      </trkpt>
      <trkpt lat="46.47839" lon="6.12214">
        <ele>1502.68</ele>
        <time>2015-06-07T09:07:18Z</time>
      </trkpt>
      <trkpt lat="46.47842" lon="6.12213">
        <ele>1502.2</ele>
        <time>2015-06-07T09:07:20Z</time>
      </trkpt>
      <trkpt lat="46.47851" lon="6.12211">
        <ele>1501.72</ele>
        <time>2015-06-07T09:07:27Z</time>
      </trkpt>
      <trkpt lat="46.4786" lon="6.12215">
        <ele>1501.24</ele>
        <time>2015-06-07T09:07:34Z</time>
      </trkpt>
      <trkpt lat="46.47865" lon="6.1222">
        <ele>1500.76</ele>
        <time>2015-06-07T09:07:39Z</time>
      </trkpt>
      <trkpt lat="46.4787" lon="6.12225">
        <ele>1500.27</ele>
        <time>2015-06-07T09:07:45Z</time>
      </trkpt>
      <trkpt lat="46.47876" lon="6.12231">
        <ele>1499.79</ele>
        <time>2015-06-07T09:07:51Z</time>
      </trkpt>
      <trkpt lat="46.47882" lon="6.12237">
        <ele>1498.83</ele>
        <time>2015-06-07T09:07:57Z</time>
      </trkpt>
      <trkpt lat="46.47889" lon="6.12243">
        <ele>1497.87</ele>
        <time>2015-06-07T09:08:03Z</time>
      </trkpt>
      <trkpt lat="46.47889" lon="6.12244">
        <ele>1497.39</ele>
        <time>2015-06-07T09:08:04Z</time>
      </trkpt>
      <trkpt lat="46.47893" lon="6.12252">
        <ele>1496.43</ele>
        <time>2015-06-07T09:08:10Z</time>
      </trkpt>
      <trkpt lat="46.47894" lon="6.12253">
        <ele>1495.95</ele>
        <time>2015-06-07T09:08:11Z</time>
      </trkpt>
      <trkpt lat="46.47897" lon="6.12258">
        <ele>1495.95</ele>
        <time>2015-06-07T09:08:15Z</time>
      </trkpt>
      <trkpt lat="46.47903" lon="6.12269">
        <ele>1494.99</ele>
        <time>2015-06-07T09:08:24Z</time>
      </trkpt>
      <trkpt lat="46.47904" lon="6.1227">
        <ele>1494.99</ele>
        <time>2015-06-07T09:08:25Z</time>
      </trkpt>
      <trkpt lat="46.47908" lon="6.12276">
        <ele>1494.51</ele>
        <time>2015-06-07T09:08:32Z</time>
      </trkpt>
      <trkpt lat="46.47911" lon="6.12278">
        <ele>1494.51</ele>
        <time>2015-06-07T09:08:34Z</time>
      </trkpt>
      <trkpt lat="46.47914" lon="6.12283">
        <ele>1494.03</ele>
        <time>2015-06-07T09:08:38Z</time>
      </trkpt>
      <trkpt lat="46.47919" lon="6.1229">
        <ele>1493.55</ele>
        <time>2015-06-07T09:08:44Z</time>
      </trkpt>
      <trkpt lat="46.47925" lon="6.123">
        <ele>1493.06</ele>
        <time>2015-06-07T09:08:51Z</time>
      </trkpt>
      <trkpt lat="46.47927" lon="6.12302">
        <ele>1493.06</ele>
        <time>2015-06-07T09:08:53Z</time>
      </trkpt>
      <trkpt lat="46.47934" lon="6.12309">
        <ele>1492.58</ele>
        <time>2015-06-07T09:08:59Z</time>
      </trkpt>
      <trkpt lat="46.47939" lon="6.12313">
        <ele>1491.14</ele>
        <time>2015-06-07T09:09:04Z</time>
      </trkpt>
      <trkpt lat="46.47943" lon="6.12312">
        <ele>1490.66</ele>
        <time>2015-06-07T09:09:09Z</time>
      </trkpt>
      <trkpt lat="46.47946" lon="6.1231">
        <ele>1490.18</ele>
        <time>2015-06-07T09:09:10Z</time>
      </trkpt>
      <trkpt lat="46.4795" lon="6.12301">
        <ele>1489.7</ele>
        <time>2015-06-07T09:09:15Z</time>
      </trkpt>
      <trkpt lat="46.47951" lon="6.12297">
        <ele>1489.22</ele>
        <time>2015-06-07T09:09:17Z</time>
      </trkpt>
      <trkpt lat="46.47951" lon="6.12294">
        <ele>1488.74</ele>
        <time>2015-06-07T09:09:19Z</time>
      </trkpt>
      <trkpt lat="46.47954" lon="6.12283">
        <ele>1487.78</ele>
        <time>2015-06-07T09:09:27Z</time>
      </trkpt>
      <trkpt lat="46.47955" lon="6.12278">
        <ele>1487.78</ele>
        <time>2015-06-07T09:09:30Z</time>
      </trkpt>
      <trkpt lat="46.47958" lon="6.12269">
        <ele>1487.3</ele>
        <time>2015-06-07T09:09:36Z</time>
      </trkpt>
      <trkpt lat="46.47962" lon="6.12261">
        <ele>1486.82</ele>
        <time>2015-06-07T09:09:42Z</time>
      </trkpt>
      <trkpt lat="46.47968" lon="6.12252">
        <ele>1485.37</ele>
        <time>2015-06-07T09:09:51Z</time>
      </trkpt>
      <trkpt lat="46.47974" lon="6.12246">
        <ele>1484.89</ele>
        <time>2015-06-07T09:09:57Z</time>
      </trkpt>
      <trkpt lat="46.47976" lon="6.12244">
        <ele>1484.41</ele>
        <time>2015-06-07T09:10:00Z</time>
      </trkpt>
      <trkpt lat="46.47979" lon="6.12242">
        <ele>1483.93</ele>
        <time>2015-06-07T09:10:03Z</time>
      </trkpt>
      <trkpt lat="46.47983" lon="6.1224">
        <ele>1483.45</ele>
        <time>2015-06-07T09:10:08Z</time>
      </trkpt>
      <trkpt lat="46.47988" lon="6.12241">
        <ele>1482.01</ele>
        <time>2015-06-07T09:10:15Z</time>
      </trkpt>
      <trkpt lat="46.47997" lon="6.12241">
        <ele>1481.05</ele>
        <time>2015-06-07T09:10:23Z</time>
      </trkpt>
      <trkpt lat="46.47999" lon="6.12242">
        <ele>1481.05</ele>
        <time>2015-06-07T09:10:25Z</time>
      </trkpt>
      <trkpt lat="46.48001" lon="6.12245">
        <ele>1480.57</ele>
        <time>2015-06-07T09:10:28Z</time>
      </trkpt>
      <trkpt lat="46.48008" lon="6.12251">
        <ele>1480.09</ele>
        <time>2015-06-07T09:10:33Z</time>
      </trkpt>
      <trkpt lat="46.48011" lon="6.12254">
        <ele>1480.57</ele>
        <time>2015-06-07T09:10:36Z</time>
      </trkpt>
      <trkpt lat="46.48013" lon="6.12265">
        <ele>1478.65</ele>
        <time>2015-06-07T09:10:43Z</time>
      </trkpt>
      <trkpt lat="46.48014" lon="6.12269">
        <ele>1478.16</ele>
        <time>2015-06-07T09:10:45Z</time>
      </trkpt>
      <trkpt lat="46.48014" lon="6.12281">
        <ele>1476.72</ele>
        <time>2015-06-07T09:10:52Z</time>
      </trkpt>
      <trkpt lat="46.48016" lon="6.12288">
        <ele>1476.24</ele>
        <time>2015-06-07T09:10:56Z</time>
      </trkpt>
      <trkpt lat="46.48016" lon="6.12293">
        <ele>1475.76</ele>
        <time>2015-06-07T09:10:59Z</time>
      </trkpt>
      <trkpt lat="46.48018" lon="6.12296">
        <ele>1475.28</ele>
        <time>2015-06-07T09:11:01Z</time>
      </trkpt>
      <trkpt lat="46.48021" lon="6.12299">
        <ele>1474.8</ele>
        <time>2015-06-07T09:11:04Z</time>
      </trkpt>
      <trkpt lat="46.48029" lon="6.123">
        <ele>1474.32</ele>
        <time>2015-06-07T09:11:10Z</time>
      </trkpt>
      <trkpt lat="46.48037" lon="6.12298">
        <ele>1474.32</ele>
        <time>2015-06-07T09:11:16Z</time>
      </trkpt>
      <trkpt lat="46.48045" lon="6.12291">
        <ele>1473.36</ele>
        <time>2015-06-07T09:11:23Z</time>
      </trkpt>
      <trkpt lat="46.48054" lon="6.12287">
        <ele>1472.88</ele>
        <time>2015-06-07T09:11:32Z</time>
      </trkpt>
      <trkpt lat="46.48062" lon="6.12289">
        <ele>1472.4</ele>
        <time>2015-06-07T09:11:39Z</time>
      </trkpt>
      <trkpt lat="46.48069" lon="6.12294">
        <ele>1471.44</ele>
        <time>2015-06-07T09:11:45Z</time>
      </trkpt>
      <trkpt lat="46.48072" lon="6.12297">
        <ele>1471.44</ele>
        <time>2015-06-07T09:11:48Z</time>
      </trkpt>
      <trkpt lat="46.48076" lon="6.12302">
        <ele>1471.44</ele>
        <time>2015-06-07T09:11:53Z</time>
      </trkpt>
      <trkpt lat="46.48078" lon="6.12304">
        <ele>1471.44</ele>
        <time>2015-06-07T09:11:55Z</time>
      </trkpt>
      <trkpt lat="46.48081" lon="6.12309">
        <ele>1471.44</ele>
        <time>2015-06-07T09:12:00Z</time>
      </trkpt>
      <trkpt lat="46.48083" lon="6.1231">
        <ele>1470.95</ele>
        <time>2015-06-07T09:12:02Z</time>
      </trkpt>
      <trkpt lat="46.48086" lon="6.12315">
        <ele>1470.47</ele>
        <time>2015-06-07T09:12:06Z</time>
      </trkpt>
      <trkpt lat="46.48091" lon="6.1232">
        <ele>1469.99</ele>
        <time>2015-06-07T09:12:12Z</time>
      </trkpt>
      <trkpt lat="46.48093" lon="6.12323">
        <ele>1469.99</ele>
        <time>2015-06-07T09:12:15Z</time>
      </trkpt>
      <trkpt lat="46.48094" lon="6.12326">
        <ele>1469.51</ele>
        <time>2015-06-07T09:12:17Z</time>
      </trkpt>
      <trkpt lat="46.48095" lon="6.12328">
        <ele>1469.03</ele>
        <time>2015-06-07T09:12:19Z</time>
      </trkpt>
      <trkpt lat="46.48095" lon="6.1233">
        <ele>1469.03</ele>
        <time>2015-06-07T09:12:21Z</time>
      </trkpt>
      <trkpt lat="46.481" lon="6.12336">
        <ele>1468.55</ele>
        <time>2015-06-07T09:12:27Z</time>
      </trkpt>
      <trkpt lat="46.48101" lon="6.12339">
        <ele>1468.07</ele>
        <time>2015-06-07T09:12:29Z</time>
      </trkpt>
      <trkpt lat="46.48103" lon="6.12341">
        <ele>1468.07</ele>
        <time>2015-06-07T09:12:31Z</time>
      </trkpt>
      <trkpt lat="46.48104" lon="6.12343">
        <ele>1467.59</ele>
        <time>2015-06-07T09:12:33Z</time>
      </trkpt>
      <trkpt lat="46.48108" lon="6.12351">
        <ele>1467.11</ele>
        <time>2015-06-07T09:12:40Z</time>
      </trkpt>
      <trkpt lat="46.48113" lon="6.12363">
        <ele>1465.67</ele>
        <time>2015-06-07T09:12:48Z</time>
      </trkpt>
      <trkpt lat="46.48117" lon="6.12372">
        <ele>1465.19</ele>
        <time>2015-06-07T09:12:54Z</time>
      </trkpt>
      <trkpt lat="46.48121" lon="6.12377">
        <ele>1465.19</ele>
        <time>2015-06-07T09:12:59Z</time>
      </trkpt>
      <trkpt lat="46.48125" lon="6.12385">
        <ele>1464.23</ele>
        <time>2015-06-07T09:13:06Z</time>
      </trkpt>
      <trkpt lat="46.48127" lon="6.12387">
        <ele>1463.74</ele>
        <time>2015-06-07T09:13:09Z</time>
      </trkpt>
      <trkpt lat="46.48131" lon="6.12393">
        <ele>1463.26</ele>
        <time>2015-06-07T09:13:16Z</time>
      </trkpt>
      <trkpt lat="46.48138" lon="6.12399">
        <ele>1462.3</ele>
        <time>2015-06-07T09:13:23Z</time>
      </trkpt>
      <trkpt lat="46.4814" lon="6.12401">
        <ele>1462.3</ele>
        <time>2015-06-07T09:13:26Z</time>
      </trkpt>
      <trkpt lat="46.48143" lon="6.12405">
        <ele>1461.82</ele>
        <time>2015-06-07T09:13:29Z</time>
      </trkpt>
      <trkpt lat="46.48145" lon="6.12408">
        <ele>1461.34</ele>
        <time>2015-06-07T09:13:32Z</time>
      </trkpt>
      <trkpt lat="46.48146" lon="6.1241">
        <ele>1461.34</ele>
        <time>2015-06-07T09:13:34Z</time>
      </trkpt>
      <trkpt lat="46.48151" lon="6.12415">
        <ele>1460.38</ele>
        <time>2015-06-07T09:13:41Z</time>
      </trkpt>
      <trkpt lat="46.48154" lon="6.12418">
        <ele>1459.9</ele>
        <time>2015-06-07T09:13:46Z</time>
      </trkpt>
      <trkpt lat="46.48158" lon="6.1242">
        <ele>1459.42</ele>
        <time>2015-06-07T09:13:50Z</time>
      </trkpt>
      <trkpt lat="46.48161" lon="6.12412">
        <ele>1458.94</ele>
        <time>2015-06-07T09:13:56Z</time>
      </trkpt>
      <trkpt lat="46.48159" lon="6.12408">
        <ele>1458.94</ele>
        <time>2015-06-07T09:13:59Z</time>
      </trkpt>
      <trkpt lat="46.48157" lon="6.12396">
        <ele>1458.46</ele>
        <time>2015-06-07T09:14:06Z</time>
      </trkpt>
      <trkpt lat="46.48156" lon="6.12393">
        <ele>1457.98</ele>
        <time>2015-06-07T09:14:08Z</time>
      </trkpt>
      <trkpt lat="46.48152" lon="6.12379">
        <ele>1457.98</ele>
        <time>2015-06-07T09:14:17Z</time>
      </trkpt>
      <trkpt lat="46.48152" lon="6.12378">
        <ele>1457.98</ele>
        <time>2015-06-07T09:14:18Z</time>
      </trkpt>
      <trkpt lat="46.4815" lon="6.12368">
        <ele>1457.5</ele>
        <time>2015-06-07T09:14:26Z</time>
      </trkpt>
      <trkpt lat="46.4815" lon="6.12367">
        <ele>1457.5</ele>
        <time>2015-06-07T09:14:27Z</time>
      </trkpt>
      <trkpt lat="46.48149" lon="6.12359">
        <ele>1457.02</ele>
        <time>2015-06-07T09:14:34Z</time>
      </trkpt>
      <trkpt lat="46.4815" lon="6.12358">
        <ele>1457.02</ele>
        <time>2015-06-07T09:14:35Z</time>
      </trkpt>
      <trkpt lat="46.48151" lon="6.12349">
        <ele>1456.53</ele>
        <time>2015-06-07T09:14:42Z</time>
      </trkpt>
      <trkpt lat="46.48151" lon="6.12341">
        <ele>1456.05</ele>
        <time>2015-06-07T09:14:47Z</time>
      </trkpt>
      <trkpt lat="46.48152" lon="6.12329">
        <ele>1455.09</ele>
        <time>2015-06-07T09:14:55Z</time>
      </trkpt>
      <trkpt lat="46.48152" lon="6.12319">
        <ele>1455.09</ele>
        <time>2015-06-07T09:15:02Z</time>
      </trkpt>
      <trkpt lat="46.48152" lon="6.12313">
        <ele>1455.09</ele>
        <time>2015-06-07T09:15:06Z</time>
      </trkpt>
      <trkpt lat="46.48152" lon="6.12309">
        <ele>1455.09</ele>
        <time>2015-06-07T09:15:09Z</time>
      </trkpt>
      <trkpt lat="46.48151" lon="6.12303">
        <ele>1454.61</ele>
        <time>2015-06-07T09:15:14Z</time>
      </trkpt>
      <trkpt lat="46.48145" lon="6.12288">
        <ele>1454.13</ele>
        <time>2015-06-07T09:15:24Z</time>
      </trkpt>
      <trkpt lat="46.48142" lon="6.12278">
        <ele>1453.65</ele>
        <time>2015-06-07T09:15:30Z</time>
      </trkpt>
      <trkpt lat="46.48141" lon="6.12267">
        <ele>1453.65</ele>
        <time>2015-06-07T09:15:37Z</time>
      </trkpt>
      <trkpt lat="46.48141" lon="6.12261">
        <ele>1453.65</ele>
        <time>2015-06-07T09:15:40Z</time>
      </trkpt>
      <trkpt lat="46.48141" lon="6.12249">
        <ele>1453.65</ele>
        <time>2015-06-07T09:15:48Z</time>
      </trkpt>
      <trkpt lat="46.4814" lon="6.12244">
        <ele>1453.65</ele>
        <time>2015-06-07T09:15:52Z</time>
      </trkpt>
      <trkpt lat="46.48136" lon="6.12231">
        <ele>1453.17</ele>
        <time>2015-06-07T09:16:00Z</time>
      </trkpt>
      <trkpt lat="46.48133" lon="6.12224">
        <ele>1452.69</ele>
        <time>2015-06-07T09:16:05Z</time>
      </trkpt>
      <trkpt lat="46.48127" lon="6.12215">
        <ele>1451.73</ele>
        <time>2015-06-07T09:16:12Z</time>
      </trkpt>
      <trkpt lat="46.48126" lon="6.12212">
        <ele>1451.25</ele>
        <time>2015-06-07T09:16:15Z</time>
      </trkpt>
      <trkpt lat="46.48124" lon="6.12204">
        <ele>1450.77</ele>
        <time>2015-06-07T09:16:20Z</time>
      </trkpt>
      <trkpt lat="46.4812" lon="6.12193">
        <ele>1450.29</ele>
        <time>2015-06-07T09:16:27Z</time>
      </trkpt>
      <trkpt lat="46.48119" lon="6.12187">
        <ele>1449.81</ele>
        <time>2015-06-07T09:16:31Z</time>
      </trkpt>
      <trkpt lat="46.48119" lon="6.12184">
        <ele>1449.81</ele>
        <time>2015-06-07T09:16:33Z</time>
      </trkpt>
      <trkpt lat="46.48123" lon="6.12173">
        <ele>1448.84</ele>
        <time>2015-06-07T09:16:41Z</time>
      </trkpt>
      <trkpt lat="46.48123" lon="6.12173">
        <ele>1448.84</ele>
        <time>2015-06-07T09:16:50Z</time>
      </trkpt>
      <trkpt lat="46.48123" lon="6.12173">
        <ele>1448.84</ele>
        <time>2015-06-07T09:17:03Z</time>
      </trkpt>
      <trkpt lat="46.48124" lon="6.12171">
        <ele>1448.84</ele>
        <time>2015-06-07T09:17:14Z</time>
      </trkpt>
      <trkpt lat="46.48127" lon="6.12166">
        <ele>1448.84</ele>
        <time>2015-06-07T09:17:23Z</time>
      </trkpt>
      <trkpt lat="46.48128" lon="6.12166">
        <ele>1448.84</ele>
        <time>2015-06-07T09:17:31Z</time>
      </trkpt>
      <trkpt lat="46.48128" lon="6.12166">
        <ele>1448.84</ele>
        <time>2015-06-07T09:17:45Z</time>
      </trkpt>
      <trkpt lat="46.48128" lon="6.12165">
        <ele>1449.32</ele>
        <time>2015-06-07T09:17:59Z</time>
      </trkpt>
      <trkpt lat="46.48129" lon="6.12165">
        <ele>1449.32</ele>
        <time>2015-06-07T09:18:00Z</time>
      </trkpt>
      <trkpt lat="46.48133" lon="6.12162">
        <ele>1448.84</ele>
        <time>2015-06-07T09:18:09Z</time>
      </trkpt>
      <trkpt lat="46.48135" lon="6.12162">
        <ele>1448.84</ele>
        <time>2015-06-07T09:18:25Z</time>
      </trkpt>
      <trkpt lat="46.48135" lon="6.12162">
        <ele>1449.32</ele>
        <time>2015-06-07T09:18:34Z</time>
      </trkpt>
      <trkpt lat="46.48138" lon="6.12159">
        <ele>1449.32</ele>
        <time>2015-06-07T09:18:42Z</time>
      </trkpt>
      <trkpt lat="46.4814" lon="6.12156">
        <ele>1448.36</ele>
        <time>2015-06-07T09:18:49Z</time>
      </trkpt>
      <trkpt lat="46.4814" lon="6.12155">
        <ele>1449.32</ele>
        <time>2015-06-07T09:18:59Z</time>
      </trkpt>
      <trkpt lat="46.48142" lon="6.12155">
        <ele>1449.32</ele>
        <time>2015-06-07T09:19:05Z</time>
      </trkpt>
      <trkpt lat="46.48144" lon="6.12151">
        <ele>1449.32</ele>
        <time>2015-06-07T09:19:13Z</time>
      </trkpt>
      <trkpt lat="46.48145" lon="6.12149">
        <ele>1449.32</ele>
        <time>2015-06-07T09:19:24Z</time>
      </trkpt>
      <trkpt lat="46.48146" lon="6.12149">
        <ele>1449.81</ele>
        <time>2015-06-07T09:19:37Z</time>
      </trkpt>
      <trkpt lat="46.48147" lon="6.12153">
        <ele>1449.32</ele>
        <time>2015-06-07T09:19:43Z</time>
      </trkpt>
      <trkpt lat="46.48147" lon="6.12153">
        <ele>1449.32</ele>
        <time>2015-06-07T09:19:54Z</time>
      </trkpt>
      <trkpt lat="46.48149" lon="6.12153">
        <ele>1449.32</ele>
        <time>2015-06-07T09:20:01Z</time>
      </trkpt>
      <trkpt lat="46.4815" lon="6.12152">
        <ele>1449.32</ele>
        <time>2015-06-07T09:20:08Z</time>
      </trkpt>
      <trkpt lat="46.48151" lon="6.12151">
        <ele>1449.32</ele>
        <time>2015-06-07T09:20:15Z</time>
      </trkpt>
      <trkpt lat="46.48153" lon="6.12151">
        <ele>1448.84</ele>
        <time>2015-06-07T09:20:22Z</time>
      </trkpt>
      <trkpt lat="46.48156" lon="6.12151">
        <ele>1448.84</ele>
        <time>2015-06-07T09:20:28Z</time>
      </trkpt>
      <trkpt lat="46.48156" lon="6.12151">
        <ele>1448.84</ele>
        <time>2015-06-07T09:20:29Z</time>
      </trkpt>
      <trkpt lat="46.48152" lon="6.12155">
        <ele>1449.32</ele>
        <time>2015-06-07T09:20:36Z</time>
      </trkpt>
      <trkpt lat="46.48152" lon="6.12155">
        <ele>1448.84</ele>
        <time>2015-06-07T09:20:40Z</time>
      </trkpt>
      <trkpt lat="46.4816" lon="6.12148">
        <ele>1448.36</ele>
        <time>2015-06-07T09:20:47Z</time>
      </trkpt>
      <trkpt lat="46.48161" lon="6.12148">
        <ele>1448.36</ele>
        <time>2015-06-07T09:20:48Z</time>
      </trkpt>
      <trkpt lat="46.48167" lon="6.12139">
        <ele>1447.88</ele>
        <time>2015-06-07T09:20:55Z</time>
      </trkpt>
      <trkpt lat="46.48169" lon="6.12136">
        <ele>1447.4</ele>
        <time>2015-06-07T09:20:57Z</time>
      </trkpt>
      <trkpt lat="46.48171" lon="6.12135">
        <ele>1447.88</ele>
        <time>2015-06-07T09:20:59Z</time>
      </trkpt>
      <trkpt lat="46.48173" lon="6.12134">
        <ele>1447.4</ele>
        <time>2015-06-07T09:21:01Z</time>
      </trkpt>
      <trkpt lat="46.48175" lon="6.12125">
        <ele>1446.92</ele>
        <time>2015-06-07T09:21:07Z</time>
      </trkpt>
      <trkpt lat="46.48177" lon="6.12127">
        <ele>1446.92</ele>
        <time>2015-06-07T09:21:14Z</time>
      </trkpt>
      <trkpt lat="46.48178" lon="6.12128">
        <ele>1446.92</ele>
        <time>2015-06-07T09:21:22Z</time>
      </trkpt>
      <trkpt lat="46.48179" lon="6.12131">
        <ele>1446.92</ele>
        <time>2015-06-07T09:21:29Z</time>
      </trkpt>
      <trkpt lat="46.48179" lon="6.12131">
        <ele>1446.92</ele>
        <time>2015-06-07T09:21:30Z</time>
      </trkpt>
      <trkpt lat="46.48182" lon="6.1213">
        <ele>1447.4</ele>
        <time>2015-06-07T09:21:32Z</time>
      </trkpt>
      <trkpt lat="46.4819" lon="6.12131">
        <ele>1446.44</ele>
        <time>2015-06-07T09:21:39Z</time>
      </trkpt>
      <trkpt lat="46.48196" lon="6.12134">
        <ele>1446.44</ele>
        <time>2015-06-07T09:21:45Z</time>
      </trkpt>
      <trkpt lat="46.48199" lon="6.12137">
        <ele>1445.96</ele>
        <time>2015-06-07T09:21:51Z</time>
      </trkpt>
      <trkpt lat="46.482" lon="6.12137">
        <ele>1445.96</ele>
        <time>2015-06-07T09:21:52Z</time>
      </trkpt>
      <trkpt lat="46.48205" lon="6.12141">
        <ele>1445</ele>
        <time>2015-06-07T09:21:58Z</time>
      </trkpt>
      <trkpt lat="46.48208" lon="6.12145">
        <ele>1445</ele>
        <time>2015-06-07T09:22:03Z</time>
      </trkpt>
      <trkpt lat="46.48209" lon="6.12147">
        <ele>1444.52</ele>
        <time>2015-06-07T09:22:05Z</time>
      </trkpt>
      <trkpt lat="46.48214" lon="6.12151">
        <ele>1444.52</ele>
        <time>2015-06-07T09:22:12Z</time>
      </trkpt>
      <trkpt lat="46.48218" lon="6.12154">
        <ele>1443.56</ele>
        <time>2015-06-07T09:22:18Z</time>
      </trkpt>
      <trkpt lat="46.48222" lon="6.12156">
        <ele>1443.56</ele>
        <time>2015-06-07T09:22:27Z</time>
      </trkpt>
      <trkpt lat="46.48222" lon="6.12157">
        <ele>1443.56</ele>
        <time>2015-06-07T09:22:28Z</time>
      </trkpt>
      <trkpt lat="46.48228" lon="6.1216">
        <ele>1443.56</ele>
        <time>2015-06-07T09:22:34Z</time>
      </trkpt>
      <trkpt lat="46.48233" lon="6.12163">
        <ele>1443.56</ele>
        <time>2015-06-07T09:22:38Z</time>
      </trkpt>
      <trkpt lat="46.48236" lon="6.12167">
        <ele>1443.56</ele>
        <time>2015-06-07T09:22:42Z</time>
      </trkpt>
      <trkpt lat="46.48241" lon="6.1217">
        <ele>1443.56</ele>
        <time>2015-06-07T09:22:47Z</time>
      </trkpt>
      <trkpt lat="46.48243" lon="6.12172">
        <ele>1444.04</ele>
        <time>2015-06-07T09:22:49Z</time>
      </trkpt>
      <trkpt lat="46.48245" lon="6.12174">
        <ele>1444.04</ele>
        <time>2015-06-07T09:22:51Z</time>
      </trkpt>
      <trkpt lat="46.48253" lon="6.1218">
        <ele>1444.52</ele>
        <time>2015-06-07T09:22:58Z</time>
      </trkpt>
      <trkpt lat="46.48259" lon="6.12185">
        <ele>1444.52</ele>
        <time>2015-06-07T09:23:05Z</time>
      </trkpt>
      <trkpt lat="46.4826" lon="6.12186">
        <ele>1444.52</ele>
        <time>2015-06-07T09:23:06Z</time>
      </trkpt>
      <trkpt lat="46.48264" lon="6.12193">
        <ele>1444.04</ele>
        <time>2015-06-07T09:23:11Z</time>
      </trkpt>
      <trkpt lat="46.48265" lon="6.12196">
        <ele>1444.04</ele>
        <time>2015-06-07T09:23:13Z</time>
      </trkpt>
      <trkpt lat="46.4827" lon="6.122">
        <ele>1443.56</ele>
        <time>2015-06-07T09:23:18Z</time>
      </trkpt>
      <trkpt lat="46.48272" lon="6.12205">
        <ele>1443.08</ele>
        <time>2015-06-07T09:23:21Z</time>
      </trkpt>
      <trkpt lat="46.48278" lon="6.12212">
        <ele>1442.11</ele>
        <time>2015-06-07T09:23:28Z</time>
      </trkpt>
      <trkpt lat="46.48285" lon="6.12219">
        <ele>1441.15</ele>
        <time>2015-06-07T09:23:35Z</time>
      </trkpt>
      <trkpt lat="46.48294" lon="6.12224">
        <ele>1441.15</ele>
        <time>2015-06-07T09:23:43Z</time>
      </trkpt>
      <trkpt lat="46.48297" lon="6.12228">
        <ele>1441.15</ele>
        <time>2015-06-07T09:23:46Z</time>
      </trkpt>
      <trkpt lat="46.48299" lon="6.1223">
        <ele>1441.63</ele>
        <time>2015-06-07T09:23:49Z</time>
      </trkpt>
      <trkpt lat="46.48303" lon="6.12234">
        <ele>1442.11</ele>
        <time>2015-06-07T09:23:53Z</time>
      </trkpt>
      <trkpt lat="46.48305" lon="6.12235">
        <ele>1442.11</ele>
        <time>2015-06-07T09:23:56Z</time>
      </trkpt>
      <trkpt lat="46.48309" lon="6.12238">
        <ele>1442.6</ele>
        <time>2015-06-07T09:24:04Z</time>
      </trkpt>
      <trkpt lat="46.48312" lon="6.1224">
        <ele>1443.08</ele>
        <time>2015-06-07T09:24:10Z</time>
      </trkpt>
      <trkpt lat="46.48313" lon="6.12241">
        <ele>1443.08</ele>
        <time>2015-06-07T09:24:11Z</time>
      </trkpt>
      <trkpt lat="46.48317" lon="6.12245">
        <ele>1443.56</ele>
        <time>2015-06-07T09:24:17Z</time>
      </trkpt>
      <trkpt lat="46.48323" lon="6.12249">
        <ele>1444.52</ele>
        <time>2015-06-07T09:24:24Z</time>
      </trkpt>
      <trkpt lat="46.48328" lon="6.12254">
        <ele>1445</ele>
        <time>2015-06-07T09:24:30Z</time>
      </trkpt>
      <trkpt lat="46.4833" lon="6.12255">
        <ele>1445.48</ele>
        <time>2015-06-07T09:24:32Z</time>
      </trkpt>
      <trkpt lat="46.48335" lon="6.12261">
        <ele>1445.96</ele>
        <time>2015-06-07T09:24:39Z</time>
      </trkpt>
      <trkpt lat="46.48336" lon="6.12262">
        <ele>1445.96</ele>
        <time>2015-06-07T09:24:40Z</time>
      </trkpt>
      <trkpt lat="46.48342" lon="6.12269">
        <ele>1446.44</ele>
        <time>2015-06-07T09:24:47Z</time>
      </trkpt>
      <trkpt lat="46.48344" lon="6.1227">
        <ele>1446.44</ele>
        <time>2015-06-07T09:24:49Z</time>
      </trkpt>
      <trkpt lat="46.4835" lon="6.12279">
        <ele>1446.92</ele>
        <time>2015-06-07T09:24:56Z</time>
      </trkpt>
      <trkpt lat="46.48351" lon="6.12279">
        <ele>1447.4</ele>
        <time>2015-06-07T09:24:57Z</time>
      </trkpt>
      <trkpt lat="46.48358" lon="6.12284">
        <ele>1447.88</ele>
        <time>2015-06-07T09:25:04Z</time>
      </trkpt>
      <trkpt lat="46.48361" lon="6.12289">
        <ele>1448.36</ele>
        <time>2015-06-07T09:25:08Z</time>
      </trkpt>
      <trkpt lat="46.48366" lon="6.12295">
        <ele>1448.36</ele>
        <time>2015-06-07T09:25:13Z</time>
      </trkpt>
      <trkpt lat="46.4837" lon="6.12298">
        <ele>1448.36</ele>
        <time>2015-06-07T09:25:17Z</time>
      </trkpt>
      <trkpt lat="46.48374" lon="6.12304">
        <ele>1448.84</ele>
        <time>2015-06-07T09:25:22Z</time>
      </trkpt>
      <trkpt lat="46.48379" lon="6.12312">
        <ele>1449.32</ele>
        <time>2015-06-07T09:25:29Z</time>
      </trkpt>
      <trkpt lat="46.48383" lon="6.12315">
        <ele>1449.32</ele>
        <time>2015-06-07T09:25:33Z</time>
      </trkpt>
      <trkpt lat="46.48387" lon="6.12322">
        <ele>1449.81</ele>
        <time>2015-06-07T09:25:39Z</time>
      </trkpt>
      <trkpt lat="46.48392" lon="6.12326">
        <ele>1450.77</ele>
        <time>2015-06-07T09:25:45Z</time>
      </trkpt>
      <trkpt lat="46.48395" lon="6.12331">
        <ele>1451.25</ele>
        <time>2015-06-07T09:25:49Z</time>
      </trkpt>
      <trkpt lat="46.48397" lon="6.12334">
        <ele>1451.73</ele>
        <time>2015-06-07T09:25:52Z</time>
      </trkpt>
      <trkpt lat="46.48399" lon="6.12337">
        <ele>1452.21</ele>
        <time>2015-06-07T09:25:55Z</time>
      </trkpt>
      <trkpt lat="46.48401" lon="6.12342">
        <ele>1452.69</ele>
        <time>2015-06-07T09:25:59Z</time>
      </trkpt>
      <trkpt lat="46.48407" lon="6.12347">
        <ele>1453.65</ele>
        <time>2015-06-07T09:26:06Z</time>
      </trkpt>
      <trkpt lat="46.4841" lon="6.12353">
        <ele>1455.09</ele>
        <time>2015-06-07T09:26:13Z</time>
      </trkpt>
      <trkpt lat="46.48412" lon="6.12356">
        <ele>1455.57</ele>
        <time>2015-06-07T09:26:16Z</time>
      </trkpt>
      <trkpt lat="46.48414" lon="6.12358">
        <ele>1456.05</ele>
        <time>2015-06-07T09:26:18Z</time>
      </trkpt>
      <trkpt lat="46.48416" lon="6.12361">
        <ele>1456.53</ele>
        <time>2015-06-07T09:26:22Z</time>
      </trkpt>
      <trkpt lat="46.48418" lon="6.12364">
        <ele>1457.02</ele>
        <time>2015-06-07T09:26:26Z</time>
      </trkpt>
      <trkpt lat="46.48425" lon="6.12366">
        <ele>1457.98</ele>
        <time>2015-06-07T09:26:34Z</time>
      </trkpt>
      <trkpt lat="46.48426" lon="6.12366">
        <ele>1457.98</ele>
        <time>2015-06-07T09:26:35Z</time>
      </trkpt>
      <trkpt lat="46.48428" lon="6.12368">
        <ele>1458.94</ele>
        <time>2015-06-07T09:26:37Z</time>
      </trkpt>
      <trkpt lat="46.48434" lon="6.12369">
        <ele>1458.46</ele>
        <time>2015-06-07T09:26:44Z</time>
      </trkpt>
      <trkpt lat="46.48438" lon="6.12371">
        <ele>1458.94</ele>
        <time>2015-06-07T09:26:49Z</time>
      </trkpt>
      <trkpt lat="46.48441" lon="6.12371">
        <ele>1459.42</ele>
        <time>2015-06-07T09:26:53Z</time>
      </trkpt>
      <trkpt lat="46.48443" lon="6.12372">
        <ele>1459.9</ele>
        <time>2015-06-07T09:26:56Z</time>
      </trkpt>
      <trkpt lat="46.48449" lon="6.1237">
        <ele>1460.38</ele>
        <time>2015-06-07T09:27:03Z</time>
      </trkpt>
      <trkpt lat="46.48457" lon="6.12367">
        <ele>1461.34</ele>
        <time>2015-06-07T09:27:11Z</time>
      </trkpt>
      <trkpt lat="46.48463" lon="6.12362">
        <ele>1461.82</ele>
        <time>2015-06-07T09:27:19Z</time>
      </trkpt>
      <trkpt lat="46.48466" lon="6.12359">
        <ele>1462.3</ele>
        <time>2015-06-07T09:27:23Z</time>
      </trkpt>
      <trkpt lat="46.4847" lon="6.1236">
        <ele>1463.74</ele>
        <time>2015-06-07T09:27:31Z</time>
      </trkpt>
      <trkpt lat="46.48473" lon="6.1236">
        <ele>1464.71</ele>
        <time>2015-06-07T09:27:39Z</time>
      </trkpt>
      <trkpt lat="46.48477" lon="6.12362">
        <ele>1465.67</ele>
        <time>2015-06-07T09:27:47Z</time>
      </trkpt>
      <trkpt lat="46.48479" lon="6.12365">
        <ele>1466.63</ele>
        <time>2015-06-07T09:27:55Z</time>
      </trkpt>
      <trkpt lat="46.48481" lon="6.12368">
        <ele>1467.59</ele>
        <time>2015-06-07T09:28:02Z</time>
      </trkpt>
      <trkpt lat="46.48484" lon="6.12376">
        <ele>1468.07</ele>
        <time>2015-06-07T09:28:11Z</time>
      </trkpt>
      <trkpt lat="46.48485" lon="6.12383">
        <ele>1469.51</ele>
        <time>2015-06-07T09:28:19Z</time>
      </trkpt>
      <trkpt lat="46.48488" lon="6.1239">
        <ele>1469.99</ele>
        <time>2015-06-07T09:28:25Z</time>
      </trkpt>
      <trkpt lat="46.48489" lon="6.12396">
        <ele>1470.95</ele>
        <time>2015-06-07T09:28:32Z</time>
      </trkpt>
      <trkpt lat="46.48492" lon="6.12402">
        <ele>1471.44</ele>
        <time>2015-06-07T09:28:37Z</time>
      </trkpt>
      <trkpt lat="46.48494" lon="6.12406">
        <ele>1471.92</ele>
        <time>2015-06-07T09:28:43Z</time>
      </trkpt>
      <trkpt lat="46.48497" lon="6.12412">
        <ele>1472.88</ele>
        <time>2015-06-07T09:28:49Z</time>
      </trkpt>
      <trkpt lat="46.485" lon="6.12418">
        <ele>1473.36</ele>
        <time>2015-06-07T09:28:56Z</time>
      </trkpt>
      <trkpt lat="46.48503" lon="6.12422">
        <ele>1473.84</ele>
        <time>2015-06-07T09:29:02Z</time>
      </trkpt>
      <trkpt lat="46.48509" lon="6.12426">
        <ele>1474.8</ele>
        <time>2015-06-07T09:29:10Z</time>
      </trkpt>
      <trkpt lat="46.48512" lon="6.12429">
        <ele>1474.8</ele>
        <time>2015-06-07T09:29:16Z</time>
      </trkpt>
      <trkpt lat="46.48515" lon="6.12431">
        <ele>1475.28</ele>
        <time>2015-06-07T09:29:24Z</time>
      </trkpt>
      <trkpt lat="46.48521" lon="6.12438">
        <ele>1475.76</ele>
        <time>2015-06-07T09:29:32Z</time>
      </trkpt>
      <trkpt lat="46.48524" lon="6.12439">
        <ele>1475.76</ele>
        <time>2015-06-07T09:29:34Z</time>
      </trkpt>
      <trkpt lat="46.48533" lon="6.12444">
        <ele>1475.76</ele>
        <time>2015-06-07T09:29:42Z</time>
      </trkpt>
      <trkpt lat="46.48542" lon="6.12449">
        <ele>1476.24</ele>
        <time>2015-06-07T09:29:50Z</time>
      </trkpt>
      <trkpt lat="46.48544" lon="6.12449">
        <ele>1476.24</ele>
        <time>2015-06-07T09:29:51Z</time>
      </trkpt>
      <trkpt lat="46.48553" lon="6.12453">
        <ele>1476.72</ele>
        <time>2015-06-07T09:29:59Z</time>
      </trkpt>
      <trkpt lat="46.4856" lon="6.12456">
        <ele>1477.2</ele>
        <time>2015-06-07T09:30:06Z</time>
      </trkpt>
      <trkpt lat="46.48566" lon="6.12463">
        <ele>1477.68</ele>
        <time>2015-06-07T09:30:15Z</time>
      </trkpt>
      <trkpt lat="46.48572" lon="6.12465">
        <ele>1476.72</ele>
        <time>2015-06-07T09:30:21Z</time>
      </trkpt>
      <trkpt lat="46.48575" lon="6.12466">
        <ele>1476.72</ele>
        <time>2015-06-07T09:30:24Z</time>
      </trkpt>
      <trkpt lat="46.48581" lon="6.12469">
        <ele>1476.72</ele>
        <time>2015-06-07T09:30:29Z</time>
      </trkpt>
      <trkpt lat="46.48593" lon="6.12472">
        <ele>1477.2</ele>
        <time>2015-06-07T09:30:38Z</time>
      </trkpt>
      <trkpt lat="46.48594" lon="6.12472">
        <ele>1476.24</ele>
        <time>2015-06-07T09:30:39Z</time>
      </trkpt>
      <trkpt lat="46.48599" lon="6.12475">
        <ele>1476.24</ele>
        <time>2015-06-07T09:30:43Z</time>
      </trkpt>
      <trkpt lat="46.48605" lon="6.12477">
        <ele>1476.24</ele>
        <time>2015-06-07T09:30:48Z</time>
      </trkpt>
      <trkpt lat="46.48611" lon="6.12479">
        <ele>1476.24</ele>
        <time>2015-06-07T09:30:54Z</time>
      </trkpt>
      <trkpt lat="46.48614" lon="6.1248">
        <ele>1476.72</ele>
        <time>2015-06-07T09:30:58Z</time>
      </trkpt>
      <trkpt lat="46.48618" lon="6.12484">
        <ele>1476.72</ele>
        <time>2015-06-07T09:31:02Z</time>
      </trkpt>
      <trkpt lat="46.48622" lon="6.12487">
        <ele>1477.2</ele>
        <time>2015-06-07T09:31:06Z</time>
      </trkpt>
      <trkpt lat="46.48629" lon="6.12492">
        <ele>1477.2</ele>
        <time>2015-06-07T09:31:14Z</time>
      </trkpt>
      <trkpt lat="46.48635" lon="6.12495">
        <ele>1476.72</ele>
        <time>2015-06-07T09:31:21Z</time>
      </trkpt>
      <trkpt lat="46.48639" lon="6.12499">
        <ele>1476.24</ele>
        <time>2015-06-07T09:31:27Z</time>
      </trkpt>
      <trkpt lat="46.48645" lon="6.125">
        <ele>1475.76</ele>
        <time>2015-06-07T09:31:34Z</time>
      </trkpt>
      <trkpt lat="46.48647" lon="6.12501">
        <ele>1475.28</ele>
        <time>2015-06-07T09:31:37Z</time>
      </trkpt>
      <trkpt lat="46.48651" lon="6.12504">
        <ele>1474.8</ele>
        <time>2015-06-07T09:31:42Z</time>
      </trkpt>
      <trkpt lat="46.48658" lon="6.12508">
        <ele>1474.32</ele>
        <time>2015-06-07T09:31:50Z</time>
      </trkpt>
      <trkpt lat="46.48661" lon="6.12512">
        <ele>1473.84</ele>
        <time>2015-06-07T09:31:54Z</time>
      </trkpt>
      <trkpt lat="46.48663" lon="6.12512">
        <ele>1473.84</ele>
        <time>2015-06-07T09:31:56Z</time>
      </trkpt>
      <trkpt lat="46.48667" lon="6.12512">
        <ele>1473.36</ele>
        <time>2015-06-07T09:32:01Z</time>
      </trkpt>
      <trkpt lat="46.48669" lon="6.12513">
        <ele>1473.36</ele>
        <time>2015-06-07T09:32:04Z</time>
      </trkpt>
      <trkpt lat="46.48671" lon="6.12513">
        <ele>1472.88</ele>
        <time>2015-06-07T09:32:07Z</time>
      </trkpt>
      <trkpt lat="46.48678" lon="6.12512">
        <ele>1472.4</ele>
        <time>2015-06-07T09:32:15Z</time>
      </trkpt>
      <trkpt lat="46.48679" lon="6.12514">
        <ele>1471.92</ele>
        <time>2015-06-07T09:32:24Z</time>
      </trkpt>
      <trkpt lat="46.48679" lon="6.12514">
        <ele>1471.92</ele>
        <time>2015-06-07T09:32:25Z</time>
      </trkpt>
      <trkpt lat="46.48682" lon="6.12516">
        <ele>1471.44</ele>
        <time>2015-06-07T09:32:31Z</time>
      </trkpt>
      <trkpt lat="46.48691" lon="6.12521">
        <ele>1470.95</ele>
        <time>2015-06-07T09:32:40Z</time>
      </trkpt>
      <trkpt lat="46.487" lon="6.12527">
        <ele>1470.47</ele>
        <time>2015-06-07T09:32:49Z</time>
      </trkpt>
      <trkpt lat="46.48708" lon="6.1253">
        <ele>1469.99</ele>
        <time>2015-06-07T09:32:56Z</time>
      </trkpt>
      <trkpt lat="46.48711" lon="6.12532">
        <ele>1469.99</ele>
        <time>2015-06-07T09:33:00Z</time>
      </trkpt>
      <trkpt lat="46.48717" lon="6.12536">
        <ele>1469.03</ele>
        <time>2015-06-07T09:33:06Z</time>
      </trkpt>
      <trkpt lat="46.48719" lon="6.12537">
        <ele>1468.55</ele>
        <time>2015-06-07T09:33:08Z</time>
      </trkpt>
      <trkpt lat="46.48721" lon="6.12538">
        <ele>1469.03</ele>
        <time>2015-06-07T09:33:10Z</time>
      </trkpt>
      <trkpt lat="46.48729" lon="6.12545">
        <ele>1467.59</ele>
        <time>2015-06-07T09:33:18Z</time>
      </trkpt>
      <trkpt lat="46.48736" lon="6.12548">
        <ele>1467.11</ele>
        <time>2015-06-07T09:33:27Z</time>
      </trkpt>
      <trkpt lat="46.48742" lon="6.12553">
        <ele>1466.63</ele>
        <time>2015-06-07T09:33:34Z</time>
      </trkpt>
      <trkpt lat="46.4875" lon="6.12557">
        <ele>1465.67</ele>
        <time>2015-06-07T09:33:43Z</time>
      </trkpt>
      <trkpt lat="46.4876" lon="6.12558">
        <ele>1465.19</ele>
        <time>2015-06-07T09:33:50Z</time>
      </trkpt>
      <trkpt lat="46.48768" lon="6.1256">
        <ele>1464.71</ele>
        <time>2015-06-07T09:33:59Z</time>
      </trkpt>
      <trkpt lat="46.48771" lon="6.1256">
        <ele>1463.74</ele>
        <time>2015-06-07T09:34:04Z</time>
      </trkpt>
      <trkpt lat="46.48776" lon="6.12562">
        <ele>1463.26</ele>
        <time>2015-06-07T09:34:11Z</time>
      </trkpt>
      <trkpt lat="46.48779" lon="6.12563">
        <ele>1463.26</ele>
        <time>2015-06-07T09:34:19Z</time>
      </trkpt>
      <trkpt lat="46.4878" lon="6.12564">
        <ele>1463.26</ele>
        <time>2015-06-07T09:34:20Z</time>
      </trkpt>
      <trkpt lat="46.48785" lon="6.12571">
        <ele>1462.3</ele>
        <time>2015-06-07T09:34:29Z</time>
      </trkpt>
      <trkpt lat="46.48786" lon="6.12571">
        <ele>1462.3</ele>
        <time>2015-06-07T09:34:44Z</time>
      </trkpt>
      <trkpt lat="46.48787" lon="6.12571">
        <ele>1462.3</ele>
        <time>2015-06-07T09:34:55Z</time>
      </trkpt>
      <trkpt lat="46.48788" lon="6.12565">
        <ele>1462.78</ele>
        <time>2015-06-07T09:35:02Z</time>
      </trkpt>
      <trkpt lat="46.48788" lon="6.12563">
        <ele>1462.78</ele>
        <time>2015-06-07T09:35:09Z</time>
      </trkpt>
      <trkpt lat="46.48787" lon="6.12561">
        <ele>1462.78</ele>
        <time>2015-06-07T09:35:20Z</time>
      </trkpt>
      <trkpt lat="46.48786" lon="6.12556">
        <ele>1463.26</ele>
        <time>2015-06-07T09:35:26Z</time>
      </trkpt>
      <trkpt lat="46.48785" lon="6.12554">
        <ele>1463.26</ele>
        <time>2015-06-07T09:35:36Z</time>
      </trkpt>
      <trkpt lat="46.48788" lon="6.12553">
        <ele>1463.74</ele>
        <time>2015-06-07T09:35:54Z</time>
      </trkpt>
      <trkpt lat="46.48787" lon="6.12552">
        <ele>1464.23</ele>
        <time>2015-06-07T09:36:08Z</time>
      </trkpt>
      <trkpt lat="46.48788" lon="6.12551">
        <ele>1464.23</ele>
        <time>2015-06-07T09:36:21Z</time>
      </trkpt>
      <trkpt lat="46.48787" lon="6.12552">
        <ele>1464.23</ele>
        <time>2015-06-07T09:36:31Z</time>
      </trkpt>
      <trkpt lat="46.48786" lon="6.12553">
        <ele>1464.23</ele>
        <time>2015-06-07T09:36:46Z</time>
      </trkpt>
      <trkpt lat="46.48787" lon="6.12555">
        <ele>1464.23</ele>
        <time>2015-06-07T09:36:52Z</time>
      </trkpt>
      <trkpt lat="46.48787" lon="6.12554">
        <ele>1464.23</ele>
        <time>2015-06-07T09:37:05Z</time>
      </trkpt>
      <trkpt lat="46.48787" lon="6.12554">
        <ele>1464.71</ele>
        <time>2015-06-07T09:37:19Z</time>
      </trkpt>
      <trkpt lat="46.48787" lon="6.12555">
        <ele>1464.23</ele>
        <time>2015-06-07T09:37:21Z</time>
      </trkpt>
      <trkpt lat="46.48788" lon="6.12561">
        <ele>1463.74</ele>
        <time>2015-06-07T09:37:28Z</time>
      </trkpt>
      <trkpt lat="46.48788" lon="6.12559">
        <ele>1463.74</ele>
        <time>2015-06-07T09:37:41Z</time>
      </trkpt>
      <trkpt lat="46.48788" lon="6.12558">
        <ele>1463.74</ele>
        <time>2015-06-07T09:37:56Z</time>
      </trkpt>
      <trkpt lat="46.48789" lon="6.1256">
        <ele>1463.74</ele>
        <time>2015-06-07T09:37:59Z</time>
      </trkpt>
      <trkpt lat="46.48791" lon="6.12564">
        <ele>1463.26</ele>
        <time>2015-06-07T09:38:06Z</time>
      </trkpt>
      <trkpt lat="46.48793" lon="6.12568">
        <ele>1462.78</ele>
        <time>2015-06-07T09:38:10Z</time>
      </trkpt>
      <trkpt lat="46.48796" lon="6.12571">
        <ele>1462.78</ele>
        <time>2015-06-07T09:38:14Z</time>
      </trkpt>
      <trkpt lat="46.488" lon="6.12579">
        <ele>1461.34</ele>
        <time>2015-06-07T09:38:20Z</time>
      </trkpt>
      <trkpt lat="46.48805" lon="6.12582">
        <ele>1460.86</ele>
        <time>2015-06-07T09:38:24Z</time>
      </trkpt>
      <trkpt lat="46.48807" lon="6.12584">
        <ele>1460.38</ele>
        <time>2015-06-07T09:38:26Z</time>
      </trkpt>
      <trkpt lat="46.48811" lon="6.12586">
        <ele>1459.42</ele>
        <time>2015-06-07T09:38:32Z</time>
      </trkpt>
      <trkpt lat="46.48811" lon="6.12583">
        <ele>1459.42</ele>
        <time>2015-06-07T09:38:40Z</time>
      </trkpt>
      <trkpt lat="46.48811" lon="6.12582">
        <ele>1459.42</ele>
        <time>2015-06-07T09:38:50Z</time>
      </trkpt>
      <trkpt lat="46.48811" lon="6.12583">
        <ele>1459.42</ele>
        <time>2015-06-07T09:39:02Z</time>
      </trkpt>
      <trkpt lat="46.48814" lon="6.12585">
        <ele>1459.42</ele>
        <time>2015-06-07T09:39:10Z</time>
      </trkpt>
      <trkpt lat="46.48816" lon="6.12588">
        <ele>1458.94</ele>
        <time>2015-06-07T09:39:13Z</time>
      </trkpt>
      <trkpt lat="46.48818" lon="6.12592">
        <ele>1458.46</ele>
        <time>2015-06-07T09:39:16Z</time>
      </trkpt>
      <trkpt lat="46.48825" lon="6.12601">
        <ele>1457.5</ele>
        <time>2015-06-07T09:39:23Z</time>
      </trkpt>
      <trkpt lat="46.48826" lon="6.12602">
        <ele>1457.5</ele>
        <time>2015-06-07T09:39:24Z</time>
      </trkpt>
      <trkpt lat="46.48828" lon="6.12604">
        <ele>1457.5</ele>
        <time>2015-06-07T09:39:26Z</time>
      </trkpt>
      <trkpt lat="46.48829" lon="6.12608">
        <ele>1457.02</ele>
        <time>2015-06-07T09:39:29Z</time>
      </trkpt>
      <trkpt lat="46.48835" lon="6.12615">
        <ele>1455.57</ele>
        <time>2015-06-07T09:39:35Z</time>
      </trkpt>
      <trkpt lat="46.48839" lon="6.12619">
        <ele>1455.57</ele>
        <time>2015-06-07T09:39:38Z</time>
      </trkpt>
      <trkpt lat="46.48847" lon="6.12623">
        <ele>1454.61</ele>
        <time>2015-06-07T09:39:44Z</time>
      </trkpt>
      <trkpt lat="46.48857" lon="6.12631">
        <ele>1453.65</ele>
        <time>2015-06-07T09:39:52Z</time>
      </trkpt>
      <trkpt lat="46.4886" lon="6.12635">
        <ele>1453.17</ele>
        <time>2015-06-07T09:39:55Z</time>
      </trkpt>
      <trkpt lat="46.48862" lon="6.12639">
        <ele>1452.69</ele>
        <time>2015-06-07T09:39:57Z</time>
      </trkpt>
      <trkpt lat="46.48866" lon="6.12646">
        <ele>1451.73</ele>
        <time>2015-06-07T09:40:01Z</time>
      </trkpt>
      <trkpt lat="46.48873" lon="6.12659">
        <ele>1450.29</ele>
        <time>2015-06-07T09:40:09Z</time>
      </trkpt>
      <trkpt lat="46.48876" lon="6.12663">
        <ele>1450.29</ele>
        <time>2015-06-07T09:40:12Z</time>
      </trkpt>
      <trkpt lat="46.48882" lon="6.12672">
        <ele>1449.81</ele>
        <time>2015-06-07T09:40:18Z</time>
      </trkpt>
      <trkpt lat="46.48884" lon="6.12673">
        <ele>1449.81</ele>
        <time>2015-06-07T09:40:19Z</time>
      </trkpt>
      <trkpt lat="46.48892" lon="6.12676">
        <ele>1448.84</ele>
        <time>2015-06-07T09:40:26Z</time>
      </trkpt>
      <trkpt lat="46.489" lon="6.12681">
        <ele>1448.84</ele>
        <time>2015-06-07T09:40:32Z</time>
      </trkpt>
      <trkpt lat="46.48906" lon="6.12687">
        <ele>1448.84</ele>
        <time>2015-06-07T09:40:37Z</time>
      </trkpt>
      <trkpt lat="46.48911" lon="6.12692">
        <ele>1448.84</ele>
        <time>2015-06-07T09:40:42Z</time>
      </trkpt>
      <trkpt lat="46.48917" lon="6.12697">
        <ele>1448.84</ele>
        <time>2015-06-07T09:40:47Z</time>
      </trkpt>
      <trkpt lat="46.48924" lon="6.12703">
        <ele>1448.84</ele>
        <time>2015-06-07T09:40:53Z</time>
      </trkpt>
      <trkpt lat="46.48932" lon="6.12711">
        <ele>1449.32</ele>
        <time>2015-06-07T09:41:00Z</time>
      </trkpt>
      <trkpt lat="46.48934" lon="6.12713">
        <ele>1449.32</ele>
        <time>2015-06-07T09:41:02Z</time>
      </trkpt>
      <trkpt lat="46.48942" lon="6.1272">
        <ele>1449.81</ele>
        <time>2015-06-07T09:41:10Z</time>
      </trkpt>
      <trkpt lat="46.48944" lon="6.12722">
        <ele>1450.29</ele>
        <time>2015-06-07T09:41:12Z</time>
      </trkpt>
      <trkpt lat="46.48949" lon="6.12728">
        <ele>1451.25</ele>
        <time>2015-06-07T09:41:18Z</time>
      </trkpt>
      <trkpt lat="46.48951" lon="6.12732">
        <ele>1451.25</ele>
        <time>2015-06-07T09:41:21Z</time>
      </trkpt>
      <trkpt lat="46.48955" lon="6.12738">
        <ele>1452.21</ele>
        <time>2015-06-07T09:41:26Z</time>
      </trkpt>
      <trkpt lat="46.48963" lon="6.12744">
        <ele>1452.69</ele>
        <time>2015-06-07T09:41:33Z</time>
      </trkpt>
      <trkpt lat="46.48965" lon="6.12745">
        <ele>1453.17</ele>
        <time>2015-06-07T09:41:35Z</time>
      </trkpt>
      <trkpt lat="46.48968" lon="6.12749">
        <ele>1453.17</ele>
        <time>2015-06-07T09:41:38Z</time>
      </trkpt>
      <trkpt lat="46.48975" lon="6.12755">
        <ele>1454.13</ele>
        <time>2015-06-07T09:41:45Z</time>
      </trkpt>
      <trkpt lat="46.48976" lon="6.12756">
        <ele>1454.13</ele>
        <time>2015-06-07T09:41:47Z</time>
      </trkpt>
      <trkpt lat="46.48978" lon="6.12758">
        <ele>1454.13</ele>
        <time>2015-06-07T09:41:49Z</time>
      </trkpt>
      <trkpt lat="46.48984" lon="6.12767">
        <ele>1455.09</ele>
        <time>2015-06-07T09:41:57Z</time>
      </trkpt>
      <trkpt lat="46.48989" lon="6.12776">
        <ele>1455.09</ele>
        <time>2015-06-07T09:42:05Z</time>
      </trkpt>
      <trkpt lat="46.48994" lon="6.12781">
        <ele>1456.53</ele>
        <time>2015-06-07T09:42:11Z</time>
      </trkpt>
      <trkpt lat="46.48997" lon="6.12787">
        <ele>1457.02</ele>
        <time>2015-06-07T09:42:18Z</time>
      </trkpt>
      <trkpt lat="46.49001" lon="6.12789">
        <ele>1457.98</ele>
        <time>2015-06-07T09:42:22Z</time>
      </trkpt>
      <trkpt lat="46.49007" lon="6.12795">
        <ele>1459.42</ele>
        <time>2015-06-07T09:42:29Z</time>
      </trkpt>
      <trkpt lat="46.49014" lon="6.12802">
        <ele>1459.9</ele>
        <time>2015-06-07T09:42:37Z</time>
      </trkpt>
      <trkpt lat="46.4902" lon="6.12808">
        <ele>1461.82</ele>
        <time>2015-06-07T09:42:44Z</time>
      </trkpt>
      <trkpt lat="46.49025" lon="6.12811">
        <ele>1462.3</ele>
        <time>2015-06-07T09:42:51Z</time>
      </trkpt>
      <trkpt lat="46.49031" lon="6.12814">
        <ele>1463.26</ele>
        <time>2015-06-07T09:42:57Z</time>
      </trkpt>
      <trkpt lat="46.49035" lon="6.12818">
        <ele>1463.26</ele>
        <time>2015-06-07T09:43:01Z</time>
      </trkpt>
      <trkpt lat="46.49038" lon="6.12823">
        <ele>1463.26</ele>
        <time>2015-06-07T09:43:05Z</time>
      </trkpt>
      <trkpt lat="46.49044" lon="6.12826">
        <ele>1463.26</ele>
        <time>2015-06-07T09:43:11Z</time>
      </trkpt>
      <trkpt lat="46.49051" lon="6.12829">
        <ele>1463.26</ele>
        <time>2015-06-07T09:43:17Z</time>
      </trkpt>
      <trkpt lat="46.49057" lon="6.12832">
        <ele>1463.74</ele>
        <time>2015-06-07T09:43:23Z</time>
      </trkpt>
      <trkpt lat="46.49061" lon="6.12836">
        <ele>1463.74</ele>
        <time>2015-06-07T09:43:27Z</time>
      </trkpt>
      <trkpt lat="46.49067" lon="6.1284">
        <ele>1463.74</ele>
        <time>2015-06-07T09:43:32Z</time>
      </trkpt>
      <trkpt lat="46.49073" lon="6.12846">
        <ele>1464.23</ele>
        <time>2015-06-07T09:43:38Z</time>
      </trkpt>
      <trkpt lat="46.49075" lon="6.12848">
        <ele>1464.23</ele>
        <time>2015-06-07T09:43:40Z</time>
      </trkpt>
      <trkpt lat="46.49079" lon="6.1285">
        <ele>1465.19</ele>
        <time>2015-06-07T09:43:44Z</time>
      </trkpt>
      <trkpt lat="46.49083" lon="6.12857">
        <ele>1465.19</ele>
        <time>2015-06-07T09:43:50Z</time>
      </trkpt>
      <trkpt lat="46.49087" lon="6.1286">
        <ele>1465.19</ele>
        <time>2015-06-07T09:43:54Z</time>
      </trkpt>
      <trkpt lat="46.49088" lon="6.12863">
        <ele>1465.19</ele>
        <time>2015-06-07T09:43:56Z</time>
      </trkpt>
      <trkpt lat="46.49094" lon="6.12867">
        <ele>1465.67</ele>
        <time>2015-06-07T09:44:03Z</time>
      </trkpt>
      <trkpt lat="46.49101" lon="6.12873">
        <ele>1466.15</ele>
        <time>2015-06-07T09:44:08Z</time>
      </trkpt>
      <trkpt lat="46.49107" lon="6.12878">
        <ele>1466.15</ele>
        <time>2015-06-07T09:44:15Z</time>
      </trkpt>
      <trkpt lat="46.49114" lon="6.12882">
        <ele>1466.15</ele>
        <time>2015-06-07T09:44:21Z</time>
      </trkpt>
      <trkpt lat="46.49122" lon="6.12884">
        <ele>1466.15</ele>
        <time>2015-06-07T09:44:27Z</time>
      </trkpt>
      <trkpt lat="46.49131" lon="6.12889">
        <ele>1466.63</ele>
        <time>2015-06-07T09:44:33Z</time>
      </trkpt>
      <trkpt lat="46.49139" lon="6.12891">
        <ele>1466.63</ele>
        <time>2015-06-07T09:44:39Z</time>
      </trkpt>
      <trkpt lat="46.49141" lon="6.12892">
        <ele>1466.15</ele>
        <time>2015-06-07T09:44:41Z</time>
      </trkpt>
      <trkpt lat="46.49144" lon="6.12894">
        <ele>1465.67</ele>
        <time>2015-06-07T09:44:44Z</time>
      </trkpt>
      <trkpt lat="46.49152" lon="6.12897">
        <ele>1466.15</ele>
        <time>2015-06-07T09:44:52Z</time>
      </trkpt>
      <trkpt lat="46.49161" lon="6.12902">
        <ele>1465.67</ele>
        <time>2015-06-07T09:45:00Z</time>
      </trkpt>
      <trkpt lat="46.49164" lon="6.12905">
        <ele>1465.67</ele>
        <time>2015-06-07T09:45:04Z</time>
      </trkpt>
      <trkpt lat="46.49171" lon="6.12909">
        <ele>1465.67</ele>
        <time>2015-06-07T09:45:14Z</time>
      </trkpt>
      <trkpt lat="46.49177" lon="6.12912">
        <ele>1466.15</ele>
        <time>2015-06-07T09:45:23Z</time>
      </trkpt>
      <trkpt lat="46.49185" lon="6.12914">
        <ele>1465.67</ele>
        <time>2015-06-07T09:45:30Z</time>
      </trkpt>
      <trkpt lat="46.4919" lon="6.12915">
        <ele>1465.67</ele>
        <time>2015-06-07T09:45:37Z</time>
      </trkpt>
      <trkpt lat="46.49192" lon="6.12917">
        <ele>1465.67</ele>
        <time>2015-06-07T09:45:44Z</time>
      </trkpt>
      <trkpt lat="46.49197" lon="6.12918">
        <ele>1465.19</ele>
        <time>2015-06-07T09:45:49Z</time>
      </trkpt>
      <trkpt lat="46.49201" lon="6.12917">
        <ele>1464.71</ele>
        <time>2015-06-07T09:45:53Z</time>
      </trkpt>
      <trkpt lat="46.49206" lon="6.12916">
        <ele>1463.74</ele>
        <time>2015-06-07T09:46:01Z</time>
      </trkpt>
      <trkpt lat="46.49212" lon="6.12918">
        <ele>1462.78</ele>
        <time>2015-06-07T09:46:09Z</time>
      </trkpt>
      <trkpt lat="46.49217" lon="6.12919">
        <ele>1461.82</ele>
        <time>2015-06-07T09:46:13Z</time>
      </trkpt>
      <trkpt lat="46.49226" lon="6.12922">
        <ele>1460.86</ele>
        <time>2015-06-07T09:46:20Z</time>
      </trkpt>
      <trkpt lat="46.49228" lon="6.12922">
        <ele>1460.38</ele>
        <time>2015-06-07T09:46:22Z</time>
      </trkpt>
      <trkpt lat="46.49232" lon="6.12923">
        <ele>1459.9</ele>
        <time>2015-06-07T09:46:25Z</time>
      </trkpt>
      <trkpt lat="46.49237" lon="6.12927">
        <ele>1459.42</ele>
        <time>2015-06-07T09:46:29Z</time>
      </trkpt>
      <trkpt lat="46.49245" lon="6.12933">
        <ele>1458.46</ele>
        <time>2015-06-07T09:46:35Z</time>
      </trkpt>
      <trkpt lat="46.49253" lon="6.12936">
        <ele>1457.98</ele>
        <time>2015-06-07T09:46:43Z</time>
      </trkpt>
      <trkpt lat="46.49257" lon="6.12938">
        <ele>1457.5</ele>
        <time>2015-06-07T09:46:47Z</time>
      </trkpt>
      <trkpt lat="46.49268" lon="6.12937">
        <ele>1457.5</ele>
        <time>2015-06-07T09:46:55Z</time>
      </trkpt>
      <trkpt lat="46.49275" lon="6.12939">
        <ele>1457.5</ele>
        <time>2015-06-07T09:47:02Z</time>
      </trkpt>
      <trkpt lat="46.49278" lon="6.12942">
        <ele>1459.42</ele>
        <time>2015-06-07T09:47:08Z</time>
      </trkpt>
      <trkpt lat="46.49288" lon="6.12947">
        <ele>1458.46</ele>
        <time>2015-06-07T09:47:15Z</time>
      </trkpt>
      <trkpt lat="46.49296" lon="6.12948">
        <ele>1458.46</ele>
        <time>2015-06-07T09:47:21Z</time>
      </trkpt>
      <trkpt lat="46.49303" lon="6.12952">
        <ele>1457.98</ele>
        <time>2015-06-07T09:47:28Z</time>
      </trkpt>
      <trkpt lat="46.49311" lon="6.12954">
        <ele>1457.98</ele>
        <time>2015-06-07T09:47:34Z</time>
      </trkpt>
      <trkpt lat="46.49321" lon="6.12958">
        <ele>1458.46</ele>
        <time>2015-06-07T09:47:42Z</time>
      </trkpt>
      <trkpt lat="46.49328" lon="6.12964">
        <ele>1457.98</ele>
        <time>2015-06-07T09:47:49Z</time>
      </trkpt>
      <trkpt lat="46.49329" lon="6.12964">
        <ele>1457.98</ele>
        <time>2015-06-07T09:47:50Z</time>
      </trkpt>
      <trkpt lat="46.49334" lon="6.12966">
        <ele>1456.53</ele>
        <time>2015-06-07T09:47:55Z</time>
      </trkpt>
      <trkpt lat="46.49341" lon="6.12967">
        <ele>1455.57</ele>
        <time>2015-06-07T09:48:03Z</time>
      </trkpt>
      <trkpt lat="46.49342" lon="6.12968">
        <ele>1455.57</ele>
        <time>2015-06-07T09:48:04Z</time>
      </trkpt>
      <trkpt lat="46.49348" lon="6.12968">
        <ele>1454.61</ele>
        <time>2015-06-07T09:48:09Z</time>
      </trkpt>
      <trkpt lat="46.49353" lon="6.12969">
        <ele>1454.13</ele>
        <time>2015-06-07T09:48:13Z</time>
      </trkpt>
      <trkpt lat="46.49358" lon="6.1297">
        <ele>1453.17</ele>
        <time>2015-06-07T09:48:18Z</time>
      </trkpt>
      <trkpt lat="46.49362" lon="6.12972">
        <ele>1452.69</ele>
        <time>2015-06-07T09:48:22Z</time>
      </trkpt>
      <trkpt lat="46.49372" lon="6.12972">
        <ele>1451.73</ele>
        <time>2015-06-07T09:48:31Z</time>
      </trkpt>
      <trkpt lat="46.49379" lon="6.12972">
        <ele>1451.25</ele>
        <time>2015-06-07T09:48:38Z</time>
      </trkpt>
      <trkpt lat="46.49387" lon="6.12973">
        <ele>1450.29</ele>
        <time>2015-06-07T09:48:45Z</time>
      </trkpt>
      <trkpt lat="46.49397" lon="6.12975">
        <ele>1449.81</ele>
        <time>2015-06-07T09:48:53Z</time>
      </trkpt>
      <trkpt lat="46.49401" lon="6.12978">
        <ele>1449.32</ele>
        <time>2015-06-07T09:48:58Z</time>
      </trkpt>
      <trkpt lat="46.49402" lon="6.12979">
        <ele>1448.84</ele>
        <time>2015-06-07T09:49:02Z</time>
      </trkpt>
      <trkpt lat="46.49405" lon="6.12982">
        <ele>1448.84</ele>
        <time>2015-06-07T09:49:06Z</time>
      </trkpt>
      <trkpt lat="46.49409" lon="6.12985">
        <ele>1448.36</ele>
        <time>2015-06-07T09:49:12Z</time>
      </trkpt>
      <trkpt lat="46.49413" lon="6.12986">
        <ele>1447.88</ele>
        <time>2015-06-07T09:49:17Z</time>
      </trkpt>
      <trkpt lat="46.49416" lon="6.12987">
        <ele>1447.4</ele>
        <time>2015-06-07T09:49:21Z</time>
      </trkpt>
      <trkpt lat="46.49417" lon="6.12988">
        <ele>1446.92</ele>
        <time>2015-06-07T09:49:23Z</time>
      </trkpt>
      <trkpt lat="46.49422" lon="6.12991">
        <ele>1446.44</ele>
        <time>2015-06-07T09:49:28Z</time>
      </trkpt>
      <trkpt lat="46.49425" lon="6.1299">
        <ele>1446.44</ele>
        <time>2015-06-07T09:49:31Z</time>
      </trkpt>
      <trkpt lat="46.4943" lon="6.12989">
        <ele>1445.48</ele>
        <time>2015-06-07T09:49:36Z</time>
      </trkpt>
      <trkpt lat="46.49436" lon="6.12989">
        <ele>1444.04</ele>
        <time>2015-06-07T09:49:42Z</time>
      </trkpt>
      <trkpt lat="46.49451" lon="6.12993">
        <ele>1443.56</ele>
        <time>2015-06-07T09:49:52Z</time>
      </trkpt>
      <trkpt lat="46.49458" lon="6.12997">
        <ele>1443.08</ele>
        <time>2015-06-07T09:49:59Z</time>
      </trkpt>
      <trkpt lat="46.49465" lon="6.12999">
        <ele>1442.11</ele>
        <time>2015-06-07T09:50:06Z</time>
      </trkpt>
      <trkpt lat="46.49466" lon="6.12999">
        <ele>1441.63</ele>
        <time>2015-06-07T09:50:08Z</time>
      </trkpt>
      <trkpt lat="46.49471" lon="6.13002">
        <ele>1441.15</ele>
        <time>2015-06-07T09:50:13Z</time>
      </trkpt>
      <trkpt lat="46.49473" lon="6.13003">
        <ele>1440.67</ele>
        <time>2015-06-07T09:50:15Z</time>
      </trkpt>
      <trkpt lat="46.4948" lon="6.13005">
        <ele>1440.67</ele>
        <time>2015-06-07T09:50:21Z</time>
      </trkpt>
      <trkpt lat="46.49488" lon="6.13009">
        <ele>1440.19</ele>
        <time>2015-06-07T09:50:29Z</time>
      </trkpt>
      <trkpt lat="46.49494" lon="6.13015">
        <ele>1439.71</ele>
        <time>2015-06-07T09:50:35Z</time>
      </trkpt>
      <trkpt lat="46.495" lon="6.1302">
        <ele>1440.19</ele>
        <time>2015-06-07T09:50:42Z</time>
      </trkpt>
      <trkpt lat="46.49506" lon="6.13024">
        <ele>1440.19</ele>
        <time>2015-06-07T09:50:49Z</time>
      </trkpt>
      <trkpt lat="46.49511" lon="6.13027">
        <ele>1440.19</ele>
        <time>2015-06-07T09:50:54Z</time>
      </trkpt>
      <trkpt lat="46.49518" lon="6.13029">
        <ele>1440.19</ele>
        <time>2015-06-07T09:51:01Z</time>
      </trkpt>
      <trkpt lat="46.49525" lon="6.13032">
        <ele>1439.71</ele>
        <time>2015-06-07T09:51:08Z</time>
      </trkpt>
      <trkpt lat="46.49526" lon="6.13032">
        <ele>1439.71</ele>
        <time>2015-06-07T09:51:09Z</time>
      </trkpt>
      <trkpt lat="46.49532" lon="6.13032">
        <ele>1438.75</ele>
        <time>2015-06-07T09:51:17Z</time>
      </trkpt>
      <trkpt lat="46.49539" lon="6.13035">
        <ele>1438.27</ele>
        <time>2015-06-07T09:51:24Z</time>
      </trkpt>
      <trkpt lat="46.49543" lon="6.13037">
        <ele>1437.79</ele>
        <time>2015-06-07T09:51:30Z</time>
      </trkpt>
      <trkpt lat="46.49547" lon="6.13038">
        <ele>1437.79</ele>
        <time>2015-06-07T09:51:38Z</time>
      </trkpt>
      <trkpt lat="46.49549" lon="6.1304">
        <ele>1437.79</ele>
        <time>2015-06-07T09:51:45Z</time>
      </trkpt>
      <trkpt lat="46.49554" lon="6.13045">
        <ele>1438.27</ele>
        <time>2015-06-07T09:51:54Z</time>
      </trkpt>
      <trkpt lat="46.49555" lon="6.13046">
        <ele>1438.75</ele>
        <time>2015-06-07T09:52:01Z</time>
      </trkpt>
      <trkpt lat="46.49558" lon="6.13047">
        <ele>1438.75</ele>
        <time>2015-06-07T09:52:09Z</time>
      </trkpt>
      <trkpt lat="46.4956" lon="6.13046">
        <ele>1438.27</ele>
        <time>2015-06-07T09:52:18Z</time>
      </trkpt>
      <trkpt lat="46.49563" lon="6.13045">
        <ele>1437.79</ele>
        <time>2015-06-07T09:52:26Z</time>
      </trkpt>
      <trkpt lat="46.49565" lon="6.13045">
        <ele>1437.31</ele>
        <time>2015-06-07T09:52:33Z</time>
      </trkpt>
      <trkpt lat="46.49568" lon="6.13046">
        <ele>1437.31</ele>
        <time>2015-06-07T09:52:42Z</time>
      </trkpt>
      <trkpt lat="46.49569" lon="6.13045">
        <ele>1437.31</ele>
        <time>2015-06-07T09:52:55Z</time>
      </trkpt>
      <trkpt lat="46.49569" lon="6.13043">
        <ele>1437.31</ele>
        <time>2015-06-07T09:53:09Z</time>
      </trkpt>
      <trkpt lat="46.49571" lon="6.13042">
        <ele>1437.31</ele>
        <time>2015-06-07T09:53:25Z</time>
      </trkpt>
      <trkpt lat="46.49571" lon="6.13042">
        <ele>1437.31</ele>
        <time>2015-06-07T09:53:39Z</time>
      </trkpt>
      <trkpt lat="46.49571" lon="6.13043">
        <ele>1437.31</ele>
        <time>2015-06-07T09:53:59Z</time>
      </trkpt>
      <trkpt lat="46.49571" lon="6.13043">
        <ele>1437.31</ele>
        <time>2015-06-07T09:54:14Z</time>
      </trkpt>
      <trkpt lat="46.4957" lon="6.13042">
        <ele>1437.31</ele>
        <time>2015-06-07T09:54:31Z</time>
      </trkpt>
      <trkpt lat="46.4957" lon="6.13044">
        <ele>1436.83</ele>
        <time>2015-06-07T09:54:36Z</time>
      </trkpt>
      <trkpt lat="46.49573" lon="6.13042">
        <ele>1436.83</ele>
        <time>2015-06-07T09:54:40Z</time>
      </trkpt>
      <trkpt lat="46.49581" lon="6.13035">
        <ele>1434.91</ele>
        <time>2015-06-07T09:54:47Z</time>
      </trkpt>
      <trkpt lat="46.49582" lon="6.13032">
        <ele>1434.91</ele>
        <time>2015-06-07T09:54:52Z</time>
      </trkpt>
      <trkpt lat="46.49581" lon="6.13028">
        <ele>1435.39</ele>
        <time>2015-06-07T09:54:59Z</time>
      </trkpt>
      <trkpt lat="46.49579" lon="6.13029">
        <ele>1434.91</ele>
        <time>2015-06-07T09:55:05Z</time>
      </trkpt>
      <trkpt lat="46.49579" lon="6.13028">
        <ele>1434.91</ele>
        <time>2015-06-07T09:55:14Z</time>
      </trkpt>
      <trkpt lat="46.49578" lon="6.13031">
        <ele>1434.91</ele>
        <time>2015-06-07T09:55:16Z</time>
      </trkpt>
      <trkpt lat="46.49576" lon="6.13034">
        <ele>1434.91</ele>
        <time>2015-06-07T09:55:23Z</time>
      </trkpt>
      <trkpt lat="46.49577" lon="6.13032">
        <ele>1434.91</ele>
        <time>2015-06-07T09:55:32Z</time>
      </trkpt>
      <trkpt lat="46.49579" lon="6.13027">
        <ele>1434.91</ele>
        <time>2015-06-07T09:55:40Z</time>
      </trkpt>
      <trkpt lat="46.49579" lon="6.13027">
        <ele>1434.91</ele>
        <time>2015-06-07T09:55:51Z</time>
      </trkpt>
      <trkpt lat="46.49579" lon="6.13028">
        <ele>1434.91</ele>
        <time>2015-06-07T09:55:58Z</time>
      </trkpt>
      <trkpt lat="46.4958" lon="6.13026">
        <ele>1435.39</ele>
        <time>2015-06-07T09:56:05Z</time>
      </trkpt>
      <trkpt lat="46.4958" lon="6.13025">
        <ele>1435.39</ele>
        <time>2015-06-07T09:56:17Z</time>
      </trkpt>
      <trkpt lat="46.4958" lon="6.13024">
        <ele>1435.39</ele>
        <time>2015-06-07T09:56:25Z</time>
      </trkpt>
      <trkpt lat="46.4958" lon="6.13023">
        <ele>1435.39</ele>
        <time>2015-06-07T09:56:32Z</time>
      </trkpt>
      <trkpt lat="46.4958" lon="6.13027">
        <ele>1435.39</ele>
        <time>2015-06-07T09:56:39Z</time>
      </trkpt>
      <trkpt lat="46.49581" lon="6.13024">
        <ele>1434.91</ele>
        <time>2015-06-07T09:56:46Z</time>
      </trkpt>
      <trkpt lat="46.4958" lon="6.13024">
        <ele>1434.91</ele>
        <time>2015-06-07T09:56:58Z</time>
      </trkpt>
      <trkpt lat="46.49579" lon="6.13024">
        <ele>1434.91</ele>
        <time>2015-06-07T09:57:09Z</time>
      </trkpt>
      <trkpt lat="46.49578" lon="6.13024">
        <ele>1434.91</ele>
        <time>2015-06-07T09:57:23Z</time>
      </trkpt>
      <trkpt lat="46.49578" lon="6.13025">
        <ele>1434.91</ele>
        <time>2015-06-07T09:57:29Z</time>
      </trkpt>
      <trkpt lat="46.49579" lon="6.13027">
        <ele>1434.91</ele>
        <time>2015-06-07T09:57:37Z</time>
      </trkpt>
      <trkpt lat="46.49579" lon="6.13027">
        <ele>1434.91</ele>
        <time>2015-06-07T09:57:41Z</time>
      </trkpt>
      <trkpt lat="46.4958" lon="6.1303">
        <ele>1434.42</ele>
        <time>2015-06-07T09:57:47Z</time>
      </trkpt>
      <trkpt lat="46.49581" lon="6.13031">
        <ele>1433.94</ele>
        <time>2015-06-07T09:57:55Z</time>
      </trkpt>
      <trkpt lat="46.49581" lon="6.13034">
        <ele>1434.42</ele>
        <time>2015-06-07T09:57:57Z</time>
      </trkpt>
      <trkpt lat="46.49584" lon="6.1304">
        <ele>1434.91</ele>
        <time>2015-06-07T09:58:04Z</time>
      </trkpt>
      <trkpt lat="46.49587" lon="6.1304">
        <ele>1434.91</ele>
        <time>2015-06-07T09:58:10Z</time>
      </trkpt>
      <trkpt lat="46.49589" lon="6.13041">
        <ele>1434.91</ele>
        <time>2015-06-07T09:58:20Z</time>
      </trkpt>
      <trkpt lat="46.49593" lon="6.13042">
        <ele>1434.91</ele>
        <time>2015-06-07T09:58:26Z</time>
      </trkpt>
      <trkpt lat="46.49599" lon="6.13045">
        <ele>1434.42</ele>
        <time>2015-06-07T09:58:33Z</time>
      </trkpt>
      <trkpt lat="46.49605" lon="6.13049">
        <ele>1434.42</ele>
        <time>2015-06-07T09:58:39Z</time>
      </trkpt>
      <trkpt lat="46.49609" lon="6.1305">
        <ele>1434.91</ele>
        <time>2015-06-07T09:58:44Z</time>
      </trkpt>
      <trkpt lat="46.49616" lon="6.13053">
        <ele>1435.39</ele>
        <time>2015-06-07T09:58:51Z</time>
      </trkpt>
      <trkpt lat="46.4962" lon="6.13056">
        <ele>1435.39</ele>
        <time>2015-06-07T09:58:55Z</time>
      </trkpt>
      <trkpt lat="46.49627" lon="6.1306">
        <ele>1435.87</ele>
        <time>2015-06-07T09:59:02Z</time>
      </trkpt>
      <trkpt lat="46.49629" lon="6.13061">
        <ele>1435.87</ele>
        <time>2015-06-07T09:59:04Z</time>
      </trkpt>
      <trkpt lat="46.49637" lon="6.13066">
        <ele>1437.31</ele>
        <time>2015-06-07T09:59:12Z</time>
      </trkpt>
      <trkpt lat="46.49644" lon="6.13069">
        <ele>1438.27</ele>
        <time>2015-06-07T09:59:18Z</time>
      </trkpt>
      <trkpt lat="46.49654" lon="6.13073">
        <ele>1438.27</ele>
        <time>2015-06-07T09:59:26Z</time>
      </trkpt>
      <trkpt lat="46.49659" lon="6.13077">
        <ele>1438.27</ele>
        <time>2015-06-07T09:59:31Z</time>
      </trkpt>
      <trkpt lat="46.4967" lon="6.13074">
        <ele>1438.75</ele>
        <time>2015-06-07T09:59:40Z</time>
      </trkpt>
      <trkpt lat="46.49676" lon="6.13076">
        <ele>1438.75</ele>
        <time>2015-06-07T09:59:47Z</time>
      </trkpt>
      <trkpt lat="46.49681" lon="6.13079">
        <ele>1438.75</ele>
        <time>2015-06-07T09:59:51Z</time>
      </trkpt>
      <trkpt lat="46.49686" lon="6.13083">
        <ele>1438.75</ele>
        <time>2015-06-07T09:59:56Z</time>
      </trkpt>
      <trkpt lat="46.49692" lon="6.13086">
        <ele>1438.27</ele>
        <time>2015-06-07T10:00:01Z</time>
      </trkpt>
      <trkpt lat="46.49699" lon="6.13089">
        <ele>1438.75</ele>
        <time>2015-06-07T10:00:06Z</time>
      </trkpt>
      <trkpt lat="46.49703" lon="6.13089">
        <ele>1437.79</ele>
        <time>2015-06-07T10:00:10Z</time>
      </trkpt>
      <trkpt lat="46.49713" lon="6.13091">
        <ele>1437.79</ele>
        <time>2015-06-07T10:00:18Z</time>
      </trkpt>
      <trkpt lat="46.49714" lon="6.1309">
        <ele>1437.79</ele>
        <time>2015-06-07T10:00:19Z</time>
      </trkpt>
      <trkpt lat="46.49717" lon="6.13089">
        <ele>1437.31</ele>
        <time>2015-06-07T10:00:23Z</time>
      </trkpt>
      <trkpt lat="46.49722" lon="6.13086">
        <ele>1437.79</ele>
        <time>2015-06-07T10:00:29Z</time>
      </trkpt>
      <trkpt lat="46.49725" lon="6.13079">
        <ele>1438.75</ele>
        <time>2015-06-07T10:00:36Z</time>
      </trkpt>
      <trkpt lat="46.49728" lon="6.13069">
        <ele>1439.23</ele>
        <time>2015-06-07T10:00:43Z</time>
      </trkpt>
      <trkpt lat="46.49727" lon="6.13062">
        <ele>1440.19</ele>
        <time>2015-06-07T10:00:48Z</time>
      </trkpt>
      <trkpt lat="46.49726" lon="6.13053">
        <ele>1441.15</ele>
        <time>2015-06-07T10:00:56Z</time>
      </trkpt>
      <trkpt lat="46.49726" lon="6.13052">
        <ele>1441.15</ele>
        <time>2015-06-07T10:00:57Z</time>
      </trkpt>
      <trkpt lat="46.4973" lon="6.13045">
        <ele>1441.15</ele>
        <time>2015-06-07T10:01:03Z</time>
      </trkpt>
      <trkpt lat="46.49733" lon="6.13035">
        <ele>1441.63</ele>
        <time>2015-06-07T10:01:11Z</time>
      </trkpt>
      <trkpt lat="46.49735" lon="6.1303">
        <ele>1441.63</ele>
        <time>2015-06-07T10:01:15Z</time>
      </trkpt>
      <trkpt lat="46.49737" lon="6.13025">
        <ele>1441.63</ele>
        <time>2015-06-07T10:01:22Z</time>
      </trkpt>
      <trkpt lat="46.49743" lon="6.13017">
        <ele>1441.63</ele>
        <time>2015-06-07T10:01:30Z</time>
      </trkpt>
      <trkpt lat="46.49746" lon="6.13016">
        <ele>1441.15</ele>
        <time>2015-06-07T10:01:34Z</time>
      </trkpt>
      <trkpt lat="46.4975" lon="6.13011">
        <ele>1440.67</ele>
        <time>2015-06-07T10:01:41Z</time>
      </trkpt>
      <trkpt lat="46.49757" lon="6.13004">
        <ele>1440.19</ele>
        <time>2015-06-07T10:01:48Z</time>
      </trkpt>
      <trkpt lat="46.49759" lon="6.12998">
        <ele>1440.19</ele>
        <time>2015-06-07T10:01:52Z</time>
      </trkpt>
      <trkpt lat="46.49765" lon="6.12988">
        <ele>1440.19</ele>
        <time>2015-06-07T10:01:58Z</time>
      </trkpt>
      <trkpt lat="46.49766" lon="6.12983">
        <ele>1439.71</ele>
        <time>2015-06-07T10:02:01Z</time>
      </trkpt>
      <trkpt lat="46.49765" lon="6.12978">
        <ele>1439.23</ele>
        <time>2015-06-07T10:02:04Z</time>
      </trkpt>
      <trkpt lat="46.49764" lon="6.12972">
        <ele>1439.23</ele>
        <time>2015-06-07T10:02:07Z</time>
      </trkpt>
      <trkpt lat="46.49764" lon="6.1296">
        <ele>1437.79</ele>
        <time>2015-06-07T10:02:15Z</time>
      </trkpt>
      <trkpt lat="46.49764" lon="6.12956">
        <ele>1437.31</ele>
        <time>2015-06-07T10:02:18Z</time>
      </trkpt>
      <trkpt lat="46.49767" lon="6.12947">
        <ele>1436.83</ele>
        <time>2015-06-07T10:02:25Z</time>
      </trkpt>
      <trkpt lat="46.49769" lon="6.12939">
        <ele>1435.87</ele>
        <time>2015-06-07T10:02:31Z</time>
      </trkpt>
      <trkpt lat="46.4977" lon="6.12938">
        <ele>1435.87</ele>
        <time>2015-06-07T10:02:33Z</time>
      </trkpt>
      <trkpt lat="46.49775" lon="6.12934">
        <ele>1435.39</ele>
        <time>2015-06-07T10:02:38Z</time>
      </trkpt>
      <trkpt lat="46.49776" lon="6.12932">
        <ele>1435.39</ele>
        <time>2015-06-07T10:02:39Z</time>
      </trkpt>
      <trkpt lat="46.49779" lon="6.12924">
        <ele>1434.42</ele>
        <time>2015-06-07T10:02:44Z</time>
      </trkpt>
      <trkpt lat="46.4978" lon="6.1292">
        <ele>1433.94</ele>
        <time>2015-06-07T10:02:50Z</time>
      </trkpt>
      <trkpt lat="46.49783" lon="6.12916">
        <ele>1433.46</ele>
        <time>2015-06-07T10:02:57Z</time>
      </trkpt>
      <trkpt lat="46.49784" lon="6.12914">
        <ele>1433.46</ele>
        <time>2015-06-07T10:03:10Z</time>
      </trkpt>
      <trkpt lat="46.49787" lon="6.12909">
        <ele>1433.46</ele>
        <time>2015-06-07T10:03:17Z</time>
      </trkpt>
      <trkpt lat="46.49791" lon="6.12903">
        <ele>1433.94</ele>
        <time>2015-06-07T10:03:24Z</time>
      </trkpt>
      <trkpt lat="46.49792" lon="6.12901">
        <ele>1433.94</ele>
        <time>2015-06-07T10:03:26Z</time>
      </trkpt>
      <trkpt lat="46.49793" lon="6.12898">
        <ele>1433.94</ele>
        <time>2015-06-07T10:03:33Z</time>
      </trkpt>
      <trkpt lat="46.49795" lon="6.12895">
        <ele>1434.42</ele>
        <time>2015-06-07T10:03:39Z</time>
      </trkpt>
      <trkpt lat="46.49795" lon="6.12894">
        <ele>1434.42</ele>
        <time>2015-06-07T10:03:50Z</time>
      </trkpt>
      <trkpt lat="46.49797" lon="6.12889">
        <ele>1433.46</ele>
        <time>2015-06-07T10:03:57Z</time>
      </trkpt>
      <trkpt lat="46.49798" lon="6.12884">
        <ele>1432.5</ele>
        <time>2015-06-07T10:04:04Z</time>
      </trkpt>
      <trkpt lat="46.49798" lon="6.12885">
        <ele>1432.5</ele>
        <time>2015-06-07T10:04:13Z</time>
      </trkpt>
      <trkpt lat="46.49798" lon="6.12885">
        <ele>1432.5</ele>
        <time>2015-06-07T10:04:25Z</time>
      </trkpt>
      <trkpt lat="46.49798" lon="6.12885">
        <ele>1432.5</ele>
        <time>2015-06-07T10:04:37Z</time>
      </trkpt>
      <trkpt lat="46.49798" lon="6.12886">
        <ele>1432.02</ele>
        <time>2015-06-07T10:04:46Z</time>
      </trkpt>
      <trkpt lat="46.49802" lon="6.12882">
        <ele>1431.06</ele>
        <time>2015-06-07T10:04:55Z</time>
      </trkpt>
      <trkpt lat="46.49803" lon="6.12882">
        <ele>1430.58</ele>
        <time>2015-06-07T10:05:08Z</time>
      </trkpt>
      <trkpt lat="46.49803" lon="6.12882">
        <ele>1430.58</ele>
        <time>2015-06-07T10:05:24Z</time>
      </trkpt>
      <trkpt lat="46.49806" lon="6.12881">
        <ele>1429.62</ele>
        <time>2015-06-07T10:05:32Z</time>
      </trkpt>
      <trkpt lat="46.49807" lon="6.12881">
        <ele>1428.66</ele>
        <time>2015-06-07T10:05:38Z</time>
      </trkpt>
      <trkpt lat="46.49808" lon="6.1288">
        <ele>1428.18</ele>
        <time>2015-06-07T10:05:47Z</time>
      </trkpt>
      <trkpt lat="46.49816" lon="6.12869">
        <ele>1426.73</ele>
        <time>2015-06-07T10:05:56Z</time>
      </trkpt>
      <trkpt lat="46.49818" lon="6.12868">
        <ele>1426.25</ele>
        <time>2015-06-07T10:05:57Z</time>
      </trkpt>
      <trkpt lat="46.49826" lon="6.12864">
        <ele>1425.77</ele>
        <time>2015-06-07T10:06:05Z</time>
      </trkpt>
      <trkpt lat="46.49834" lon="6.12857">
        <ele>1424.81</ele>
        <time>2015-06-07T10:06:14Z</time>
      </trkpt>
      <trkpt lat="46.49839" lon="6.12856">
        <ele>1423.37</ele>
        <time>2015-06-07T10:06:20Z</time>
      </trkpt>
      <trkpt lat="46.49842" lon="6.12852">
        <ele>1422.89</ele>
        <time>2015-06-07T10:06:24Z</time>
      </trkpt>
      <trkpt lat="46.49847" lon="6.12849">
        <ele>1422.41</ele>
        <time>2015-06-07T10:06:32Z</time>
      </trkpt>
      <trkpt lat="46.49847" lon="6.12848">
        <ele>1422.89</ele>
        <time>2015-06-07T10:06:42Z</time>
      </trkpt>
      <trkpt lat="46.49848" lon="6.12845">
        <ele>1421.93</ele>
        <time>2015-06-07T10:06:59Z</time>
      </trkpt>
      <trkpt lat="46.49849" lon="6.12846">
        <ele>1421.93</ele>
        <time>2015-06-07T10:07:08Z</time>
      </trkpt>
      <trkpt lat="46.49853" lon="6.12839">
        <ele>1420.97</ele>
        <time>2015-06-07T10:07:21Z</time>
      </trkpt>
      <trkpt lat="46.49854" lon="6.12836">
        <ele>1420</ele>
        <time>2015-06-07T10:07:30Z</time>
      </trkpt>
      <trkpt lat="46.49859" lon="6.12835">
        <ele>1419.52</ele>
        <time>2015-06-07T10:07:37Z</time>
      </trkpt>
      <trkpt lat="46.49867" lon="6.12826">
        <ele>1418.56</ele>
        <time>2015-06-07T10:07:45Z</time>
      </trkpt>
      <trkpt lat="46.49872" lon="6.12817">
        <ele>1417.12</ele>
        <time>2015-06-07T10:07:52Z</time>
      </trkpt>
      <trkpt lat="46.4988" lon="6.12809">
        <ele>1416.16</ele>
        <time>2015-06-07T10:08:00Z</time>
      </trkpt>
      <trkpt lat="46.49885" lon="6.12804">
        <ele>1415.2</ele>
        <time>2015-06-07T10:08:07Z</time>
      </trkpt>
      <trkpt lat="46.49891" lon="6.12797">
        <ele>1413.76</ele>
        <time>2015-06-07T10:08:14Z</time>
      </trkpt>
      <trkpt lat="46.49895" lon="6.12791">
        <ele>1411.35</ele>
        <time>2015-06-07T10:08:21Z</time>
      </trkpt>
      <trkpt lat="46.49895" lon="6.1279">
        <ele>1410.87</ele>
        <time>2015-06-07T10:08:22Z</time>
      </trkpt>
      <trkpt lat="46.49903" lon="6.12788">
        <ele>1408.95</ele>
        <time>2015-06-07T10:08:30Z</time>
      </trkpt>
      <trkpt lat="46.49907" lon="6.12775">
        <ele>1407.03</ele>
        <time>2015-06-07T10:08:37Z</time>
      </trkpt>
      <trkpt lat="46.49909" lon="6.12772">
        <ele>1407.03</ele>
        <time>2015-06-07T10:08:39Z</time>
      </trkpt>
      <trkpt lat="46.49915" lon="6.12767">
        <ele>1406.07</ele>
        <time>2015-06-07T10:08:46Z</time>
      </trkpt>
      <trkpt lat="46.4992" lon="6.12763">
        <ele>1406.07</ele>
        <time>2015-06-07T10:08:51Z</time>
      </trkpt>
      <trkpt lat="46.49924" lon="6.12749">
        <ele>1405.1</ele>
        <time>2015-06-07T10:08:58Z</time>
      </trkpt>
      <trkpt lat="46.49925" lon="6.12742">
        <ele>1404.14</ele>
        <time>2015-06-07T10:09:05Z</time>
      </trkpt>
      <trkpt lat="46.49925" lon="6.12742">
        <ele>1404.14</ele>
        <time>2015-06-07T10:09:18Z</time>
      </trkpt>
      <trkpt lat="46.49927" lon="6.12741">
        <ele>1404.14</ele>
        <time>2015-06-07T10:09:31Z</time>
      </trkpt>
      <trkpt lat="46.49926" lon="6.12741">
        <ele>1404.14</ele>
        <time>2015-06-07T10:09:43Z</time>
      </trkpt>
      <trkpt lat="46.49927" lon="6.1274">
        <ele>1404.14</ele>
        <time>2015-06-07T10:09:52Z</time>
      </trkpt>
      <trkpt lat="46.49928" lon="6.12738">
        <ele>1404.14</ele>
        <time>2015-06-07T10:10:00Z</time>
      </trkpt>
      <trkpt lat="46.49928" lon="6.12736">
        <ele>1404.14</ele>
        <time>2015-06-07T10:10:16Z</time>
      </trkpt>
      <trkpt lat="46.49927" lon="6.12734">
        <ele>1404.14</ele>
        <time>2015-06-07T10:10:31Z</time>
      </trkpt>
      <trkpt lat="46.49927" lon="6.12733">
        <ele>1404.62</ele>
        <time>2015-06-07T10:10:42Z</time>
      </trkpt>
      <trkpt lat="46.49927" lon="6.12731">
        <ele>1403.18</ele>
        <time>2015-06-07T10:10:48Z</time>
      </trkpt>
      <trkpt lat="46.49929" lon="6.12726">
        <ele>1402.22</ele>
        <time>2015-06-07T10:10:55Z</time>
      </trkpt>
      <trkpt lat="46.49933" lon="6.12715">
        <ele>1401.74</ele>
        <time>2015-06-07T10:11:02Z</time>
      </trkpt>
      <trkpt lat="46.49936" lon="6.12702">
        <ele>1401.26</ele>
        <time>2015-06-07T10:11:07Z</time>
      </trkpt>
      <trkpt lat="46.49939" lon="6.12687">
        <ele>1400.3</ele>
        <time>2015-06-07T10:11:13Z</time>
      </trkpt>
      <trkpt lat="46.49943" lon="6.12679">
        <ele>1399.82</ele>
        <time>2015-06-07T10:11:18Z</time>
      </trkpt>
      <trkpt lat="46.49945" lon="6.12677">
        <ele>1399.82</ele>
        <time>2015-06-07T10:11:20Z</time>
      </trkpt>
      <trkpt lat="46.49946" lon="6.12672">
        <ele>1399.82</ele>
        <time>2015-06-07T10:11:23Z</time>
      </trkpt>
      <trkpt lat="46.49951" lon="6.1266">
        <ele>1398.37</ele>
        <time>2015-06-07T10:11:30Z</time>
      </trkpt>
      <trkpt lat="46.49956" lon="6.12647">
        <ele>1397.41</ele>
        <time>2015-06-07T10:11:38Z</time>
      </trkpt>
      <trkpt lat="46.49958" lon="6.12643">
        <ele>1396.93</ele>
        <time>2015-06-07T10:11:41Z</time>
      </trkpt>
      <trkpt lat="46.49959" lon="6.12638">
        <ele>1395.97</ele>
        <time>2015-06-07T10:11:45Z</time>
      </trkpt>
      <trkpt lat="46.49963" lon="6.12631">
        <ele>1395.01</ele>
        <time>2015-06-07T10:11:49Z</time>
      </trkpt>
      <trkpt lat="46.49963" lon="6.12631">
        <ele>1395.01</ele>
        <time>2015-06-07T10:11:50Z</time>
      </trkpt>
      <trkpt lat="46.49964" lon="6.12621">
        <ele>1394.53</ele>
        <time>2015-06-07T10:11:56Z</time>
      </trkpt>
      <trkpt lat="46.49965" lon="6.12614">
        <ele>1394.05</ele>
        <time>2015-06-07T10:12:00Z</time>
      </trkpt>
      <trkpt lat="46.49969" lon="6.12598">
        <ele>1392.13</ele>
        <time>2015-06-07T10:12:08Z</time>
      </trkpt>
      <trkpt lat="46.49967" lon="6.12589">
        <ele>1391.17</ele>
        <time>2015-06-07T10:12:13Z</time>
      </trkpt>
      <trkpt lat="46.49967" lon="6.12577">
        <ele>1390.68</ele>
        <time>2015-06-07T10:12:19Z</time>
      </trkpt>
      <trkpt lat="46.49964" lon="6.12568">
        <ele>1390.68</ele>
        <time>2015-06-07T10:12:26Z</time>
      </trkpt>
      <trkpt lat="46.49962" lon="6.12561">
        <ele>1390.2</ele>
        <time>2015-06-07T10:12:30Z</time>
      </trkpt>
      <trkpt lat="46.49961" lon="6.12555">
        <ele>1389.72</ele>
        <time>2015-06-07T10:12:35Z</time>
      </trkpt>
      <trkpt lat="46.49961" lon="6.12552">
        <ele>1389.72</ele>
        <time>2015-06-07T10:12:38Z</time>
      </trkpt>
      <trkpt lat="46.49958" lon="6.1254">
        <ele>1389.24</ele>
        <time>2015-06-07T10:12:46Z</time>
      </trkpt>
      <trkpt lat="46.49958" lon="6.12537">
        <ele>1388.76</ele>
        <time>2015-06-07T10:12:48Z</time>
      </trkpt>
      <trkpt lat="46.49958" lon="6.12529">
        <ele>1388.28</ele>
        <time>2015-06-07T10:12:53Z</time>
      </trkpt>
      <trkpt lat="46.49958" lon="6.12525">
        <ele>1387.8</ele>
        <time>2015-06-07T10:12:56Z</time>
      </trkpt>
      <trkpt lat="46.49958" lon="6.12521">
        <ele>1386.36</ele>
        <time>2015-06-07T10:13:02Z</time>
      </trkpt>
      <trkpt lat="46.49957" lon="6.12517">
        <ele>1386.36</ele>
        <time>2015-06-07T10:13:13Z</time>
      </trkpt>
      <trkpt lat="46.49956" lon="6.12513">
        <ele>1386.36</ele>
        <time>2015-06-07T10:13:23Z</time>
      </trkpt>
      <trkpt lat="46.49954" lon="6.12501">
        <ele>1385.4</ele>
        <time>2015-06-07T10:13:30Z</time>
      </trkpt>
      <trkpt lat="46.49955" lon="6.12498">
        <ele>1384.92</ele>
        <time>2015-06-07T10:13:34Z</time>
      </trkpt>
      <trkpt lat="46.49955" lon="6.12492">
        <ele>1384.44</ele>
        <time>2015-06-07T10:13:37Z</time>
      </trkpt>
      <trkpt lat="46.49955" lon="6.12477">
        <ele>1383.47</ele>
        <time>2015-06-07T10:13:44Z</time>
      </trkpt>
      <trkpt lat="46.49955" lon="6.12471">
        <ele>1383.47</ele>
        <time>2015-06-07T10:13:47Z</time>
      </trkpt>
      <trkpt lat="46.49954" lon="6.12467">
        <ele>1382.99</ele>
        <time>2015-06-07T10:13:49Z</time>
      </trkpt>
      <trkpt lat="46.49953" lon="6.12461">
        <ele>1382.03</ele>
        <time>2015-06-07T10:13:52Z</time>
      </trkpt>
      <trkpt lat="46.49953" lon="6.1245">
        <ele>1381.55</ele>
        <time>2015-06-07T10:13:58Z</time>
      </trkpt>
      <trkpt lat="46.49954" lon="6.12437">
        <ele>1380.59</ele>
        <time>2015-06-07T10:14:06Z</time>
      </trkpt>
      <trkpt lat="46.49954" lon="6.12426">
        <ele>1380.11</ele>
        <time>2015-06-07T10:14:13Z</time>
      </trkpt>
      <trkpt lat="46.49954" lon="6.12423">
        <ele>1379.63</ele>
        <time>2015-06-07T10:14:15Z</time>
      </trkpt>
      <trkpt lat="46.49949" lon="6.12406">
        <ele>1378.19</ele>
        <time>2015-06-07T10:14:23Z</time>
      </trkpt>
      <trkpt lat="46.49949" lon="6.12398">
        <ele>1377.71</ele>
        <time>2015-06-07T10:14:27Z</time>
      </trkpt>
      <trkpt lat="46.49948" lon="6.12394">
        <ele>1377.71</ele>
        <time>2015-06-07T10:14:30Z</time>
      </trkpt>
      <trkpt lat="46.49946" lon="6.12384">
        <ele>1376.75</ele>
        <time>2015-06-07T10:14:36Z</time>
      </trkpt>
      <trkpt lat="46.49945" lon="6.12379">
        <ele>1376.26</ele>
        <time>2015-06-07T10:14:40Z</time>
      </trkpt>
      <trkpt lat="46.49942" lon="6.12373">
        <ele>1375.78</ele>
        <time>2015-06-07T10:14:45Z</time>
      </trkpt>
      <trkpt lat="46.49942" lon="6.12365">
        <ele>1375.78</ele>
        <time>2015-06-07T10:14:49Z</time>
      </trkpt>
      <trkpt lat="46.49941" lon="6.12361">
        <ele>1375.3</ele>
        <time>2015-06-07T10:14:51Z</time>
      </trkpt>
      <trkpt lat="46.4994" lon="6.12354">
        <ele>1375.3</ele>
        <time>2015-06-07T10:14:57Z</time>
      </trkpt>
      <trkpt lat="46.49939" lon="6.12348">
        <ele>1374.82</ele>
        <time>2015-06-07T10:15:03Z</time>
      </trkpt>
      <trkpt lat="46.49936" lon="6.12334">
        <ele>1374.82</ele>
        <time>2015-06-07T10:15:10Z</time>
      </trkpt>
      <trkpt lat="46.49934" lon="6.1233">
        <ele>1374.82</ele>
        <time>2015-06-07T10:15:12Z</time>
      </trkpt>
      <trkpt lat="46.49931" lon="6.12321">
        <ele>1373.86</ele>
        <time>2015-06-07T10:15:17Z</time>
      </trkpt>
      <trkpt lat="46.49931" lon="6.12311">
        <ele>1374.34</ele>
        <time>2015-06-07T10:15:23Z</time>
      </trkpt>
      <trkpt lat="46.49932" lon="6.12302">
        <ele>1374.34</ele>
        <time>2015-06-07T10:15:30Z</time>
      </trkpt>
      <trkpt lat="46.49932" lon="6.12294">
        <ele>1375.78</ele>
        <time>2015-06-07T10:15:37Z</time>
      </trkpt>
      <trkpt lat="46.49931" lon="6.12286">
        <ele>1376.75</ele>
        <time>2015-06-07T10:15:44Z</time>
      </trkpt>
      <trkpt lat="46.49931" lon="6.12286">
        <ele>1376.75</ele>
        <time>2015-06-07T10:15:45Z</time>
      </trkpt>
      <trkpt lat="46.49926" lon="6.12276">
        <ele>1377.23</ele>
        <time>2015-06-07T10:15:51Z</time>
      </trkpt>
      <trkpt lat="46.49924" lon="6.12269">
        <ele>1377.71</ele>
        <time>2015-06-07T10:15:57Z</time>
      </trkpt>
      <trkpt lat="46.49922" lon="6.12266">
        <ele>1377.71</ele>
        <time>2015-06-07T10:16:04Z</time>
      </trkpt>
      <trkpt lat="46.49921" lon="6.12264">
        <ele>1377.23</ele>
        <time>2015-06-07T10:16:06Z</time>
      </trkpt>
      <trkpt lat="46.49919" lon="6.12262">
        <ele>1377.23</ele>
        <time>2015-06-07T10:16:08Z</time>
      </trkpt>
      <trkpt lat="46.49918" lon="6.12252">
        <ele>1377.71</ele>
        <time>2015-06-07T10:16:15Z</time>
      </trkpt>
      <trkpt lat="46.49918" lon="6.12247">
        <ele>1377.71</ele>
        <time>2015-06-07T10:16:19Z</time>
      </trkpt>
      <trkpt lat="46.49915" lon="6.12239">
        <ele>1377.71</ele>
        <time>2015-06-07T10:16:26Z</time>
      </trkpt>
      <trkpt lat="46.49913" lon="6.12234">
        <ele>1377.23</ele>
        <time>2015-06-07T10:16:32Z</time>
      </trkpt>
      <trkpt lat="46.49913" lon="6.12229">
        <ele>1377.23</ele>
        <time>2015-06-07T10:16:37Z</time>
      </trkpt>
      <trkpt lat="46.49913" lon="6.12229">
        <ele>1377.23</ele>
        <time>2015-06-07T10:16:38Z</time>
      </trkpt>
      <trkpt lat="46.49909" lon="6.12222">
        <ele>1377.23</ele>
        <time>2015-06-07T10:16:45Z</time>
      </trkpt>
      <trkpt lat="46.49909" lon="6.1222">
        <ele>1377.23</ele>
        <time>2015-06-07T10:16:54Z</time>
      </trkpt>
      <trkpt lat="46.49908" lon="6.12216">
        <ele>1376.75</ele>
        <time>2015-06-07T10:17:02Z</time>
      </trkpt>
      <trkpt lat="46.49906" lon="6.12212">
        <ele>1377.71</ele>
        <time>2015-06-07T10:17:08Z</time>
      </trkpt>
      <trkpt lat="46.49906" lon="6.1221">
        <ele>1377.23</ele>
        <time>2015-06-07T10:17:15Z</time>
      </trkpt>
      <trkpt lat="46.49905" lon="6.12209">
        <ele>1376.75</ele>
        <time>2015-06-07T10:17:22Z</time>
      </trkpt>
      <trkpt lat="46.49905" lon="6.12208">
        <ele>1376.75</ele>
        <time>2015-06-07T10:17:23Z</time>
      </trkpt>
      <trkpt lat="46.499" lon="6.12203">
        <ele>1377.23</ele>
        <time>2015-06-07T10:17:32Z</time>
      </trkpt>
      <trkpt lat="46.49898" lon="6.12201">
        <ele>1377.71</ele>
        <time>2015-06-07T10:17:38Z</time>
      </trkpt>
      <trkpt lat="46.49893" lon="6.12195">
        <ele>1377.71</ele>
        <time>2015-06-07T10:17:46Z</time>
      </trkpt>
      <trkpt lat="46.4989" lon="6.12193">
        <ele>1377.71</ele>
        <time>2015-06-07T10:17:55Z</time>
      </trkpt>
      <trkpt lat="46.49888" lon="6.1219">
        <ele>1377.23</ele>
        <time>2015-06-07T10:18:02Z</time>
      </trkpt>
      <trkpt lat="46.49887" lon="6.12186">
        <ele>1377.23</ele>
        <time>2015-06-07T10:18:10Z</time>
      </trkpt>
      <trkpt lat="46.49886" lon="6.12185">
        <ele>1376.75</ele>
        <time>2015-06-07T10:18:23Z</time>
      </trkpt>
      <trkpt lat="46.49886" lon="6.12184">
        <ele>1376.75</ele>
        <time>2015-06-07T10:18:40Z</time>
      </trkpt>
      <trkpt lat="46.49885" lon="6.12183">
        <ele>1376.75</ele>
        <time>2015-06-07T10:18:47Z</time>
      </trkpt>
      <trkpt lat="46.49883" lon="6.12182">
        <ele>1376.75</ele>
        <time>2015-06-07T10:18:55Z</time>
      </trkpt>
      <trkpt lat="46.49882" lon="6.12183">
        <ele>1376.26</ele>
        <time>2015-06-07T10:18:56Z</time>
      </trkpt>
      <trkpt lat="46.49876" lon="6.12181">
        <ele>1376.26</ele>
        <time>2015-06-07T10:19:02Z</time>
      </trkpt>
      <trkpt lat="46.49871" lon="6.1218">
        <ele>1377.23</ele>
        <time>2015-06-07T10:19:09Z</time>
      </trkpt>
      <trkpt lat="46.49864" lon="6.12176">
        <ele>1377.71</ele>
        <time>2015-06-07T10:19:16Z</time>
      </trkpt>
      <trkpt lat="46.4986" lon="6.12172">
        <ele>1378.67</ele>
        <time>2015-06-07T10:19:22Z</time>
      </trkpt>
      <trkpt lat="46.49854" lon="6.12165">
        <ele>1378.19</ele>
        <time>2015-06-07T10:19:30Z</time>
      </trkpt>
      <trkpt lat="46.49854" lon="6.12164">
        <ele>1377.71</ele>
        <time>2015-06-07T10:19:31Z</time>
      </trkpt>
      <trkpt lat="46.49852" lon="6.12161">
        <ele>1377.23</ele>
        <time>2015-06-07T10:19:35Z</time>
      </trkpt>
      <trkpt lat="46.49849" lon="6.1216">
        <ele>1376.26</ele>
        <time>2015-06-07T10:19:38Z</time>
      </trkpt>
      <trkpt lat="46.49845" lon="6.12155">
        <ele>1374.82</ele>
        <time>2015-06-07T10:19:45Z</time>
      </trkpt>
      <trkpt lat="46.49839" lon="6.12148">
        <ele>1376.75</ele>
        <time>2015-06-07T10:19:54Z</time>
      </trkpt>
      <trkpt lat="46.49836" lon="6.12147">
        <ele>1377.23</ele>
        <time>2015-06-07T10:19:57Z</time>
      </trkpt>
      <trkpt lat="46.49831" lon="6.12144">
        <ele>1377.23</ele>
        <time>2015-06-07T10:20:03Z</time>
      </trkpt>
      <trkpt lat="46.49827" lon="6.12142">
        <ele>1377.23</ele>
        <time>2015-06-07T10:20:08Z</time>
      </trkpt>
      <trkpt lat="46.49825" lon="6.12137">
        <ele>1377.71</ele>
        <time>2015-06-07T10:20:13Z</time>
      </trkpt>
      <trkpt lat="46.4982" lon="6.12132">
        <ele>1377.23</ele>
        <time>2015-06-07T10:20:19Z</time>
      </trkpt>
      <trkpt lat="46.49816" lon="6.12129">
        <ele>1377.23</ele>
        <time>2015-06-07T10:20:23Z</time>
      </trkpt>
      <trkpt lat="46.49811" lon="6.12121">
        <ele>1376.75</ele>
        <time>2015-06-07T10:20:31Z</time>
      </trkpt>
      <trkpt lat="46.49806" lon="6.12117">
        <ele>1376.26</ele>
        <time>2015-06-07T10:20:38Z</time>
      </trkpt>
      <trkpt lat="46.498" lon="6.12111">
        <ele>1376.75</ele>
        <time>2015-06-07T10:20:46Z</time>
      </trkpt>
      <trkpt lat="46.49796" lon="6.12107">
        <ele>1377.23</ele>
        <time>2015-06-07T10:20:52Z</time>
      </trkpt>
      <trkpt lat="46.49793" lon="6.12103">
        <ele>1378.19</ele>
        <time>2015-06-07T10:20:58Z</time>
      </trkpt>
      <trkpt lat="46.49791" lon="6.12099">
        <ele>1379.63</ele>
        <time>2015-06-07T10:21:05Z</time>
      </trkpt>
      <trkpt lat="46.49788" lon="6.12098">
        <ele>1380.59</ele>
        <time>2015-06-07T10:21:12Z</time>
      </trkpt>
      <trkpt lat="46.49785" lon="6.12098">
        <ele>1382.03</ele>
        <time>2015-06-07T10:21:18Z</time>
      </trkpt>
      <trkpt lat="46.49784" lon="6.12096">
        <ele>1383.96</ele>
        <time>2015-06-07T10:21:26Z</time>
      </trkpt>
      <trkpt lat="46.49783" lon="6.12085">
        <ele>1385.4</ele>
        <time>2015-06-07T10:21:33Z</time>
      </trkpt>
      <trkpt lat="46.49776" lon="6.1208">
        <ele>1386.84</ele>
        <time>2015-06-07T10:21:41Z</time>
      </trkpt>
      <trkpt lat="46.49773" lon="6.12079">
        <ele>1388.76</ele>
        <time>2015-06-07T10:21:49Z</time>
      </trkpt>
      <trkpt lat="46.4977" lon="6.12079">
        <ele>1390.2</ele>
        <time>2015-06-07T10:21:56Z</time>
      </trkpt>
      <trkpt lat="46.49769" lon="6.12077">
        <ele>1390.68</ele>
        <time>2015-06-07T10:22:03Z</time>
      </trkpt>
      <trkpt lat="46.49769" lon="6.12073">
        <ele>1392.61</ele>
        <time>2015-06-07T10:22:13Z</time>
      </trkpt>
      <trkpt lat="46.49768" lon="6.12072">
        <ele>1394.05</ele>
        <time>2015-06-07T10:22:20Z</time>
      </trkpt>
      <trkpt lat="46.4976" lon="6.12072">
        <ele>1395.49</ele>
        <time>2015-06-07T10:22:29Z</time>
      </trkpt>
      <trkpt lat="46.49757" lon="6.12069">
        <ele>1396.93</ele>
        <time>2015-06-07T10:22:36Z</time>
      </trkpt>
      <trkpt lat="46.4975" lon="6.12061">
        <ele>1398.37</ele>
        <time>2015-06-07T10:22:44Z</time>
      </trkpt>
      <trkpt lat="46.49745" lon="6.12059">
        <ele>1398.37</ele>
        <time>2015-06-07T10:22:48Z</time>
      </trkpt>
      <trkpt lat="46.49741" lon="6.1206">
        <ele>1398.86</ele>
        <time>2015-06-07T10:22:54Z</time>
      </trkpt>
      <trkpt lat="46.49737" lon="6.12058">
        <ele>1398.37</ele>
        <time>2015-06-07T10:22:58Z</time>
      </trkpt>
      <trkpt lat="46.49733" lon="6.12056">
        <ele>1397.89</ele>
        <time>2015-06-07T10:23:04Z</time>
      </trkpt>
      <trkpt lat="46.49732" lon="6.12056">
        <ele>1397.41</ele>
        <time>2015-06-07T10:23:06Z</time>
      </trkpt>
      <trkpt lat="46.49726" lon="6.12054">
        <ele>1395.97</ele>
        <time>2015-06-07T10:23:13Z</time>
      </trkpt>
      <trkpt lat="46.49725" lon="6.12054">
        <ele>1395.97</ele>
        <time>2015-06-07T10:23:14Z</time>
      </trkpt>
      <trkpt lat="46.49724" lon="6.12052">
        <ele>1395.97</ele>
        <time>2015-06-07T10:23:16Z</time>
      </trkpt>
      <trkpt lat="46.49717" lon="6.12047">
        <ele>1395.97</ele>
        <time>2015-06-07T10:23:24Z</time>
      </trkpt>
      <trkpt lat="46.49714" lon="6.12043">
        <ele>1396.45</ele>
        <time>2015-06-07T10:23:27Z</time>
      </trkpt>
      <trkpt lat="46.49707" lon="6.12042">
        <ele>1398.37</ele>
        <time>2015-06-07T10:23:35Z</time>
      </trkpt>
      <trkpt lat="46.497" lon="6.12041">
        <ele>1398.86</ele>
        <time>2015-06-07T10:23:43Z</time>
      </trkpt>
      <trkpt lat="46.49698" lon="6.12043">
        <ele>1400.3</ele>
        <time>2015-06-07T10:23:51Z</time>
      </trkpt>
      <trkpt lat="46.49699" lon="6.1204">
        <ele>1401.26</ele>
        <time>2015-06-07T10:23:59Z</time>
      </trkpt>
      <trkpt lat="46.49699" lon="6.1204">
        <ele>1402.22</ele>
        <time>2015-06-07T10:24:13Z</time>
      </trkpt>
      <trkpt lat="46.49699" lon="6.12039">
        <ele>1402.22</ele>
        <time>2015-06-07T10:24:26Z</time>
      </trkpt>
      <trkpt lat="46.49695" lon="6.12037">
        <ele>1403.18</ele>
        <time>2015-06-07T10:24:34Z</time>
      </trkpt>
      <trkpt lat="46.49691" lon="6.12034">
        <ele>1404.62</ele>
        <time>2015-06-07T10:24:42Z</time>
      </trkpt>
      <trkpt lat="46.4969" lon="6.12034">
        <ele>1406.07</ele>
        <time>2015-06-07T10:24:53Z</time>
      </trkpt>
      <trkpt lat="46.49689" lon="6.12031">
        <ele>1407.51</ele>
        <time>2015-06-07T10:25:01Z</time>
      </trkpt>
      <trkpt lat="46.49688" lon="6.1203">
        <ele>1409.43</ele>
        <time>2015-06-07T10:25:09Z</time>
      </trkpt>
      <trkpt lat="46.49687" lon="6.12028">
        <ele>1411.83</ele>
        <time>2015-06-07T10:25:17Z</time>
      </trkpt>
      <trkpt lat="46.49684" lon="6.12029">
        <ele>1413.28</ele>
        <time>2015-06-07T10:25:24Z</time>
      </trkpt>
      <trkpt lat="46.4968" lon="6.12027">
        <ele>1415.68</ele>
        <time>2015-06-07T10:25:35Z</time>
      </trkpt>
      <trkpt lat="46.49677" lon="6.12028">
        <ele>1417.12</ele>
        <time>2015-06-07T10:25:42Z</time>
      </trkpt>
      <trkpt lat="46.49675" lon="6.12032">
        <ele>1418.08</ele>
        <time>2015-06-07T10:25:49Z</time>
      </trkpt>
      <trkpt lat="46.49671" lon="6.12034">
        <ele>1419.04</ele>
        <time>2015-06-07T10:25:56Z</time>
      </trkpt>
      <trkpt lat="46.49668" lon="6.12034">
        <ele>1420</ele>
        <time>2015-06-07T10:25:58Z</time>
      </trkpt>
      <trkpt lat="46.49665" lon="6.12035">
        <ele>1420.97</ele>
        <time>2015-06-07T10:26:04Z</time>
      </trkpt>
      <trkpt lat="46.49661" lon="6.12038">
        <ele>1421.93</ele>
        <time>2015-06-07T10:26:11Z</time>
      </trkpt>
      <trkpt lat="46.49655" lon="6.12039">
        <ele>1422.89</ele>
        <time>2015-06-07T10:26:19Z</time>
      </trkpt>
      <trkpt lat="46.49651" lon="6.12037">
        <ele>1424.81</ele>
        <time>2015-06-07T10:26:26Z</time>
      </trkpt>
      <trkpt lat="46.4965" lon="6.12038">
        <ele>1425.29</ele>
        <time>2015-06-07T10:26:28Z</time>
      </trkpt>
      <trkpt lat="46.49645" lon="6.12036">
        <ele>1426.25</ele>
        <time>2015-06-07T10:26:33Z</time>
      </trkpt>
      <trkpt lat="46.49641" lon="6.12033">
        <ele>1426.73</ele>
        <time>2015-06-07T10:26:38Z</time>
      </trkpt>
      <trkpt lat="46.49637" lon="6.1203">
        <ele>1428.18</ele>
        <time>2015-06-07T10:26:45Z</time>
      </trkpt>
      <trkpt lat="46.49633" lon="6.12028">
        <ele>1429.14</ele>
        <time>2015-06-07T10:26:51Z</time>
      </trkpt>
      <trkpt lat="46.49631" lon="6.12025">
        <ele>1431.06</ele>
        <time>2015-06-07T10:26:57Z</time>
      </trkpt>
      <trkpt lat="46.49628" lon="6.12019">
        <ele>1432.98</ele>
        <time>2015-06-07T10:27:04Z</time>
      </trkpt>
      <trkpt lat="46.49621" lon="6.12015">
        <ele>1433.46</ele>
        <time>2015-06-07T10:27:10Z</time>
      </trkpt>
      <trkpt lat="46.49616" lon="6.12013">
        <ele>1434.42</ele>
        <time>2015-06-07T10:27:16Z</time>
      </trkpt>
      <trkpt lat="46.49612" lon="6.12008">
        <ele>1435.39</ele>
        <time>2015-06-07T10:27:21Z</time>
      </trkpt>
      <trkpt lat="46.49607" lon="6.12006">
        <ele>1436.83</ele>
        <time>2015-06-07T10:27:28Z</time>
      </trkpt>
      <trkpt lat="46.49606" lon="6.12006">
        <ele>1436.83</ele>
        <time>2015-06-07T10:27:29Z</time>
      </trkpt>
      <trkpt lat="46.49601" lon="6.12004">
        <ele>1437.31</ele>
        <time>2015-06-07T10:27:35Z</time>
      </trkpt>
      <trkpt lat="46.49597" lon="6.12002">
        <ele>1437.79</ele>
        <time>2015-06-07T10:27:38Z</time>
      </trkpt>
      <trkpt lat="46.4959" lon="6.11993">
        <ele>1438.75</ele>
        <time>2015-06-07T10:27:45Z</time>
      </trkpt>
      <trkpt lat="46.49588" lon="6.11989">
        <ele>1439.23</ele>
        <time>2015-06-07T10:27:48Z</time>
      </trkpt>
      <trkpt lat="46.49586" lon="6.11987">
        <ele>1439.23</ele>
        <time>2015-06-07T10:27:50Z</time>
      </trkpt>
      <trkpt lat="46.49583" lon="6.11983">
        <ele>1439.71</ele>
        <time>2015-06-07T10:27:54Z</time>
      </trkpt>
      <trkpt lat="46.49576" lon="6.11977">
        <ele>1439.71</ele>
        <time>2015-06-07T10:28:01Z</time>
      </trkpt>
      <trkpt lat="46.49568" lon="6.11977">
        <ele>1439.71</ele>
        <time>2015-06-07T10:28:09Z</time>
      </trkpt>
      <trkpt lat="46.49564" lon="6.11974">
        <ele>1440.67</ele>
        <time>2015-06-07T10:28:15Z</time>
      </trkpt>
      <trkpt lat="46.49562" lon="6.11972">
        <ele>1441.15</ele>
        <time>2015-06-07T10:28:22Z</time>
      </trkpt>
      <trkpt lat="46.49563" lon="6.11972">
        <ele>1441.15</ele>
        <time>2015-06-07T10:28:35Z</time>
      </trkpt>
      <trkpt lat="46.49563" lon="6.11971">
        <ele>1441.63</ele>
        <time>2015-06-07T10:28:45Z</time>
      </trkpt>
      <trkpt lat="46.49563" lon="6.11968">
        <ele>1442.11</ele>
        <time>2015-06-07T10:28:52Z</time>
      </trkpt>
      <trkpt lat="46.49563" lon="6.11962">
        <ele>1443.08</ele>
        <time>2015-06-07T10:28:58Z</time>
      </trkpt>
      <trkpt lat="46.49563" lon="6.11957">
        <ele>1444.52</ele>
        <time>2015-06-07T10:29:04Z</time>
      </trkpt>
      <trkpt lat="46.49562" lon="6.11956">
        <ele>1444.52</ele>
        <time>2015-06-07T10:29:05Z</time>
      </trkpt>
      <trkpt lat="46.49556" lon="6.11951">
        <ele>1445.96</ele>
        <time>2015-06-07T10:29:12Z</time>
      </trkpt>
      <trkpt lat="46.49555" lon="6.1195">
        <ele>1447.4</ele>
        <time>2015-06-07T10:29:20Z</time>
      </trkpt>
      <trkpt lat="46.49553" lon="6.1195">
        <ele>1447.4</ele>
        <time>2015-06-07T10:29:31Z</time>
      </trkpt>
      <trkpt lat="46.49552" lon="6.1195">
        <ele>1447.88</ele>
        <time>2015-06-07T10:29:47Z</time>
      </trkpt>
      <trkpt lat="46.49552" lon="6.1195">
        <ele>1447.88</ele>
        <time>2015-06-07T10:29:48Z</time>
      </trkpt>
      <trkpt lat="46.49546" lon="6.11949">
        <ele>1448.84</ele>
        <time>2015-06-07T10:29:56Z</time>
      </trkpt>
      <trkpt lat="46.49545" lon="6.11949">
        <ele>1449.32</ele>
        <time>2015-06-07T10:30:00Z</time>
      </trkpt>
      <trkpt lat="46.49539" lon="6.11948">
        <ele>1449.81</ele>
        <time>2015-06-07T10:30:07Z</time>
      </trkpt>
      <trkpt lat="46.49538" lon="6.11948">
        <ele>1450.29</ele>
        <time>2015-06-07T10:30:08Z</time>
      </trkpt>
      <trkpt lat="46.49532" lon="6.11948">
        <ele>1450.77</ele>
        <time>2015-06-07T10:30:15Z</time>
      </trkpt>
      <trkpt lat="46.49525" lon="6.11946">
        <ele>1451.25</ele>
        <time>2015-06-07T10:30:22Z</time>
      </trkpt>
      <trkpt lat="46.49523" lon="6.11945">
        <ele>1451.73</ele>
        <time>2015-06-07T10:30:24Z</time>
      </trkpt>
      <trkpt lat="46.49521" lon="6.11943">
        <ele>1451.73</ele>
        <time>2015-06-07T10:30:27Z</time>
      </trkpt>
      <trkpt lat="46.49519" lon="6.11942">
        <ele>1452.21</ele>
        <time>2015-06-07T10:30:30Z</time>
      </trkpt>
      <trkpt lat="46.49517" lon="6.11941">
        <ele>1452.21</ele>
        <time>2015-06-07T10:30:32Z</time>
      </trkpt>
      <trkpt lat="46.49512" lon="6.1194">
        <ele>1452.21</ele>
        <time>2015-06-07T10:30:40Z</time>
      </trkpt>
      <trkpt lat="46.49509" lon="6.11937">
        <ele>1452.21</ele>
        <time>2015-06-07T10:30:43Z</time>
      </trkpt>
      <trkpt lat="46.49502" lon="6.11935">
        <ele>1452.69</ele>
        <time>2015-06-07T10:30:51Z</time>
      </trkpt>
      <trkpt lat="46.49499" lon="6.11934">
        <ele>1452.69</ele>
        <time>2015-06-07T10:30:54Z</time>
      </trkpt>
      <trkpt lat="46.49492" lon="6.11935">
        <ele>1453.17</ele>
        <time>2015-06-07T10:31:01Z</time>
      </trkpt>
      <trkpt lat="46.49486" lon="6.11935">
        <ele>1453.65</ele>
        <time>2015-06-07T10:31:07Z</time>
      </trkpt>
      <trkpt lat="46.49484" lon="6.11934">
        <ele>1454.13</ele>
        <time>2015-06-07T10:31:10Z</time>
      </trkpt>
      <trkpt lat="46.49481" lon="6.11929">
        <ele>1455.09</ele>
        <time>2015-06-07T10:31:17Z</time>
      </trkpt>
      <trkpt lat="46.4948" lon="6.11922">
        <ele>1456.05</ele>
        <time>2015-06-07T10:31:24Z</time>
      </trkpt>
      <trkpt lat="46.49479" lon="6.11923">
        <ele>1457.02</ele>
        <time>2015-06-07T10:31:30Z</time>
      </trkpt>
      <trkpt lat="46.49478" lon="6.11923">
        <ele>1458.46</ele>
        <time>2015-06-07T10:31:36Z</time>
      </trkpt>
      <trkpt lat="46.49476" lon="6.11922">
        <ele>1459.9</ele>
        <time>2015-06-07T10:31:45Z</time>
      </trkpt>
      <trkpt lat="46.49475" lon="6.11921">
        <ele>1460.86</ele>
        <time>2015-06-07T10:31:53Z</time>
      </trkpt>
      <trkpt lat="46.49471" lon="6.11921">
        <ele>1462.78</ele>
        <time>2015-06-07T10:32:03Z</time>
      </trkpt>
      <trkpt lat="46.49465" lon="6.11919">
        <ele>1463.74</ele>
        <time>2015-06-07T10:32:11Z</time>
      </trkpt>
      <trkpt lat="46.49462" lon="6.11928">
        <ele>1465.67</ele>
        <time>2015-06-07T10:32:21Z</time>
      </trkpt>
      <trkpt lat="46.49458" lon="6.1193">
        <ele>1467.11</ele>
        <time>2015-06-07T10:32:28Z</time>
      </trkpt>
      <trkpt lat="46.49453" lon="6.1193">
        <ele>1468.07</ele>
        <time>2015-06-07T10:32:34Z</time>
      </trkpt>
      <trkpt lat="46.49448" lon="6.1193">
        <ele>1469.51</ele>
        <time>2015-06-07T10:32:41Z</time>
      </trkpt>
      <trkpt lat="46.49444" lon="6.1193">
        <ele>1470.47</ele>
        <time>2015-06-07T10:32:47Z</time>
      </trkpt>
      <trkpt lat="46.49443" lon="6.1193">
        <ele>1469.99</ele>
        <time>2015-06-07T10:32:48Z</time>
      </trkpt>
      <trkpt lat="46.49441" lon="6.11929">
        <ele>1470.47</ele>
        <time>2015-06-07T10:32:51Z</time>
      </trkpt>
      <trkpt lat="46.49439" lon="6.11928">
        <ele>1470.95</ele>
        <time>2015-06-07T10:32:54Z</time>
      </trkpt>
      <trkpt lat="46.49433" lon="6.11924">
        <ele>1471.92</ele>
        <time>2015-06-07T10:33:00Z</time>
      </trkpt>
      <trkpt lat="46.4943" lon="6.11924">
        <ele>1472.4</ele>
        <time>2015-06-07T10:33:04Z</time>
      </trkpt>
      <trkpt lat="46.49428" lon="6.11925">
        <ele>1472.4</ele>
        <time>2015-06-07T10:33:07Z</time>
      </trkpt>
      <trkpt lat="46.49425" lon="6.11926">
        <ele>1473.36</ele>
        <time>2015-06-07T10:33:10Z</time>
      </trkpt>
      <trkpt lat="46.49423" lon="6.11926">
        <ele>1473.84</ele>
        <time>2015-06-07T10:33:13Z</time>
      </trkpt>
      <trkpt lat="46.4942" lon="6.11925">
        <ele>1473.84</ele>
        <time>2015-06-07T10:33:16Z</time>
      </trkpt>
      <trkpt lat="46.49415" lon="6.11924">
        <ele>1475.76</ele>
        <time>2015-06-07T10:33:23Z</time>
      </trkpt>
      <trkpt lat="46.49413" lon="6.11923">
        <ele>1477.2</ele>
        <time>2015-06-07T10:33:30Z</time>
      </trkpt>
      <trkpt lat="46.49411" lon="6.1192">
        <ele>1477.68</ele>
        <time>2015-06-07T10:33:37Z</time>
      </trkpt>
      <trkpt lat="46.49406" lon="6.11918">
        <ele>1479.61</ele>
        <time>2015-06-07T10:33:45Z</time>
      </trkpt>
      <trkpt lat="46.49401" lon="6.1192">
        <ele>1481.05</ele>
        <time>2015-06-07T10:33:53Z</time>
      </trkpt>
      <trkpt lat="46.49396" lon="6.11921">
        <ele>1482.49</ele>
        <time>2015-06-07T10:34:00Z</time>
      </trkpt>
      <trkpt lat="46.4939" lon="6.11918">
        <ele>1483.45</ele>
        <time>2015-06-07T10:34:07Z</time>
      </trkpt>
      <trkpt lat="46.49389" lon="6.11917">
        <ele>1483.93</ele>
        <time>2015-06-07T10:34:10Z</time>
      </trkpt>
      <trkpt lat="46.49387" lon="6.11915">
        <ele>1484.89</ele>
        <time>2015-06-07T10:34:13Z</time>
      </trkpt>
      <trkpt lat="46.49385" lon="6.11915">
        <ele>1485.37</ele>
        <time>2015-06-07T10:34:16Z</time>
      </trkpt>
      <trkpt lat="46.4938" lon="6.11914">
        <ele>1486.34</ele>
        <time>2015-06-07T10:34:23Z</time>
      </trkpt>
      <trkpt lat="46.49378" lon="6.11915">
        <ele>1487.78</ele>
        <time>2015-06-07T10:34:29Z</time>
      </trkpt>
      <trkpt lat="46.49374" lon="6.11915">
        <ele>1488.74</ele>
        <time>2015-06-07T10:34:35Z</time>
      </trkpt>
      <trkpt lat="46.49372" lon="6.11914">
        <ele>1489.22</ele>
        <time>2015-06-07T10:34:38Z</time>
      </trkpt>
      <trkpt lat="46.49367" lon="6.11914">
        <ele>1490.18</ele>
        <time>2015-06-07T10:34:44Z</time>
      </trkpt>
      <trkpt lat="46.49366" lon="6.11914">
        <ele>1491.14</ele>
        <time>2015-06-07T10:34:45Z</time>
      </trkpt>
      <trkpt lat="46.49364" lon="6.11914">
        <ele>1490.66</ele>
        <time>2015-06-07T10:34:48Z</time>
      </trkpt>
      <trkpt lat="46.49359" lon="6.1191">
        <ele>1491.62</ele>
        <time>2015-06-07T10:34:55Z</time>
      </trkpt>
      <trkpt lat="46.49355" lon="6.11911">
        <ele>1492.58</ele>
        <time>2015-06-07T10:35:01Z</time>
      </trkpt>
      <trkpt lat="46.49351" lon="6.11913">
        <ele>1494.03</ele>
        <time>2015-06-07T10:35:08Z</time>
      </trkpt>
      <trkpt lat="46.49348" lon="6.11913">
        <ele>1494.51</ele>
        <time>2015-06-07T10:35:12Z</time>
      </trkpt>
      <trkpt lat="46.49345" lon="6.11911">
        <ele>1495.95</ele>
        <time>2015-06-07T10:35:18Z</time>
      </trkpt>
      <trkpt lat="46.49344" lon="6.11908">
        <ele>1495.47</ele>
        <time>2015-06-07T10:35:22Z</time>
      </trkpt>
      <trkpt lat="46.49342" lon="6.11901">
        <ele>1496.91</ele>
        <time>2015-06-07T10:35:30Z</time>
      </trkpt>
      <trkpt lat="46.49342" lon="6.11901">
        <ele>1496.91</ele>
        <time>2015-06-07T10:35:31Z</time>
      </trkpt>
      <trkpt lat="46.49338" lon="6.11899">
        <ele>1498.83</ele>
        <time>2015-06-07T10:35:37Z</time>
      </trkpt>
      <trkpt lat="46.49337" lon="6.11897">
        <ele>1499.31</ele>
        <time>2015-06-07T10:35:40Z</time>
      </trkpt>
      <trkpt lat="46.49334" lon="6.1189">
        <ele>1500.76</ele>
        <time>2015-06-07T10:35:46Z</time>
      </trkpt>
      <trkpt lat="46.49332" lon="6.11887">
        <ele>1501.72</ele>
        <time>2015-06-07T10:35:53Z</time>
      </trkpt>
      <trkpt lat="46.4933" lon="6.11882">
        <ele>1502.68</ele>
        <time>2015-06-07T10:35:59Z</time>
      </trkpt>
      <trkpt lat="46.49326" lon="6.11881">
        <ele>1504.12</ele>
        <time>2015-06-07T10:36:05Z</time>
      </trkpt>
      <trkpt lat="46.49325" lon="6.11881">
        <ele>1504.6</ele>
        <time>2015-06-07T10:36:08Z</time>
      </trkpt>
      <trkpt lat="46.49322" lon="6.11878">
        <ele>1506.04</ele>
        <time>2015-06-07T10:36:15Z</time>
      </trkpt>
      <trkpt lat="46.49321" lon="6.11877">
        <ele>1506.52</ele>
        <time>2015-06-07T10:36:19Z</time>
      </trkpt>
      <trkpt lat="46.49317" lon="6.11876">
        <ele>1507.97</ele>
        <time>2015-06-07T10:36:25Z</time>
      </trkpt>
      <trkpt lat="46.49314" lon="6.11876">
        <ele>1508.93</ele>
        <time>2015-06-07T10:36:31Z</time>
      </trkpt>
      <trkpt lat="46.49311" lon="6.11875">
        <ele>1509.89</ele>
        <time>2015-06-07T10:36:36Z</time>
      </trkpt>
      <trkpt lat="46.49308" lon="6.11874">
        <ele>1510.85</ele>
        <time>2015-06-07T10:36:42Z</time>
      </trkpt>
      <trkpt lat="46.49303" lon="6.11875">
        <ele>1511.81</ele>
        <time>2015-06-07T10:36:49Z</time>
      </trkpt>
      <trkpt lat="46.49299" lon="6.11877">
        <ele>1512.77</ele>
        <time>2015-06-07T10:36:55Z</time>
      </trkpt>
      <trkpt lat="46.49297" lon="6.11878">
        <ele>1513.73</ele>
        <time>2015-06-07T10:37:00Z</time>
      </trkpt>
      <trkpt lat="46.49295" lon="6.11881">
        <ele>1514.69</ele>
        <time>2015-06-07T10:37:06Z</time>
      </trkpt>
      <trkpt lat="46.49291" lon="6.11884">
        <ele>1516.14</ele>
        <time>2015-06-07T10:37:13Z</time>
      </trkpt>
      <trkpt lat="46.4929" lon="6.11884">
        <ele>1516.14</ele>
        <time>2015-06-07T10:37:15Z</time>
      </trkpt>
      <trkpt lat="46.49286" lon="6.1189">
        <ele>1518.06</ele>
        <time>2015-06-07T10:37:24Z</time>
      </trkpt>
      <trkpt lat="46.49282" lon="6.1189">
        <ele>1519.02</ele>
        <time>2015-06-07T10:37:30Z</time>
      </trkpt>
      <trkpt lat="46.4928" lon="6.11891">
        <ele>1519.98</ele>
        <time>2015-06-07T10:37:35Z</time>
      </trkpt>
      <trkpt lat="46.49275" lon="6.11891">
        <ele>1520.94</ele>
        <time>2015-06-07T10:37:42Z</time>
      </trkpt>
      <trkpt lat="46.49273" lon="6.1189">
        <ele>1521.42</ele>
        <time>2015-06-07T10:37:45Z</time>
      </trkpt>
      <trkpt lat="46.49271" lon="6.11889">
        <ele>1521.42</ele>
        <time>2015-06-07T10:37:47Z</time>
      </trkpt>
      <trkpt lat="46.49268" lon="6.11889">
        <ele>1522.39</ele>
        <time>2015-06-07T10:37:52Z</time>
      </trkpt>
      <trkpt lat="46.49266" lon="6.11888">
        <ele>1522.87</ele>
        <time>2015-06-07T10:37:55Z</time>
      </trkpt>
      <trkpt lat="46.49261" lon="6.11886">
        <ele>1523.83</ele>
        <time>2015-06-07T10:38:02Z</time>
      </trkpt>
      <trkpt lat="46.49255" lon="6.11884">
        <ele>1524.79</ele>
        <time>2015-06-07T10:38:09Z</time>
      </trkpt>
      <trkpt lat="46.49253" lon="6.1188">
        <ele>1525.75</ele>
        <time>2015-06-07T10:38:15Z</time>
      </trkpt>
      <trkpt lat="46.4925" lon="6.11875">
        <ele>1527.67</ele>
        <time>2015-06-07T10:38:22Z</time>
      </trkpt>
      <trkpt lat="46.49248" lon="6.11872">
        <ele>1528.15</ele>
        <time>2015-06-07T10:38:27Z</time>
      </trkpt>
      <trkpt lat="46.49245" lon="6.11869">
        <ele>1528.63</ele>
        <time>2015-06-07T10:38:31Z</time>
      </trkpt>
      <trkpt lat="46.49242" lon="6.11869">
        <ele>1530.08</ele>
        <time>2015-06-07T10:38:37Z</time>
      </trkpt>
      <trkpt lat="46.49239" lon="6.11869">
        <ele>1531.04</ele>
        <time>2015-06-07T10:38:43Z</time>
      </trkpt>
      <trkpt lat="46.49233" lon="6.11867">
        <ele>1532.48</ele>
        <time>2015-06-07T10:38:51Z</time>
      </trkpt>
      <trkpt lat="46.49232" lon="6.11866">
        <ele>1532.96</ele>
        <time>2015-06-07T10:38:52Z</time>
      </trkpt>
      <trkpt lat="46.49231" lon="6.11862">
        <ele>1532.96</ele>
        <time>2015-06-07T10:38:58Z</time>
      </trkpt>
      <trkpt lat="46.49228" lon="6.1186">
        <ele>1533.44</ele>
        <time>2015-06-07T10:39:01Z</time>
      </trkpt>
      <trkpt lat="46.49226" lon="6.11861">
        <ele>1534.4</ele>
        <time>2015-06-07T10:39:04Z</time>
      </trkpt>
      <trkpt lat="46.4922" lon="6.11859">
        <ele>1534.88</ele>
        <time>2015-06-07T10:39:09Z</time>
      </trkpt>
      <trkpt lat="46.49218" lon="6.11859">
        <ele>1535.36</ele>
        <time>2015-06-07T10:39:11Z</time>
      </trkpt>
      <trkpt lat="46.49212" lon="6.11855">
        <ele>1536.32</ele>
        <time>2015-06-07T10:39:18Z</time>
      </trkpt>
      <trkpt lat="46.49211" lon="6.11855">
        <ele>1536.8</ele>
        <time>2015-06-07T10:39:20Z</time>
      </trkpt>
      <trkpt lat="46.49205" lon="6.11852">
        <ele>1537.77</ele>
        <time>2015-06-07T10:39:27Z</time>
      </trkpt>
      <trkpt lat="46.492" lon="6.11852">
        <ele>1539.69</ele>
        <time>2015-06-07T10:39:34Z</time>
      </trkpt>
      <trkpt lat="46.49199" lon="6.1185">
        <ele>1540.17</ele>
        <time>2015-06-07T10:39:38Z</time>
      </trkpt>
      <trkpt lat="46.49197" lon="6.11847">
        <ele>1540.65</ele>
        <time>2015-06-07T10:39:41Z</time>
      </trkpt>
      <trkpt lat="46.49195" lon="6.11844">
        <ele>1541.61</ele>
        <time>2015-06-07T10:39:45Z</time>
      </trkpt>
      <trkpt lat="46.49193" lon="6.11841">
        <ele>1542.09</ele>
        <time>2015-06-07T10:39:49Z</time>
      </trkpt>
      <trkpt lat="46.4919" lon="6.1184">
        <ele>1543.05</ele>
        <time>2015-06-07T10:39:52Z</time>
      </trkpt>
      <trkpt lat="46.49186" lon="6.11839">
        <ele>1543.05</ele>
        <time>2015-06-07T10:39:56Z</time>
      </trkpt>
      <trkpt lat="46.49178" lon="6.11837">
        <ele>1543.05</ele>
        <time>2015-06-07T10:40:03Z</time>
      </trkpt>
      <trkpt lat="46.49172" lon="6.11836">
        <ele>1543.05</ele>
        <time>2015-06-07T10:40:08Z</time>
      </trkpt>
      <trkpt lat="46.49171" lon="6.11835">
        <ele>1543.53</ele>
        <time>2015-06-07T10:40:10Z</time>
      </trkpt>
      <trkpt lat="46.49167" lon="6.11834">
        <ele>1543.53</ele>
        <time>2015-06-07T10:40:14Z</time>
      </trkpt>
      <trkpt lat="46.49162" lon="6.1183">
        <ele>1544.98</ele>
        <time>2015-06-07T10:40:21Z</time>
      </trkpt>
      <trkpt lat="46.49157" lon="6.11828">
        <ele>1545.94</ele>
        <time>2015-06-07T10:40:27Z</time>
      </trkpt>
      <trkpt lat="46.49153" lon="6.11827">
        <ele>1545.94</ele>
        <time>2015-06-07T10:40:31Z</time>
      </trkpt>
      <trkpt lat="46.49148" lon="6.11824">
        <ele>1546.9</ele>
        <time>2015-06-07T10:40:38Z</time>
      </trkpt>
      <trkpt lat="46.49145" lon="6.11824">
        <ele>1547.86</ele>
        <time>2015-06-07T10:40:45Z</time>
      </trkpt>
      <trkpt lat="46.49145" lon="6.11824">
        <ele>1546.9</ele>
        <time>2015-06-07T10:40:54Z</time>
      </trkpt>
      <trkpt lat="46.49145" lon="6.11826">
        <ele>1546.9</ele>
        <time>2015-06-07T10:41:08Z</time>
      </trkpt>
      <trkpt lat="46.49143" lon="6.11827">
        <ele>1546.42</ele>
        <time>2015-06-07T10:41:14Z</time>
      </trkpt>
      <trkpt lat="46.49143" lon="6.11827">
        <ele>1546.42</ele>
        <time>2015-06-07T10:41:26Z</time>
      </trkpt>
      <trkpt lat="46.49143" lon="6.11826">
        <ele>1546.42</ele>
        <time>2015-06-07T10:41:34Z</time>
      </trkpt>
      <trkpt lat="46.49143" lon="6.11826">
        <ele>1546.42</ele>
        <time>2015-06-07T10:41:44Z</time>
      </trkpt>
      <trkpt lat="46.49143" lon="6.11826">
        <ele>1546.42</ele>
        <time>2015-06-07T10:42:00Z</time>
      </trkpt>
      <trkpt lat="46.49143" lon="6.11826">
        <ele>1546.42</ele>
        <time>2015-06-07T10:42:05Z</time>
      </trkpt>
      <trkpt lat="46.49143" lon="6.11825">
        <ele>1546.9</ele>
        <time>2015-06-07T10:42:23Z</time>
      </trkpt>
      <trkpt lat="46.49144" lon="6.11826">
        <ele>1546.42</ele>
        <time>2015-06-07T10:42:32Z</time>
      </trkpt>
      <trkpt lat="46.49145" lon="6.11824">
        <ele>1546.42</ele>
        <time>2015-06-07T10:42:40Z</time>
      </trkpt>
      <trkpt lat="46.49145" lon="6.11825">
        <ele>1546.42</ele>
        <time>2015-06-07T10:42:47Z</time>
      </trkpt>
      <trkpt lat="46.49146" lon="6.11826">
        <ele>1546.42</ele>
        <time>2015-06-07T10:42:58Z</time>
      </trkpt>
      <trkpt lat="46.49145" lon="6.11824">
        <ele>1546.42</ele>
        <time>2015-06-07T10:43:05Z</time>
      </trkpt>
      <trkpt lat="46.49141" lon="6.11823">
        <ele>1545.94</ele>
        <time>2015-06-07T10:43:11Z</time>
      </trkpt>
      <trkpt lat="46.4914" lon="6.11822">
        <ele>1545.46</ele>
        <time>2015-06-07T10:43:18Z</time>
      </trkpt>
      <trkpt lat="46.4914" lon="6.11822">
        <ele>1546.42</ele>
        <time>2015-06-07T10:43:19Z</time>
      </trkpt>
      <trkpt lat="46.49137" lon="6.11822">
        <ele>1545.46</ele>
        <time>2015-06-07T10:43:23Z</time>
      </trkpt>
      <trkpt lat="46.49135" lon="6.1182">
        <ele>1545.94</ele>
        <time>2015-06-07T10:43:31Z</time>
      </trkpt>
      <trkpt lat="46.49135" lon="6.11821">
        <ele>1545.94</ele>
        <time>2015-06-07T10:43:39Z</time>
      </trkpt>
      <trkpt lat="46.49136" lon="6.11822">
        <ele>1545.46</ele>
        <time>2015-06-07T10:43:40Z</time>
      </trkpt>
      <trkpt lat="46.49137" lon="6.11825">
        <ele>1545.94</ele>
        <time>2015-06-07T10:43:43Z</time>
      </trkpt>
      <trkpt lat="46.49141" lon="6.11826">
        <ele>1545.94</ele>
        <time>2015-06-07T10:43:50Z</time>
      </trkpt>
      <trkpt lat="46.49143" lon="6.11827">
        <ele>1545.94</ele>
        <time>2015-06-07T10:43:56Z</time>
      </trkpt>
      <trkpt lat="46.49144" lon="6.11826">
        <ele>1546.42</ele>
        <time>2015-06-07T10:44:04Z</time>
      </trkpt>
      <trkpt lat="46.49145" lon="6.11826">
        <ele>1546.42</ele>
        <time>2015-06-07T10:44:14Z</time>
      </trkpt>
      <trkpt lat="46.49145" lon="6.11826">
        <ele>1551.22</ele>
        <time>2015-06-07T10:44:19Z</time>
      </trkpt>
      <trkpt lat="46.49145" lon="6.11826">
        <ele>1546.9</ele>
        <time>2015-06-07T10:44:20Z</time>
      </trkpt>
      <trkpt lat="46.49145" lon="6.11826">
        <ele>1545.94</ele>
        <time>2015-06-07T10:44:31Z</time>
      </trkpt>
      <trkpt lat="46.49145" lon="6.11826">
        <ele>1546.9</ele>
        <time>2015-06-07T10:44:46Z</time>
      </trkpt>
      <trkpt lat="46.49145" lon="6.11827">
        <ele>1545.94</ele>
        <time>2015-06-07T10:44:56Z</time>
      </trkpt>
      <trkpt lat="46.49146" lon="6.11827">
        <ele>1546.42</ele>
        <time>2015-06-07T10:45:07Z</time>
      </trkpt>
      <trkpt lat="46.49146" lon="6.11827">
        <ele>1545.94</ele>
        <time>2015-06-07T10:45:20Z</time>
      </trkpt>
      <trkpt lat="46.49145" lon="6.11826">
        <ele>1545.46</ele>
        <time>2015-06-07T10:45:34Z</time>
      </trkpt>
      <trkpt lat="46.49142" lon="6.11823">
        <ele>1545.46</ele>
        <time>2015-06-07T10:45:42Z</time>
      </trkpt>
      <trkpt lat="46.49141" lon="6.11823">
        <ele>1544.98</ele>
        <time>2015-06-07T10:45:48Z</time>
      </trkpt>
      <trkpt lat="46.49143" lon="6.11824">
        <ele>1544.98</ele>
        <time>2015-06-07T10:45:57Z</time>
      </trkpt>
      <trkpt lat="46.49146" lon="6.11825">
        <ele>1545.46</ele>
        <time>2015-06-07T10:46:03Z</time>
      </trkpt>
      <trkpt lat="46.49147" lon="6.11826">
        <ele>1545.46</ele>
        <time>2015-06-07T10:46:08Z</time>
      </trkpt>
      <trkpt lat="46.49147" lon="6.11826">
        <ele>1545.46</ele>
        <time>2015-06-07T10:46:09Z</time>
      </trkpt>
      <trkpt lat="46.49147" lon="6.11826">
        <ele>1544.98</ele>
        <time>2015-06-07T10:46:22Z</time>
      </trkpt>
      <trkpt lat="46.49147" lon="6.11826">
        <ele>1545.46</ele>
        <time>2015-06-07T10:46:40Z</time>
      </trkpt>
      <trkpt lat="46.49147" lon="6.11826">
        <ele>1544.98</ele>
        <time>2015-06-07T10:46:57Z</time>
      </trkpt>
      <trkpt lat="46.49147" lon="6.11826">
        <ele>1544.98</ele>
        <time>2015-06-07T10:47:12Z</time>
      </trkpt>
      <trkpt lat="46.49147" lon="6.11826">
        <ele>1545.46</ele>
        <time>2015-06-07T10:47:16Z</time>
      </trkpt>
      <trkpt lat="46.49143" lon="6.11827">
        <ele>1544.98</ele>
        <time>2015-06-07T10:47:20Z</time>
      </trkpt>
      <trkpt lat="46.49141" lon="6.11827">
        <ele>1544.98</ele>
        <time>2015-06-07T10:47:28Z</time>
      </trkpt>
      <trkpt lat="46.49141" lon="6.11827">
        <ele>1544.98</ele>
        <time>2015-06-07T10:47:41Z</time>
      </trkpt>
      <trkpt lat="46.49141" lon="6.11827">
        <ele>1545.46</ele>
        <time>2015-06-07T10:47:52Z</time>
      </trkpt>
      <trkpt lat="46.49141" lon="6.11827">
        <ele>1544.98</ele>
        <time>2015-06-07T10:48:01Z</time>
      </trkpt>
      <trkpt lat="46.49144" lon="6.11825">
        <ele>1544.98</ele>
        <time>2015-06-07T10:48:09Z</time>
      </trkpt>
      <trkpt lat="46.49145" lon="6.11825">
        <ele>1544.5</ele>
        <time>2015-06-07T10:48:17Z</time>
      </trkpt>
      <trkpt lat="46.49145" lon="6.11825">
        <ele>1544.5</ele>
        <time>2015-06-07T10:48:36Z</time>
      </trkpt>
      <trkpt lat="46.49145" lon="6.11824">
        <ele>1544.5</ele>
        <time>2015-06-07T10:48:50Z</time>
      </trkpt>
      <trkpt lat="46.49145" lon="6.11824">
        <ele>1544.5</ele>
        <time>2015-06-07T10:49:05Z</time>
      </trkpt>
      <trkpt lat="46.49145" lon="6.11825">
        <ele>1544.5</ele>
        <time>2015-06-07T10:49:14Z</time>
      </trkpt>
      <trkpt lat="46.49145" lon="6.11825">
        <ele>1544.5</ele>
        <time>2015-06-07T10:49:24Z</time>
      </trkpt>
      <trkpt lat="46.49145" lon="6.11824">
        <ele>1544.5</ele>
        <time>2015-06-07T10:49:34Z</time>
      </trkpt>
      <trkpt lat="46.49145" lon="6.11824">
        <ele>1544.5</ele>
        <time>2015-06-07T10:49:48Z</time>
      </trkpt>
      <trkpt lat="46.49145" lon="6.11825">
        <ele>1544.5</ele>
        <time>2015-06-07T10:50:03Z</time>
      </trkpt>
      <trkpt lat="46.49145" lon="6.11825">
        <ele>1544.5</ele>
        <time>2015-06-07T10:50:21Z</time>
      </trkpt>
      <trkpt lat="46.49145" lon="6.11825">
        <ele>1544.5</ele>
        <time>2015-06-07T10:50:37Z</time>
      </trkpt>
      <trkpt lat="46.49145" lon="6.11825">
        <ele>1544.5</ele>
        <time>2015-06-07T10:50:51Z</time>
      </trkpt>
      <trkpt lat="46.49146" lon="6.11825">
        <ele>1544.5</ele>
        <time>2015-06-07T10:50:59Z</time>
      </trkpt>
      <trkpt lat="46.49146" lon="6.11825">
        <ele>1544.5</ele>
        <time>2015-06-07T10:51:13Z</time>
      </trkpt>
      <trkpt lat="46.49146" lon="6.11826">
        <ele>1544.5</ele>
        <time>2015-06-07T10:51:28Z</time>
      </trkpt>
      <trkpt lat="46.49146" lon="6.11825">
        <ele>1544.5</ele>
        <time>2015-06-07T10:51:39Z</time>
      </trkpt>
      <trkpt lat="46.49146" lon="6.11825">
        <ele>1544.5</ele>
        <time>2015-06-07T10:51:50Z</time>
      </trkpt>
      <trkpt lat="46.49146" lon="6.11825">
        <ele>1543.53</ele>
        <time>2015-06-07T10:52:00Z</time>
      </trkpt>
      <trkpt lat="46.49145" lon="6.11825">
        <ele>1544.5</ele>
        <time>2015-06-07T10:52:08Z</time>
      </trkpt>
      <trkpt lat="46.49142" lon="6.11827">
        <ele>1544.5</ele>
        <time>2015-06-07T10:52:16Z</time>
      </trkpt>
      <trkpt lat="46.49138" lon="6.11829">
        <ele>1544.5</ele>
        <time>2015-06-07T10:52:24Z</time>
      </trkpt>
      <trkpt lat="46.49138" lon="6.11829">
        <ele>1544.5</ele>
        <time>2015-06-07T10:52:36Z</time>
      </trkpt>
      <trkpt lat="46.49138" lon="6.11829">
        <ele>1544.98</ele>
        <time>2015-06-07T10:52:49Z</time>
      </trkpt>
      <trkpt lat="46.49137" lon="6.11829">
        <ele>1544.98</ele>
        <time>2015-06-07T10:52:55Z</time>
      </trkpt>
      <trkpt lat="46.49132" lon="6.1183">
        <ele>1544.98</ele>
        <time>2015-06-07T10:53:02Z</time>
      </trkpt>
      <trkpt lat="46.49132" lon="6.11831">
        <ele>1544.5</ele>
        <time>2015-06-07T10:53:08Z</time>
      </trkpt>
      <trkpt lat="46.4913" lon="6.11834">
        <ele>1543.53</ele>
        <time>2015-06-07T10:53:13Z</time>
      </trkpt>
      <trkpt lat="46.49125" lon="6.11835">
        <ele>1542.57</ele>
        <time>2015-06-07T10:53:20Z</time>
      </trkpt>
      <trkpt lat="46.49122" lon="6.11838">
        <ele>1541.13</ele>
        <time>2015-06-07T10:53:24Z</time>
      </trkpt>
      <trkpt lat="46.49116" lon="6.11846">
        <ele>1539.69</ele>
        <time>2015-06-07T10:53:31Z</time>
      </trkpt>
      <trkpt lat="46.49115" lon="6.1185">
        <ele>1539.21</ele>
        <time>2015-06-07T10:53:34Z</time>
      </trkpt>
      <trkpt lat="46.49113" lon="6.11858">
        <ele>1538.73</ele>
        <time>2015-06-07T10:53:40Z</time>
      </trkpt>
      <trkpt lat="46.49113" lon="6.11867">
        <ele>1536.8</ele>
        <time>2015-06-07T10:53:49Z</time>
      </trkpt>
      <trkpt lat="46.49117" lon="6.11867">
        <ele>1535.84</ele>
        <time>2015-06-07T10:53:54Z</time>
      </trkpt>
      <trkpt lat="46.49119" lon="6.11868">
        <ele>1535.36</ele>
        <time>2015-06-07T10:54:00Z</time>
      </trkpt>
      <trkpt lat="46.49121" lon="6.11868">
        <ele>1534.88</ele>
        <time>2015-06-07T10:54:08Z</time>
      </trkpt>
      <trkpt lat="46.49124" lon="6.11871">
        <ele>1533.44</ele>
        <time>2015-06-07T10:54:15Z</time>
      </trkpt>
      <trkpt lat="46.49124" lon="6.11872">
        <ele>1533.92</ele>
        <time>2015-06-07T10:54:31Z</time>
      </trkpt>
      <trkpt lat="46.49124" lon="6.11871">
        <ele>1533.44</ele>
        <time>2015-06-07T10:54:46Z</time>
      </trkpt>
      <trkpt lat="46.49124" lon="6.1187">
        <ele>1534.4</ele>
        <time>2015-06-07T10:54:54Z</time>
      </trkpt>
      <trkpt lat="46.49123" lon="6.11869">
        <ele>1534.88</ele>
        <time>2015-06-07T10:55:09Z</time>
      </trkpt>
      <trkpt lat="46.49123" lon="6.11869">
        <ele>1534.4</ele>
        <time>2015-06-07T10:55:24Z</time>
      </trkpt>
      <trkpt lat="46.49123" lon="6.11869">
        <ele>1533.92</ele>
        <time>2015-06-07T10:55:38Z</time>
      </trkpt>
      <trkpt lat="46.49123" lon="6.11869">
        <ele>1533.92</ele>
        <time>2015-06-07T10:55:53Z</time>
      </trkpt>
      <trkpt lat="46.49123" lon="6.11868">
        <ele>1533.92</ele>
        <time>2015-06-07T10:56:08Z</time>
      </trkpt>
      <trkpt lat="46.49123" lon="6.11868">
        <ele>1534.4</ele>
        <time>2015-06-07T10:56:22Z</time>
      </trkpt>
      <trkpt lat="46.49123" lon="6.11868">
        <ele>1533.92</ele>
        <time>2015-06-07T10:56:37Z</time>
      </trkpt>
      <trkpt lat="46.49123" lon="6.11868">
        <ele>1534.4</ele>
        <time>2015-06-07T10:56:48Z</time>
      </trkpt>
      <trkpt lat="46.49123" lon="6.11869">
        <ele>1533.92</ele>
        <time>2015-06-07T10:57:02Z</time>
      </trkpt>
      <trkpt lat="46.49123" lon="6.11869">
        <ele>1534.4</ele>
        <time>2015-06-07T10:57:11Z</time>
      </trkpt>
      <trkpt lat="46.49123" lon="6.11869">
        <ele>1534.4</ele>
        <time>2015-06-07T10:57:22Z</time>
      </trkpt>
      <trkpt lat="46.49123" lon="6.11869">
        <ele>1534.4</ele>
        <time>2015-06-07T10:57:43Z</time>
      </trkpt>
      <trkpt lat="46.49123" lon="6.11869">
        <ele>1534.4</ele>
        <time>2015-06-07T10:57:54Z</time>
      </trkpt>
      <trkpt lat="46.49123" lon="6.11869">
        <ele>1534.4</ele>
        <time>2015-06-07T10:58:12Z</time>
      </trkpt>
      <trkpt lat="46.49124" lon="6.11869">
        <ele>1534.4</ele>
        <time>2015-06-07T10:58:24Z</time>
      </trkpt>
      <trkpt lat="46.49123" lon="6.11869">
        <ele>1534.4</ele>
        <time>2015-06-07T10:58:37Z</time>
      </trkpt>
      <trkpt lat="46.49123" lon="6.11869">
        <ele>1534.88</ele>
        <time>2015-06-07T10:58:52Z</time>
      </trkpt>
      <trkpt lat="46.49123" lon="6.11869">
        <ele>1534.88</ele>
        <time>2015-06-07T10:59:00Z</time>
      </trkpt>
      <trkpt lat="46.49124" lon="6.11869">
        <ele>1534.4</ele>
        <time>2015-06-07T10:59:17Z</time>
      </trkpt>
      <trkpt lat="46.49124" lon="6.11869">
        <ele>1534.4</ele>
        <time>2015-06-07T10:59:34Z</time>
      </trkpt>
      <trkpt lat="46.49124" lon="6.11869">
        <ele>1531.04</ele>
        <time>2015-06-07T10:59:40Z</time>
      </trkpt>
      <trkpt lat="46.49124" lon="6.11869">
        <ele>1534.4</ele>
        <time>2015-06-07T10:59:42Z</time>
      </trkpt>
      <trkpt lat="46.49124" lon="6.11869">
        <ele>1534.4</ele>
        <time>2015-06-07T10:59:57Z</time>
      </trkpt>
      <trkpt lat="46.49124" lon="6.11869">
        <ele>1534.4</ele>
        <time>2015-06-07T11:00:12Z</time>
      </trkpt>
      <trkpt lat="46.49124" lon="6.11869">
        <ele>1538.73</ele>
        <time>2015-06-07T11:00:13Z</time>
      </trkpt>
      <trkpt lat="46.49124" lon="6.11869">
        <ele>1537.29</ele>
        <time>2015-06-07T11:00:16Z</time>
      </trkpt>
      <trkpt lat="46.49124" lon="6.11869">
        <ele>1534.4</ele>
        <time>2015-06-07T11:00:17Z</time>
      </trkpt>
      <trkpt lat="46.49124" lon="6.11869">
        <ele>1534.4</ele>
        <time>2015-06-07T11:00:29Z</time>
      </trkpt>
      <trkpt lat="46.49124" lon="6.11869">
        <ele>1534.4</ele>
        <time>2015-06-07T11:00:45Z</time>
      </trkpt>
      <trkpt lat="46.49124" lon="6.11869">
        <ele>1534.88</ele>
        <time>2015-06-07T11:01:04Z</time>
      </trkpt>
      <trkpt lat="46.49124" lon="6.11872">
        <ele>1534.88</ele>
        <time>2015-06-07T11:01:16Z</time>
      </trkpt>
      <trkpt lat="46.49124" lon="6.11872">
        <ele>1534.88</ele>
        <time>2015-06-07T11:01:27Z</time>
      </trkpt>
      <trkpt lat="46.4912" lon="6.11869">
        <ele>1535.36</ele>
        <time>2015-06-07T11:01:38Z</time>
      </trkpt>
      <trkpt lat="46.4912" lon="6.11876">
        <ele>1534.88</ele>
        <time>2015-06-07T11:01:50Z</time>
      </trkpt>
      <trkpt lat="46.49121" lon="6.11873">
        <ele>1534.88</ele>
        <time>2015-06-07T11:02:02Z</time>
      </trkpt>
      <trkpt lat="46.49121" lon="6.11873">
        <ele>1534.88</ele>
        <time>2015-06-07T11:02:13Z</time>
      </trkpt>
      <trkpt lat="46.49121" lon="6.11872">
        <ele>1534.88</ele>
        <time>2015-06-07T11:02:24Z</time>
      </trkpt>
      <trkpt lat="46.49121" lon="6.11865">
        <ele>1534.4</ele>
        <time>2015-06-07T11:02:35Z</time>
      </trkpt>
      <trkpt lat="46.49124" lon="6.1186">
        <ele>1536.32</ele>
        <time>2015-06-07T11:02:46Z</time>
      </trkpt>
      <trkpt lat="46.49124" lon="6.11862">
        <ele>1534.88</ele>
        <time>2015-06-07T11:02:58Z</time>
      </trkpt>
      <trkpt lat="46.49123" lon="6.11866">
        <ele>1534.88</ele>
        <time>2015-06-07T11:03:09Z</time>
      </trkpt>
      <trkpt lat="46.49124" lon="6.11868">
        <ele>1534.88</ele>
        <time>2015-06-07T11:03:19Z</time>
      </trkpt>
      <trkpt lat="46.49122" lon="6.11866">
        <ele>1534.88</ele>
        <time>2015-06-07T11:03:29Z</time>
      </trkpt>
      <trkpt lat="46.49125" lon="6.11856">
        <ele>1534.88</ele>
        <time>2015-06-07T11:03:39Z</time>
      </trkpt>
      <trkpt lat="46.49126" lon="6.11855">
        <ele>1534.88</ele>
        <time>2015-06-07T11:03:40Z</time>
      </trkpt>
      <trkpt lat="46.49129" lon="6.11846">
        <ele>1534.88</ele>
        <time>2015-06-07T11:03:54Z</time>
      </trkpt>
      <trkpt lat="46.49129" lon="6.1185">
        <ele>1534.88</ele>
        <time>2015-06-07T11:04:06Z</time>
      </trkpt>
      <trkpt lat="46.49127" lon="6.11882">
        <ele>1534.4</ele>
        <time>2015-06-07T11:07:01Z</time>
      </trkpt>
      <trkpt lat="46.49125" lon="6.11868">
        <ele>1534.4</ele>
        <time>2015-06-07T11:07:18Z</time>
      </trkpt>
      <trkpt lat="46.49123" lon="6.11869">
        <ele>1533.92</ele>
        <time>2015-06-07T11:07:28Z</time>
      </trkpt>
      <trkpt lat="46.49128" lon="6.1187">
        <ele>1533.92</ele>
        <time>2015-06-07T11:07:42Z</time>
      </trkpt>
      <trkpt lat="46.49131" lon="6.11872">
        <ele>1533.92</ele>
        <time>2015-06-07T11:07:56Z</time>
      </trkpt>
      <trkpt lat="46.49133" lon="6.11869">
        <ele>1533.92</ele>
        <time>2015-06-07T11:08:06Z</time>
      </trkpt>
      <trkpt lat="46.49133" lon="6.1187">
        <ele>1533.92</ele>
        <time>2015-06-07T11:08:19Z</time>
      </trkpt>
      <trkpt lat="46.49132" lon="6.11876">
        <ele>1533.44</ele>
        <time>2015-06-07T11:08:34Z</time>
      </trkpt>
      <trkpt lat="46.4913" lon="6.11874">
        <ele>1534.4</ele>
        <time>2015-06-07T11:08:42Z</time>
      </trkpt>
      <trkpt lat="46.4913" lon="6.11874">
        <ele>1537.77</ele>
        <time>2015-06-07T11:08:43Z</time>
      </trkpt>
      <trkpt lat="46.49129" lon="6.11874">
        <ele>1529.59</ele>
        <time>2015-06-07T11:08:44Z</time>
      </trkpt>
      <trkpt lat="46.49129" lon="6.11873">
        <ele>1533.44</ele>
        <time>2015-06-07T11:08:45Z</time>
      </trkpt>
      <trkpt lat="46.49127" lon="6.11871">
        <ele>1538.73</ele>
        <time>2015-06-07T11:08:53Z</time>
      </trkpt>
      <trkpt lat="46.49126" lon="6.11871">
        <ele>1533.92</ele>
        <time>2015-06-07T11:08:54Z</time>
      </trkpt>
      <trkpt lat="46.4912" lon="6.11898">
        <ele>1533.92</ele>
        <time>2015-06-07T11:09:10Z</time>
      </trkpt>
      <trkpt lat="46.49117" lon="6.11892">
        <ele>1533.92</ele>
        <time>2015-06-07T11:09:26Z</time>
      </trkpt>
      <trkpt lat="46.49117" lon="6.11889">
        <ele>1533.92</ele>
        <time>2015-06-07T11:09:38Z</time>
      </trkpt>
      <trkpt lat="46.49119" lon="6.11883">
        <ele>1533.92</ele>
        <time>2015-06-07T11:09:50Z</time>
      </trkpt>
      <trkpt lat="46.4912" lon="6.11881">
        <ele>1533.44</ele>
        <time>2015-06-07T11:10:02Z</time>
      </trkpt>
      <trkpt lat="46.49125" lon="6.11877">
        <ele>1533.44</ele>
        <time>2015-06-07T11:10:16Z</time>
      </trkpt>
      <trkpt lat="46.49128" lon="6.11868">
        <ele>1533.92</ele>
        <time>2015-06-07T11:10:27Z</time>
      </trkpt>
      <trkpt lat="46.49127" lon="6.11865">
        <ele>1534.4</ele>
        <time>2015-06-07T11:10:37Z</time>
      </trkpt>
      <trkpt lat="46.49123" lon="6.11877">
        <ele>1533.92</ele>
        <time>2015-06-07T11:10:52Z</time>
      </trkpt>
      <trkpt lat="46.49121" lon="6.11878">
        <ele>1534.4</ele>
        <time>2015-06-07T11:11:05Z</time>
      </trkpt>
      <trkpt lat="46.4912" lon="6.1188">
        <ele>1534.4</ele>
        <time>2015-06-07T11:11:17Z</time>
      </trkpt>
      <trkpt lat="46.49121" lon="6.1188">
        <ele>1534.4</ele>
        <time>2015-06-07T11:11:28Z</time>
      </trkpt>
      <trkpt lat="46.49121" lon="6.11878">
        <ele>1534.4</ele>
        <time>2015-06-07T11:11:41Z</time>
      </trkpt>
      <trkpt lat="46.49123" lon="6.11879">
        <ele>1534.4</ele>
        <time>2015-06-07T11:11:53Z</time>
      </trkpt>
      <trkpt lat="46.49122" lon="6.11883">
        <ele>1533.92</ele>
        <time>2015-06-07T11:11:57Z</time>
      </trkpt>
      <trkpt lat="46.49118" lon="6.11907">
        <ele>1534.4</ele>
        <time>2015-06-07T11:12:09Z</time>
      </trkpt>
      <trkpt lat="46.49116" lon="6.11913">
        <ele>1534.4</ele>
        <time>2015-06-07T11:12:17Z</time>
      </trkpt>
      <trkpt lat="46.49119" lon="6.11899">
        <ele>1534.4</ele>
        <time>2015-06-07T11:12:31Z</time>
      </trkpt>
      <trkpt lat="46.49118" lon="6.11888">
        <ele>1534.4</ele>
        <time>2015-06-07T11:12:45Z</time>
      </trkpt>
      <trkpt lat="46.49118" lon="6.11885">
        <ele>1534.4</ele>
        <time>2015-06-07T11:12:58Z</time>
      </trkpt>
      <trkpt lat="46.49118" lon="6.11891">
        <ele>1534.88</ele>
        <time>2015-06-07T11:13:10Z</time>
      </trkpt>
      <trkpt lat="46.49118" lon="6.11901">
        <ele>1534.4</ele>
        <time>2015-06-07T11:13:24Z</time>
      </trkpt>
      <trkpt lat="46.49119" lon="6.11893">
        <ele>1534.4</ele>
        <time>2015-06-07T11:13:42Z</time>
      </trkpt>
      <trkpt lat="46.49123" lon="6.11883">
        <ele>1535.36</ele>
        <time>2015-06-07T11:13:54Z</time>
      </trkpt>
      <trkpt lat="46.49124" lon="6.11871">
        <ele>1534.4</ele>
        <time>2015-06-07T11:14:08Z</time>
      </trkpt>
      <trkpt lat="46.49122" lon="6.11869">
        <ele>1534.88</ele>
        <time>2015-06-07T11:14:17Z</time>
      </trkpt>
      <trkpt lat="46.49122" lon="6.11874">
        <ele>1534.88</ele>
        <time>2015-06-07T11:14:23Z</time>
      </trkpt>
      <trkpt lat="46.49122" lon="6.11884">
        <ele>1534.4</ele>
        <time>2015-06-07T11:14:35Z</time>
      </trkpt>
      <trkpt lat="46.49123" lon="6.11878">
        <ele>1534.88</ele>
        <time>2015-06-07T11:14:45Z</time>
      </trkpt>
      <trkpt lat="46.49125" lon="6.11873">
        <ele>1534.88</ele>
        <time>2015-06-07T11:14:49Z</time>
      </trkpt>
      <trkpt lat="46.49125" lon="6.11863">
        <ele>1534.88</ele>
        <time>2015-06-07T11:15:01Z</time>
      </trkpt>
      <trkpt lat="46.49125" lon="6.11863">
        <ele>1534.4</ele>
        <time>2015-06-07T11:15:13Z</time>
      </trkpt>
      <trkpt lat="46.49124" lon="6.11862">
        <ele>1534.4</ele>
        <time>2015-06-07T11:15:24Z</time>
      </trkpt>
      <trkpt lat="46.49125" lon="6.11863">
        <ele>1534.88</ele>
        <time>2015-06-07T11:15:37Z</time>
      </trkpt>
      <trkpt lat="46.49125" lon="6.11863">
        <ele>1532.48</ele>
        <time>2015-06-07T11:15:41Z</time>
      </trkpt>
      <trkpt lat="46.49126" lon="6.11863">
        <ele>1538.73</ele>
        <time>2015-06-07T11:15:43Z</time>
      </trkpt>
      <trkpt lat="46.49127" lon="6.11864">
        <ele>1536.8</ele>
        <time>2015-06-07T11:15:44Z</time>
      </trkpt>
      <trkpt lat="46.49127" lon="6.11865">
        <ele>1534.88</ele>
        <time>2015-06-07T11:15:45Z</time>
      </trkpt>
      <trkpt lat="46.49126" lon="6.11867">
        <ele>1534.88</ele>
        <time>2015-06-07T11:15:59Z</time>
      </trkpt>
      <trkpt lat="46.49125" lon="6.1187">
        <ele>1534.88</ele>
        <time>2015-06-07T11:16:08Z</time>
      </trkpt>
      <trkpt lat="46.49119" lon="6.11892">
        <ele>1534.88</ele>
        <time>2015-06-07T11:16:21Z</time>
      </trkpt>
      <trkpt lat="46.4912" lon="6.11892">
        <ele>1534.88</ele>
        <time>2015-06-07T11:16:32Z</time>
      </trkpt>
      <trkpt lat="46.49121" lon="6.11886">
        <ele>1535.36</ele>
        <time>2015-06-07T11:16:45Z</time>
      </trkpt>
      <trkpt lat="46.49124" lon="6.11876">
        <ele>1535.36</ele>
        <time>2015-06-07T11:22:54Z</time>
      </trkpt>
      <trkpt lat="46.49122" lon="6.11873">
        <ele>1535.36</ele>
        <time>2015-06-07T11:23:08Z</time>
      </trkpt>
      <trkpt lat="46.4912" lon="6.11871">
        <ele>1535.36</ele>
        <time>2015-06-07T11:23:20Z</time>
      </trkpt>
      <trkpt lat="46.4912" lon="6.11874">
        <ele>1535.84</ele>
        <time>2015-06-07T11:23:28Z</time>
      </trkpt>
      <trkpt lat="46.49121" lon="6.11871">
        <ele>1535.36</ele>
        <time>2015-06-07T11:23:37Z</time>
      </trkpt>
      <trkpt lat="46.49123" lon="6.11869">
        <ele>1535.36</ele>
        <time>2015-06-07T11:23:48Z</time>
      </trkpt>
      <trkpt lat="46.49123" lon="6.11868">
        <ele>1535.36</ele>
        <time>2015-06-07T11:24:03Z</time>
      </trkpt>
      <trkpt lat="46.49123" lon="6.11867">
        <ele>1535.36</ele>
        <time>2015-06-07T11:24:10Z</time>
      </trkpt>
      <trkpt lat="46.49121" lon="6.11869">
        <ele>1535.36</ele>
        <time>2015-06-07T11:24:20Z</time>
      </trkpt>
      <trkpt lat="46.4912" lon="6.11868">
        <ele>1535.36</ele>
        <time>2015-06-07T11:24:29Z</time>
      </trkpt>
      <trkpt lat="46.49118" lon="6.11866">
        <ele>1536.8</ele>
        <time>2015-06-07T11:24:40Z</time>
      </trkpt>
      <trkpt lat="46.49116" lon="6.11864">
        <ele>1537.77</ele>
        <time>2015-06-07T11:24:44Z</time>
      </trkpt>
      <trkpt lat="46.49113" lon="6.11864">
        <ele>1538.25</ele>
        <time>2015-06-07T11:24:51Z</time>
      </trkpt>
      <trkpt lat="46.49113" lon="6.11865">
        <ele>1538.25</ele>
        <time>2015-06-07T11:25:00Z</time>
      </trkpt>
      <trkpt lat="46.49113" lon="6.11865">
        <ele>1538.25</ele>
        <time>2015-06-07T11:25:13Z</time>
      </trkpt>
      <trkpt lat="46.49113" lon="6.11865">
        <ele>1538.25</ele>
        <time>2015-06-07T11:25:23Z</time>
      </trkpt>
      <trkpt lat="46.49113" lon="6.11864">
        <ele>1538.73</ele>
        <time>2015-06-07T11:25:31Z</time>
      </trkpt>
      <trkpt lat="46.49106" lon="6.11859">
        <ele>1538.73</ele>
        <time>2015-06-07T11:25:41Z</time>
      </trkpt>
      <trkpt lat="46.49105" lon="6.1185">
        <ele>1539.21</ele>
        <time>2015-06-07T11:25:52Z</time>
      </trkpt>
      <trkpt lat="46.49099" lon="6.11839">
        <ele>1539.21</ele>
        <time>2015-06-07T11:26:02Z</time>
      </trkpt>
      <trkpt lat="46.49094" lon="6.11832">
        <ele>1538.73</ele>
        <time>2015-06-07T11:26:09Z</time>
      </trkpt>
      <trkpt lat="46.49092" lon="6.11831">
        <ele>1538.25</ele>
        <time>2015-06-07T11:26:16Z</time>
      </trkpt>
      <trkpt lat="46.49092" lon="6.11831">
        <ele>1538.73</ele>
        <time>2015-06-07T11:26:28Z</time>
      </trkpt>
      <trkpt lat="46.49092" lon="6.1183">
        <ele>1538.25</ele>
        <time>2015-06-07T11:26:42Z</time>
      </trkpt>
      <trkpt lat="46.49092" lon="6.1183">
        <ele>1538.73</ele>
        <time>2015-06-07T11:26:55Z</time>
      </trkpt>
      <trkpt lat="46.49092" lon="6.11831">
        <ele>1538.73</ele>
        <time>2015-06-07T11:27:12Z</time>
      </trkpt>
      <trkpt lat="46.49092" lon="6.11831">
        <ele>1538.73</ele>
        <time>2015-06-07T11:27:26Z</time>
      </trkpt>
      <trkpt lat="46.49091" lon="6.1183">
        <ele>1538.73</ele>
        <time>2015-06-07T11:27:27Z</time>
      </trkpt>
      <trkpt lat="46.49089" lon="6.11829">
        <ele>1539.21</ele>
        <time>2015-06-07T11:27:30Z</time>
      </trkpt>
      <trkpt lat="46.49083" lon="6.11825">
        <ele>1537.77</ele>
        <time>2015-06-07T11:27:36Z</time>
      </trkpt>
      <trkpt lat="46.49078" lon="6.11821">
        <ele>1537.77</ele>
        <time>2015-06-07T11:27:43Z</time>
      </trkpt>
      <trkpt lat="46.49072" lon="6.11817">
        <ele>1537.29</ele>
        <time>2015-06-07T11:27:49Z</time>
      </trkpt>
      <trkpt lat="46.4907" lon="6.11814">
        <ele>1537.29</ele>
        <time>2015-06-07T11:27:52Z</time>
      </trkpt>
      <trkpt lat="46.49063" lon="6.1181">
        <ele>1536.32</ele>
        <time>2015-06-07T11:28:00Z</time>
      </trkpt>
      <trkpt lat="46.49058" lon="6.11807">
        <ele>1535.36</ele>
        <time>2015-06-07T11:28:07Z</time>
      </trkpt>
      <trkpt lat="46.49057" lon="6.11807">
        <ele>1534.88</ele>
        <time>2015-06-07T11:28:08Z</time>
      </trkpt>
      <trkpt lat="46.49047" lon="6.11803">
        <ele>1534.4</ele>
        <time>2015-06-07T11:28:16Z</time>
      </trkpt>
      <trkpt lat="46.49041" lon="6.118">
        <ele>1534.88</ele>
        <time>2015-06-07T11:28:22Z</time>
      </trkpt>
      <trkpt lat="46.49038" lon="6.11798">
        <ele>1534.88</ele>
        <time>2015-06-07T11:28:24Z</time>
      </trkpt>
      <trkpt lat="46.49034" lon="6.11796">
        <ele>1535.36</ele>
        <time>2015-06-07T11:28:28Z</time>
      </trkpt>
      <trkpt lat="46.49029" lon="6.11796">
        <ele>1535.84</ele>
        <time>2015-06-07T11:28:35Z</time>
      </trkpt>
      <trkpt lat="46.49026" lon="6.11794">
        <ele>1535.84</ele>
        <time>2015-06-07T11:28:41Z</time>
      </trkpt>
      <trkpt lat="46.49023" lon="6.11793">
        <ele>1534.88</ele>
        <time>2015-06-07T11:28:49Z</time>
      </trkpt>
      <trkpt lat="46.4902" lon="6.11792">
        <ele>1533.92</ele>
        <time>2015-06-07T11:28:56Z</time>
      </trkpt>
      <trkpt lat="46.49018" lon="6.11791">
        <ele>1533.44</ele>
        <time>2015-06-07T11:28:58Z</time>
      </trkpt>
      <trkpt lat="46.49011" lon="6.11788">
        <ele>1532.96</ele>
        <time>2015-06-07T11:29:04Z</time>
      </trkpt>
      <trkpt lat="46.49003" lon="6.11785">
        <ele>1532.48</ele>
        <time>2015-06-07T11:29:11Z</time>
      </trkpt>
      <trkpt lat="46.48995" lon="6.11779">
        <ele>1530.56</ele>
        <time>2015-06-07T11:29:20Z</time>
      </trkpt>
      <trkpt lat="46.48993" lon="6.11773">
        <ele>1530.08</ele>
        <time>2015-06-07T11:29:23Z</time>
      </trkpt>
      <trkpt lat="46.48991" lon="6.11771">
        <ele>1529.59</ele>
        <time>2015-06-07T11:29:25Z</time>
      </trkpt>
      <trkpt lat="46.48989" lon="6.11767">
        <ele>1529.59</ele>
        <time>2015-06-07T11:29:28Z</time>
      </trkpt>
      <trkpt lat="46.48986" lon="6.11765">
        <ele>1529.11</ele>
        <time>2015-06-07T11:29:32Z</time>
      </trkpt>
      <trkpt lat="46.48984" lon="6.11763">
        <ele>1529.11</ele>
        <time>2015-06-07T11:29:34Z</time>
      </trkpt>
      <trkpt lat="46.48981" lon="6.1176">
        <ele>1528.63</ele>
        <time>2015-06-07T11:29:37Z</time>
      </trkpt>
      <trkpt lat="46.4898" lon="6.11758">
        <ele>1528.63</ele>
        <time>2015-06-07T11:29:39Z</time>
      </trkpt>
      <trkpt lat="46.48975" lon="6.11753">
        <ele>1528.15</ele>
        <time>2015-06-07T11:29:44Z</time>
      </trkpt>
      <trkpt lat="46.48973" lon="6.11743">
        <ele>1526.71</ele>
        <time>2015-06-07T11:29:52Z</time>
      </trkpt>
      <trkpt lat="46.48973" lon="6.11741">
        <ele>1527.19</ele>
        <time>2015-06-07T11:29:57Z</time>
      </trkpt>
      <trkpt lat="46.48966" lon="6.11733">
        <ele>1525.27</ele>
        <time>2015-06-07T11:30:04Z</time>
      </trkpt>
      <trkpt lat="46.48959" lon="6.11724">
        <ele>1524.79</ele>
        <time>2015-06-07T11:30:11Z</time>
      </trkpt>
      <trkpt lat="46.48956" lon="6.11721">
        <ele>1524.79</ele>
        <time>2015-06-07T11:30:14Z</time>
      </trkpt>
      <trkpt lat="46.48952" lon="6.11719">
        <ele>1524.79</ele>
        <time>2015-06-07T11:30:18Z</time>
      </trkpt>
      <trkpt lat="46.48948" lon="6.11715">
        <ele>1524.31</ele>
        <time>2015-06-07T11:30:22Z</time>
      </trkpt>
      <trkpt lat="46.48944" lon="6.11713">
        <ele>1524.31</ele>
        <time>2015-06-07T11:30:27Z</time>
      </trkpt>
      <trkpt lat="46.48941" lon="6.11711">
        <ele>1523.83</ele>
        <time>2015-06-07T11:30:30Z</time>
      </trkpt>
      <trkpt lat="46.48935" lon="6.11706">
        <ele>1522.87</ele>
        <time>2015-06-07T11:30:36Z</time>
      </trkpt>
      <trkpt lat="46.48931" lon="6.11702">
        <ele>1522.39</ele>
        <time>2015-06-07T11:30:39Z</time>
      </trkpt>
      <trkpt lat="46.48924" lon="6.11695">
        <ele>1521.42</ele>
        <time>2015-06-07T11:30:46Z</time>
      </trkpt>
      <trkpt lat="46.48923" lon="6.11694">
        <ele>1521.42</ele>
        <time>2015-06-07T11:30:48Z</time>
      </trkpt>
      <trkpt lat="46.48918" lon="6.1169">
        <ele>1520.46</ele>
        <time>2015-06-07T11:30:53Z</time>
      </trkpt>
      <trkpt lat="46.48913" lon="6.11684">
        <ele>1519.98</ele>
        <time>2015-06-07T11:30:59Z</time>
      </trkpt>
      <trkpt lat="46.48908" lon="6.11681">
        <ele>1519.02</ele>
        <time>2015-06-07T11:31:04Z</time>
      </trkpt>
      <trkpt lat="46.48902" lon="6.11677">
        <ele>1518.54</ele>
        <time>2015-06-07T11:31:09Z</time>
      </trkpt>
      <trkpt lat="46.48896" lon="6.11673">
        <ele>1517.58</ele>
        <time>2015-06-07T11:31:16Z</time>
      </trkpt>
      <trkpt lat="46.48888" lon="6.11667">
        <ele>1516.14</ele>
        <time>2015-06-07T11:31:22Z</time>
      </trkpt>
      <trkpt lat="46.48885" lon="6.11663">
        <ele>1515.66</ele>
        <time>2015-06-07T11:31:28Z</time>
      </trkpt>
      <trkpt lat="46.48884" lon="6.11663">
        <ele>1515.66</ele>
        <time>2015-06-07T11:31:30Z</time>
      </trkpt>
      <trkpt lat="46.4888" lon="6.11659">
        <ele>1514.69</ele>
        <time>2015-06-07T11:31:36Z</time>
      </trkpt>
      <trkpt lat="46.48877" lon="6.11658">
        <ele>1514.21</ele>
        <time>2015-06-07T11:31:39Z</time>
      </trkpt>
      <trkpt lat="46.48872" lon="6.11652">
        <ele>1513.25</ele>
        <time>2015-06-07T11:31:46Z</time>
      </trkpt>
      <trkpt lat="46.4887" lon="6.11651">
        <ele>1512.77</ele>
        <time>2015-06-07T11:31:48Z</time>
      </trkpt>
      <trkpt lat="46.48865" lon="6.11644">
        <ele>1511.81</ele>
        <time>2015-06-07T11:31:55Z</time>
      </trkpt>
      <trkpt lat="46.48862" lon="6.11643">
        <ele>1511.33</ele>
        <time>2015-06-07T11:31:57Z</time>
      </trkpt>
      <trkpt lat="46.48856" lon="6.11638">
        <ele>1509.89</ele>
        <time>2015-06-07T11:32:03Z</time>
      </trkpt>
      <trkpt lat="46.48849" lon="6.11632">
        <ele>1508.93</ele>
        <time>2015-06-07T11:32:11Z</time>
      </trkpt>
      <trkpt lat="46.48846" lon="6.11627">
        <ele>1508.45</ele>
        <time>2015-06-07T11:32:19Z</time>
      </trkpt>
      <trkpt lat="46.48842" lon="6.11621">
        <ele>1507</ele>
        <time>2015-06-07T11:32:26Z</time>
      </trkpt>
      <trkpt lat="46.48838" lon="6.11617">
        <ele>1506.04</ele>
        <time>2015-06-07T11:32:34Z</time>
      </trkpt>
      <trkpt lat="46.48835" lon="6.11614">
        <ele>1505.56</ele>
        <time>2015-06-07T11:32:36Z</time>
      </trkpt>
      <trkpt lat="46.48824" lon="6.11605">
        <ele>1505.56</ele>
        <time>2015-06-07T11:32:44Z</time>
      </trkpt>
      <trkpt lat="46.48823" lon="6.11604">
        <ele>1505.56</ele>
        <time>2015-06-07T11:32:45Z</time>
      </trkpt>
      <trkpt lat="46.48817" lon="6.11598">
        <ele>1506.52</ele>
        <time>2015-06-07T11:32:52Z</time>
      </trkpt>
      <trkpt lat="46.48812" lon="6.11598">
        <ele>1507</ele>
        <time>2015-06-07T11:32:56Z</time>
      </trkpt>
      <trkpt lat="46.48809" lon="6.11596">
        <ele>1507.48</ele>
        <time>2015-06-07T11:33:00Z</time>
      </trkpt>
      <trkpt lat="46.48801" lon="6.11591">
        <ele>1507.97</ele>
        <time>2015-06-07T11:33:07Z</time>
      </trkpt>
      <trkpt lat="46.48799" lon="6.1159">
        <ele>1507.97</ele>
        <time>2015-06-07T11:33:09Z</time>
      </trkpt>
      <trkpt lat="46.4879" lon="6.11583">
        <ele>1508.45</ele>
        <time>2015-06-07T11:33:16Z</time>
      </trkpt>
      <trkpt lat="46.48786" lon="6.11579">
        <ele>1508.45</ele>
        <time>2015-06-07T11:33:20Z</time>
      </trkpt>
      <trkpt lat="46.48784" lon="6.1158">
        <ele>1508.93</ele>
        <time>2015-06-07T11:33:22Z</time>
      </trkpt>
      <trkpt lat="46.48778" lon="6.11575">
        <ele>1509.41</ele>
        <time>2015-06-07T11:33:28Z</time>
      </trkpt>
      <trkpt lat="46.48771" lon="6.11571">
        <ele>1510.85</ele>
        <time>2015-06-07T11:33:37Z</time>
      </trkpt>
      <trkpt lat="46.48768" lon="6.11572">
        <ele>1511.81</ele>
        <time>2015-06-07T11:33:45Z</time>
      </trkpt>
      <trkpt lat="46.48764" lon="6.11572">
        <ele>1513.25</ele>
        <time>2015-06-07T11:33:55Z</time>
      </trkpt>
      <trkpt lat="46.48763" lon="6.11573">
        <ele>1513.73</ele>
        <time>2015-06-07T11:34:04Z</time>
      </trkpt>
      <trkpt lat="46.4876" lon="6.11574">
        <ele>1513.73</ele>
        <time>2015-06-07T11:34:13Z</time>
      </trkpt>
      <trkpt lat="46.48761" lon="6.11574">
        <ele>1513.73</ele>
        <time>2015-06-07T11:34:23Z</time>
      </trkpt>
      <trkpt lat="46.48761" lon="6.11574">
        <ele>1513.73</ele>
        <time>2015-06-07T11:34:31Z</time>
      </trkpt>
      <trkpt lat="46.48761" lon="6.11575">
        <ele>1514.21</ele>
        <time>2015-06-07T11:34:48Z</time>
      </trkpt>
      <trkpt lat="46.48759" lon="6.11573">
        <ele>1514.21</ele>
        <time>2015-06-07T11:34:54Z</time>
      </trkpt>
      <trkpt lat="46.48758" lon="6.11572">
        <ele>1515.18</ele>
        <time>2015-06-07T11:35:01Z</time>
      </trkpt>
      <trkpt lat="46.48758" lon="6.11572">
        <ele>1515.18</ele>
        <time>2015-06-07T11:35:08Z</time>
      </trkpt>
      <trkpt lat="46.48758" lon="6.11573">
        <ele>1515.18</ele>
        <time>2015-06-07T11:35:19Z</time>
      </trkpt>
      <trkpt lat="46.48759" lon="6.11573">
        <ele>1514.69</ele>
        <time>2015-06-07T11:35:26Z</time>
      </trkpt>
      <trkpt lat="46.48759" lon="6.11572">
        <ele>1514.69</ele>
        <time>2015-06-07T11:35:34Z</time>
      </trkpt>
      <trkpt lat="46.48759" lon="6.11572">
        <ele>1514.69</ele>
        <time>2015-06-07T11:35:48Z</time>
      </trkpt>
      <trkpt lat="46.48759" lon="6.11572">
        <ele>1514.69</ele>
        <time>2015-06-07T11:36:02Z</time>
      </trkpt>
      <trkpt lat="46.48759" lon="6.11572">
        <ele>1514.69</ele>
        <time>2015-06-07T11:36:12Z</time>
      </trkpt>
      <trkpt lat="46.48758" lon="6.11572">
        <ele>1514.69</ele>
        <time>2015-06-07T11:36:27Z</time>
      </trkpt>
      <trkpt lat="46.48758" lon="6.11572">
        <ele>1514.69</ele>
        <time>2015-06-07T11:36:43Z</time>
      </trkpt>
      <trkpt lat="46.48758" lon="6.11571">
        <ele>1514.69</ele>
        <time>2015-06-07T11:36:59Z</time>
      </trkpt>
      <trkpt lat="46.48757" lon="6.11571">
        <ele>1514.69</ele>
        <time>2015-06-07T11:37:16Z</time>
      </trkpt>
      <trkpt lat="46.48757" lon="6.11571">
        <ele>1515.18</ele>
        <time>2015-06-07T11:37:33Z</time>
      </trkpt>
      <trkpt lat="46.48757" lon="6.1157">
        <ele>1515.18</ele>
        <time>2015-06-07T11:37:46Z</time>
      </trkpt>
      <trkpt lat="46.48757" lon="6.1157">
        <ele>1515.18</ele>
        <time>2015-06-07T11:37:56Z</time>
      </trkpt>
      <trkpt lat="46.48756" lon="6.11568">
        <ele>1515.18</ele>
        <time>2015-06-07T11:38:10Z</time>
      </trkpt>
      <trkpt lat="46.48751" lon="6.11565">
        <ele>1515.66</ele>
        <time>2015-06-07T11:38:17Z</time>
      </trkpt>
      <trkpt lat="46.48748" lon="6.11564">
        <ele>1515.66</ele>
        <time>2015-06-07T11:38:22Z</time>
      </trkpt>
      <trkpt lat="46.48744" lon="6.11561">
        <ele>1516.62</ele>
        <time>2015-06-07T11:38:30Z</time>
      </trkpt>
      <trkpt lat="46.48741" lon="6.11558">
        <ele>1516.62</ele>
        <time>2015-06-07T11:38:36Z</time>
      </trkpt>
      <trkpt lat="46.48733" lon="6.11552">
        <ele>1518.06</ele>
        <time>2015-06-07T11:38:46Z</time>
      </trkpt>
      <trkpt lat="46.48729" lon="6.1155">
        <ele>1518.54</ele>
        <time>2015-06-07T11:38:53Z</time>
      </trkpt>
      <trkpt lat="46.48724" lon="6.11548">
        <ele>1519.5</ele>
        <time>2015-06-07T11:39:01Z</time>
      </trkpt>
      <trkpt lat="46.48716" lon="6.11543">
        <ele>1519.98</ele>
        <time>2015-06-07T11:39:11Z</time>
      </trkpt>
      <trkpt lat="46.48711" lon="6.11542">
        <ele>1521.42</ele>
        <time>2015-06-07T11:39:19Z</time>
      </trkpt>
      <trkpt lat="46.48706" lon="6.11541">
        <ele>1521.9</ele>
        <time>2015-06-07T11:39:28Z</time>
      </trkpt>
      <trkpt lat="46.48705" lon="6.1154">
        <ele>1522.87</ele>
        <time>2015-06-07T11:39:30Z</time>
      </trkpt>
      <trkpt lat="46.487" lon="6.11536">
        <ele>1522.87</ele>
        <time>2015-06-07T11:39:37Z</time>
      </trkpt>
      <trkpt lat="46.48697" lon="6.11535">
        <ele>1523.35</ele>
        <time>2015-06-07T11:39:41Z</time>
      </trkpt>
      <trkpt lat="46.48689" lon="6.11532">
        <ele>1523.83</ele>
        <time>2015-06-07T11:39:50Z</time>
      </trkpt>
      <trkpt lat="46.48683" lon="6.11532">
        <ele>1524.31</ele>
        <time>2015-06-07T11:39:58Z</time>
      </trkpt>
      <trkpt lat="46.48678" lon="6.1153">
        <ele>1524.79</ele>
        <time>2015-06-07T11:40:06Z</time>
      </trkpt>
      <trkpt lat="46.48675" lon="6.11532">
        <ele>1525.27</ele>
        <time>2015-06-07T11:40:09Z</time>
      </trkpt>
      <trkpt lat="46.48668" lon="6.11535">
        <ele>1525.27</ele>
        <time>2015-06-07T11:40:17Z</time>
      </trkpt>
      <trkpt lat="46.48663" lon="6.11534">
        <ele>1525.75</ele>
        <time>2015-06-07T11:40:23Z</time>
      </trkpt>
      <trkpt lat="46.48662" lon="6.11535">
        <ele>1526.23</ele>
        <time>2015-06-07T11:40:25Z</time>
      </trkpt>
      <trkpt lat="46.48656" lon="6.11538">
        <ele>1526.71</ele>
        <time>2015-06-07T11:40:32Z</time>
      </trkpt>
      <trkpt lat="46.48654" lon="6.11538">
        <ele>1526.71</ele>
        <time>2015-06-07T11:40:36Z</time>
      </trkpt>
      <trkpt lat="46.48652" lon="6.11539">
        <ele>1527.67</ele>
        <time>2015-06-07T11:40:38Z</time>
      </trkpt>
      <trkpt lat="46.48649" lon="6.11543">
        <ele>1527.67</ele>
        <time>2015-06-07T11:40:41Z</time>
      </trkpt>
      <trkpt lat="46.48644" lon="6.11545">
        <ele>1528.15</ele>
        <time>2015-06-07T11:40:49Z</time>
      </trkpt>
      <trkpt lat="46.48642" lon="6.11547">
        <ele>1528.63</ele>
        <time>2015-06-07T11:40:56Z</time>
      </trkpt>
      <trkpt lat="46.48638" lon="6.11549">
        <ele>1529.11</ele>
        <time>2015-06-07T11:41:04Z</time>
      </trkpt>
      <trkpt lat="46.48635" lon="6.11551">
        <ele>1530.08</ele>
        <time>2015-06-07T11:41:10Z</time>
      </trkpt>
      <trkpt lat="46.48634" lon="6.11557">
        <ele>1530.56</ele>
        <time>2015-06-07T11:41:14Z</time>
      </trkpt>
      <trkpt lat="46.48634" lon="6.11561">
        <ele>1531.04</ele>
        <time>2015-06-07T11:41:19Z</time>
      </trkpt>
      <trkpt lat="46.48629" lon="6.11562">
        <ele>1532</ele>
        <time>2015-06-07T11:41:26Z</time>
      </trkpt>
      <trkpt lat="46.48624" lon="6.11561">
        <ele>1533.44</ele>
        <time>2015-06-07T11:41:34Z</time>
      </trkpt>
      <trkpt lat="46.48621" lon="6.11565">
        <ele>1533.92</ele>
        <time>2015-06-07T11:41:40Z</time>
      </trkpt>
      <trkpt lat="46.4862" lon="6.11573">
        <ele>1534.4</ele>
        <time>2015-06-07T11:41:47Z</time>
      </trkpt>
      <trkpt lat="46.48616" lon="6.11578">
        <ele>1535.36</ele>
        <time>2015-06-07T11:41:54Z</time>
      </trkpt>
      <trkpt lat="46.48615" lon="6.11579">
        <ele>1535.36</ele>
        <time>2015-06-07T11:41:55Z</time>
      </trkpt>
      <trkpt lat="46.48611" lon="6.11584">
        <ele>1536.8</ele>
        <time>2015-06-07T11:42:04Z</time>
      </trkpt>
      <trkpt lat="46.4861" lon="6.1159">
        <ele>1536.8</ele>
        <time>2015-06-07T11:42:08Z</time>
      </trkpt>
      <trkpt lat="46.48604" lon="6.11597">
        <ele>1536.8</ele>
        <time>2015-06-07T11:42:16Z</time>
      </trkpt>
      <trkpt lat="46.48599" lon="6.11601">
        <ele>1537.29</ele>
        <time>2015-06-07T11:42:23Z</time>
      </trkpt>
      <trkpt lat="46.48595" lon="6.11607">
        <ele>1537.29</ele>
        <time>2015-06-07T11:42:30Z</time>
      </trkpt>
      <trkpt lat="46.48589" lon="6.11609">
        <ele>1538.73</ele>
        <time>2015-06-07T11:42:39Z</time>
      </trkpt>
      <trkpt lat="46.48585" lon="6.11608">
        <ele>1539.69</ele>
        <time>2015-06-07T11:42:47Z</time>
      </trkpt>
      <trkpt lat="46.48582" lon="6.11606">
        <ele>1540.17</ele>
        <time>2015-06-07T11:42:51Z</time>
      </trkpt>
      <trkpt lat="46.48579" lon="6.11605">
        <ele>1540.65</ele>
        <time>2015-06-07T11:42:55Z</time>
      </trkpt>
      <trkpt lat="46.48572" lon="6.11604">
        <ele>1541.13</ele>
        <time>2015-06-07T11:43:01Z</time>
      </trkpt>
      <trkpt lat="46.48564" lon="6.11601">
        <ele>1541.13</ele>
        <time>2015-06-07T11:43:09Z</time>
      </trkpt>
      <trkpt lat="46.48557" lon="6.11597">
        <ele>1542.09</ele>
        <time>2015-06-07T11:43:16Z</time>
      </trkpt>
      <trkpt lat="46.48553" lon="6.11594">
        <ele>1543.05</ele>
        <time>2015-06-07T11:43:22Z</time>
      </trkpt>
      <trkpt lat="46.48551" lon="6.11591">
        <ele>1543.05</ele>
        <time>2015-06-07T11:43:24Z</time>
      </trkpt>
      <trkpt lat="46.48545" lon="6.11585">
        <ele>1543.53</ele>
        <time>2015-06-07T11:43:31Z</time>
      </trkpt>
      <trkpt lat="46.4854" lon="6.11582">
        <ele>1544.01</ele>
        <time>2015-06-07T11:43:36Z</time>
      </trkpt>
      <trkpt lat="46.48536" lon="6.11577">
        <ele>1544.98</ele>
        <time>2015-06-07T11:43:42Z</time>
      </trkpt>
      <trkpt lat="46.48535" lon="6.11575">
        <ele>1544.98</ele>
        <time>2015-06-07T11:43:45Z</time>
      </trkpt>
      <trkpt lat="46.48533" lon="6.11572">
        <ele>1545.46</ele>
        <time>2015-06-07T11:43:48Z</time>
      </trkpt>
      <trkpt lat="46.48529" lon="6.1157">
        <ele>1545.94</ele>
        <time>2015-06-07T11:43:52Z</time>
      </trkpt>
      <trkpt lat="46.48525" lon="6.11569">
        <ele>1545.94</ele>
        <time>2015-06-07T11:43:55Z</time>
      </trkpt>
      <trkpt lat="46.48522" lon="6.11566">
        <ele>1546.9</ele>
        <time>2015-06-07T11:43:59Z</time>
      </trkpt>
      <trkpt lat="46.48517" lon="6.11566">
        <ele>1547.38</ele>
        <time>2015-06-07T11:44:05Z</time>
      </trkpt>
      <trkpt lat="46.48512" lon="6.11566">
        <ele>1547.86</ele>
        <time>2015-06-07T11:44:11Z</time>
      </trkpt>
      <trkpt lat="46.48507" lon="6.11567">
        <ele>1548.34</ele>
        <time>2015-06-07T11:44:18Z</time>
      </trkpt>
      <trkpt lat="46.48503" lon="6.11567">
        <ele>1548.82</ele>
        <time>2015-06-07T11:44:22Z</time>
      </trkpt>
      <trkpt lat="46.48498" lon="6.11571">
        <ele>1549.78</ele>
        <time>2015-06-07T11:44:29Z</time>
      </trkpt>
      <trkpt lat="46.48494" lon="6.11576">
        <ele>1550.26</ele>
        <time>2015-06-07T11:44:35Z</time>
      </trkpt>
      <trkpt lat="46.48489" lon="6.11579">
        <ele>1551.22</ele>
        <time>2015-06-07T11:44:43Z</time>
      </trkpt>
      <trkpt lat="46.48488" lon="6.11579">
        <ele>1551.22</ele>
        <time>2015-06-07T11:44:44Z</time>
      </trkpt>
      <trkpt lat="46.48485" lon="6.11579">
        <ele>1551.71</ele>
        <time>2015-06-07T11:44:47Z</time>
      </trkpt>
      <trkpt lat="46.48484" lon="6.11579">
        <ele>1551.22</ele>
        <time>2015-06-07T11:44:49Z</time>
      </trkpt>
      <trkpt lat="46.48482" lon="6.11579">
        <ele>1551.71</ele>
        <time>2015-06-07T11:44:51Z</time>
      </trkpt>
      <trkpt lat="46.48478" lon="6.1158">
        <ele>1552.19</ele>
        <time>2015-06-07T11:44:58Z</time>
      </trkpt>
      <trkpt lat="46.48475" lon="6.11583">
        <ele>1553.63</ele>
        <time>2015-06-07T11:45:05Z</time>
      </trkpt>
      <trkpt lat="46.48474" lon="6.11584">
        <ele>1554.11</ele>
        <time>2015-06-07T11:45:11Z</time>
      </trkpt>
      <trkpt lat="46.48474" lon="6.11582">
        <ele>1554.59</ele>
        <time>2015-06-07T11:45:18Z</time>
      </trkpt>
      <trkpt lat="46.48472" lon="6.11579">
        <ele>1555.55</ele>
        <time>2015-06-07T11:45:24Z</time>
      </trkpt>
      <trkpt lat="46.48471" lon="6.11577">
        <ele>1556.03</ele>
        <time>2015-06-07T11:45:31Z</time>
      </trkpt>
      <trkpt lat="46.48469" lon="6.11573">
        <ele>1557.47</ele>
        <time>2015-06-07T11:45:37Z</time>
      </trkpt>
      <trkpt lat="46.48469" lon="6.1157">
        <ele>1558.43</ele>
        <time>2015-06-07T11:45:43Z</time>
      </trkpt>
      <trkpt lat="46.48469" lon="6.11567">
        <ele>1558.43</ele>
        <time>2015-06-07T11:45:50Z</time>
      </trkpt>
      <trkpt lat="46.48469" lon="6.11567">
        <ele>1558.43</ele>
        <time>2015-06-07T11:45:51Z</time>
      </trkpt>
      <trkpt lat="46.48467" lon="6.11567">
        <ele>1559.4</ele>
        <time>2015-06-07T11:45:58Z</time>
      </trkpt>
      <trkpt lat="46.48467" lon="6.11565">
        <ele>1559.88</ele>
        <time>2015-06-07T11:46:03Z</time>
      </trkpt>
      <trkpt lat="46.48466" lon="6.1156">
        <ele>1560.84</ele>
        <time>2015-06-07T11:46:09Z</time>
      </trkpt>
      <trkpt lat="46.48466" lon="6.11559">
        <ele>1560.84</ele>
        <time>2015-06-07T11:46:10Z</time>
      </trkpt>
      <trkpt lat="46.48463" lon="6.11556">
        <ele>1562.76</ele>
        <time>2015-06-07T11:46:16Z</time>
      </trkpt>
      <trkpt lat="46.48461" lon="6.11557">
        <ele>1563.24</ele>
        <time>2015-06-07T11:46:18Z</time>
      </trkpt>
      <trkpt lat="46.48458" lon="6.1156">
        <ele>1564.68</ele>
        <time>2015-06-07T11:46:22Z</time>
      </trkpt>
      <trkpt lat="46.48454" lon="6.11562">
        <ele>1565.64</ele>
        <time>2015-06-07T11:46:29Z</time>
      </trkpt>
      <trkpt lat="46.4845" lon="6.11566">
        <ele>1565.16</ele>
        <time>2015-06-07T11:46:34Z</time>
      </trkpt>
      <trkpt lat="46.48446" lon="6.11568">
        <ele>1565.64</ele>
        <time>2015-06-07T11:46:43Z</time>
      </trkpt>
      <trkpt lat="46.48445" lon="6.11567">
        <ele>1565.16</ele>
        <time>2015-06-07T11:46:45Z</time>
      </trkpt>
      <trkpt lat="46.48438" lon="6.11568">
        <ele>1564.68</ele>
        <time>2015-06-07T11:46:52Z</time>
      </trkpt>
      <trkpt lat="46.48434" lon="6.11567">
        <ele>1565.16</ele>
        <time>2015-06-07T11:46:58Z</time>
      </trkpt>
      <trkpt lat="46.4843" lon="6.11566">
        <ele>1566.61</ele>
        <time>2015-06-07T11:47:05Z</time>
      </trkpt>
      <trkpt lat="46.48426" lon="6.11567">
        <ele>1567.09</ele>
        <time>2015-06-07T11:47:10Z</time>
      </trkpt>
      <trkpt lat="46.48423" lon="6.1157">
        <ele>1567.09</ele>
        <time>2015-06-07T11:47:14Z</time>
      </trkpt>
      <trkpt lat="46.48419" lon="6.11574">
        <ele>1568.05</ele>
        <time>2015-06-07T11:47:21Z</time>
      </trkpt>
      <trkpt lat="46.48417" lon="6.11574">
        <ele>1568.53</ele>
        <time>2015-06-07T11:47:28Z</time>
      </trkpt>
      <trkpt lat="46.48415" lon="6.11571">
        <ele>1568.05</ele>
        <time>2015-06-07T11:47:34Z</time>
      </trkpt>
      <trkpt lat="46.48414" lon="6.11571">
        <ele>1568.53</ele>
        <time>2015-06-07T11:47:42Z</time>
      </trkpt>
      <trkpt lat="46.48414" lon="6.1157">
        <ele>1568.53</ele>
        <time>2015-06-07T11:47:55Z</time>
      </trkpt>
      <trkpt lat="46.48414" lon="6.1157">
        <ele>1568.53</ele>
        <time>2015-06-07T11:48:08Z</time>
      </trkpt>
      <trkpt lat="46.48414" lon="6.1157">
        <ele>1568.53</ele>
        <time>2015-06-07T11:48:20Z</time>
      </trkpt>
      <trkpt lat="46.48414" lon="6.11569">
        <ele>1568.05</ele>
        <time>2015-06-07T11:48:32Z</time>
      </trkpt>
      <trkpt lat="46.48414" lon="6.1157">
        <ele>1567.57</ele>
        <time>2015-06-07T11:48:43Z</time>
      </trkpt>
      <trkpt lat="46.48414" lon="6.1157">
        <ele>1568.05</ele>
        <time>2015-06-07T11:48:56Z</time>
      </trkpt>
      <trkpt lat="46.48414" lon="6.1157">
        <ele>1567.57</ele>
        <time>2015-06-07T11:49:08Z</time>
      </trkpt>
      <trkpt lat="46.48414" lon="6.11569">
        <ele>1568.53</ele>
        <time>2015-06-07T11:49:25Z</time>
      </trkpt>
      <trkpt lat="46.48413" lon="6.1157">
        <ele>1568.05</ele>
        <time>2015-06-07T11:49:37Z</time>
      </trkpt>
      <trkpt lat="46.48413" lon="6.1157">
        <ele>1568.05</ele>
        <time>2015-06-07T11:49:50Z</time>
      </trkpt>
      <trkpt lat="46.48413" lon="6.1157">
        <ele>1568.05</ele>
        <time>2015-06-07T11:50:03Z</time>
      </trkpt>
      <trkpt lat="46.48413" lon="6.1157">
        <ele>1568.05</ele>
        <time>2015-06-07T11:50:15Z</time>
      </trkpt>
      <trkpt lat="46.48413" lon="6.1157">
        <ele>1568.05</ele>
        <time>2015-06-07T11:50:29Z</time>
      </trkpt>
      <trkpt lat="46.48412" lon="6.11571">
        <ele>1567.57</ele>
        <time>2015-06-07T11:50:39Z</time>
      </trkpt>
      <trkpt lat="46.48412" lon="6.1157">
        <ele>1567.57</ele>
        <time>2015-06-07T11:50:57Z</time>
      </trkpt>
      <trkpt lat="46.48412" lon="6.11571">
        <ele>1567.57</ele>
        <time>2015-06-07T11:51:12Z</time>
      </trkpt>
      <trkpt lat="46.48412" lon="6.11571">
        <ele>1568.05</ele>
        <time>2015-06-07T11:51:24Z</time>
      </trkpt>
      <trkpt lat="46.48412" lon="6.11572">
        <ele>1568.05</ele>
        <time>2015-06-07T11:51:38Z</time>
      </trkpt>
      <trkpt lat="46.48412" lon="6.11572">
        <ele>1567.57</ele>
        <time>2015-06-07T11:51:50Z</time>
      </trkpt>
      <trkpt lat="46.48412" lon="6.11573">
        <ele>1567.57</ele>
        <time>2015-06-07T11:52:06Z</time>
      </trkpt>
      <trkpt lat="46.48411" lon="6.11571">
        <ele>1567.57</ele>
        <time>2015-06-07T11:52:18Z</time>
      </trkpt>
      <trkpt lat="46.48408" lon="6.11569">
        <ele>1567.09</ele>
        <time>2015-06-07T11:52:24Z</time>
      </trkpt>
      <trkpt lat="46.48405" lon="6.11564">
        <ele>1566.12</ele>
        <time>2015-06-07T11:52:32Z</time>
      </trkpt>
      <trkpt lat="46.48402" lon="6.11559">
        <ele>1564.2</ele>
        <time>2015-06-07T11:52:38Z</time>
      </trkpt>
      <trkpt lat="46.48402" lon="6.11559">
        <ele>1563.72</ele>
        <time>2015-06-07T11:52:45Z</time>
      </trkpt>
      <trkpt lat="46.48402" lon="6.11559">
        <ele>1563.24</ele>
        <time>2015-06-07T11:52:55Z</time>
      </trkpt>
      <trkpt lat="46.48401" lon="6.11558">
        <ele>1562.76</ele>
        <time>2015-06-07T11:53:02Z</time>
      </trkpt>
      <trkpt lat="46.48397" lon="6.11553">
        <ele>1561.32</ele>
        <time>2015-06-07T11:53:09Z</time>
      </trkpt>
      <trkpt lat="46.48395" lon="6.11551">
        <ele>1560.36</ele>
        <time>2015-06-07T11:53:12Z</time>
      </trkpt>
      <trkpt lat="46.48387" lon="6.11545">
        <ele>1557.95</ele>
        <time>2015-06-07T11:53:19Z</time>
      </trkpt>
      <trkpt lat="46.48378" lon="6.1154">
        <ele>1556.51</ele>
        <time>2015-06-07T11:53:24Z</time>
      </trkpt>
      <trkpt lat="46.48375" lon="6.11534">
        <ele>1555.55</ele>
        <time>2015-06-07T11:53:29Z</time>
      </trkpt>
      <trkpt lat="46.48376" lon="6.11524">
        <ele>1552.67</ele>
        <time>2015-06-07T11:53:36Z</time>
      </trkpt>
      <trkpt lat="46.48373" lon="6.11519">
        <ele>1551.71</ele>
        <time>2015-06-07T11:53:42Z</time>
      </trkpt>
      <trkpt lat="46.48372" lon="6.11518">
        <ele>1551.22</ele>
        <time>2015-06-07T11:53:44Z</time>
      </trkpt>
      <trkpt lat="46.48369" lon="6.11512">
        <ele>1551.22</ele>
        <time>2015-06-07T11:53:48Z</time>
      </trkpt>
      <trkpt lat="46.48366" lon="6.11506">
        <ele>1549.78</ele>
        <time>2015-06-07T11:53:53Z</time>
      </trkpt>
      <trkpt lat="46.48368" lon="6.11501">
        <ele>1548.82</ele>
        <time>2015-06-07T11:53:57Z</time>
      </trkpt>
      <trkpt lat="46.48369" lon="6.11492">
        <ele>1547.86</ele>
        <time>2015-06-07T11:54:03Z</time>
      </trkpt>
      <trkpt lat="46.48371" lon="6.11482">
        <ele>1545.94</ele>
        <time>2015-06-07T11:54:10Z</time>
      </trkpt>
      <trkpt lat="46.48375" lon="6.11473">
        <ele>1544.98</ele>
        <time>2015-06-07T11:54:16Z</time>
      </trkpt>
      <trkpt lat="46.48375" lon="6.11471">
        <ele>1544.5</ele>
        <time>2015-06-07T11:54:17Z</time>
      </trkpt>
      <trkpt lat="46.48376" lon="6.11467">
        <ele>1544.01</ele>
        <time>2015-06-07T11:54:21Z</time>
      </trkpt>
      <trkpt lat="46.48377" lon="6.11464">
        <ele>1543.05</ele>
        <time>2015-06-07T11:54:23Z</time>
      </trkpt>
      <trkpt lat="46.48377" lon="6.11446">
        <ele>1541.61</ele>
        <time>2015-06-07T11:54:31Z</time>
      </trkpt>
      <trkpt lat="46.48375" lon="6.11435">
        <ele>1539.21</ele>
        <time>2015-06-07T11:54:37Z</time>
      </trkpt>
      <trkpt lat="46.48374" lon="6.11433">
        <ele>1539.21</ele>
        <time>2015-06-07T11:54:38Z</time>
      </trkpt>
      <trkpt lat="46.48369" lon="6.11426">
        <ele>1537.29</ele>
        <time>2015-06-07T11:54:45Z</time>
      </trkpt>
      <trkpt lat="46.48364" lon="6.1142">
        <ele>1536.32</ele>
        <time>2015-06-07T11:54:49Z</time>
      </trkpt>
      <trkpt lat="46.48363" lon="6.11419">
        <ele>1537.29</ele>
        <time>2015-06-07T11:54:50Z</time>
      </trkpt>
      <trkpt lat="46.48359" lon="6.11417">
        <ele>1536.32</ele>
        <time>2015-06-07T11:54:57Z</time>
      </trkpt>
      <trkpt lat="46.48358" lon="6.11416">
        <ele>1535.84</ele>
        <time>2015-06-07T11:55:03Z</time>
      </trkpt>
      <trkpt lat="46.48356" lon="6.11411">
        <ele>1534.4</ele>
        <time>2015-06-07T11:55:09Z</time>
      </trkpt>
      <trkpt lat="46.48354" lon="6.11409">
        <ele>1533.44</ele>
        <time>2015-06-07T11:55:14Z</time>
      </trkpt>
      <trkpt lat="46.48351" lon="6.11403">
        <ele>1532.96</ele>
        <time>2015-06-07T11:55:21Z</time>
      </trkpt>
      <trkpt lat="46.4835" lon="6.114">
        <ele>1532.96</ele>
        <time>2015-06-07T11:55:30Z</time>
      </trkpt>
      <trkpt lat="46.48348" lon="6.11397">
        <ele>1531.52</ele>
        <time>2015-06-07T11:55:37Z</time>
      </trkpt>
      <trkpt lat="46.48346" lon="6.11393">
        <ele>1531.04</ele>
        <time>2015-06-07T11:55:41Z</time>
      </trkpt>
      <trkpt lat="46.48345" lon="6.11391">
        <ele>1530.56</ele>
        <time>2015-06-07T11:55:43Z</time>
      </trkpt>
      <trkpt lat="46.48341" lon="6.11386">
        <ele>1530.08</ele>
        <time>2015-06-07T11:55:49Z</time>
      </trkpt>
      <trkpt lat="46.48338" lon="6.1138">
        <ele>1529.11</ele>
        <time>2015-06-07T11:55:56Z</time>
      </trkpt>
      <trkpt lat="46.48335" lon="6.11377">
        <ele>1528.63</ele>
        <time>2015-06-07T11:56:00Z</time>
      </trkpt>
      <trkpt lat="46.48329" lon="6.11372">
        <ele>1527.67</ele>
        <time>2015-06-07T11:56:05Z</time>
      </trkpt>
      <trkpt lat="46.48328" lon="6.11368">
        <ele>1527.19</ele>
        <time>2015-06-07T11:56:08Z</time>
      </trkpt>
      <trkpt lat="46.48327" lon="6.11366">
        <ele>1527.19</ele>
        <time>2015-06-07T11:56:10Z</time>
      </trkpt>
      <trkpt lat="46.48323" lon="6.11357">
        <ele>1526.23</ele>
        <time>2015-06-07T11:56:16Z</time>
      </trkpt>
      <trkpt lat="46.48322" lon="6.11356">
        <ele>1526.23</ele>
        <time>2015-06-07T11:56:17Z</time>
      </trkpt>
      <trkpt lat="46.4832" lon="6.11354">
        <ele>1526.23</ele>
        <time>2015-06-07T11:56:19Z</time>
      </trkpt>
      <trkpt lat="46.48318" lon="6.11352">
        <ele>1526.71</ele>
        <time>2015-06-07T11:56:25Z</time>
      </trkpt>
      <trkpt lat="46.48318" lon="6.1135">
        <ele>1526.23</ele>
        <time>2015-06-07T11:56:36Z</time>
      </trkpt>
      <trkpt lat="46.48317" lon="6.1135">
        <ele>1525.75</ele>
        <time>2015-06-07T11:56:49Z</time>
      </trkpt>
      <trkpt lat="46.48315" lon="6.11351">
        <ele>1526.23</ele>
        <time>2015-06-07T11:57:01Z</time>
      </trkpt>
      <trkpt lat="46.48315" lon="6.11351">
        <ele>1526.23</ele>
        <time>2015-06-07T11:57:16Z</time>
      </trkpt>
      <trkpt lat="46.48316" lon="6.11351">
        <ele>1526.23</ele>
        <time>2015-06-07T11:57:29Z</time>
      </trkpt>
      <trkpt lat="46.48315" lon="6.1135">
        <ele>1526.71</ele>
        <time>2015-06-07T11:57:38Z</time>
      </trkpt>
      <trkpt lat="46.48309" lon="6.11351">
        <ele>1526.23</ele>
        <time>2015-06-07T11:57:46Z</time>
      </trkpt>
      <trkpt lat="46.48308" lon="6.11351">
        <ele>1526.71</ele>
        <time>2015-06-07T11:57:47Z</time>
      </trkpt>
      <trkpt lat="46.483" lon="6.1135">
        <ele>1527.19</ele>
        <time>2015-06-07T11:57:55Z</time>
      </trkpt>
      <trkpt lat="46.48294" lon="6.11347">
        <ele>1528.15</ele>
        <time>2015-06-07T11:58:02Z</time>
      </trkpt>
      <trkpt lat="46.48292" lon="6.11347">
        <ele>1528.63</ele>
        <time>2015-06-07T11:58:10Z</time>
      </trkpt>
      <trkpt lat="46.48289" lon="6.11344">
        <ele>1531.04</ele>
        <time>2015-06-07T11:58:17Z</time>
      </trkpt>
      <trkpt lat="46.48287" lon="6.11342">
        <ele>1532</ele>
        <time>2015-06-07T11:58:24Z</time>
      </trkpt>
      <trkpt lat="46.48286" lon="6.11342">
        <ele>1533.44</ele>
        <time>2015-06-07T11:58:31Z</time>
      </trkpt>
      <trkpt lat="46.48285" lon="6.11341">
        <ele>1533.44</ele>
        <time>2015-06-07T11:58:33Z</time>
      </trkpt>
      <trkpt lat="46.48283" lon="6.11338">
        <ele>1534.4</ele>
        <time>2015-06-07T11:58:36Z</time>
      </trkpt>
      <trkpt lat="46.48277" lon="6.11337">
        <ele>1535.36</ele>
        <time>2015-06-07T11:58:42Z</time>
      </trkpt>
      <trkpt lat="46.48274" lon="6.11334">
        <ele>1536.32</ele>
        <time>2015-06-07T11:58:49Z</time>
      </trkpt>
      <trkpt lat="46.48273" lon="6.11334">
        <ele>1537.29</ele>
        <time>2015-06-07T11:58:58Z</time>
      </trkpt>
      <trkpt lat="46.48272" lon="6.11327">
        <ele>1538.25</ele>
        <time>2015-06-07T11:59:06Z</time>
      </trkpt>
      <trkpt lat="46.48271" lon="6.1132">
        <ele>1538.73</ele>
        <time>2015-06-07T11:59:11Z</time>
      </trkpt>
      <trkpt lat="46.4827" lon="6.1131">
        <ele>1539.69</ele>
        <time>2015-06-07T11:59:19Z</time>
      </trkpt>
      <trkpt lat="46.48269" lon="6.11303">
        <ele>1540.65</ele>
        <time>2015-06-07T11:59:27Z</time>
      </trkpt>
      <trkpt lat="46.48265" lon="6.11294">
        <ele>1540.17</ele>
        <time>2015-06-07T11:59:33Z</time>
      </trkpt>
      <trkpt lat="46.4826" lon="6.11289">
        <ele>1540.65</ele>
        <time>2015-06-07T11:59:39Z</time>
      </trkpt>
      <trkpt lat="46.48259" lon="6.11287">
        <ele>1541.13</ele>
        <time>2015-06-07T11:59:41Z</time>
      </trkpt>
      <trkpt lat="46.48254" lon="6.11277">
        <ele>1540.17</ele>
        <time>2015-06-07T11:59:49Z</time>
      </trkpt>
      <trkpt lat="46.48252" lon="6.11275">
        <ele>1541.13</ele>
        <time>2015-06-07T11:59:51Z</time>
      </trkpt>
      <trkpt lat="46.48249" lon="6.11271">
        <ele>1540.65</ele>
        <time>2015-06-07T11:59:55Z</time>
      </trkpt>
      <trkpt lat="46.48247" lon="6.11267">
        <ele>1540.65</ele>
        <time>2015-06-07T12:00:00Z</time>
      </trkpt>
      <trkpt lat="46.48243" lon="6.11259">
        <ele>1541.61</ele>
        <time>2015-06-07T12:00:07Z</time>
      </trkpt>
      <trkpt lat="46.4824" lon="6.11254">
        <ele>1542.09</ele>
        <time>2015-06-07T12:00:14Z</time>
      </trkpt>
      <trkpt lat="46.48236" lon="6.11247">
        <ele>1543.05</ele>
        <time>2015-06-07T12:00:21Z</time>
      </trkpt>
      <trkpt lat="46.48235" lon="6.11247">
        <ele>1543.05</ele>
        <time>2015-06-07T12:00:22Z</time>
      </trkpt>
      <trkpt lat="46.4823" lon="6.11238">
        <ele>1543.05</ele>
        <time>2015-06-07T12:00:30Z</time>
      </trkpt>
      <trkpt lat="46.48228" lon="6.11233">
        <ele>1542.57</ele>
        <time>2015-06-07T12:00:33Z</time>
      </trkpt>
      <trkpt lat="46.48228" lon="6.1123">
        <ele>1542.57</ele>
        <time>2015-06-07T12:00:36Z</time>
      </trkpt>
      <trkpt lat="46.48229" lon="6.11227">
        <ele>1543.53</ele>
        <time>2015-06-07T12:00:40Z</time>
      </trkpt>
      <trkpt lat="46.4823" lon="6.11219">
        <ele>1544.01</ele>
        <time>2015-06-07T12:00:46Z</time>
      </trkpt>
      <trkpt lat="46.48231" lon="6.11215">
        <ele>1543.53</ele>
        <time>2015-06-07T12:00:49Z</time>
      </trkpt>
      <trkpt lat="46.48232" lon="6.11208">
        <ele>1543.53</ele>
        <time>2015-06-07T12:00:54Z</time>
      </trkpt>
      <trkpt lat="46.48231" lon="6.11203">
        <ele>1543.53</ele>
        <time>2015-06-07T12:00:57Z</time>
      </trkpt>
      <trkpt lat="46.4823" lon="6.11192">
        <ele>1543.53</ele>
        <time>2015-06-07T12:01:04Z</time>
      </trkpt>
      <trkpt lat="46.4823" lon="6.11184">
        <ele>1543.53</ele>
        <time>2015-06-07T12:01:09Z</time>
      </trkpt>
      <trkpt lat="46.48231" lon="6.11174">
        <ele>1543.53</ele>
        <time>2015-06-07T12:01:16Z</time>
      </trkpt>
      <trkpt lat="46.4823" lon="6.11169">
        <ele>1544.01</ele>
        <time>2015-06-07T12:01:22Z</time>
      </trkpt>
      <trkpt lat="46.48229" lon="6.11167">
        <ele>1541.61</ele>
        <time>2015-06-07T12:01:29Z</time>
      </trkpt>
      <trkpt lat="46.48229" lon="6.11167">
        <ele>1546.42</ele>
        <time>2015-06-07T12:01:30Z</time>
      </trkpt>
      <trkpt lat="46.48229" lon="6.11167">
        <ele>1543.53</ele>
        <time>2015-06-07T12:01:33Z</time>
      </trkpt>
      <trkpt lat="46.48228" lon="6.11166">
        <ele>1544.5</ele>
        <time>2015-06-07T12:01:43Z</time>
      </trkpt>
      <trkpt lat="46.48227" lon="6.11165">
        <ele>1544.01</ele>
        <time>2015-06-07T12:01:56Z</time>
      </trkpt>
      <trkpt lat="46.48227" lon="6.11163">
        <ele>1544.01</ele>
        <time>2015-06-07T12:02:00Z</time>
      </trkpt>
      <trkpt lat="46.48226" lon="6.11158">
        <ele>1544.5</ele>
        <time>2015-06-07T12:02:08Z</time>
      </trkpt>
      <trkpt lat="46.48226" lon="6.11156">
        <ele>1544.5</ele>
        <time>2015-06-07T12:02:21Z</time>
      </trkpt>
      <trkpt lat="46.48226" lon="6.11156">
        <ele>1544.5</ele>
        <time>2015-06-07T12:02:26Z</time>
      </trkpt>
      <trkpt lat="46.48226" lon="6.11156">
        <ele>1544.5</ele>
        <time>2015-06-07T12:02:37Z</time>
      </trkpt>
      <trkpt lat="46.48226" lon="6.11155">
        <ele>1544.5</ele>
        <time>2015-06-07T12:02:50Z</time>
      </trkpt>
      <trkpt lat="46.48227" lon="6.11155">
        <ele>1544.01</ele>
        <time>2015-06-07T12:03:06Z</time>
      </trkpt>
      <trkpt lat="46.48226" lon="6.11155">
        <ele>1544.01</ele>
        <time>2015-06-07T12:03:15Z</time>
      </trkpt>
      <trkpt lat="46.48227" lon="6.11156">
        <ele>1544.01</ele>
        <time>2015-06-07T12:03:33Z</time>
      </trkpt>
      <trkpt lat="46.48226" lon="6.11156">
        <ele>1544.5</ele>
        <time>2015-06-07T12:03:53Z</time>
      </trkpt>
      <trkpt lat="46.48226" lon="6.11156">
        <ele>1544.01</ele>
        <time>2015-06-07T12:04:05Z</time>
      </trkpt>
      <trkpt lat="46.48226" lon="6.11156">
        <ele>1544.01</ele>
        <time>2015-06-07T12:04:17Z</time>
      </trkpt>
      <trkpt lat="46.48226" lon="6.11156">
        <ele>1544.01</ele>
        <time>2015-06-07T12:04:32Z</time>
      </trkpt>
      <trkpt lat="46.48225" lon="6.11156">
        <ele>1544.01</ele>
        <time>2015-06-07T12:04:51Z</time>
      </trkpt>
      <trkpt lat="46.48226" lon="6.11156">
        <ele>1544.01</ele>
        <time>2015-06-07T12:05:09Z</time>
      </trkpt>
      <trkpt lat="46.48226" lon="6.11156">
        <ele>1544.01</ele>
        <time>2015-06-07T12:05:21Z</time>
      </trkpt>
      <trkpt lat="46.48225" lon="6.11156">
        <ele>1544.01</ele>
        <time>2015-06-07T12:05:37Z</time>
      </trkpt>
      <trkpt lat="46.48225" lon="6.11155">
        <ele>1544.01</ele>
        <time>2015-06-07T12:05:56Z</time>
      </trkpt>
      <trkpt lat="46.48224" lon="6.11155">
        <ele>1544.5</ele>
        <time>2015-06-07T12:06:13Z</time>
      </trkpt>
      <trkpt lat="46.48225" lon="6.11154">
        <ele>1544.01</ele>
        <time>2015-06-07T12:06:25Z</time>
      </trkpt>
      <trkpt lat="46.48225" lon="6.11153">
        <ele>1544.01</ele>
        <time>2015-06-07T12:06:34Z</time>
      </trkpt>
      <trkpt lat="46.48225" lon="6.11152">
        <ele>1544.01</ele>
        <time>2015-06-07T12:06:44Z</time>
      </trkpt>
      <trkpt lat="46.48227" lon="6.11149">
        <ele>1544.01</ele>
        <time>2015-06-07T12:06:52Z</time>
      </trkpt>
      <trkpt lat="46.48228" lon="6.11144">
        <ele>1543.53</ele>
        <time>2015-06-07T12:06:58Z</time>
      </trkpt>
      <trkpt lat="46.48228" lon="6.11135">
        <ele>1543.53</ele>
        <time>2015-06-07T12:07:05Z</time>
      </trkpt>
      <trkpt lat="46.48226" lon="6.1113">
        <ele>1543.05</ele>
        <time>2015-06-07T12:07:11Z</time>
      </trkpt>
      <trkpt lat="46.48226" lon="6.11127">
        <ele>1542.57</ele>
        <time>2015-06-07T12:07:17Z</time>
      </trkpt>
      <trkpt lat="46.48226" lon="6.11125">
        <ele>1543.05</ele>
        <time>2015-06-07T12:07:25Z</time>
      </trkpt>
      <trkpt lat="46.48227" lon="6.11121">
        <ele>1543.05</ele>
        <time>2015-06-07T12:07:28Z</time>
      </trkpt>
      <trkpt lat="46.4823" lon="6.1111">
        <ele>1542.09</ele>
        <time>2015-06-07T12:07:35Z</time>
      </trkpt>
      <trkpt lat="46.48232" lon="6.11098">
        <ele>1541.61</ele>
        <time>2015-06-07T12:07:42Z</time>
      </trkpt>
      <trkpt lat="46.48232" lon="6.11096">
        <ele>1541.13</ele>
        <time>2015-06-07T12:07:43Z</time>
      </trkpt>
      <trkpt lat="46.48234" lon="6.11086">
        <ele>1540.65</ele>
        <time>2015-06-07T12:07:48Z</time>
      </trkpt>
      <trkpt lat="46.48235" lon="6.11077">
        <ele>1540.17</ele>
        <time>2015-06-07T12:07:53Z</time>
      </trkpt>
      <trkpt lat="46.48237" lon="6.11066">
        <ele>1538.73</ele>
        <time>2015-06-07T12:08:00Z</time>
      </trkpt>
      <trkpt lat="46.48237" lon="6.11065">
        <ele>1538.73</ele>
        <time>2015-06-07T12:08:01Z</time>
      </trkpt>
      <trkpt lat="46.4824" lon="6.11055">
        <ele>1536.8</ele>
        <time>2015-06-07T12:08:08Z</time>
      </trkpt>
      <trkpt lat="46.48243" lon="6.11043">
        <ele>1534.88</ele>
        <time>2015-06-07T12:08:16Z</time>
      </trkpt>
      <trkpt lat="46.48244" lon="6.11041">
        <ele>1534.4</ele>
        <time>2015-06-07T12:08:17Z</time>
      </trkpt>
      <trkpt lat="46.48244" lon="6.11037">
        <ele>1533.92</ele>
        <time>2015-06-07T12:08:19Z</time>
      </trkpt>
      <trkpt lat="46.48245" lon="6.11027">
        <ele>1532</ele>
        <time>2015-06-07T12:08:25Z</time>
      </trkpt>
      <trkpt lat="46.48241" lon="6.11015">
        <ele>1531.04</ele>
        <time>2015-06-07T12:08:30Z</time>
      </trkpt>
      <trkpt lat="46.48242" lon="6.11006">
        <ele>1530.56</ele>
        <time>2015-06-07T12:08:35Z</time>
      </trkpt>
      <trkpt lat="46.48241" lon="6.11001">
        <ele>1530.56</ele>
        <time>2015-06-07T12:08:38Z</time>
      </trkpt>
      <trkpt lat="46.48241" lon="6.10997">
        <ele>1530.56</ele>
        <time>2015-06-07T12:08:41Z</time>
      </trkpt>
      <trkpt lat="46.48238" lon="6.10986">
        <ele>1530.56</ele>
        <time>2015-06-07T12:08:48Z</time>
      </trkpt>
      <trkpt lat="46.48235" lon="6.10978">
        <ele>1530.56</ele>
        <time>2015-06-07T12:08:54Z</time>
      </trkpt>
      <trkpt lat="46.48229" lon="6.1097">
        <ele>1531.04</ele>
        <time>2015-06-07T12:09:03Z</time>
      </trkpt>
      <trkpt lat="46.48227" lon="6.10966">
        <ele>1528.63</ele>
        <time>2015-06-07T12:09:06Z</time>
      </trkpt>
      <trkpt lat="46.48222" lon="6.10959">
        <ele>1527.67</ele>
        <time>2015-06-07T12:09:13Z</time>
      </trkpt>
      <trkpt lat="46.48222" lon="6.10957">
        <ele>1527.67</ele>
        <time>2015-06-07T12:09:14Z</time>
      </trkpt>
      <trkpt lat="46.48221" lon="6.10952">
        <ele>1527.19</ele>
        <time>2015-06-07T12:09:21Z</time>
      </trkpt>
      <trkpt lat="46.4822" lon="6.10952">
        <ele>1527.19</ele>
        <time>2015-06-07T12:09:32Z</time>
      </trkpt>
      <trkpt lat="46.48221" lon="6.10952">
        <ele>1526.71</ele>
        <time>2015-06-07T12:09:47Z</time>
      </trkpt>
      <trkpt lat="46.48221" lon="6.10951">
        <ele>1526.71</ele>
        <time>2015-06-07T12:09:58Z</time>
      </trkpt>
      <trkpt lat="46.48215" lon="6.1095">
        <ele>1526.23</ele>
        <time>2015-06-07T12:10:04Z</time>
      </trkpt>
      <trkpt lat="46.48216" lon="6.1095">
        <ele>1527.19</ele>
        <time>2015-06-07T12:10:06Z</time>
      </trkpt>
      <trkpt lat="46.48221" lon="6.10953">
        <ele>1526.71</ele>
        <time>2015-06-07T12:10:12Z</time>
      </trkpt>
      <trkpt lat="46.48223" lon="6.10952">
        <ele>1526.71</ele>
        <time>2015-06-07T12:10:19Z</time>
      </trkpt>
      <trkpt lat="46.48222" lon="6.1095">
        <ele>1526.71</ele>
        <time>2015-06-07T12:10:24Z</time>
      </trkpt>
      <trkpt lat="46.48218" lon="6.1095">
        <ele>1526.71</ele>
        <time>2015-06-07T12:10:31Z</time>
      </trkpt>
      <trkpt lat="46.48216" lon="6.10949">
        <ele>1526.23</ele>
        <time>2015-06-07T12:10:38Z</time>
      </trkpt>
      <trkpt lat="46.48211" lon="6.10947">
        <ele>1525.75</ele>
        <time>2015-06-07T12:10:45Z</time>
      </trkpt>
      <trkpt lat="46.4821" lon="6.10947">
        <ele>1525.75</ele>
        <time>2015-06-07T12:10:50Z</time>
      </trkpt>
      <trkpt lat="46.48212" lon="6.10942">
        <ele>1525.27</ele>
        <time>2015-06-07T12:10:57Z</time>
      </trkpt>
      <trkpt lat="46.48212" lon="6.10942">
        <ele>1525.75</ele>
        <time>2015-06-07T12:10:58Z</time>
      </trkpt>
      <trkpt lat="46.48209" lon="6.10942">
        <ele>1525.27</ele>
        <time>2015-06-07T12:11:01Z</time>
      </trkpt>
      <trkpt lat="46.48206" lon="6.10942">
        <ele>1524.79</ele>
        <time>2015-06-07T12:11:04Z</time>
      </trkpt>
      <trkpt lat="46.48203" lon="6.10941">
        <ele>1524.79</ele>
        <time>2015-06-07T12:11:07Z</time>
      </trkpt>
      <trkpt lat="46.48197" lon="6.10938">
        <ele>1523.35</ele>
        <time>2015-06-07T12:11:14Z</time>
      </trkpt>
      <trkpt lat="46.48194" lon="6.10929">
        <ele>1521.9</ele>
        <time>2015-06-07T12:11:21Z</time>
      </trkpt>
      <trkpt lat="46.48193" lon="6.10925">
        <ele>1521.42</ele>
        <time>2015-06-07T12:11:26Z</time>
      </trkpt>
      <trkpt lat="46.48194" lon="6.10922">
        <ele>1521.42</ele>
        <time>2015-06-07T12:11:33Z</time>
      </trkpt>
      <trkpt lat="46.4819" lon="6.10924">
        <ele>1520.94</ele>
        <time>2015-06-07T12:11:38Z</time>
      </trkpt>
      <trkpt lat="46.48186" lon="6.10928">
        <ele>1519.98</ele>
        <time>2015-06-07T12:11:43Z</time>
      </trkpt>
      <trkpt lat="46.48185" lon="6.10929">
        <ele>1519.98</ele>
        <time>2015-06-07T12:11:45Z</time>
      </trkpt>
      <trkpt lat="46.48182" lon="6.10929">
        <ele>1518.54</ele>
        <time>2015-06-07T12:11:52Z</time>
      </trkpt>
      <trkpt lat="46.4818" lon="6.10931">
        <ele>1518.06</ele>
        <time>2015-06-07T12:11:59Z</time>
      </trkpt>
      <trkpt lat="46.48177" lon="6.10931">
        <ele>1517.1</ele>
        <time>2015-06-07T12:12:06Z</time>
      </trkpt>
      <trkpt lat="46.48177" lon="6.1093">
        <ele>1517.1</ele>
        <time>2015-06-07T12:12:08Z</time>
      </trkpt>
      <trkpt lat="46.48171" lon="6.10924">
        <ele>1514.21</ele>
        <time>2015-06-07T12:12:17Z</time>
      </trkpt>
      <trkpt lat="46.48165" lon="6.10921">
        <ele>1512.77</ele>
        <time>2015-06-07T12:12:24Z</time>
      </trkpt>
      <trkpt lat="46.48162" lon="6.10919">
        <ele>1511.33</ele>
        <time>2015-06-07T12:12:28Z</time>
      </trkpt>
      <trkpt lat="46.4816" lon="6.10916">
        <ele>1510.85</ele>
        <time>2015-06-07T12:12:30Z</time>
      </trkpt>
      <trkpt lat="46.48152" lon="6.1091">
        <ele>1509.89</ele>
        <time>2015-06-07T12:12:37Z</time>
      </trkpt>
      <trkpt lat="46.48145" lon="6.10906">
        <ele>1507.48</ele>
        <time>2015-06-07T12:12:44Z</time>
      </trkpt>
      <trkpt lat="46.4814" lon="6.10904">
        <ele>1506.52</ele>
        <time>2015-06-07T12:12:51Z</time>
      </trkpt>
      <trkpt lat="46.4814" lon="6.10904">
        <ele>1506.52</ele>
        <time>2015-06-07T12:12:52Z</time>
      </trkpt>
      <trkpt lat="46.48135" lon="6.109">
        <ele>1505.56</ele>
        <time>2015-06-07T12:12:59Z</time>
      </trkpt>
      <trkpt lat="46.48131" lon="6.109">
        <ele>1504.12</ele>
        <time>2015-06-07T12:13:05Z</time>
      </trkpt>
      <trkpt lat="46.48127" lon="6.10897">
        <ele>1503.16</ele>
        <time>2015-06-07T12:13:11Z</time>
      </trkpt>
      <trkpt lat="46.48121" lon="6.10894">
        <ele>1501.72</ele>
        <time>2015-06-07T12:13:19Z</time>
      </trkpt>
      <trkpt lat="46.48116" lon="6.10891">
        <ele>1500.76</ele>
        <time>2015-06-07T12:13:25Z</time>
      </trkpt>
      <trkpt lat="46.48114" lon="6.1089">
        <ele>1500.76</ele>
        <time>2015-06-07T12:13:27Z</time>
      </trkpt>
      <trkpt lat="46.4811" lon="6.10886">
        <ele>1500.27</ele>
        <time>2015-06-07T12:13:30Z</time>
      </trkpt>
      <trkpt lat="46.481" lon="6.10878">
        <ele>1498.83</ele>
        <time>2015-06-07T12:13:39Z</time>
      </trkpt>
      <trkpt lat="46.48093" lon="6.1087">
        <ele>1497.39</ele>
        <time>2015-06-07T12:13:46Z</time>
      </trkpt>
      <trkpt lat="46.48092" lon="6.1087">
        <ele>1497.39</ele>
        <time>2015-06-07T12:13:47Z</time>
      </trkpt>
      <trkpt lat="46.48089" lon="6.10867">
        <ele>1496.91</ele>
        <time>2015-06-07T12:13:51Z</time>
      </trkpt>
      <trkpt lat="46.48084" lon="6.10858">
        <ele>1495.95</ele>
        <time>2015-06-07T12:13:58Z</time>
      </trkpt>
      <trkpt lat="46.48078" lon="6.10852">
        <ele>1495.47</ele>
        <time>2015-06-07T12:14:04Z</time>
      </trkpt>
      <trkpt lat="46.48073" lon="6.10845">
        <ele>1495.47</ele>
        <time>2015-06-07T12:14:10Z</time>
      </trkpt>
      <trkpt lat="46.48067" lon="6.1084">
        <ele>1495.47</ele>
        <time>2015-06-07T12:14:16Z</time>
      </trkpt>
      <trkpt lat="46.48064" lon="6.10837">
        <ele>1494.99</ele>
        <time>2015-06-07T12:14:19Z</time>
      </trkpt>
      <trkpt lat="46.48059" lon="6.10831">
        <ele>1494.03</ele>
        <time>2015-06-07T12:14:26Z</time>
      </trkpt>
      <trkpt lat="46.48055" lon="6.10824">
        <ele>1493.06</ele>
        <time>2015-06-07T12:14:32Z</time>
      </trkpt>
      <trkpt lat="46.48051" lon="6.10814">
        <ele>1492.1</ele>
        <time>2015-06-07T12:14:39Z</time>
      </trkpt>
      <trkpt lat="46.48048" lon="6.10808">
        <ele>1491.62</ele>
        <time>2015-06-07T12:14:44Z</time>
      </trkpt>
      <trkpt lat="46.48045" lon="6.10798">
        <ele>1490.18</ele>
        <time>2015-06-07T12:14:52Z</time>
      </trkpt>
      <trkpt lat="46.48045" lon="6.10797">
        <ele>1490.18</ele>
        <time>2015-06-07T12:14:53Z</time>
      </trkpt>
      <trkpt lat="46.48043" lon="6.10789">
        <ele>1489.22</ele>
        <time>2015-06-07T12:14:58Z</time>
      </trkpt>
      <trkpt lat="46.48042" lon="6.10781">
        <ele>1488.74</ele>
        <time>2015-06-07T12:15:06Z</time>
      </trkpt>
      <trkpt lat="46.48039" lon="6.10772">
        <ele>1486.82</ele>
        <time>2015-06-07T12:15:13Z</time>
      </trkpt>
      <trkpt lat="46.48035" lon="6.10763">
        <ele>1485.85</ele>
        <time>2015-06-07T12:15:19Z</time>
      </trkpt>
      <trkpt lat="46.48034" lon="6.1076">
        <ele>1485.37</ele>
        <time>2015-06-07T12:15:22Z</time>
      </trkpt>
      <trkpt lat="46.48031" lon="6.10751">
        <ele>1484.89</ele>
        <time>2015-06-07T12:15:28Z</time>
      </trkpt>
      <trkpt lat="46.48028" lon="6.10743">
        <ele>1484.41</ele>
        <time>2015-06-07T12:15:34Z</time>
      </trkpt>
      <trkpt lat="46.48025" lon="6.10735">
        <ele>1482.49</ele>
        <time>2015-06-07T12:15:41Z</time>
      </trkpt>
      <trkpt lat="46.48021" lon="6.10727">
        <ele>1481.53</ele>
        <time>2015-06-07T12:15:47Z</time>
      </trkpt>
      <trkpt lat="46.48021" lon="6.10724">
        <ele>1481.53</ele>
        <time>2015-06-07T12:15:49Z</time>
      </trkpt>
      <trkpt lat="46.48018" lon="6.10714">
        <ele>1481.05</ele>
        <time>2015-06-07T12:15:56Z</time>
      </trkpt>
      <trkpt lat="46.48016" lon="6.10709">
        <ele>1480.09</ele>
        <time>2015-06-07T12:16:00Z</time>
      </trkpt>
      <trkpt lat="46.48013" lon="6.107">
        <ele>1479.61</ele>
        <time>2015-06-07T12:16:06Z</time>
      </trkpt>
      <trkpt lat="46.48011" lon="6.10693">
        <ele>1479.13</ele>
        <time>2015-06-07T12:16:11Z</time>
      </trkpt>
      <trkpt lat="46.48006" lon="6.10686">
        <ele>1478.16</ele>
        <time>2015-06-07T12:16:16Z</time>
      </trkpt>
      <trkpt lat="46.48" lon="6.10678">
        <ele>1476.72</ele>
        <time>2015-06-07T12:16:24Z</time>
      </trkpt>
      <trkpt lat="46.47993" lon="6.1067">
        <ele>1475.28</ele>
        <time>2015-06-07T12:16:32Z</time>
      </trkpt>
      <trkpt lat="46.4799" lon="6.10665">
        <ele>1473.84</ele>
        <time>2015-06-07T12:16:37Z</time>
      </trkpt>
      <trkpt lat="46.47987" lon="6.10662">
        <ele>1473.36</ele>
        <time>2015-06-07T12:16:40Z</time>
      </trkpt>
      <trkpt lat="46.4798" lon="6.10654">
        <ele>1471.92</ele>
        <time>2015-06-07T12:16:49Z</time>
      </trkpt>
      <trkpt lat="46.47979" lon="6.10653">
        <ele>1471.92</ele>
        <time>2015-06-07T12:16:50Z</time>
      </trkpt>
      <trkpt lat="46.47975" lon="6.10648">
        <ele>1470.95</ele>
        <time>2015-06-07T12:16:55Z</time>
      </trkpt>
      <trkpt lat="46.4797" lon="6.10639">
        <ele>1469.51</ele>
        <time>2015-06-07T12:17:02Z</time>
      </trkpt>
      <trkpt lat="46.47965" lon="6.10628">
        <ele>1467.59</ele>
        <time>2015-06-07T12:17:10Z</time>
      </trkpt>
      <trkpt lat="46.47963" lon="6.10626">
        <ele>1467.11</ele>
        <time>2015-06-07T12:17:12Z</time>
      </trkpt>
      <trkpt lat="46.4796" lon="6.10621">
        <ele>1466.15</ele>
        <time>2015-06-07T12:17:16Z</time>
      </trkpt>
      <trkpt lat="46.47955" lon="6.10614">
        <ele>1465.19</ele>
        <time>2015-06-07T12:17:22Z</time>
      </trkpt>
      <trkpt lat="46.47954" lon="6.10613">
        <ele>1465.19</ele>
        <time>2015-06-07T12:17:24Z</time>
      </trkpt>
      <trkpt lat="46.47952" lon="6.10611">
        <ele>1464.71</ele>
        <time>2015-06-07T12:17:26Z</time>
      </trkpt>
      <trkpt lat="46.47948" lon="6.10607">
        <ele>1463.74</ele>
        <time>2015-06-07T12:17:32Z</time>
      </trkpt>
      <trkpt lat="46.47945" lon="6.10604">
        <ele>1462.78</ele>
        <time>2015-06-07T12:17:37Z</time>
      </trkpt>
      <trkpt lat="46.4794" lon="6.10601">
        <ele>1460.86</ele>
        <time>2015-06-07T12:17:44Z</time>
      </trkpt>
      <trkpt lat="46.47935" lon="6.10597">
        <ele>1459.42</ele>
        <time>2015-06-07T12:17:51Z</time>
      </trkpt>
      <trkpt lat="46.47932" lon="6.10596">
        <ele>1458.46</ele>
        <time>2015-06-07T12:17:55Z</time>
      </trkpt>
      <trkpt lat="46.47927" lon="6.10595">
        <ele>1457.02</ele>
        <time>2015-06-07T12:18:02Z</time>
      </trkpt>
      <trkpt lat="46.47922" lon="6.10591">
        <ele>1455.57</ele>
        <time>2015-06-07T12:18:08Z</time>
      </trkpt>
      <trkpt lat="46.47915" lon="6.10588">
        <ele>1453.65</ele>
        <time>2015-06-07T12:18:16Z</time>
      </trkpt>
      <trkpt lat="46.47908" lon="6.10585">
        <ele>1452.21</ele>
        <time>2015-06-07T12:18:24Z</time>
      </trkpt>
      <trkpt lat="46.47908" lon="6.10585">
        <ele>1451.73</ele>
        <time>2015-06-07T12:18:25Z</time>
      </trkpt>
      <trkpt lat="46.47903" lon="6.10583">
        <ele>1451.25</ele>
        <time>2015-06-07T12:18:28Z</time>
      </trkpt>
      <trkpt lat="46.47895" lon="6.1058">
        <ele>1449.81</ele>
        <time>2015-06-07T12:18:36Z</time>
      </trkpt>
      <trkpt lat="46.47893" lon="6.10579">
        <ele>1449.32</ele>
        <time>2015-06-07T12:18:38Z</time>
      </trkpt>
      <trkpt lat="46.47887" lon="6.10577">
        <ele>1447.88</ele>
        <time>2015-06-07T12:18:45Z</time>
      </trkpt>
      <trkpt lat="46.4788" lon="6.10573">
        <ele>1445.96</ele>
        <time>2015-06-07T12:18:53Z</time>
      </trkpt>
      <trkpt lat="46.47875" lon="6.10571">
        <ele>1444.52</ele>
        <time>2015-06-07T12:19:00Z</time>
      </trkpt>
      <trkpt lat="46.47869" lon="6.10567">
        <ele>1443.08</ele>
        <time>2015-06-07T12:19:07Z</time>
      </trkpt>
      <trkpt lat="46.47864" lon="6.10566">
        <ele>1442.11</ele>
        <time>2015-06-07T12:19:13Z</time>
      </trkpt>
      <trkpt lat="46.4786" lon="6.10564">
        <ele>1440.67</ele>
        <time>2015-06-07T12:19:21Z</time>
      </trkpt>
      <trkpt lat="46.47858" lon="6.10563">
        <ele>1440.19</ele>
        <time>2015-06-07T12:19:23Z</time>
      </trkpt>
      <trkpt lat="46.47855" lon="6.10562">
        <ele>1439.23</ele>
        <time>2015-06-07T12:19:27Z</time>
      </trkpt>
      <trkpt lat="46.47851" lon="6.10562">
        <ele>1437.79</ele>
        <time>2015-06-07T12:19:33Z</time>
      </trkpt>
      <trkpt lat="46.47847" lon="6.10559">
        <ele>1436.35</ele>
        <time>2015-06-07T12:19:40Z</time>
      </trkpt>
      <trkpt lat="46.47845" lon="6.10558">
        <ele>1434.91</ele>
        <time>2015-06-07T12:19:46Z</time>
      </trkpt>
      <trkpt lat="46.47841" lon="6.10556">
        <ele>1433.94</ele>
        <time>2015-06-07T12:19:50Z</time>
      </trkpt>
      <trkpt lat="46.47834" lon="6.10553">
        <ele>1432.02</ele>
        <time>2015-06-07T12:19:58Z</time>
      </trkpt>
      <trkpt lat="46.47831" lon="6.10551">
        <ele>1431.54</ele>
        <time>2015-06-07T12:20:02Z</time>
      </trkpt>
      <trkpt lat="46.47826" lon="6.10546">
        <ele>1429.62</ele>
        <time>2015-06-07T12:20:09Z</time>
      </trkpt>
      <trkpt lat="46.47825" lon="6.10546">
        <ele>1429.62</ele>
        <time>2015-06-07T12:20:10Z</time>
      </trkpt>
      <trkpt lat="46.47822" lon="6.10542">
        <ele>1429.14</ele>
        <time>2015-06-07T12:20:13Z</time>
      </trkpt>
      <trkpt lat="46.47817" lon="6.10539">
        <ele>1428.18</ele>
        <time>2015-06-07T12:20:17Z</time>
      </trkpt>
      <trkpt lat="46.47808" lon="6.10532">
        <ele>1426.73</ele>
        <time>2015-06-07T12:20:25Z</time>
      </trkpt>
      <trkpt lat="46.47802" lon="6.10528">
        <ele>1425.29</ele>
        <time>2015-06-07T12:20:31Z</time>
      </trkpt>
      <trkpt lat="46.47795" lon="6.10521">
        <ele>1423.37</ele>
        <time>2015-06-07T12:20:38Z</time>
      </trkpt>
      <trkpt lat="46.4779" lon="6.10517">
        <ele>1421.45</ele>
        <time>2015-06-07T12:20:45Z</time>
      </trkpt>
      <trkpt lat="46.47788" lon="6.10516">
        <ele>1421.45</ele>
        <time>2015-06-07T12:20:48Z</time>
      </trkpt>
      <trkpt lat="46.47782" lon="6.1051">
        <ele>1419.52</ele>
        <time>2015-06-07T12:20:55Z</time>
      </trkpt>
      <trkpt lat="46.47777" lon="6.10506">
        <ele>1418.56</ele>
        <time>2015-06-07T12:21:01Z</time>
      </trkpt>
      <trkpt lat="46.47776" lon="6.10505">
        <ele>1418.08</ele>
        <time>2015-06-07T12:21:03Z</time>
      </trkpt>
      <trkpt lat="46.47769" lon="6.10499">
        <ele>1417.6</ele>
        <time>2015-06-07T12:21:10Z</time>
      </trkpt>
      <trkpt lat="46.47764" lon="6.10492">
        <ele>1416.64</ele>
        <time>2015-06-07T12:21:16Z</time>
      </trkpt>
      <trkpt lat="46.47763" lon="6.1049">
        <ele>1416.64</ele>
        <time>2015-06-07T12:21:18Z</time>
      </trkpt>
      <trkpt lat="46.47761" lon="6.10488">
        <ele>1416.16</ele>
        <time>2015-06-07T12:21:20Z</time>
      </trkpt>
      <trkpt lat="46.47756" lon="6.10484">
        <ele>1415.68</ele>
        <time>2015-06-07T12:21:24Z</time>
      </trkpt>
      <trkpt lat="46.4775" lon="6.10472">
        <ele>1415.2</ele>
        <time>2015-06-07T12:21:31Z</time>
      </trkpt>
      <trkpt lat="46.47746" lon="6.10464">
        <ele>1414.72</ele>
        <time>2015-06-07T12:21:37Z</time>
      </trkpt>
      <trkpt lat="46.47742" lon="6.10454">
        <ele>1413.28</ele>
        <time>2015-06-07T12:21:43Z</time>
      </trkpt>
      <trkpt lat="46.47739" lon="6.10448">
        <ele>1411.83</ele>
        <time>2015-06-07T12:21:50Z</time>
      </trkpt>
      <trkpt lat="46.47733" lon="6.10442">
        <ele>1410.39</ele>
        <time>2015-06-07T12:21:58Z</time>
      </trkpt>
      <trkpt lat="46.47728" lon="6.10441">
        <ele>1408.95</ele>
        <time>2015-06-07T12:22:05Z</time>
      </trkpt>
      <trkpt lat="46.47723" lon="6.10441">
        <ele>1407.51</ele>
        <time>2015-06-07T12:22:12Z</time>
      </trkpt>
      <trkpt lat="46.47719" lon="6.1044">
        <ele>1406.55</ele>
        <time>2015-06-07T12:22:18Z</time>
      </trkpt>
      <trkpt lat="46.47714" lon="6.10439">
        <ele>1405.58</ele>
        <time>2015-06-07T12:22:25Z</time>
      </trkpt>
      <trkpt lat="46.47708" lon="6.10436">
        <ele>1404.14</ele>
        <time>2015-06-07T12:22:33Z</time>
      </trkpt>
      <trkpt lat="46.47703" lon="6.10429">
        <ele>1403.18</ele>
        <time>2015-06-07T12:22:39Z</time>
      </trkpt>
      <trkpt lat="46.47697" lon="6.1042">
        <ele>1402.22</ele>
        <time>2015-06-07T12:22:46Z</time>
      </trkpt>
      <trkpt lat="46.47694" lon="6.10408">
        <ele>1401.26</ele>
        <time>2015-06-07T12:22:53Z</time>
      </trkpt>
      <trkpt lat="46.47689" lon="6.10399">
        <ele>1399.34</ele>
        <time>2015-06-07T12:23:01Z</time>
      </trkpt>
      <trkpt lat="46.47685" lon="6.10396">
        <ele>1398.86</ele>
        <time>2015-06-07T12:23:04Z</time>
      </trkpt>
      <trkpt lat="46.47683" lon="6.10395">
        <ele>1398.37</ele>
        <time>2015-06-07T12:23:06Z</time>
      </trkpt>
      <trkpt lat="46.47678" lon="6.10393">
        <ele>1396.45</ele>
        <time>2015-06-07T12:23:12Z</time>
      </trkpt>
      <trkpt lat="46.47669" lon="6.10386">
        <ele>1395.49</ele>
        <time>2015-06-07T12:23:20Z</time>
      </trkpt>
      <trkpt lat="46.47664" lon="6.1038">
        <ele>1394.05</ele>
        <time>2015-06-07T12:23:27Z</time>
      </trkpt>
      <trkpt lat="46.47659" lon="6.10375">
        <ele>1392.61</ele>
        <time>2015-06-07T12:23:34Z</time>
      </trkpt>
      <trkpt lat="46.47655" lon="6.10371">
        <ele>1391.17</ele>
        <time>2015-06-07T12:23:40Z</time>
      </trkpt>
      <trkpt lat="46.47644" lon="6.10362">
        <ele>1389.24</ele>
        <time>2015-06-07T12:23:48Z</time>
      </trkpt>
      <trkpt lat="46.47638" lon="6.10357">
        <ele>1388.76</ele>
        <time>2015-06-07T12:23:53Z</time>
      </trkpt>
      <trkpt lat="46.47631" lon="6.1035">
        <ele>1387.8</ele>
        <time>2015-06-07T12:23:59Z</time>
      </trkpt>
      <trkpt lat="46.47624" lon="6.10349">
        <ele>1386.84</ele>
        <time>2015-06-07T12:24:06Z</time>
      </trkpt>
      <trkpt lat="46.47617" lon="6.10346">
        <ele>1385.88</ele>
        <time>2015-06-07T12:24:13Z</time>
      </trkpt>
      <trkpt lat="46.47608" lon="6.1034">
        <ele>1383.96</ele>
        <time>2015-06-07T12:24:22Z</time>
      </trkpt>
      <trkpt lat="46.47605" lon="6.10337">
        <ele>1382.99</ele>
        <time>2015-06-07T12:24:26Z</time>
      </trkpt>
      <trkpt lat="46.47596" lon="6.10332">
        <ele>1381.07</ele>
        <time>2015-06-07T12:24:35Z</time>
      </trkpt>
      <trkpt lat="46.47591" lon="6.10331">
        <ele>1380.11</ele>
        <time>2015-06-07T12:24:40Z</time>
      </trkpt>
      <trkpt lat="46.47585" lon="6.10328">
        <ele>1379.15</ele>
        <time>2015-06-07T12:24:45Z</time>
      </trkpt>
      <trkpt lat="46.47578" lon="6.10326">
        <ele>1378.67</ele>
        <time>2015-06-07T12:24:51Z</time>
      </trkpt>
      <trkpt lat="46.47575" lon="6.10325">
        <ele>1378.19</ele>
        <time>2015-06-07T12:24:54Z</time>
      </trkpt>
      <trkpt lat="46.47573" lon="6.10325">
        <ele>1378.19</ele>
        <time>2015-06-07T12:24:56Z</time>
      </trkpt>
      <trkpt lat="46.47566" lon="6.10322">
        <ele>1377.71</ele>
        <time>2015-06-07T12:25:02Z</time>
      </trkpt>
      <trkpt lat="46.47562" lon="6.1032">
        <ele>1377.71</ele>
        <time>2015-06-07T12:25:06Z</time>
      </trkpt>
      <trkpt lat="46.47556" lon="6.10319">
        <ele>1377.23</ele>
        <time>2015-06-07T12:25:11Z</time>
      </trkpt>
      <trkpt lat="46.47552" lon="6.10319">
        <ele>1376.26</ele>
        <time>2015-06-07T12:25:15Z</time>
      </trkpt>
      <trkpt lat="46.47544" lon="6.10318">
        <ele>1375.3</ele>
        <time>2015-06-07T12:25:23Z</time>
      </trkpt>
      <trkpt lat="46.47541" lon="6.10316">
        <ele>1373.38</ele>
        <time>2015-06-07T12:25:33Z</time>
      </trkpt>
      <trkpt lat="46.47539" lon="6.10311">
        <ele>1371.94</ele>
        <time>2015-06-07T12:25:40Z</time>
      </trkpt>
      <trkpt lat="46.47536" lon="6.10305">
        <ele>1370.02</ele>
        <time>2015-06-07T12:25:48Z</time>
      </trkpt>
      <trkpt lat="46.47534" lon="6.10301">
        <ele>1369.54</ele>
        <time>2015-06-07T12:25:52Z</time>
      </trkpt>
      <trkpt lat="46.47532" lon="6.10296">
        <ele>1368.09</ele>
        <time>2015-06-07T12:25:58Z</time>
      </trkpt>
      <trkpt lat="46.47528" lon="6.10289">
        <ele>1367.13</ele>
        <time>2015-06-07T12:26:04Z</time>
      </trkpt>
      <trkpt lat="46.47526" lon="6.10285">
        <ele>1366.65</ele>
        <time>2015-06-07T12:26:07Z</time>
      </trkpt>
      <trkpt lat="46.47521" lon="6.10276">
        <ele>1365.21</ele>
        <time>2015-06-07T12:26:15Z</time>
      </trkpt>
      <trkpt lat="46.47517" lon="6.10269">
        <ele>1364.25</ele>
        <time>2015-06-07T12:26:21Z</time>
      </trkpt>
      <trkpt lat="46.47515" lon="6.10259">
        <ele>1362.81</ele>
        <time>2015-06-07T12:26:29Z</time>
      </trkpt>
      <trkpt lat="46.4751" lon="6.10249">
        <ele>1361.36</ele>
        <time>2015-06-07T12:26:38Z</time>
      </trkpt>
      <trkpt lat="46.47505" lon="6.10243">
        <ele>1360.4</ele>
        <time>2015-06-07T12:26:46Z</time>
      </trkpt>
      <trkpt lat="46.47501" lon="6.10235">
        <ele>1358.96</ele>
        <time>2015-06-07T12:26:54Z</time>
      </trkpt>
      <trkpt lat="46.475" lon="6.10227">
        <ele>1357.52</ele>
        <time>2015-06-07T12:27:01Z</time>
      </trkpt>
      <trkpt lat="46.47496" lon="6.1022">
        <ele>1355.6</ele>
        <time>2015-06-07T12:27:09Z</time>
      </trkpt>
      <trkpt lat="46.47494" lon="6.10218">
        <ele>1354.63</ele>
        <time>2015-06-07T12:27:17Z</time>
      </trkpt>
      <trkpt lat="46.47491" lon="6.10218">
        <ele>1354.15</ele>
        <time>2015-06-07T12:27:34Z</time>
      </trkpt>
      <trkpt lat="46.4749" lon="6.10218">
        <ele>1354.15</ele>
        <time>2015-06-07T12:27:48Z</time>
      </trkpt>
      <trkpt lat="46.47488" lon="6.10215">
        <ele>1353.67</ele>
        <time>2015-06-07T12:28:02Z</time>
      </trkpt>
      <trkpt lat="46.47488" lon="6.10216">
        <ele>1353.67</ele>
        <time>2015-06-07T12:28:17Z</time>
      </trkpt>
      <trkpt lat="46.47488" lon="6.10218">
        <ele>1353.67</ele>
        <time>2015-06-07T12:28:33Z</time>
      </trkpt>
      <trkpt lat="46.47486" lon="6.10219">
        <ele>1353.67</ele>
        <time>2015-06-07T12:28:53Z</time>
      </trkpt>
      <trkpt lat="46.47487" lon="6.10219">
        <ele>1353.19</ele>
        <time>2015-06-07T12:29:11Z</time>
      </trkpt>
      <trkpt lat="46.47486" lon="6.1022">
        <ele>1353.19</ele>
        <time>2015-06-07T12:29:28Z</time>
      </trkpt>
      <trkpt lat="46.47486" lon="6.1022">
        <ele>1352.71</ele>
        <time>2015-06-07T12:29:36Z</time>
      </trkpt>
      <trkpt lat="46.47485" lon="6.1022">
        <ele>1352.71</ele>
        <time>2015-06-07T12:29:52Z</time>
      </trkpt>
      <trkpt lat="46.47485" lon="6.1022">
        <ele>1352.71</ele>
        <time>2015-06-07T12:30:12Z</time>
      </trkpt>
      <trkpt lat="46.47485" lon="6.10221">
        <ele>1352.71</ele>
        <time>2015-06-07T12:30:27Z</time>
      </trkpt>
      <trkpt lat="46.47485" lon="6.10221">
        <ele>1352.23</ele>
        <time>2015-06-07T12:30:43Z</time>
      </trkpt>
      <trkpt lat="46.47484" lon="6.10221">
        <ele>1352.23</ele>
        <time>2015-06-07T12:31:01Z</time>
      </trkpt>
      <trkpt lat="46.47484" lon="6.10219">
        <ele>1352.23</ele>
        <time>2015-06-07T12:31:12Z</time>
      </trkpt>
      <trkpt lat="46.47484" lon="6.10217">
        <ele>1351.75</ele>
        <time>2015-06-07T12:31:15Z</time>
      </trkpt>
      <trkpt lat="46.47482" lon="6.10214">
        <ele>1351.75</ele>
        <time>2015-06-07T12:31:17Z</time>
      </trkpt>
      <trkpt lat="46.47475" lon="6.10199">
        <ele>1350.79</ele>
        <time>2015-06-07T12:31:25Z</time>
      </trkpt>
      <trkpt lat="46.47473" lon="6.1019">
        <ele>1349.35</ele>
        <time>2015-06-07T12:31:33Z</time>
      </trkpt>
      <trkpt lat="46.47466" lon="6.10181">
        <ele>1347.91</ele>
        <time>2015-06-07T12:31:42Z</time>
      </trkpt>
      <trkpt lat="46.47465" lon="6.10177">
        <ele>1346.46</ele>
        <time>2015-06-07T12:31:48Z</time>
      </trkpt>
      <trkpt lat="46.47465" lon="6.10176">
        <ele>1346.46</ele>
        <time>2015-06-07T12:31:49Z</time>
      </trkpt>
      <trkpt lat="46.47459" lon="6.10165">
        <ele>1344.54</ele>
        <time>2015-06-07T12:31:57Z</time>
      </trkpt>
      <trkpt lat="46.47456" lon="6.10159">
        <ele>1343.58</ele>
        <time>2015-06-07T12:32:04Z</time>
      </trkpt>
      <trkpt lat="46.47452" lon="6.10145">
        <ele>1341.66</ele>
        <time>2015-06-07T12:32:14Z</time>
      </trkpt>
      <trkpt lat="46.47447" lon="6.10133">
        <ele>1340.7</ele>
        <time>2015-06-07T12:32:22Z</time>
      </trkpt>
      <trkpt lat="46.47445" lon="6.10129">
        <ele>1340.22</ele>
        <time>2015-06-07T12:32:25Z</time>
      </trkpt>
      <trkpt lat="46.47443" lon="6.10125">
        <ele>1340.22</ele>
        <time>2015-06-07T12:32:28Z</time>
      </trkpt>
      <trkpt lat="46.47442" lon="6.10121">
        <ele>1339.73</ele>
        <time>2015-06-07T12:32:32Z</time>
      </trkpt>
      <trkpt lat="46.47439" lon="6.10112">
        <ele>1338.77</ele>
        <time>2015-06-07T12:32:39Z</time>
      </trkpt>
      <trkpt lat="46.47438" lon="6.10109">
        <ele>1338.77</ele>
        <time>2015-06-07T12:32:41Z</time>
      </trkpt>
      <trkpt lat="46.47435" lon="6.10096">
        <ele>1337.33</ele>
        <time>2015-06-07T12:32:50Z</time>
      </trkpt>
      <trkpt lat="46.47434" lon="6.10093">
        <ele>1336.85</ele>
        <time>2015-06-07T12:32:52Z</time>
      </trkpt>
      <trkpt lat="46.47433" lon="6.10088">
        <ele>1336.37</ele>
        <time>2015-06-07T12:32:55Z</time>
      </trkpt>
      <trkpt lat="46.47431" lon="6.10079">
        <ele>1334.93</ele>
        <time>2015-06-07T12:33:02Z</time>
      </trkpt>
      <trkpt lat="46.4743" lon="6.10077">
        <ele>1334.45</ele>
        <time>2015-06-07T12:33:04Z</time>
      </trkpt>
      <trkpt lat="46.47424" lon="6.10069">
        <ele>1333.01</ele>
        <time>2015-06-07T12:33:12Z</time>
      </trkpt>
      <trkpt lat="46.47423" lon="6.10068">
        <ele>1333.01</ele>
        <time>2015-06-07T12:33:13Z</time>
      </trkpt>
      <trkpt lat="46.47418" lon="6.10062">
        <ele>1331.56</ele>
        <time>2015-06-07T12:33:21Z</time>
      </trkpt>
      <trkpt lat="46.47417" lon="6.1006">
        <ele>1331.08</ele>
        <time>2015-06-07T12:33:23Z</time>
      </trkpt>
      <trkpt lat="46.47412" lon="6.10048">
        <ele>1329.64</ele>
        <time>2015-06-07T12:33:33Z</time>
      </trkpt>
      <trkpt lat="46.47411" lon="6.10046">
        <ele>1329.64</ele>
        <time>2015-06-07T12:33:35Z</time>
      </trkpt>
      <trkpt lat="46.47407" lon="6.10033">
        <ele>1328.2</ele>
        <time>2015-06-07T12:33:43Z</time>
      </trkpt>
      <trkpt lat="46.47407" lon="6.10032">
        <ele>1328.2</ele>
        <time>2015-06-07T12:33:44Z</time>
      </trkpt>
      <trkpt lat="46.47405" lon="6.10022">
        <ele>1326.76</ele>
        <time>2015-06-07T12:33:52Z</time>
      </trkpt>
      <trkpt lat="46.47402" lon="6.10014">
        <ele>1325.31</ele>
        <time>2015-06-07T12:33:59Z</time>
      </trkpt>
      <trkpt lat="46.474" lon="6.10007">
        <ele>1324.35</ele>
        <time>2015-06-07T12:34:05Z</time>
      </trkpt>
      <trkpt lat="46.47399" lon="6.10002">
        <ele>1323.39</ele>
        <time>2015-06-07T12:34:09Z</time>
      </trkpt>
      <trkpt lat="46.47394" lon="6.09992">
        <ele>1322.43</ele>
        <time>2015-06-07T12:34:17Z</time>
      </trkpt>
      <trkpt lat="46.47391" lon="6.09981">
        <ele>1320.03</ele>
        <time>2015-06-07T12:34:26Z</time>
      </trkpt>
      <trkpt lat="46.47391" lon="6.09978">
        <ele>1320.03</ele>
        <time>2015-06-07T12:34:31Z</time>
      </trkpt>
      <trkpt lat="46.47388" lon="6.0997">
        <ele>1319.07</ele>
        <time>2015-06-07T12:34:36Z</time>
      </trkpt>
      <trkpt lat="46.47387" lon="6.09966">
        <ele>1319.07</ele>
        <time>2015-06-07T12:34:39Z</time>
      </trkpt>
      <trkpt lat="46.47386" lon="6.0996">
        <ele>1318.1</ele>
        <time>2015-06-07T12:34:44Z</time>
      </trkpt>
      <trkpt lat="46.47386" lon="6.09952">
        <ele>1316.66</ele>
        <time>2015-06-07T12:34:51Z</time>
      </trkpt>
      <trkpt lat="46.47387" lon="6.09949">
        <ele>1316.18</ele>
        <time>2015-06-07T12:34:57Z</time>
      </trkpt>
      <trkpt lat="46.47388" lon="6.09943">
        <ele>1315.7</ele>
        <time>2015-06-07T12:35:02Z</time>
      </trkpt>
      <trkpt lat="46.47387" lon="6.09939">
        <ele>1314.74</ele>
        <time>2015-06-07T12:35:08Z</time>
      </trkpt>
      <trkpt lat="46.47385" lon="6.09938">
        <ele>1313.78</ele>
        <time>2015-06-07T12:35:17Z</time>
      </trkpt>
      <trkpt lat="46.47384" lon="6.09936">
        <ele>1313.3</ele>
        <time>2015-06-07T12:35:30Z</time>
      </trkpt>
      <trkpt lat="46.4738" lon="6.09935">
        <ele>1312.82</ele>
        <time>2015-06-07T12:35:38Z</time>
      </trkpt>
      <trkpt lat="46.4738" lon="6.09935">
        <ele>1312.82</ele>
        <time>2015-06-07T12:35:39Z</time>
      </trkpt>
      <trkpt lat="46.47376" lon="6.09937">
        <ele>1311.38</ele>
        <time>2015-06-07T12:35:47Z</time>
      </trkpt>
      <trkpt lat="46.47373" lon="6.09937">
        <ele>1310.9</ele>
        <time>2015-06-07T12:35:55Z</time>
      </trkpt>
      <trkpt lat="46.47372" lon="6.09937">
        <ele>1310.41</ele>
        <time>2015-06-07T12:36:02Z</time>
      </trkpt>
      <trkpt lat="46.47366" lon="6.09943">
        <ele>1309.93</ele>
        <time>2015-06-07T12:36:08Z</time>
      </trkpt>
      <trkpt lat="46.47358" lon="6.09949">
        <ele>1309.45</ele>
        <time>2015-06-07T12:36:15Z</time>
      </trkpt>
      <trkpt lat="46.47352" lon="6.09951">
        <ele>1309.45</ele>
        <time>2015-06-07T12:36:21Z</time>
      </trkpt>
      <trkpt lat="46.47348" lon="6.09958">
        <ele>1310.41</ele>
        <time>2015-06-07T12:36:29Z</time>
      </trkpt>
      <trkpt lat="46.47344" lon="6.09963">
        <ele>1310.9</ele>
        <time>2015-06-07T12:36:36Z</time>
      </trkpt>
      <trkpt lat="46.47339" lon="6.09969">
        <ele>1311.86</ele>
        <time>2015-06-07T12:36:43Z</time>
      </trkpt>
      <trkpt lat="46.47335" lon="6.09973">
        <ele>1311.86</ele>
        <time>2015-06-07T12:36:51Z</time>
      </trkpt>
      <trkpt lat="46.47331" lon="6.09979">
        <ele>1311.86</ele>
        <time>2015-06-07T12:36:58Z</time>
      </trkpt>
      <trkpt lat="46.47329" lon="6.09983">
        <ele>1311.38</ele>
        <time>2015-06-07T12:37:00Z</time>
      </trkpt>
      <trkpt lat="46.47322" lon="6.09995">
        <ele>1310.41</ele>
        <time>2015-06-07T12:37:09Z</time>
      </trkpt>
      <trkpt lat="46.47319" lon="6.10001">
        <ele>1308.97</ele>
        <time>2015-06-07T12:37:17Z</time>
      </trkpt>
      <trkpt lat="46.47313" lon="6.10009">
        <ele>1306.09</ele>
        <time>2015-06-07T12:37:28Z</time>
      </trkpt>
      <trkpt lat="46.47306" lon="6.10012">
        <ele>1305.13</ele>
        <time>2015-06-07T12:37:36Z</time>
      </trkpt>
      <trkpt lat="46.473" lon="6.10014">
        <ele>1302.72</ele>
        <time>2015-06-07T12:37:42Z</time>
      </trkpt>
      <trkpt lat="46.47296" lon="6.10015">
        <ele>1301.28</ele>
        <time>2015-06-07T12:37:47Z</time>
      </trkpt>
      <trkpt lat="46.47295" lon="6.10016">
        <ele>1301.28</ele>
        <time>2015-06-07T12:37:48Z</time>
      </trkpt>
      <trkpt lat="46.47293" lon="6.10018">
        <ele>1300.32</ele>
        <time>2015-06-07T12:37:51Z</time>
      </trkpt>
      <trkpt lat="46.47284" lon="6.10018">
        <ele>1298.88</ele>
        <time>2015-06-07T12:37:58Z</time>
      </trkpt>
      <trkpt lat="46.4728" lon="6.1001">
        <ele>1297.92</ele>
        <time>2015-06-07T12:38:04Z</time>
      </trkpt>
      <trkpt lat="46.47278" lon="6.10006">
        <ele>1297.92</ele>
        <time>2015-06-07T12:38:07Z</time>
      </trkpt>
      <trkpt lat="46.47276" lon="6.10004">
        <ele>1297.92</ele>
        <time>2015-06-07T12:38:09Z</time>
      </trkpt>
      <trkpt lat="46.47273" lon="6.09995">
        <ele>1296.96</ele>
        <time>2015-06-07T12:38:17Z</time>
      </trkpt>
      <trkpt lat="46.47273" lon="6.09983">
        <ele>1295.99</ele>
        <time>2015-06-07T12:38:25Z</time>
      </trkpt>
      <trkpt lat="46.47272" lon="6.09972">
        <ele>1295.03</ele>
        <time>2015-06-07T12:38:35Z</time>
      </trkpt>
      <trkpt lat="46.47271" lon="6.09967">
        <ele>1294.55</ele>
        <time>2015-06-07T12:38:39Z</time>
      </trkpt>
      <trkpt lat="46.47265" lon="6.09958">
        <ele>1293.59</ele>
        <time>2015-06-07T12:38:48Z</time>
      </trkpt>
      <trkpt lat="46.47264" lon="6.09952">
        <ele>1293.11</ele>
        <time>2015-06-07T12:38:53Z</time>
      </trkpt>
      <trkpt lat="46.47259" lon="6.09946">
        <ele>1292.15</ele>
        <time>2015-06-07T12:39:01Z</time>
      </trkpt>
      <trkpt lat="46.47257" lon="6.09938">
        <ele>1291.67</ele>
        <time>2015-06-07T12:39:08Z</time>
      </trkpt>
      <trkpt lat="46.47257" lon="6.09933">
        <ele>1291.67</ele>
        <time>2015-06-07T12:39:11Z</time>
      </trkpt>
      <trkpt lat="46.47254" lon="6.09924">
        <ele>1290.71</ele>
        <time>2015-06-07T12:39:15Z</time>
      </trkpt>
      <trkpt lat="46.47251" lon="6.09915">
        <ele>1290.23</ele>
        <time>2015-06-07T12:39:20Z</time>
      </trkpt>
      <trkpt lat="46.47247" lon="6.09906">
        <ele>1288.78</ele>
        <time>2015-06-07T12:39:28Z</time>
      </trkpt>
      <trkpt lat="46.47242" lon="6.09899">
        <ele>1288.3</ele>
        <time>2015-06-07T12:39:35Z</time>
      </trkpt>
      <trkpt lat="46.47235" lon="6.09896">
        <ele>1286.38</ele>
        <time>2015-06-07T12:39:42Z</time>
      </trkpt>
      <trkpt lat="46.4723" lon="6.09889">
        <ele>1285.42</ele>
        <time>2015-06-07T12:39:48Z</time>
      </trkpt>
      <trkpt lat="46.47223" lon="6.09883">
        <ele>1285.42</ele>
        <time>2015-06-07T12:39:54Z</time>
      </trkpt>
      <trkpt lat="46.47216" lon="6.0988">
        <ele>1284.94</ele>
        <time>2015-06-07T12:40:00Z</time>
      </trkpt>
      <trkpt lat="46.47214" lon="6.09878">
        <ele>1284.94</ele>
        <time>2015-06-07T12:40:02Z</time>
      </trkpt>
      <trkpt lat="46.4721" lon="6.09872">
        <ele>1284.94</ele>
        <time>2015-06-07T12:40:06Z</time>
      </trkpt>
      <trkpt lat="46.47206" lon="6.09863">
        <ele>1285.42</ele>
        <time>2015-06-07T12:40:15Z</time>
      </trkpt>
      <trkpt lat="46.47203" lon="6.09854">
        <ele>1285.42</ele>
        <time>2015-06-07T12:40:23Z</time>
      </trkpt>
      <trkpt lat="46.47198" lon="6.09843">
        <ele>1285.42</ele>
        <time>2015-06-07T12:40:30Z</time>
      </trkpt>
      <trkpt lat="46.47196" lon="6.0984">
        <ele>1284.94</ele>
        <time>2015-06-07T12:40:34Z</time>
      </trkpt>
      <trkpt lat="46.47188" lon="6.09836">
        <ele>1284.94</ele>
        <time>2015-06-07T12:40:42Z</time>
      </trkpt>
      <trkpt lat="46.47184" lon="6.0984">
        <ele>1283.98</ele>
        <time>2015-06-07T12:40:46Z</time>
      </trkpt>
      <trkpt lat="46.4718" lon="6.09842">
        <ele>1283.98</ele>
        <time>2015-06-07T12:40:49Z</time>
      </trkpt>
      <trkpt lat="46.47174" lon="6.0985">
        <ele>1283.02</ele>
        <time>2015-06-07T12:40:57Z</time>
      </trkpt>
      <trkpt lat="46.4717" lon="6.0986">
        <ele>1282.54</ele>
        <time>2015-06-07T12:41:03Z</time>
      </trkpt>
      <trkpt lat="46.47168" lon="6.09867">
        <ele>1282.06</ele>
        <time>2015-06-07T12:41:08Z</time>
      </trkpt>
      <trkpt lat="46.47168" lon="6.09875">
        <ele>1281.57</ele>
        <time>2015-06-07T12:41:13Z</time>
      </trkpt>
      <trkpt lat="46.47169" lon="6.09884">
        <ele>1282.06</ele>
        <time>2015-06-07T12:41:19Z</time>
      </trkpt>
      <trkpt lat="46.47169" lon="6.09891">
        <ele>1281.57</ele>
        <time>2015-06-07T12:41:23Z</time>
      </trkpt>
      <trkpt lat="46.4717" lon="6.09894">
        <ele>1281.57</ele>
        <time>2015-06-07T12:41:31Z</time>
      </trkpt>
      <trkpt lat="46.4717" lon="6.09894">
        <ele>1281.57</ele>
        <time>2015-06-07T12:41:41Z</time>
      </trkpt>
      <trkpt lat="46.4717" lon="6.09894">
        <ele>1281.57</ele>
        <time>2015-06-07T12:41:55Z</time>
      </trkpt>
      <trkpt lat="46.4717" lon="6.09893">
        <ele>1281.57</ele>
        <time>2015-06-07T12:42:09Z</time>
      </trkpt>
      <trkpt lat="46.4717" lon="6.09895">
        <ele>1281.57</ele>
        <time>2015-06-07T12:42:16Z</time>
      </trkpt>
      <trkpt lat="46.47171" lon="6.09897">
        <ele>1281.57</ele>
        <time>2015-06-07T12:42:24Z</time>
      </trkpt>
      <trkpt lat="46.47171" lon="6.09897">
        <ele>1281.57</ele>
        <time>2015-06-07T12:42:30Z</time>
      </trkpt>
      <trkpt lat="46.4717" lon="6.09895">
        <ele>1281.57</ele>
        <time>2015-06-07T12:42:39Z</time>
      </trkpt>
      <trkpt lat="46.47171" lon="6.09894">
        <ele>1281.57</ele>
        <time>2015-06-07T12:42:47Z</time>
      </trkpt>
      <trkpt lat="46.4717" lon="6.09895">
        <ele>1280.61</ele>
        <time>2015-06-07T12:42:53Z</time>
      </trkpt>
      <trkpt lat="46.4717" lon="6.09895">
        <ele>1281.09</ele>
        <time>2015-06-07T12:43:06Z</time>
      </trkpt>
      <trkpt lat="46.47169" lon="6.09895">
        <ele>1281.09</ele>
        <time>2015-06-07T12:43:15Z</time>
      </trkpt>
      <trkpt lat="46.47168" lon="6.09894">
        <ele>1281.09</ele>
        <time>2015-06-07T12:43:24Z</time>
      </trkpt>
      <trkpt lat="46.47168" lon="6.09894">
        <ele>1281.09</ele>
        <time>2015-06-07T12:43:41Z</time>
      </trkpt>
      <trkpt lat="46.47168" lon="6.09894">
        <ele>1281.09</ele>
        <time>2015-06-07T12:43:59Z</time>
      </trkpt>
      <trkpt lat="46.47168" lon="6.09894">
        <ele>1280.61</ele>
        <time>2015-06-07T12:44:09Z</time>
      </trkpt>
      <trkpt lat="46.47168" lon="6.09894">
        <ele>1280.61</ele>
        <time>2015-06-07T12:44:26Z</time>
      </trkpt>
      <trkpt lat="46.47168" lon="6.09898">
        <ele>1281.09</ele>
        <time>2015-06-07T12:44:31Z</time>
      </trkpt>
      <trkpt lat="46.4717" lon="6.09905">
        <ele>1281.09</ele>
        <time>2015-06-07T12:44:37Z</time>
      </trkpt>
      <trkpt lat="46.4717" lon="6.09908">
        <ele>1281.57</ele>
        <time>2015-06-07T12:44:39Z</time>
      </trkpt>
      <trkpt lat="46.47171" lon="6.09912">
        <ele>1281.09</ele>
        <time>2015-06-07T12:44:41Z</time>
      </trkpt>
      <trkpt lat="46.47174" lon="6.09917">
        <ele>1281.09</ele>
        <time>2015-06-07T12:44:49Z</time>
      </trkpt>
      <trkpt lat="46.47174" lon="6.09918">
        <ele>1281.57</ele>
        <time>2015-06-07T12:44:51Z</time>
      </trkpt>
      <trkpt lat="46.47174" lon="6.09924">
        <ele>1281.57</ele>
        <time>2015-06-07T12:44:55Z</time>
      </trkpt>
      <trkpt lat="46.47176" lon="6.09932">
        <ele>1281.57</ele>
        <time>2015-06-07T12:45:00Z</time>
      </trkpt>
      <trkpt lat="46.4718" lon="6.09941">
        <ele>1282.06</ele>
        <time>2015-06-07T12:45:06Z</time>
      </trkpt>
      <trkpt lat="46.47181" lon="6.09942">
        <ele>1282.54</ele>
        <time>2015-06-07T12:45:07Z</time>
      </trkpt>
      <trkpt lat="46.47186" lon="6.09952">
        <ele>1282.54</ele>
        <time>2015-06-07T12:45:13Z</time>
      </trkpt>
      <trkpt lat="46.47189" lon="6.09959">
        <ele>1283.02</ele>
        <time>2015-06-07T12:45:17Z</time>
      </trkpt>
      <trkpt lat="46.47193" lon="6.09972">
        <ele>1283.5</ele>
        <time>2015-06-07T12:45:25Z</time>
      </trkpt>
      <trkpt lat="46.47194" lon="6.09977">
        <ele>1283.98</ele>
        <time>2015-06-07T12:45:27Z</time>
      </trkpt>
      <trkpt lat="46.47197" lon="6.09989">
        <ele>1283.98</ele>
        <time>2015-06-07T12:45:34Z</time>
      </trkpt>
      <trkpt lat="46.47201" lon="6.10003">
        <ele>1285.42</ele>
        <time>2015-06-07T12:45:41Z</time>
      </trkpt>
      <trkpt lat="46.47204" lon="6.10012">
        <ele>1285.9</ele>
        <time>2015-06-07T12:45:47Z</time>
      </trkpt>
      <trkpt lat="46.47205" lon="6.10013">
        <ele>1285.9</ele>
        <time>2015-06-07T12:45:48Z</time>
      </trkpt>
      <trkpt lat="46.47208" lon="6.10022">
        <ele>1286.86</ele>
        <time>2015-06-07T12:45:54Z</time>
      </trkpt>
      <trkpt lat="46.47211" lon="6.10034">
        <ele>1287.34</ele>
        <time>2015-06-07T12:46:01Z</time>
      </trkpt>
      <trkpt lat="46.47213" lon="6.10039">
        <ele>1287.82</ele>
        <time>2015-06-07T12:46:04Z</time>
      </trkpt>
      <trkpt lat="46.47216" lon="6.10048">
        <ele>1288.3</ele>
        <time>2015-06-07T12:46:11Z</time>
      </trkpt>
      <trkpt lat="46.47217" lon="6.10052">
        <ele>1288.3</ele>
        <time>2015-06-07T12:46:14Z</time>
      </trkpt>
      <trkpt lat="46.47217" lon="6.10056">
        <ele>1287.34</ele>
        <time>2015-06-07T12:46:17Z</time>
      </trkpt>
      <trkpt lat="46.47219" lon="6.1006">
        <ele>1289.27</ele>
        <time>2015-06-07T12:46:20Z</time>
      </trkpt>
      <trkpt lat="46.47222" lon="6.10072">
        <ele>1290.23</ele>
        <time>2015-06-07T12:46:30Z</time>
      </trkpt>
      <trkpt lat="46.47223" lon="6.10073">
        <ele>1290.71</ele>
        <time>2015-06-07T12:46:32Z</time>
      </trkpt>
      <trkpt lat="46.47224" lon="6.10079">
        <ele>1290.71</ele>
        <time>2015-06-07T12:46:36Z</time>
      </trkpt>
      <trkpt lat="46.47225" lon="6.10088">
        <ele>1291.19</ele>
        <time>2015-06-07T12:46:43Z</time>
      </trkpt>
      <trkpt lat="46.47228" lon="6.10096">
        <ele>1291.67</ele>
        <time>2015-06-07T12:46:49Z</time>
      </trkpt>
      <trkpt lat="46.4723" lon="6.10104">
        <ele>1292.15</ele>
        <time>2015-06-07T12:46:55Z</time>
      </trkpt>
      <trkpt lat="46.47234" lon="6.1011">
        <ele>1293.11</ele>
        <time>2015-06-07T12:47:00Z</time>
      </trkpt>
      <trkpt lat="46.47234" lon="6.10111">
        <ele>1293.11</ele>
        <time>2015-06-07T12:47:01Z</time>
      </trkpt>
      <trkpt lat="46.47236" lon="6.10115">
        <ele>1293.59</ele>
        <time>2015-06-07T12:47:04Z</time>
      </trkpt>
      <trkpt lat="46.47238" lon="6.1012">
        <ele>1294.07</ele>
        <time>2015-06-07T12:47:08Z</time>
      </trkpt>
      <trkpt lat="46.47241" lon="6.10124">
        <ele>1294.55</ele>
        <time>2015-06-07T12:47:12Z</time>
      </trkpt>
      <trkpt lat="46.47244" lon="6.10132">
        <ele>1295.03</ele>
        <time>2015-06-07T12:47:18Z</time>
      </trkpt>
      <trkpt lat="46.47245" lon="6.10137">
        <ele>1295.51</ele>
        <time>2015-06-07T12:47:22Z</time>
      </trkpt>
      <trkpt lat="46.47246" lon="6.10139">
        <ele>1296.48</ele>
        <time>2015-06-07T12:47:24Z</time>
      </trkpt>
      <trkpt lat="46.47249" lon="6.10144">
        <ele>1295.99</ele>
        <time>2015-06-07T12:47:28Z</time>
      </trkpt>
      <trkpt lat="46.4725" lon="6.10151">
        <ele>1295.99</ele>
        <time>2015-06-07T12:47:32Z</time>
      </trkpt>
      <trkpt lat="46.47252" lon="6.10161">
        <ele>1296.96</ele>
        <time>2015-06-07T12:47:40Z</time>
      </trkpt>
      <trkpt lat="46.47254" lon="6.10166">
        <ele>1297.44</ele>
        <time>2015-06-07T12:47:44Z</time>
      </trkpt>
      <trkpt lat="46.47256" lon="6.10176">
        <ele>1297.92</ele>
        <time>2015-06-07T12:47:51Z</time>
      </trkpt>
      <trkpt lat="46.47257" lon="6.10181">
        <ele>1297.92</ele>
        <time>2015-06-07T12:47:54Z</time>
      </trkpt>
      <trkpt lat="46.47257" lon="6.10193">
        <ele>1298.88</ele>
        <time>2015-06-07T12:48:01Z</time>
      </trkpt>
      <trkpt lat="46.47256" lon="6.10205">
        <ele>1298.88</ele>
        <time>2015-06-07T12:48:07Z</time>
      </trkpt>
      <trkpt lat="46.47257" lon="6.10214">
        <ele>1299.84</ele>
        <time>2015-06-07T12:48:13Z</time>
      </trkpt>
      <trkpt lat="46.47257" lon="6.10217">
        <ele>1300.32</ele>
        <time>2015-06-07T12:48:15Z</time>
      </trkpt>
      <trkpt lat="46.47258" lon="6.10224">
        <ele>1300.8</ele>
        <time>2015-06-07T12:48:20Z</time>
      </trkpt>
      <trkpt lat="46.47261" lon="6.10233">
        <ele>1301.76</ele>
        <time>2015-06-07T12:48:27Z</time>
      </trkpt>
      <trkpt lat="46.47261" lon="6.10234">
        <ele>1301.76</ele>
        <time>2015-06-07T12:48:28Z</time>
      </trkpt>
      <trkpt lat="46.47262" lon="6.10243">
        <ele>1302.72</ele>
        <time>2015-06-07T12:48:34Z</time>
      </trkpt>
      <trkpt lat="46.47262" lon="6.10244">
        <ele>1302.72</ele>
        <time>2015-06-07T12:48:35Z</time>
      </trkpt>
      <trkpt lat="46.47263" lon="6.10255">
        <ele>1303.69</ele>
        <time>2015-06-07T12:48:42Z</time>
      </trkpt>
      <trkpt lat="46.47265" lon="6.10264">
        <ele>1304.17</ele>
        <time>2015-06-07T12:48:48Z</time>
      </trkpt>
      <trkpt lat="46.47267" lon="6.10273">
        <ele>1304.65</ele>
        <time>2015-06-07T12:48:55Z</time>
      </trkpt>
      <trkpt lat="46.47268" lon="6.10276">
        <ele>1304.65</ele>
        <time>2015-06-07T12:48:57Z</time>
      </trkpt>
      <trkpt lat="46.47269" lon="6.10282">
        <ele>1305.13</ele>
        <time>2015-06-07T12:49:00Z</time>
      </trkpt>
      <trkpt lat="46.4727" lon="6.10294">
        <ele>1306.09</ele>
        <time>2015-06-07T12:49:09Z</time>
      </trkpt>
      <trkpt lat="46.47271" lon="6.10304">
        <ele>1307.05</ele>
        <time>2015-06-07T12:49:16Z</time>
      </trkpt>
      <trkpt lat="46.47273" lon="6.10315">
        <ele>1308.01</ele>
        <time>2015-06-07T12:49:23Z</time>
      </trkpt>
      <trkpt lat="46.47273" lon="6.10319">
        <ele>1308.01</ele>
        <time>2015-06-07T12:49:25Z</time>
      </trkpt>
      <trkpt lat="46.47274" lon="6.10327">
        <ele>1308.01</ele>
        <time>2015-06-07T12:49:30Z</time>
      </trkpt>
      <trkpt lat="46.47276" lon="6.10333">
        <ele>1308.97</ele>
        <time>2015-06-07T12:49:34Z</time>
      </trkpt>
      <trkpt lat="46.47278" lon="6.10346">
        <ele>1309.93</ele>
        <time>2015-06-07T12:49:42Z</time>
      </trkpt>
      <trkpt lat="46.47278" lon="6.1035">
        <ele>1309.93</ele>
        <time>2015-06-07T12:49:44Z</time>
      </trkpt>
      <trkpt lat="46.47281" lon="6.10361">
        <ele>1310.9</ele>
        <time>2015-06-07T12:49:51Z</time>
      </trkpt>
      <trkpt lat="46.47282" lon="6.10365">
        <ele>1311.38</ele>
        <time>2015-06-07T12:49:54Z</time>
      </trkpt>
      <trkpt lat="46.47286" lon="6.10376">
        <ele>1312.82</ele>
        <time>2015-06-07T12:50:01Z</time>
      </trkpt>
      <trkpt lat="46.4729" lon="6.10385">
        <ele>1313.3</ele>
        <time>2015-06-07T12:50:07Z</time>
      </trkpt>
      <trkpt lat="46.47295" lon="6.10391">
        <ele>1313.78</ele>
        <time>2015-06-07T12:50:12Z</time>
      </trkpt>
      <trkpt lat="46.47298" lon="6.10394">
        <ele>1313.78</ele>
        <time>2015-06-07T12:50:15Z</time>
      </trkpt>
      <trkpt lat="46.473" lon="6.10399">
        <ele>1314.74</ele>
        <time>2015-06-07T12:50:18Z</time>
      </trkpt>
      <trkpt lat="46.47302" lon="6.10404">
        <ele>1314.74</ele>
        <time>2015-06-07T12:50:21Z</time>
      </trkpt>
      <trkpt lat="46.47308" lon="6.10416">
        <ele>1315.7</ele>
        <time>2015-06-07T12:50:29Z</time>
      </trkpt>
      <trkpt lat="46.47312" lon="6.10425">
        <ele>1315.7</ele>
        <time>2015-06-07T12:50:35Z</time>
      </trkpt>
      <trkpt lat="46.47314" lon="6.10429">
        <ele>1316.18</ele>
        <time>2015-06-07T12:50:38Z</time>
      </trkpt>
      <trkpt lat="46.47315" lon="6.10433">
        <ele>1316.18</ele>
        <time>2015-06-07T12:50:40Z</time>
      </trkpt>
      <trkpt lat="46.47318" lon="6.10441">
        <ele>1316.18</ele>
        <time>2015-06-07T12:50:45Z</time>
      </trkpt>
      <trkpt lat="46.47322" lon="6.1045">
        <ele>1316.66</ele>
        <time>2015-06-07T12:50:52Z</time>
      </trkpt>
      <trkpt lat="46.47325" lon="6.10459">
        <ele>1317.62</ele>
        <time>2015-06-07T12:51:00Z</time>
      </trkpt>
      <trkpt lat="46.47325" lon="6.1046">
        <ele>1317.62</ele>
        <time>2015-06-07T12:51:01Z</time>
      </trkpt>
      <trkpt lat="46.47326" lon="6.10462">
        <ele>1318.1</ele>
        <time>2015-06-07T12:51:03Z</time>
      </trkpt>
      <trkpt lat="46.47328" lon="6.10474">
        <ele>1319.07</ele>
        <time>2015-06-07T12:51:11Z</time>
      </trkpt>
      <trkpt lat="46.4733" lon="6.1048">
        <ele>1319.07</ele>
        <time>2015-06-07T12:51:16Z</time>
      </trkpt>
      <trkpt lat="46.47331" lon="6.10488">
        <ele>1319.55</ele>
        <time>2015-06-07T12:51:22Z</time>
      </trkpt>
      <trkpt lat="46.47333" lon="6.10496">
        <ele>1320.51</ele>
        <time>2015-06-07T12:51:27Z</time>
      </trkpt>
      <trkpt lat="46.47336" lon="6.10505">
        <ele>1320.51</ele>
        <time>2015-06-07T12:51:33Z</time>
      </trkpt>
      <trkpt lat="46.47341" lon="6.10518">
        <ele>1320.99</ele>
        <time>2015-06-07T12:51:41Z</time>
      </trkpt>
      <trkpt lat="46.47342" lon="6.10522">
        <ele>1321.47</ele>
        <time>2015-06-07T12:51:44Z</time>
      </trkpt>
      <trkpt lat="46.47343" lon="6.10527">
        <ele>1321.47</ele>
        <time>2015-06-07T12:51:47Z</time>
      </trkpt>
      <trkpt lat="46.47345" lon="6.10535">
        <ele>1322.43</ele>
        <time>2015-06-07T12:51:52Z</time>
      </trkpt>
      <trkpt lat="46.47345" lon="6.1054">
        <ele>1322.43</ele>
        <time>2015-06-07T12:51:55Z</time>
      </trkpt>
      <trkpt lat="46.47345" lon="6.10549">
        <ele>1322.91</ele>
        <time>2015-06-07T12:52:01Z</time>
      </trkpt>
      <trkpt lat="46.47345" lon="6.10553">
        <ele>1323.39</ele>
        <time>2015-06-07T12:52:04Z</time>
      </trkpt>
      <trkpt lat="46.47344" lon="6.10556">
        <ele>1323.39</ele>
        <time>2015-06-07T12:52:06Z</time>
      </trkpt>
      <trkpt lat="46.47344" lon="6.10562">
        <ele>1323.87</ele>
        <time>2015-06-07T12:52:10Z</time>
      </trkpt>
      <trkpt lat="46.47344" lon="6.10571">
        <ele>1324.83</ele>
        <time>2015-06-07T12:52:18Z</time>
      </trkpt>
      <trkpt lat="46.47343" lon="6.10572">
        <ele>1325.31</ele>
        <time>2015-06-07T12:52:27Z</time>
      </trkpt>
      <trkpt lat="46.47343" lon="6.10573">
        <ele>1325.31</ele>
        <time>2015-06-07T12:52:37Z</time>
      </trkpt>
      <trkpt lat="46.47344" lon="6.10574">
        <ele>1325.31</ele>
        <time>2015-06-07T12:52:44Z</time>
      </trkpt>
      <trkpt lat="46.47344" lon="6.10581">
        <ele>1325.8</ele>
        <time>2015-06-07T12:52:48Z</time>
      </trkpt>
      <trkpt lat="46.47344" lon="6.10588">
        <ele>1326.76</ele>
        <time>2015-06-07T12:52:53Z</time>
      </trkpt>
      <trkpt lat="46.47343" lon="6.10596">
        <ele>1326.76</ele>
        <time>2015-06-07T12:52:59Z</time>
      </trkpt>
      <trkpt lat="46.47343" lon="6.10602">
        <ele>1327.24</ele>
        <time>2015-06-07T12:53:03Z</time>
      </trkpt>
      <trkpt lat="46.47341" lon="6.10615">
        <ele>1328.2</ele>
        <time>2015-06-07T12:53:10Z</time>
      </trkpt>
      <trkpt lat="46.4734" lon="6.10624">
        <ele>1328.68</ele>
        <time>2015-06-07T12:53:15Z</time>
      </trkpt>
      <trkpt lat="46.47341" lon="6.10627">
        <ele>1329.16</ele>
        <time>2015-06-07T12:53:17Z</time>
      </trkpt>
      <trkpt lat="46.4734" lon="6.10634">
        <ele>1329.64</ele>
        <time>2015-06-07T12:53:24Z</time>
      </trkpt>
      <trkpt lat="46.4734" lon="6.10636">
        <ele>1329.64</ele>
        <time>2015-06-07T12:53:31Z</time>
      </trkpt>
      <trkpt lat="46.47341" lon="6.10641">
        <ele>1329.64</ele>
        <time>2015-06-07T12:53:35Z</time>
      </trkpt>
      <trkpt lat="46.47341" lon="6.10648">
        <ele>1329.64</ele>
        <time>2015-06-07T12:53:39Z</time>
      </trkpt>
      <trkpt lat="46.47339" lon="6.10659">
        <ele>1328.2</ele>
        <time>2015-06-07T12:53:46Z</time>
      </trkpt>
      <trkpt lat="46.47332" lon="6.10669">
        <ele>1326.76</ele>
        <time>2015-06-07T12:53:53Z</time>
      </trkpt>
      <trkpt lat="46.47328" lon="6.10673">
        <ele>1326.28</ele>
        <time>2015-06-07T12:53:58Z</time>
      </trkpt>
      <trkpt lat="46.47323" lon="6.10682">
        <ele>1325.8</ele>
        <time>2015-06-07T12:54:05Z</time>
      </trkpt>
      <trkpt lat="46.47319" lon="6.10691">
        <ele>1325.31</ele>
        <time>2015-06-07T12:54:13Z</time>
      </trkpt>
      <trkpt lat="46.47316" lon="6.10692">
        <ele>1324.83</ele>
        <time>2015-06-07T12:54:19Z</time>
      </trkpt>
      <trkpt lat="46.47314" lon="6.10693">
        <ele>1324.83</ele>
        <time>2015-06-07T12:54:28Z</time>
      </trkpt>
      <trkpt lat="46.47314" lon="6.10694">
        <ele>1324.83</ele>
        <time>2015-06-07T12:54:37Z</time>
      </trkpt>
      <trkpt lat="46.47313" lon="6.10694">
        <ele>1324.83</ele>
        <time>2015-06-07T12:54:47Z</time>
      </trkpt>
      <trkpt lat="46.4731" lon="6.10695">
        <ele>1324.35</ele>
        <time>2015-06-07T12:54:59Z</time>
      </trkpt>
      <trkpt lat="46.47307" lon="6.107">
        <ele>1324.35</ele>
        <time>2015-06-07T12:55:06Z</time>
      </trkpt>
      <trkpt lat="46.47305" lon="6.10701">
        <ele>1323.87</ele>
        <time>2015-06-07T12:55:13Z</time>
      </trkpt>
      <trkpt lat="46.47304" lon="6.10702">
        <ele>1323.87</ele>
        <time>2015-06-07T12:55:14Z</time>
      </trkpt>
      <trkpt lat="46.47302" lon="6.10704">
        <ele>1323.87</ele>
        <time>2015-06-07T12:55:21Z</time>
      </trkpt>
      <trkpt lat="46.47301" lon="6.10706">
        <ele>1323.87</ele>
        <time>2015-06-07T12:55:23Z</time>
      </trkpt>
      <trkpt lat="46.47297" lon="6.10706">
        <ele>1323.39</ele>
        <time>2015-06-07T12:55:27Z</time>
      </trkpt>
      <trkpt lat="46.47294" lon="6.10706">
        <ele>1323.39</ele>
        <time>2015-06-07T12:55:30Z</time>
      </trkpt>
      <trkpt lat="46.47288" lon="6.10704">
        <ele>1322.43</ele>
        <time>2015-06-07T12:55:37Z</time>
      </trkpt>
      <trkpt lat="46.47285" lon="6.10702">
        <ele>1322.43</ele>
        <time>2015-06-07T12:55:43Z</time>
      </trkpt>
      <trkpt lat="46.47284" lon="6.107">
        <ele>1321.95</ele>
        <time>2015-06-07T12:55:45Z</time>
      </trkpt>
      <trkpt lat="46.47281" lon="6.10699">
        <ele>1321.95</ele>
        <time>2015-06-07T12:55:48Z</time>
      </trkpt>
      <trkpt lat="46.47275" lon="6.10692">
        <ele>1320.99</ele>
        <time>2015-06-07T12:55:54Z</time>
      </trkpt>
      <trkpt lat="46.47269" lon="6.10681">
        <ele>1320.51</ele>
        <time>2015-06-07T12:56:01Z</time>
      </trkpt>
      <trkpt lat="46.47264" lon="6.10675">
        <ele>1320.03</ele>
        <time>2015-06-07T12:56:06Z</time>
      </trkpt>
      <trkpt lat="46.47261" lon="6.1067">
        <ele>1320.03</ele>
        <time>2015-06-07T12:56:13Z</time>
      </trkpt>
      <trkpt lat="46.47261" lon="6.10669">
        <ele>1320.03</ele>
        <time>2015-06-07T12:56:14Z</time>
      </trkpt>
      <trkpt lat="46.47257" lon="6.10664">
        <ele>1319.55</ele>
        <time>2015-06-07T12:56:20Z</time>
      </trkpt>
      <trkpt lat="46.47258" lon="6.10662">
        <ele>1319.55</ele>
        <time>2015-06-07T12:56:28Z</time>
      </trkpt>
      <trkpt lat="46.47257" lon="6.10661">
        <ele>1319.55</ele>
        <time>2015-06-07T12:56:38Z</time>
      </trkpt>
      <trkpt lat="46.47257" lon="6.1066">
        <ele>1319.55</ele>
        <time>2015-06-07T12:56:47Z</time>
      </trkpt>
      <trkpt lat="46.47253" lon="6.10659">
        <ele>1319.55</ele>
        <time>2015-06-07T12:56:54Z</time>
      </trkpt>
      <trkpt lat="46.47249" lon="6.10654">
        <ele>1319.07</ele>
        <time>2015-06-07T12:57:03Z</time>
      </trkpt>
      <trkpt lat="46.47245" lon="6.1065">
        <ele>1319.07</ele>
        <time>2015-06-07T12:57:11Z</time>
      </trkpt>
      <trkpt lat="46.47244" lon="6.10649">
        <ele>1319.07</ele>
        <time>2015-06-07T12:57:12Z</time>
      </trkpt>
      <trkpt lat="46.47239" lon="6.10646">
        <ele>1319.07</ele>
        <time>2015-06-07T12:57:18Z</time>
      </trkpt>
      <trkpt lat="46.47237" lon="6.10644">
        <ele>1319.07</ele>
        <time>2015-06-07T12:57:21Z</time>
      </trkpt>
      <trkpt lat="46.47231" lon="6.1064">
        <ele>1318.59</ele>
        <time>2015-06-07T12:57:29Z</time>
      </trkpt>
      <trkpt lat="46.47228" lon="6.10637">
        <ele>1318.1</ele>
        <time>2015-06-07T12:57:34Z</time>
      </trkpt>
      <trkpt lat="46.47221" lon="6.10631">
        <ele>1317.62</ele>
        <time>2015-06-07T12:57:42Z</time>
      </trkpt>
      <trkpt lat="46.47216" lon="6.10627">
        <ele>1317.14</ele>
        <time>2015-06-07T12:57:48Z</time>
      </trkpt>
      <trkpt lat="46.47215" lon="6.10627">
        <ele>1317.14</ele>
        <time>2015-06-07T12:57:49Z</time>
      </trkpt>
      <trkpt lat="46.47213" lon="6.10625">
        <ele>1317.14</ele>
        <time>2015-06-07T12:57:51Z</time>
      </trkpt>
      <trkpt lat="46.47206" lon="6.10619">
        <ele>1316.18</ele>
        <time>2015-06-07T12:57:59Z</time>
      </trkpt>
      <trkpt lat="46.47197" lon="6.10611">
        <ele>1315.7</ele>
        <time>2015-06-07T12:58:08Z</time>
      </trkpt>
      <trkpt lat="46.47196" lon="6.1061">
        <ele>1315.7</ele>
        <time>2015-06-07T12:58:09Z</time>
      </trkpt>
      <trkpt lat="46.47188" lon="6.10604">
        <ele>1315.22</ele>
        <time>2015-06-07T12:58:17Z</time>
      </trkpt>
      <trkpt lat="46.47182" lon="6.10602">
        <ele>1315.22</ele>
        <time>2015-06-07T12:58:24Z</time>
      </trkpt>
      <trkpt lat="46.47179" lon="6.106">
        <ele>1314.74</ele>
        <time>2015-06-07T12:58:28Z</time>
      </trkpt>
      <trkpt lat="46.47177" lon="6.10599">
        <ele>1315.22</ele>
        <time>2015-06-07T12:58:31Z</time>
      </trkpt>
      <trkpt lat="46.47168" lon="6.10595">
        <ele>1314.74</ele>
        <time>2015-06-07T12:58:39Z</time>
      </trkpt>
      <trkpt lat="46.47165" lon="6.10594">
        <ele>1314.74</ele>
        <time>2015-06-07T12:58:42Z</time>
      </trkpt>
      <trkpt lat="46.47156" lon="6.10593">
        <ele>1314.26</ele>
        <time>2015-06-07T12:58:49Z</time>
      </trkpt>
      <trkpt lat="46.4715" lon="6.10596">
        <ele>1313.78</ele>
        <time>2015-06-07T12:58:57Z</time>
      </trkpt>
      <trkpt lat="46.47144" lon="6.10602">
        <ele>1313.78</ele>
        <time>2015-06-07T12:59:05Z</time>
      </trkpt>
      <trkpt lat="46.47143" lon="6.10602">
        <ele>1313.78</ele>
        <time>2015-06-07T12:59:06Z</time>
      </trkpt>
      <trkpt lat="46.47138" lon="6.10608">
        <ele>1313.78</ele>
        <time>2015-06-07T12:59:10Z</time>
      </trkpt>
      <trkpt lat="46.47134" lon="6.10614">
        <ele>1313.3</ele>
        <time>2015-06-07T12:59:15Z</time>
      </trkpt>
      <trkpt lat="46.4713" lon="6.10619">
        <ele>1313.3</ele>
        <time>2015-06-07T12:59:19Z</time>
      </trkpt>
      <trkpt lat="46.47125" lon="6.10624">
        <ele>1313.78</ele>
        <time>2015-06-07T12:59:26Z</time>
      </trkpt>
      <trkpt lat="46.4712" lon="6.10631">
        <ele>1314.26</ele>
        <time>2015-06-07T12:59:32Z</time>
      </trkpt>
      <trkpt lat="46.47116" lon="6.10635">
        <ele>1315.22</ele>
        <time>2015-06-07T12:59:38Z</time>
      </trkpt>
      <trkpt lat="46.47109" lon="6.10643">
        <ele>1314.26</ele>
        <time>2015-06-07T12:59:45Z</time>
      </trkpt>
      <trkpt lat="46.47104" lon="6.1065">
        <ele>1314.74</ele>
        <time>2015-06-07T12:59:51Z</time>
      </trkpt>
      <trkpt lat="46.47098" lon="6.10657">
        <ele>1314.74</ele>
        <time>2015-06-07T12:59:58Z</time>
      </trkpt>
      <trkpt lat="46.47097" lon="6.10659">
        <ele>1314.74</ele>
        <time>2015-06-07T13:00:00Z</time>
      </trkpt>
      <trkpt lat="46.47092" lon="6.10667">
        <ele>1314.74</ele>
        <time>2015-06-07T13:00:07Z</time>
      </trkpt>
      <trkpt lat="46.4709" lon="6.10669">
        <ele>1314.26</ele>
        <time>2015-06-07T13:00:10Z</time>
      </trkpt>
      <trkpt lat="46.47088" lon="6.10671">
        <ele>1314.26</ele>
        <time>2015-06-07T13:00:12Z</time>
      </trkpt>
      <trkpt lat="46.47081" lon="6.10683">
        <ele>1313.3</ele>
        <time>2015-06-07T13:00:20Z</time>
      </trkpt>
      <trkpt lat="46.4708" lon="6.10685">
        <ele>1312.82</ele>
        <time>2015-06-07T13:00:22Z</time>
      </trkpt>
      <trkpt lat="46.47078" lon="6.1069">
        <ele>1311.86</ele>
        <time>2015-06-07T13:00:25Z</time>
      </trkpt>
      <trkpt lat="46.47075" lon="6.10696">
        <ele>1311.86</ele>
        <time>2015-06-07T13:00:29Z</time>
      </trkpt>
      <trkpt lat="46.47071" lon="6.10704">
        <ele>1311.38</ele>
        <time>2015-06-07T13:00:36Z</time>
      </trkpt>
      <trkpt lat="46.47067" lon="6.10709">
        <ele>1310.9</ele>
        <time>2015-06-07T13:00:41Z</time>
      </trkpt>
      <trkpt lat="46.47062" lon="6.10715">
        <ele>1310.41</ele>
        <time>2015-06-07T13:00:48Z</time>
      </trkpt>
      <trkpt lat="46.47051" lon="6.10721">
        <ele>1308.97</ele>
        <time>2015-06-07T13:00:57Z</time>
      </trkpt>
      <trkpt lat="46.47045" lon="6.10724">
        <ele>1308.49</ele>
        <time>2015-06-07T13:01:03Z</time>
      </trkpt>
      <trkpt lat="46.4704" lon="6.10726">
        <ele>1308.01</ele>
        <time>2015-06-07T13:01:09Z</time>
      </trkpt>
      <trkpt lat="46.47039" lon="6.10726">
        <ele>1308.01</ele>
        <time>2015-06-07T13:01:10Z</time>
      </trkpt>
      <trkpt lat="46.47036" lon="6.10727">
        <ele>1307.53</ele>
        <time>2015-06-07T13:01:14Z</time>
      </trkpt>
      <trkpt lat="46.47027" lon="6.10724">
        <ele>1306.57</ele>
        <time>2015-06-07T13:01:22Z</time>
      </trkpt>
      <trkpt lat="46.47018" lon="6.10721">
        <ele>1306.57</ele>
        <time>2015-06-07T13:01:31Z</time>
      </trkpt>
      <trkpt lat="46.47011" lon="6.10716">
        <ele>1305.61</ele>
        <time>2015-06-07T13:01:39Z</time>
      </trkpt>
      <trkpt lat="46.47003" lon="6.10712">
        <ele>1305.13</ele>
        <time>2015-06-07T13:01:46Z</time>
      </trkpt>
      <trkpt lat="46.47002" lon="6.10711">
        <ele>1305.13</ele>
        <time>2015-06-07T13:01:47Z</time>
      </trkpt>
      <trkpt lat="46.46994" lon="6.10706">
        <ele>1304.65</ele>
        <time>2015-06-07T13:01:55Z</time>
      </trkpt>
      <trkpt lat="46.46991" lon="6.10704">
        <ele>1304.65</ele>
        <time>2015-06-07T13:01:59Z</time>
      </trkpt>
      <trkpt lat="46.46983" lon="6.107">
        <ele>1304.17</ele>
        <time>2015-06-07T13:02:06Z</time>
      </trkpt>
      <trkpt lat="46.46975" lon="6.10696">
        <ele>1304.65</ele>
        <time>2015-06-07T13:02:12Z</time>
      </trkpt>
      <trkpt lat="46.46969" lon="6.10691">
        <ele>1304.65</ele>
        <time>2015-06-07T13:02:17Z</time>
      </trkpt>
      <trkpt lat="46.46965" lon="6.10687">
        <ele>1304.17</ele>
        <time>2015-06-07T13:02:22Z</time>
      </trkpt>
      <trkpt lat="46.46957" lon="6.1068">
        <ele>1304.17</ele>
        <time>2015-06-07T13:02:30Z</time>
      </trkpt>
      <trkpt lat="46.46952" lon="6.10673">
        <ele>1304.17</ele>
        <time>2015-06-07T13:02:36Z</time>
      </trkpt>
      <trkpt lat="46.46949" lon="6.1067">
        <ele>1303.69</ele>
        <time>2015-06-07T13:02:39Z</time>
      </trkpt>
      <trkpt lat="46.46946" lon="6.10669">
        <ele>1303.69</ele>
        <time>2015-06-07T13:02:46Z</time>
      </trkpt>
      <trkpt lat="46.46945" lon="6.10668">
        <ele>1303.69</ele>
        <time>2015-06-07T13:02:48Z</time>
      </trkpt>
      <trkpt lat="46.46939" lon="6.1066">
        <ele>1302.72</ele>
        <time>2015-06-07T13:02:56Z</time>
      </trkpt>
      <trkpt lat="46.46938" lon="6.10659">
        <ele>1302.72</ele>
        <time>2015-06-07T13:02:59Z</time>
      </trkpt>
      <trkpt lat="46.46935" lon="6.10656">
        <ele>1302.72</ele>
        <time>2015-06-07T13:03:03Z</time>
      </trkpt>
      <trkpt lat="46.46928" lon="6.10649">
        <ele>1302.72</ele>
        <time>2015-06-07T13:03:10Z</time>
      </trkpt>
      <trkpt lat="46.46921" lon="6.10641">
        <ele>1302.72</ele>
        <time>2015-06-07T13:03:19Z</time>
      </trkpt>
      <trkpt lat="46.46918" lon="6.10639">
        <ele>1302.72</ele>
        <time>2015-06-07T13:03:21Z</time>
      </trkpt>
      <trkpt lat="46.46911" lon="6.1063">
        <ele>1302.72</ele>
        <time>2015-06-07T13:03:28Z</time>
      </trkpt>
      <trkpt lat="46.46907" lon="6.10629">
        <ele>1302.24</ele>
        <time>2015-06-07T13:03:31Z</time>
      </trkpt>
      <trkpt lat="46.469" lon="6.10622">
        <ele>1302.72</ele>
        <time>2015-06-07T13:03:38Z</time>
      </trkpt>
      <trkpt lat="46.46896" lon="6.10617">
        <ele>1302.24</ele>
        <time>2015-06-07T13:03:42Z</time>
      </trkpt>
      <trkpt lat="46.46888" lon="6.10611">
        <ele>1302.24</ele>
        <time>2015-06-07T13:03:49Z</time>
      </trkpt>
      <trkpt lat="46.46882" lon="6.10604">
        <ele>1302.24</ele>
        <time>2015-06-07T13:03:56Z</time>
      </trkpt>
      <trkpt lat="46.46877" lon="6.106">
        <ele>1302.72</ele>
        <time>2015-06-07T13:04:00Z</time>
      </trkpt>
      <trkpt lat="46.46869" lon="6.10591">
        <ele>1302.72</ele>
        <time>2015-06-07T13:04:08Z</time>
      </trkpt>
      <trkpt lat="46.46865" lon="6.10585">
        <ele>1303.2</ele>
        <time>2015-06-07T13:04:13Z</time>
      </trkpt>
      <trkpt lat="46.46859" lon="6.10575">
        <ele>1303.2</ele>
        <time>2015-06-07T13:04:21Z</time>
      </trkpt>
      <trkpt lat="46.46853" lon="6.10564">
        <ele>1303.2</ele>
        <time>2015-06-07T13:04:29Z</time>
      </trkpt>
      <trkpt lat="46.46847" lon="6.10556">
        <ele>1304.17</ele>
        <time>2015-06-07T13:04:36Z</time>
      </trkpt>
      <trkpt lat="46.46841" lon="6.10546">
        <ele>1304.17</ele>
        <time>2015-06-07T13:04:43Z</time>
      </trkpt>
      <trkpt lat="46.46834" lon="6.10535">
        <ele>1304.17</ele>
        <time>2015-06-07T13:04:52Z</time>
      </trkpt>
      <trkpt lat="46.46829" lon="6.10529">
        <ele>1303.69</ele>
        <time>2015-06-07T13:04:58Z</time>
      </trkpt>
      <trkpt lat="46.4682" lon="6.10517">
        <ele>1302.72</ele>
        <time>2015-06-07T13:05:06Z</time>
      </trkpt>
      <trkpt lat="46.46814" lon="6.10509">
        <ele>1302.24</ele>
        <time>2015-06-07T13:05:11Z</time>
      </trkpt>
      <trkpt lat="46.46813" lon="6.10507">
        <ele>1302.72</ele>
        <time>2015-06-07T13:05:13Z</time>
      </trkpt>
      <trkpt lat="46.46803" lon="6.10498">
        <ele>1301.76</ele>
        <time>2015-06-07T13:05:22Z</time>
      </trkpt>
      <trkpt lat="46.46799" lon="6.10494">
        <ele>1301.76</ele>
        <time>2015-06-07T13:05:26Z</time>
      </trkpt>
      <trkpt lat="46.46793" lon="6.10487">
        <ele>1301.76</ele>
        <time>2015-06-07T13:05:33Z</time>
      </trkpt>
      <trkpt lat="46.46791" lon="6.10483">
        <ele>1301.28</ele>
        <time>2015-06-07T13:05:36Z</time>
      </trkpt>
      <trkpt lat="46.46788" lon="6.10479">
        <ele>1301.76</ele>
        <time>2015-06-07T13:05:39Z</time>
      </trkpt>
      <trkpt lat="46.46785" lon="6.10475">
        <ele>1300.8</ele>
        <time>2015-06-07T13:05:43Z</time>
      </trkpt>
      <trkpt lat="46.46778" lon="6.10471">
        <ele>1300.8</ele>
        <time>2015-06-07T13:05:49Z</time>
      </trkpt>
      <trkpt lat="46.46772" lon="6.10466">
        <ele>1300.8</ele>
        <time>2015-06-07T13:05:55Z</time>
      </trkpt>
      <trkpt lat="46.46772" lon="6.10465">
        <ele>1300.32</ele>
        <time>2015-06-07T13:05:56Z</time>
      </trkpt>
      <trkpt lat="46.46769" lon="6.10464">
        <ele>1300.32</ele>
        <time>2015-06-07T13:05:58Z</time>
      </trkpt>
      <trkpt lat="46.46765" lon="6.10458">
        <ele>1300.32</ele>
        <time>2015-06-07T13:06:02Z</time>
      </trkpt>
      <trkpt lat="46.4676" lon="6.10452">
        <ele>1300.32</ele>
        <time>2015-06-07T13:06:07Z</time>
      </trkpt>
      <trkpt lat="46.46755" lon="6.10448">
        <ele>1299.84</ele>
        <time>2015-06-07T13:06:13Z</time>
      </trkpt>
      <trkpt lat="46.46746" lon="6.10444">
        <ele>1299.84</ele>
        <time>2015-06-07T13:06:20Z</time>
      </trkpt>
      <trkpt lat="46.46741" lon="6.10444">
        <ele>1299.84</ele>
        <time>2015-06-07T13:06:25Z</time>
      </trkpt>
      <trkpt lat="46.46735" lon="6.10443">
        <ele>1298.88</ele>
        <time>2015-06-07T13:06:32Z</time>
      </trkpt>
      <trkpt lat="46.46732" lon="6.10442">
        <ele>1298.88</ele>
        <time>2015-06-07T13:06:35Z</time>
      </trkpt>
      <trkpt lat="46.46723" lon="6.1044">
        <ele>1297.92</ele>
        <time>2015-06-07T13:06:43Z</time>
      </trkpt>
      <trkpt lat="46.46722" lon="6.1044">
        <ele>1297.44</ele>
        <time>2015-06-07T13:06:44Z</time>
      </trkpt>
      <trkpt lat="46.46712" lon="6.10443">
        <ele>1296.48</ele>
        <time>2015-06-07T13:06:52Z</time>
      </trkpt>
      <trkpt lat="46.46711" lon="6.10443">
        <ele>1296.48</ele>
        <time>2015-06-07T13:06:53Z</time>
      </trkpt>
      <trkpt lat="46.46705" lon="6.10439">
        <ele>1295.51</ele>
        <time>2015-06-07T13:07:00Z</time>
      </trkpt>
      <trkpt lat="46.46699" lon="6.10433">
        <ele>1295.03</ele>
        <time>2015-06-07T13:07:06Z</time>
      </trkpt>
      <trkpt lat="46.46699" lon="6.10433">
        <ele>1295.03</ele>
        <time>2015-06-07T13:07:07Z</time>
      </trkpt>
      <trkpt lat="46.46697" lon="6.10428">
        <ele>1294.55</ele>
        <time>2015-06-07T13:07:10Z</time>
      </trkpt>
      <trkpt lat="46.46694" lon="6.10422">
        <ele>1294.07</ele>
        <time>2015-06-07T13:07:13Z</time>
      </trkpt>
      <trkpt lat="46.46691" lon="6.10413">
        <ele>1293.59</ele>
        <time>2015-06-07T13:07:17Z</time>
      </trkpt>
      <trkpt lat="46.4669" lon="6.10402">
        <ele>1293.11</ele>
        <time>2015-06-07T13:07:23Z</time>
      </trkpt>
      <trkpt lat="46.46686" lon="6.10388">
        <ele>1292.15</ele>
        <time>2015-06-07T13:07:31Z</time>
      </trkpt>
      <trkpt lat="46.46685" lon="6.10377">
        <ele>1291.67</ele>
        <time>2015-06-07T13:07:37Z</time>
      </trkpt>
      <trkpt lat="46.46684" lon="6.1037">
        <ele>1291.19</ele>
        <time>2015-06-07T13:07:41Z</time>
      </trkpt>
      <trkpt lat="46.46684" lon="6.10359">
        <ele>1290.71</ele>
        <time>2015-06-07T13:07:48Z</time>
      </trkpt>
      <trkpt lat="46.46684" lon="6.10356">
        <ele>1290.23</ele>
        <time>2015-06-07T13:07:50Z</time>
      </trkpt>
      <trkpt lat="46.46682" lon="6.10354">
        <ele>1290.71</ele>
        <time>2015-06-07T13:07:52Z</time>
      </trkpt>
      <trkpt lat="46.46678" lon="6.10348">
        <ele>1290.23</ele>
        <time>2015-06-07T13:07:56Z</time>
      </trkpt>
      <trkpt lat="46.46678" lon="6.10341">
        <ele>1289.75</ele>
        <time>2015-06-07T13:08:00Z</time>
      </trkpt>
      <trkpt lat="46.46674" lon="6.10331">
        <ele>1288.78</ele>
        <time>2015-06-07T13:08:07Z</time>
      </trkpt>
      <trkpt lat="46.46673" lon="6.10319">
        <ele>1288.3</ele>
        <time>2015-06-07T13:08:14Z</time>
      </trkpt>
      <trkpt lat="46.46672" lon="6.10312">
        <ele>1287.34</ele>
        <time>2015-06-07T13:08:18Z</time>
      </trkpt>
      <trkpt lat="46.46674" lon="6.10305">
        <ele>1286.38</ele>
        <time>2015-06-07T13:08:23Z</time>
      </trkpt>
      <trkpt lat="46.46674" lon="6.10295">
        <ele>1285.42</ele>
        <time>2015-06-07T13:08:29Z</time>
      </trkpt>
      <trkpt lat="46.46674" lon="6.10294">
        <ele>1285.42</ele>
        <time>2015-06-07T13:08:30Z</time>
      </trkpt>
      <trkpt lat="46.46673" lon="6.10292">
        <ele>1285.42</ele>
        <time>2015-06-07T13:08:32Z</time>
      </trkpt>
      <trkpt lat="46.46673" lon="6.10283">
        <ele>1283.98</ele>
        <time>2015-06-07T13:08:37Z</time>
      </trkpt>
      <trkpt lat="46.46672" lon="6.10272">
        <ele>1283.98</ele>
        <time>2015-06-07T13:08:44Z</time>
      </trkpt>
      <trkpt lat="46.46671" lon="6.10269">
        <ele>1283.98</ele>
        <time>2015-06-07T13:08:46Z</time>
      </trkpt>
      <trkpt lat="46.46666" lon="6.10262">
        <ele>1283.5</ele>
        <time>2015-06-07T13:08:50Z</time>
      </trkpt>
      <trkpt lat="46.46661" lon="6.10253">
        <ele>1283.5</ele>
        <time>2015-06-07T13:08:57Z</time>
      </trkpt>
      <trkpt lat="46.46652" lon="6.10246">
        <ele>1283.5</ele>
        <time>2015-06-07T13:09:04Z</time>
      </trkpt>
      <trkpt lat="46.46649" lon="6.10245">
        <ele>1283.02</ele>
        <time>2015-06-07T13:09:06Z</time>
      </trkpt>
      <trkpt lat="46.46638" lon="6.10243">
        <ele>1283.5</ele>
        <time>2015-06-07T13:09:15Z</time>
      </trkpt>
      <trkpt lat="46.46636" lon="6.10244">
        <ele>1283.02</ele>
        <time>2015-06-07T13:09:17Z</time>
      </trkpt>
      <trkpt lat="46.46626" lon="6.10244">
        <ele>1283.5</ele>
        <time>2015-06-07T13:09:24Z</time>
      </trkpt>
      <trkpt lat="46.4662" lon="6.10243">
        <ele>1283.5</ele>
        <time>2015-06-07T13:09:30Z</time>
      </trkpt>
      <trkpt lat="46.46612" lon="6.10245">
        <ele>1283.5</ele>
        <time>2015-06-07T13:09:37Z</time>
      </trkpt>
      <trkpt lat="46.46604" lon="6.10246">
        <ele>1283.02</ele>
        <time>2015-06-07T13:09:44Z</time>
      </trkpt>
      <trkpt lat="46.46599" lon="6.10244">
        <ele>1283.02</ele>
        <time>2015-06-07T13:09:47Z</time>
      </trkpt>
      <trkpt lat="46.4659" lon="6.10243">
        <ele>1283.02</ele>
        <time>2015-06-07T13:09:55Z</time>
      </trkpt>
      <trkpt lat="46.46581" lon="6.1024">
        <ele>1283.02</ele>
        <time>2015-06-07T13:10:01Z</time>
      </trkpt>
      <trkpt lat="46.4657" lon="6.10236">
        <ele>1283.5</ele>
        <time>2015-06-07T13:10:08Z</time>
      </trkpt>
      <trkpt lat="46.46562" lon="6.10237">
        <ele>1284.46</ele>
        <time>2015-06-07T13:10:14Z</time>
      </trkpt>
      <trkpt lat="46.46562" lon="6.10236">
        <ele>1284.46</ele>
        <time>2015-06-07T13:10:15Z</time>
      </trkpt>
      <trkpt lat="46.46558" lon="6.10236">
        <ele>1284.46</ele>
        <time>2015-06-07T13:10:19Z</time>
      </trkpt>
      <trkpt lat="46.46552" lon="6.10233">
        <ele>1284.94</ele>
        <time>2015-06-07T13:10:24Z</time>
      </trkpt>
      <trkpt lat="46.46546" lon="6.1023">
        <ele>1285.42</ele>
        <time>2015-06-07T13:10:30Z</time>
      </trkpt>
      <trkpt lat="46.46539" lon="6.10224">
        <ele>1285.9</ele>
        <time>2015-06-07T13:10:37Z</time>
      </trkpt>
      <trkpt lat="46.46537" lon="6.10222">
        <ele>1285.9</ele>
        <time>2015-06-07T13:10:41Z</time>
      </trkpt>
      <trkpt lat="46.46533" lon="6.10212">
        <ele>1286.38</ele>
        <time>2015-06-07T13:10:47Z</time>
      </trkpt>
      <trkpt lat="46.46531" lon="6.10198">
        <ele>1286.38</ele>
        <time>2015-06-07T13:10:54Z</time>
      </trkpt>
      <trkpt lat="46.46529" lon="6.10189">
        <ele>1286.38</ele>
        <time>2015-06-07T13:11:00Z</time>
      </trkpt>
      <trkpt lat="46.46527" lon="6.10178">
        <ele>1286.38</ele>
        <time>2015-06-07T13:11:06Z</time>
      </trkpt>
      <trkpt lat="46.46526" lon="6.10174">
        <ele>1286.38</ele>
        <time>2015-06-07T13:11:09Z</time>
      </trkpt>
      <trkpt lat="46.46519" lon="6.1016">
        <ele>1286.86</ele>
        <time>2015-06-07T13:11:17Z</time>
      </trkpt>
      <trkpt lat="46.46514" lon="6.10152">
        <ele>1287.34</ele>
        <time>2015-06-07T13:11:23Z</time>
      </trkpt>
      <trkpt lat="46.46509" lon="6.10142">
        <ele>1287.34</ele>
        <time>2015-06-07T13:11:29Z</time>
      </trkpt>
      <trkpt lat="46.46504" lon="6.10137">
        <ele>1287.34</ele>
        <time>2015-06-07T13:11:34Z</time>
      </trkpt>
      <trkpt lat="46.46498" lon="6.10127">
        <ele>1287.34</ele>
        <time>2015-06-07T13:11:41Z</time>
      </trkpt>
      <trkpt lat="46.46497" lon="6.10126">
        <ele>1287.82</ele>
        <time>2015-06-07T13:11:42Z</time>
      </trkpt>
      <trkpt lat="46.46493" lon="6.10117">
        <ele>1287.82</ele>
        <time>2015-06-07T13:11:48Z</time>
      </trkpt>
      <trkpt lat="46.46489" lon="6.10109">
        <ele>1287.82</ele>
        <time>2015-06-07T13:11:53Z</time>
      </trkpt>
      <trkpt lat="46.46485" lon="6.10104">
        <ele>1287.82</ele>
        <time>2015-06-07T13:11:57Z</time>
      </trkpt>
      <trkpt lat="46.4648" lon="6.10096">
        <ele>1288.3</ele>
        <time>2015-06-07T13:12:03Z</time>
      </trkpt>
      <trkpt lat="46.46475" lon="6.10089">
        <ele>1288.3</ele>
        <time>2015-06-07T13:12:08Z</time>
      </trkpt>
      <trkpt lat="46.46471" lon="6.10074">
        <ele>1288.3</ele>
        <time>2015-06-07T13:12:16Z</time>
      </trkpt>
      <trkpt lat="46.46466" lon="6.10065">
        <ele>1288.3</ele>
        <time>2015-06-07T13:12:21Z</time>
      </trkpt>
      <trkpt lat="46.46461" lon="6.10057">
        <ele>1288.3</ele>
        <time>2015-06-07T13:12:27Z</time>
      </trkpt>
      <trkpt lat="46.46456" lon="6.10048">
        <ele>1288.3</ele>
        <time>2015-06-07T13:12:33Z</time>
      </trkpt>
      <trkpt lat="46.46452" lon="6.1004">
        <ele>1288.3</ele>
        <time>2015-06-07T13:12:39Z</time>
      </trkpt>
      <trkpt lat="46.46446" lon="6.10029">
        <ele>1287.34</ele>
        <time>2015-06-07T13:12:46Z</time>
      </trkpt>
      <trkpt lat="46.46441" lon="6.10023">
        <ele>1287.82</ele>
        <time>2015-06-07T13:12:53Z</time>
      </trkpt>
      <trkpt lat="46.46435" lon="6.10018">
        <ele>1288.3</ele>
        <time>2015-06-07T13:12:59Z</time>
      </trkpt>
      <trkpt lat="46.46433" lon="6.10015">
        <ele>1287.82</ele>
        <time>2015-06-07T13:13:01Z</time>
      </trkpt>
      <trkpt lat="46.46425" lon="6.10011">
        <ele>1287.82</ele>
        <time>2015-06-07T13:13:06Z</time>
      </trkpt>
      <trkpt lat="46.46423" lon="6.10001">
        <ele>1288.3</ele>
        <time>2015-06-07T13:13:12Z</time>
      </trkpt>
      <trkpt lat="46.46418" lon="6.09993">
        <ele>1288.3</ele>
        <time>2015-06-07T13:13:16Z</time>
      </trkpt>
      <trkpt lat="46.46413" lon="6.09986">
        <ele>1288.3</ele>
        <time>2015-06-07T13:13:21Z</time>
      </trkpt>
      <trkpt lat="46.46413" lon="6.09986">
        <ele>1288.3</ele>
        <time>2015-06-07T13:13:22Z</time>
      </trkpt>
      <trkpt lat="46.46408" lon="6.0998">
        <ele>1288.3</ele>
        <time>2015-06-07T13:13:27Z</time>
      </trkpt>
      <trkpt lat="46.46408" lon="6.0998">
        <ele>1288.78</ele>
        <time>2015-06-07T13:13:28Z</time>
      </trkpt>
      <trkpt lat="46.46403" lon="6.09972">
        <ele>1288.78</ele>
        <time>2015-06-07T13:13:33Z</time>
      </trkpt>
      <trkpt lat="46.46402" lon="6.0997">
        <ele>1288.78</ele>
        <time>2015-06-07T13:13:36Z</time>
      </trkpt>
      <trkpt lat="46.46399" lon="6.09966">
        <ele>1288.78</ele>
        <time>2015-06-07T13:13:40Z</time>
      </trkpt>
      <trkpt lat="46.46391" lon="6.09957">
        <ele>1289.27</ele>
        <time>2015-06-07T13:13:46Z</time>
      </trkpt>
      <trkpt lat="46.46386" lon="6.09953">
        <ele>1289.27</ele>
        <time>2015-06-07T13:13:50Z</time>
      </trkpt>
      <trkpt lat="46.46379" lon="6.09947">
        <ele>1289.27</ele>
        <time>2015-06-07T13:13:56Z</time>
      </trkpt>
      <trkpt lat="46.46373" lon="6.09941">
        <ele>1288.78</ele>
        <time>2015-06-07T13:14:01Z</time>
      </trkpt>
      <trkpt lat="46.46367" lon="6.09933">
        <ele>1288.3</ele>
        <time>2015-06-07T13:14:06Z</time>
      </trkpt>
      <trkpt lat="46.46359" lon="6.09928">
        <ele>1288.3</ele>
        <time>2015-06-07T13:14:12Z</time>
      </trkpt>
      <trkpt lat="46.46353" lon="6.09925">
        <ele>1287.82</ele>
        <time>2015-06-07T13:14:17Z</time>
      </trkpt>
      <trkpt lat="46.46349" lon="6.09923">
        <ele>1287.82</ele>
        <time>2015-06-07T13:14:21Z</time>
      </trkpt>
      <trkpt lat="46.46341" lon="6.09919">
        <ele>1287.82</ele>
        <time>2015-06-07T13:14:27Z</time>
      </trkpt>
      <trkpt lat="46.46336" lon="6.09912">
        <ele>1287.82</ele>
        <time>2015-06-07T13:14:32Z</time>
      </trkpt>
      <trkpt lat="46.46328" lon="6.09905">
        <ele>1287.82</ele>
        <time>2015-06-07T13:14:39Z</time>
      </trkpt>
      <trkpt lat="46.46325" lon="6.09904">
        <ele>1287.82</ele>
        <time>2015-06-07T13:14:44Z</time>
      </trkpt>
      <trkpt lat="46.46317" lon="6.09898">
        <ele>1286.86</ele>
        <time>2015-06-07T13:14:51Z</time>
      </trkpt>
      <trkpt lat="46.46316" lon="6.09897">
        <ele>1286.86</ele>
        <time>2015-06-07T13:14:52Z</time>
      </trkpt>
      <trkpt lat="46.46309" lon="6.0989">
        <ele>1286.38</ele>
        <time>2015-06-07T13:14:58Z</time>
      </trkpt>
      <trkpt lat="46.46303" lon="6.09883">
        <ele>1286.38</ele>
        <time>2015-06-07T13:15:03Z</time>
      </trkpt>
      <trkpt lat="46.463" lon="6.09878">
        <ele>1286.38</ele>
        <time>2015-06-07T13:15:06Z</time>
      </trkpt>
      <trkpt lat="46.46294" lon="6.09869">
        <ele>1286.38</ele>
        <time>2015-06-07T13:15:12Z</time>
      </trkpt>
      <trkpt lat="46.4629" lon="6.0986">
        <ele>1286.38</ele>
        <time>2015-06-07T13:15:17Z</time>
      </trkpt>
      <trkpt lat="46.46287" lon="6.09852">
        <ele>1286.38</ele>
        <time>2015-06-07T13:15:23Z</time>
      </trkpt>
      <trkpt lat="46.46285" lon="6.09843">
        <ele>1286.38</ele>
        <time>2015-06-07T13:15:28Z</time>
      </trkpt>
      <trkpt lat="46.46284" lon="6.09838">
        <ele>1286.86</ele>
        <time>2015-06-07T13:15:31Z</time>
      </trkpt>
      <trkpt lat="46.46282" lon="6.09834">
        <ele>1286.86</ele>
        <time>2015-06-07T13:15:34Z</time>
      </trkpt>
      <trkpt lat="46.46279" lon="6.09825">
        <ele>1286.86</ele>
        <time>2015-06-07T13:15:39Z</time>
      </trkpt>
      <trkpt lat="46.46277" lon="6.09813">
        <ele>1286.86</ele>
        <time>2015-06-07T13:15:47Z</time>
      </trkpt>
      <trkpt lat="46.46274" lon="6.09799">
        <ele>1286.38</ele>
        <time>2015-06-07T13:15:54Z</time>
      </trkpt>
      <trkpt lat="46.4627" lon="6.09788">
        <ele>1286.38</ele>
        <time>2015-06-07T13:16:00Z</time>
      </trkpt>
      <trkpt lat="46.46268" lon="6.09783">
        <ele>1285.9</ele>
        <time>2015-06-07T13:16:03Z</time>
      </trkpt>
      <trkpt lat="46.46264" lon="6.09772">
        <ele>1285.9</ele>
        <time>2015-06-07T13:16:10Z</time>
      </trkpt>
      <trkpt lat="46.46259" lon="6.09762">
        <ele>1285.9</ele>
        <time>2015-06-07T13:16:16Z</time>
      </trkpt>
      <trkpt lat="46.46258" lon="6.09758">
        <ele>1285.9</ele>
        <time>2015-06-07T13:16:18Z</time>
      </trkpt>
      <trkpt lat="46.4625" lon="6.09745">
        <ele>1285.9</ele>
        <time>2015-06-07T13:16:26Z</time>
      </trkpt>
      <trkpt lat="46.46243" lon="6.09742">
        <ele>1285.9</ele>
        <time>2015-06-07T13:16:32Z</time>
      </trkpt>
      <trkpt lat="46.46237" lon="6.09741">
        <ele>1285.42</ele>
        <time>2015-06-07T13:16:37Z</time>
      </trkpt>
      <trkpt lat="46.46228" lon="6.09743">
        <ele>1285.42</ele>
        <time>2015-06-07T13:16:44Z</time>
      </trkpt>
      <trkpt lat="46.46216" lon="6.09748">
        <ele>1285.42</ele>
        <time>2015-06-07T13:16:52Z</time>
      </trkpt>
      <trkpt lat="46.46215" lon="6.09748">
        <ele>1285.42</ele>
        <time>2015-06-07T13:16:53Z</time>
      </trkpt>
      <trkpt lat="46.46211" lon="6.09749">
        <ele>1285.42</ele>
        <time>2015-06-07T13:16:56Z</time>
      </trkpt>
      <trkpt lat="46.46206" lon="6.09752">
        <ele>1285.42</ele>
        <time>2015-06-07T13:17:00Z</time>
      </trkpt>
      <trkpt lat="46.46203" lon="6.09753">
        <ele>1285.42</ele>
        <time>2015-06-07T13:17:03Z</time>
      </trkpt>
      <trkpt lat="46.46197" lon="6.09758">
        <ele>1285.42</ele>
        <time>2015-06-07T13:17:08Z</time>
      </trkpt>
      <trkpt lat="46.46188" lon="6.09764">
        <ele>1285.9</ele>
        <time>2015-06-07T13:17:14Z</time>
      </trkpt>
      <trkpt lat="46.46182" lon="6.09771">
        <ele>1285.42</ele>
        <time>2015-06-07T13:17:20Z</time>
      </trkpt>
      <trkpt lat="46.46176" lon="6.09781">
        <ele>1285.42</ele>
        <time>2015-06-07T13:17:27Z</time>
      </trkpt>
      <trkpt lat="46.46173" lon="6.09791">
        <ele>1285.42</ele>
        <time>2015-06-07T13:17:33Z</time>
      </trkpt>
      <trkpt lat="46.46164" lon="6.09799">
        <ele>1285.42</ele>
        <time>2015-06-07T13:17:39Z</time>
      </trkpt>
      <trkpt lat="46.46162" lon="6.09802">
        <ele>1285.42</ele>
        <time>2015-06-07T13:17:41Z</time>
      </trkpt>
      <trkpt lat="46.46154" lon="6.09806">
        <ele>1285.42</ele>
        <time>2015-06-07T13:17:46Z</time>
      </trkpt>
      <trkpt lat="46.46149" lon="6.09813">
        <ele>1285.9</ele>
        <time>2015-06-07T13:17:51Z</time>
      </trkpt>
      <trkpt lat="46.46141" lon="6.09823">
        <ele>1285.42</ele>
        <time>2015-06-07T13:17:59Z</time>
      </trkpt>
      <trkpt lat="46.46135" lon="6.09831">
        <ele>1285.42</ele>
        <time>2015-06-07T13:18:06Z</time>
      </trkpt>
      <trkpt lat="46.46134" lon="6.09833">
        <ele>1285.42</ele>
        <time>2015-06-07T13:18:08Z</time>
      </trkpt>
      <trkpt lat="46.46131" lon="6.09841">
        <ele>1285.42</ele>
        <time>2015-06-07T13:18:12Z</time>
      </trkpt>
      <trkpt lat="46.46127" lon="6.0985">
        <ele>1284.94</ele>
        <time>2015-06-07T13:18:19Z</time>
      </trkpt>
      <trkpt lat="46.46123" lon="6.09858">
        <ele>1284.94</ele>
        <time>2015-06-07T13:18:25Z</time>
      </trkpt>
      <trkpt lat="46.46119" lon="6.09864">
        <ele>1284.46</ele>
        <time>2015-06-07T13:18:29Z</time>
      </trkpt>
      <trkpt lat="46.46117" lon="6.09875">
        <ele>1283.98</ele>
        <time>2015-06-07T13:18:34Z</time>
      </trkpt>
      <trkpt lat="46.46112" lon="6.09888">
        <ele>1283.98</ele>
        <time>2015-06-07T13:18:42Z</time>
      </trkpt>
      <trkpt lat="46.46107" lon="6.099">
        <ele>1283.5</ele>
        <time>2015-06-07T13:18:49Z</time>
      </trkpt>
      <trkpt lat="46.46102" lon="6.09908">
        <ele>1283.02</ele>
        <time>2015-06-07T13:18:56Z</time>
      </trkpt>
      <trkpt lat="46.46101" lon="6.09911">
        <ele>1282.54</ele>
        <time>2015-06-07T13:18:59Z</time>
      </trkpt>
      <trkpt lat="46.46089" lon="6.09925">
        <ele>1282.54</ele>
        <time>2015-06-07T13:19:08Z</time>
      </trkpt>
      <trkpt lat="46.46083" lon="6.0993">
        <ele>1282.06</ele>
        <time>2015-06-07T13:19:13Z</time>
      </trkpt>
      <trkpt lat="46.46073" lon="6.0994">
        <ele>1281.09</ele>
        <time>2015-06-07T13:19:21Z</time>
      </trkpt>
      <trkpt lat="46.46071" lon="6.09945">
        <ele>1281.09</ele>
        <time>2015-06-07T13:19:24Z</time>
      </trkpt>
      <trkpt lat="46.46058" lon="6.09953">
        <ele>1280.13</ele>
        <time>2015-06-07T13:19:33Z</time>
      </trkpt>
      <trkpt lat="46.46057" lon="6.09954">
        <ele>1280.13</ele>
        <time>2015-06-07T13:19:34Z</time>
      </trkpt>
      <trkpt lat="46.46047" lon="6.09965">
        <ele>1279.65</ele>
        <time>2015-06-07T13:19:42Z</time>
      </trkpt>
      <trkpt lat="46.46038" lon="6.09972">
        <ele>1278.69</ele>
        <time>2015-06-07T13:19:49Z</time>
      </trkpt>
      <trkpt lat="46.4603" lon="6.09978">
        <ele>1278.21</ele>
        <time>2015-06-07T13:19:55Z</time>
      </trkpt>
      <trkpt lat="46.46023" lon="6.09985">
        <ele>1276.77</ele>
        <time>2015-06-07T13:20:04Z</time>
      </trkpt>
      <trkpt lat="46.46014" lon="6.09988">
        <ele>1275.81</ele>
        <time>2015-06-07T13:20:12Z</time>
      </trkpt>
      <trkpt lat="46.46006" lon="6.09991">
        <ele>1275.33</ele>
        <time>2015-06-07T13:20:18Z</time>
      </trkpt>
      <trkpt lat="46.46003" lon="6.09993">
        <ele>1274.85</ele>
        <time>2015-06-07T13:20:20Z</time>
      </trkpt>
      <trkpt lat="46.45993" lon="6.10001">
        <ele>1274.36</ele>
        <time>2015-06-07T13:20:29Z</time>
      </trkpt>
      <trkpt lat="46.45983" lon="6.10008">
        <ele>1274.36</ele>
        <time>2015-06-07T13:20:37Z</time>
      </trkpt>
      <trkpt lat="46.45976" lon="6.10011">
        <ele>1273.88</ele>
        <time>2015-06-07T13:20:43Z</time>
      </trkpt>
      <trkpt lat="46.45972" lon="6.10013">
        <ele>1273.88</ele>
        <time>2015-06-07T13:20:46Z</time>
      </trkpt>
      <trkpt lat="46.45965" lon="6.10018">
        <ele>1272.92</ele>
        <time>2015-06-07T13:20:51Z</time>
      </trkpt>
      <trkpt lat="46.45955" lon="6.10024">
        <ele>1271.96</ele>
        <time>2015-06-07T13:20:57Z</time>
      </trkpt>
      <trkpt lat="46.45949" lon="6.10029">
        <ele>1271.48</ele>
        <time>2015-06-07T13:21:01Z</time>
      </trkpt>
      <trkpt lat="46.45945" lon="6.10031">
        <ele>1271.48</ele>
        <time>2015-06-07T13:21:04Z</time>
      </trkpt>
      <trkpt lat="46.45938" lon="6.10037">
        <ele>1271</ele>
        <time>2015-06-07T13:21:09Z</time>
      </trkpt>
      <trkpt lat="46.45933" lon="6.10043">
        <ele>1270.52</ele>
        <time>2015-06-07T13:21:16Z</time>
      </trkpt>
      <trkpt lat="46.45931" lon="6.10045">
        <ele>1270.52</ele>
        <time>2015-06-07T13:21:18Z</time>
      </trkpt>
      <trkpt lat="46.45927" lon="6.10047">
        <ele>1270.04</ele>
        <time>2015-06-07T13:21:22Z</time>
      </trkpt>
      <trkpt lat="46.45924" lon="6.10054">
        <ele>1269.08</ele>
        <time>2015-06-07T13:21:28Z</time>
      </trkpt>
      <trkpt lat="46.45916" lon="6.10062">
        <ele>1268.12</ele>
        <time>2015-06-07T13:21:34Z</time>
      </trkpt>
      <trkpt lat="46.45911" lon="6.10066">
        <ele>1267.64</ele>
        <time>2015-06-07T13:21:40Z</time>
      </trkpt>
      <trkpt lat="46.45904" lon="6.10075">
        <ele>1267.16</ele>
        <time>2015-06-07T13:21:46Z</time>
      </trkpt>
      <trkpt lat="46.45898" lon="6.10079">
        <ele>1266.67</ele>
        <time>2015-06-07T13:21:52Z</time>
      </trkpt>
      <trkpt lat="46.45893" lon="6.10085">
        <ele>1266.19</ele>
        <time>2015-06-07T13:21:58Z</time>
      </trkpt>
      <trkpt lat="46.45885" lon="6.10096">
        <ele>1265.23</ele>
        <time>2015-06-07T13:22:06Z</time>
      </trkpt>
      <trkpt lat="46.45882" lon="6.10102">
        <ele>1264.75</ele>
        <time>2015-06-07T13:22:09Z</time>
      </trkpt>
      <trkpt lat="46.45873" lon="6.10112">
        <ele>1264.27</ele>
        <time>2015-06-07T13:22:16Z</time>
      </trkpt>
      <trkpt lat="46.45866" lon="6.10125">
        <ele>1263.79</ele>
        <time>2015-06-07T13:22:23Z</time>
      </trkpt>
      <trkpt lat="46.45861" lon="6.10137">
        <ele>1262.83</ele>
        <time>2015-06-07T13:22:32Z</time>
      </trkpt>
      <trkpt lat="46.45858" lon="6.10141">
        <ele>1261.87</ele>
        <time>2015-06-07T13:22:39Z</time>
      </trkpt>
      <trkpt lat="46.45852" lon="6.10163">
        <ele>1260.43</ele>
        <time>2015-06-07T13:22:50Z</time>
      </trkpt>
      <trkpt lat="46.45847" lon="6.10176">
        <ele>1259.94</ele>
        <time>2015-06-07T13:22:56Z</time>
      </trkpt>
      <trkpt lat="46.45843" lon="6.10184">
        <ele>1259.46</ele>
        <time>2015-06-07T13:23:01Z</time>
      </trkpt>
      <trkpt lat="46.45834" lon="6.10206">
        <ele>1258.02</ele>
        <time>2015-06-07T13:23:12Z</time>
      </trkpt>
      <trkpt lat="46.4583" lon="6.1021">
        <ele>1258.02</ele>
        <time>2015-06-07T13:23:15Z</time>
      </trkpt>
      <trkpt lat="46.45818" lon="6.10221">
        <ele>1256.58</ele>
        <time>2015-06-07T13:23:24Z</time>
      </trkpt>
      <trkpt lat="46.45811" lon="6.10224">
        <ele>1256.58</ele>
        <time>2015-06-07T13:23:30Z</time>
      </trkpt>
      <trkpt lat="46.45806" lon="6.10224">
        <ele>1256.1</ele>
        <time>2015-06-07T13:23:35Z</time>
      </trkpt>
      <trkpt lat="46.45799" lon="6.10219">
        <ele>1255.62</ele>
        <time>2015-06-07T13:23:41Z</time>
      </trkpt>
      <trkpt lat="46.45794" lon="6.10216">
        <ele>1254.66</ele>
        <time>2015-06-07T13:23:45Z</time>
      </trkpt>
      <trkpt lat="46.45792" lon="6.10215">
        <ele>1254.66</ele>
        <time>2015-06-07T13:23:46Z</time>
      </trkpt>
      <trkpt lat="46.45786" lon="6.10212">
        <ele>1254.18</ele>
        <time>2015-06-07T13:23:50Z</time>
      </trkpt>
      <trkpt lat="46.45777" lon="6.10202">
        <ele>1253.22</ele>
        <time>2015-06-07T13:23:59Z</time>
      </trkpt>
      <trkpt lat="46.45775" lon="6.102">
        <ele>1252.74</ele>
        <time>2015-06-07T13:24:01Z</time>
      </trkpt>
      <trkpt lat="46.45768" lon="6.10195">
        <ele>1251.77</ele>
        <time>2015-06-07T13:24:08Z</time>
      </trkpt>
      <trkpt lat="46.45764" lon="6.10189">
        <ele>1250.81</ele>
        <time>2015-06-07T13:24:13Z</time>
      </trkpt>
      <trkpt lat="46.45757" lon="6.10182">
        <ele>1250.33</ele>
        <time>2015-06-07T13:24:19Z</time>
      </trkpt>
      <trkpt lat="46.45749" lon="6.10178">
        <ele>1249.37</ele>
        <time>2015-06-07T13:24:25Z</time>
      </trkpt>
      <trkpt lat="46.45743" lon="6.10175">
        <ele>1248.89</ele>
        <time>2015-06-07T13:24:31Z</time>
      </trkpt>
      <trkpt lat="46.45734" lon="6.10168">
        <ele>1248.41</ele>
        <time>2015-06-07T13:24:38Z</time>
      </trkpt>
      <trkpt lat="46.45733" lon="6.10168">
        <ele>1248.41</ele>
        <time>2015-06-07T13:24:39Z</time>
      </trkpt>
      <trkpt lat="46.45731" lon="6.10164">
        <ele>1248.41</ele>
        <time>2015-06-07T13:24:41Z</time>
      </trkpt>
      <trkpt lat="46.45722" lon="6.10158">
        <ele>1247.93</ele>
        <time>2015-06-07T13:24:48Z</time>
      </trkpt>
      <trkpt lat="46.4572" lon="6.10154">
        <ele>1247.45</ele>
        <time>2015-06-07T13:24:51Z</time>
      </trkpt>
      <trkpt lat="46.45714" lon="6.10149">
        <ele>1246.97</ele>
        <time>2015-06-07T13:24:56Z</time>
      </trkpt>
      <trkpt lat="46.45706" lon="6.10142">
        <ele>1246.01</ele>
        <time>2015-06-07T13:25:03Z</time>
      </trkpt>
      <trkpt lat="46.45701" lon="6.10139">
        <ele>1245.53</ele>
        <time>2015-06-07T13:25:07Z</time>
      </trkpt>
      <trkpt lat="46.45694" lon="6.10129">
        <ele>1245.04</ele>
        <time>2015-06-07T13:25:15Z</time>
      </trkpt>
      <trkpt lat="46.45689" lon="6.10123">
        <ele>1244.56</ele>
        <time>2015-06-07T13:25:20Z</time>
      </trkpt>
      <trkpt lat="46.45685" lon="6.10109">
        <ele>1243.12</ele>
        <time>2015-06-07T13:25:28Z</time>
      </trkpt>
      <trkpt lat="46.45679" lon="6.10099">
        <ele>1242.16</ele>
        <time>2015-06-07T13:25:35Z</time>
      </trkpt>
      <trkpt lat="46.45677" lon="6.10094">
        <ele>1241.68</ele>
        <time>2015-06-07T13:25:39Z</time>
      </trkpt>
      <trkpt lat="46.45676" lon="6.10089">
        <ele>1240.72</ele>
        <time>2015-06-07T13:25:42Z</time>
      </trkpt>
      <trkpt lat="46.45668" lon="6.10078">
        <ele>1240.24</ele>
        <time>2015-06-07T13:25:49Z</time>
      </trkpt>
      <trkpt lat="46.45662" lon="6.10068">
        <ele>1239.28</ele>
        <time>2015-06-07T13:25:57Z</time>
      </trkpt>
      <trkpt lat="46.45654" lon="6.10059">
        <ele>1238.8</ele>
        <time>2015-06-07T13:26:04Z</time>
      </trkpt>
      <trkpt lat="46.45649" lon="6.10054">
        <ele>1238.32</ele>
        <time>2015-06-07T13:26:08Z</time>
      </trkpt>
      <trkpt lat="46.45644" lon="6.1005">
        <ele>1237.83</ele>
        <time>2015-06-07T13:26:13Z</time>
      </trkpt>
      <trkpt lat="46.45638" lon="6.10039">
        <ele>1236.87</ele>
        <time>2015-06-07T13:26:20Z</time>
      </trkpt>
      <trkpt lat="46.45636" lon="6.10038">
        <ele>1236.39</ele>
        <time>2015-06-07T13:26:21Z</time>
      </trkpt>
      <trkpt lat="46.45633" lon="6.10036">
        <ele>1236.87</ele>
        <time>2015-06-07T13:26:23Z</time>
      </trkpt>
      <trkpt lat="46.45627" lon="6.10032">
        <ele>1235.91</ele>
        <time>2015-06-07T13:26:27Z</time>
      </trkpt>
      <trkpt lat="46.45624" lon="6.1003">
        <ele>1235.43</ele>
        <time>2015-06-07T13:26:29Z</time>
      </trkpt>
      <trkpt lat="46.45616" lon="6.10025">
        <ele>1234.95</ele>
        <time>2015-06-07T13:26:35Z</time>
      </trkpt>
      <trkpt lat="46.45607" lon="6.10018">
        <ele>1234.47</ele>
        <time>2015-06-07T13:26:43Z</time>
      </trkpt>
      <trkpt lat="46.45601" lon="6.10013">
        <ele>1233.51</ele>
        <time>2015-06-07T13:26:49Z</time>
      </trkpt>
      <trkpt lat="46.45593" lon="6.10007">
        <ele>1232.55</ele>
        <time>2015-06-07T13:26:56Z</time>
      </trkpt>
      <trkpt lat="46.4559" lon="6.10006">
        <ele>1232.55</ele>
        <time>2015-06-07T13:26:58Z</time>
      </trkpt>
      <trkpt lat="46.45581" lon="6.10002">
        <ele>1231.11</ele>
        <time>2015-06-07T13:27:05Z</time>
      </trkpt>
      <trkpt lat="46.45572" lon="6.09997">
        <ele>1230.62</ele>
        <time>2015-06-07T13:27:12Z</time>
      </trkpt>
      <trkpt lat="46.45564" lon="6.09995">
        <ele>1229.66</ele>
        <time>2015-06-07T13:27:19Z</time>
      </trkpt>
      <trkpt lat="46.45563" lon="6.09995">
        <ele>1229.66</ele>
        <time>2015-06-07T13:27:20Z</time>
      </trkpt>
      <trkpt lat="46.45554" lon="6.09993">
        <ele>1228.22</ele>
        <time>2015-06-07T13:27:27Z</time>
      </trkpt>
      <trkpt lat="46.45546" lon="6.09993">
        <ele>1227.26</ele>
        <time>2015-06-07T13:27:33Z</time>
      </trkpt>
      <trkpt lat="46.45536" lon="6.09989">
        <ele>1226.78</ele>
        <time>2015-06-07T13:27:40Z</time>
      </trkpt>
      <trkpt lat="46.45527" lon="6.09988">
        <ele>1226.3</ele>
        <time>2015-06-07T13:27:47Z</time>
      </trkpt>
      <trkpt lat="46.45523" lon="6.09986">
        <ele>1225.82</ele>
        <time>2015-06-07T13:27:50Z</time>
      </trkpt>
      <trkpt lat="46.4552" lon="6.09985">
        <ele>1225.82</ele>
        <time>2015-06-07T13:27:53Z</time>
      </trkpt>
      <trkpt lat="46.45518" lon="6.09985">
        <ele>1225.34</ele>
        <time>2015-06-07T13:27:55Z</time>
      </trkpt>
      <trkpt lat="46.45515" lon="6.09984">
        <ele>1224.38</ele>
        <time>2015-06-07T13:27:58Z</time>
      </trkpt>
      <trkpt lat="46.45507" lon="6.09982">
        <ele>1223.42</ele>
        <time>2015-06-07T13:28:05Z</time>
      </trkpt>
      <trkpt lat="46.45505" lon="6.09981">
        <ele>1222.93</ele>
        <time>2015-06-07T13:28:07Z</time>
      </trkpt>
      <trkpt lat="46.45497" lon="6.0998">
        <ele>1221.97</ele>
        <time>2015-06-07T13:28:14Z</time>
      </trkpt>
      <trkpt lat="46.45494" lon="6.09979">
        <ele>1221.97</ele>
        <time>2015-06-07T13:28:17Z</time>
      </trkpt>
      <trkpt lat="46.45483" lon="6.09977">
        <ele>1220.53</ele>
        <time>2015-06-07T13:28:25Z</time>
      </trkpt>
      <trkpt lat="46.45479" lon="6.09976">
        <ele>1220.05</ele>
        <time>2015-06-07T13:28:32Z</time>
      </trkpt>
      <trkpt lat="46.45478" lon="6.09976">
        <ele>1220.05</ele>
        <time>2015-06-07T13:28:33Z</time>
      </trkpt>
      <trkpt lat="46.45474" lon="6.09975">
        <ele>1219.57</ele>
        <time>2015-06-07T13:28:36Z</time>
      </trkpt>
      <trkpt lat="46.45466" lon="6.09975">
        <ele>1219.57</ele>
        <time>2015-06-07T13:28:43Z</time>
      </trkpt>
      <trkpt lat="46.4546" lon="6.09978">
        <ele>1219.09</ele>
        <time>2015-06-07T13:28:49Z</time>
      </trkpt>
      <trkpt lat="46.45458" lon="6.09981">
        <ele>1219.09</ele>
        <time>2015-06-07T13:28:51Z</time>
      </trkpt>
      <trkpt lat="46.45456" lon="6.09982">
        <ele>1218.61</ele>
        <time>2015-06-07T13:28:53Z</time>
      </trkpt>
      <trkpt lat="46.45453" lon="6.0999">
        <ele>1218.13</ele>
        <time>2015-06-07T13:29:01Z</time>
      </trkpt>
      <trkpt lat="46.45451" lon="6.09993">
        <ele>1218.13</ele>
        <time>2015-06-07T13:29:07Z</time>
      </trkpt>
      <trkpt lat="46.45451" lon="6.09993">
        <ele>1218.13</ele>
        <time>2015-06-07T13:29:21Z</time>
      </trkpt>
      <trkpt lat="46.45451" lon="6.09993">
        <ele>1218.61</ele>
        <time>2015-06-07T13:29:30Z</time>
      </trkpt>
      <trkpt lat="46.45451" lon="6.09993">
        <ele>1218.13</ele>
        <time>2015-06-07T13:29:40Z</time>
      </trkpt>
      <trkpt lat="46.45452" lon="6.09993">
        <ele>1218.13</ele>
        <time>2015-06-07T13:29:52Z</time>
      </trkpt>
      <trkpt lat="46.45452" lon="6.09993">
        <ele>1218.13</ele>
        <time>2015-06-07T13:30:03Z</time>
      </trkpt>
      <trkpt lat="46.45453" lon="6.09994">
        <ele>1218.13</ele>
        <time>2015-06-07T13:30:17Z</time>
      </trkpt>
      <trkpt lat="46.45452" lon="6.09997">
        <ele>1218.13</ele>
        <time>2015-06-07T13:30:27Z</time>
      </trkpt>
      <trkpt lat="46.45454" lon="6.10005">
        <ele>1217.65</ele>
        <time>2015-06-07T13:30:35Z</time>
      </trkpt>
      <trkpt lat="46.45455" lon="6.10006">
        <ele>1217.17</ele>
        <time>2015-06-07T13:30:47Z</time>
      </trkpt>
      <trkpt lat="46.45456" lon="6.10006">
        <ele>1217.65</ele>
        <time>2015-06-07T13:31:06Z</time>
      </trkpt>
      <trkpt lat="46.45455" lon="6.10006">
        <ele>1217.17</ele>
        <time>2015-06-07T13:31:12Z</time>
      </trkpt>
      <trkpt lat="46.45452" lon="6.10011">
        <ele>1217.17</ele>
        <time>2015-06-07T13:31:16Z</time>
      </trkpt>
      <trkpt lat="46.45449" lon="6.1002">
        <ele>1217.17</ele>
        <time>2015-06-07T13:31:24Z</time>
      </trkpt>
      <trkpt lat="46.45449" lon="6.1002">
        <ele>1216.69</ele>
        <time>2015-06-07T13:31:33Z</time>
      </trkpt>
      <trkpt lat="46.45448" lon="6.10022">
        <ele>1216.69</ele>
        <time>2015-06-07T13:31:35Z</time>
      </trkpt>
      <trkpt lat="46.45444" lon="6.10028">
        <ele>1216.21</ele>
        <time>2015-06-07T13:31:39Z</time>
      </trkpt>
      <trkpt lat="46.45443" lon="6.10036">
        <ele>1216.21</ele>
        <time>2015-06-07T13:31:43Z</time>
      </trkpt>
      <trkpt lat="46.45443" lon="6.10046">
        <ele>1215.72</ele>
        <time>2015-06-07T13:31:49Z</time>
      </trkpt>
      <trkpt lat="46.45443" lon="6.10061">
        <ele>1215.24</ele>
        <time>2015-06-07T13:31:56Z</time>
      </trkpt>
      <trkpt lat="46.45442" lon="6.10073">
        <ele>1214.76</ele>
        <time>2015-06-07T13:32:02Z</time>
      </trkpt>
      <trkpt lat="46.45442" lon="6.10087">
        <ele>1214.76</ele>
        <time>2015-06-07T13:32:09Z</time>
      </trkpt>
      <trkpt lat="46.45442" lon="6.10092">
        <ele>1214.76</ele>
        <time>2015-06-07T13:32:11Z</time>
      </trkpt>
      <trkpt lat="46.45439" lon="6.10104">
        <ele>1214.28</ele>
        <time>2015-06-07T13:32:17Z</time>
      </trkpt>
      <trkpt lat="46.45437" lon="6.10118">
        <ele>1214.28</ele>
        <time>2015-06-07T13:32:24Z</time>
      </trkpt>
      <trkpt lat="46.45436" lon="6.10133">
        <ele>1213.8</ele>
        <time>2015-06-07T13:32:31Z</time>
      </trkpt>
      <trkpt lat="46.45436" lon="6.10147">
        <ele>1213.8</ele>
        <time>2015-06-07T13:32:38Z</time>
      </trkpt>
      <trkpt lat="46.45436" lon="6.10149">
        <ele>1213.8</ele>
        <time>2015-06-07T13:32:39Z</time>
      </trkpt>
      <trkpt lat="46.45435" lon="6.10157">
        <ele>1213.8</ele>
        <time>2015-06-07T13:32:43Z</time>
      </trkpt>
      <trkpt lat="46.45436" lon="6.10173">
        <ele>1213.32</ele>
        <time>2015-06-07T13:32:51Z</time>
      </trkpt>
      <trkpt lat="46.45436" lon="6.10174">
        <ele>1213.32</ele>
        <time>2015-06-07T13:32:52Z</time>
      </trkpt>
      <trkpt lat="46.45435" lon="6.10188">
        <ele>1213.32</ele>
        <time>2015-06-07T13:32:59Z</time>
      </trkpt>
      <trkpt lat="46.45434" lon="6.102">
        <ele>1213.32</ele>
        <time>2015-06-07T13:33:04Z</time>
      </trkpt>
      <trkpt lat="46.45434" lon="6.10212">
        <ele>1213.8</ele>
        <time>2015-06-07T13:33:10Z</time>
      </trkpt>
      <trkpt lat="46.45434" lon="6.10224">
        <ele>1213.32</ele>
        <time>2015-06-07T13:33:16Z</time>
      </trkpt>
      <trkpt lat="46.45433" lon="6.10237">
        <ele>1212.84</ele>
        <time>2015-06-07T13:33:22Z</time>
      </trkpt>
      <trkpt lat="46.45432" lon="6.10249">
        <ele>1212.84</ele>
        <time>2015-06-07T13:33:28Z</time>
      </trkpt>
      <trkpt lat="46.45432" lon="6.10262">
        <ele>1212.36</ele>
        <time>2015-06-07T13:33:34Z</time>
      </trkpt>
      <trkpt lat="46.45431" lon="6.10264">
        <ele>1212.84</ele>
        <time>2015-06-07T13:33:35Z</time>
      </trkpt>
      <trkpt lat="46.45432" lon="6.10279">
        <ele>1213.32</ele>
        <time>2015-06-07T13:33:42Z</time>
      </trkpt>
      <trkpt lat="46.45431" lon="6.10292">
        <ele>1212.36</ele>
        <time>2015-06-07T13:33:48Z</time>
      </trkpt>
      <trkpt lat="46.45431" lon="6.10304">
        <ele>1212.36</ele>
        <time>2015-06-07T13:33:54Z</time>
      </trkpt>
      <trkpt lat="46.4543" lon="6.10318">
        <ele>1212.36</ele>
        <time>2015-06-07T13:34:00Z</time>
      </trkpt>
      <trkpt lat="46.4543" lon="6.10328">
        <ele>1211.88</ele>
        <time>2015-06-07T13:34:05Z</time>
      </trkpt>
      <trkpt lat="46.45431" lon="6.10341">
        <ele>1211.88</ele>
        <time>2015-06-07T13:34:11Z</time>
      </trkpt>
      <trkpt lat="46.4543" lon="6.10353">
        <ele>1211.4</ele>
        <time>2015-06-07T13:34:17Z</time>
      </trkpt>
      <trkpt lat="46.45429" lon="6.1036">
        <ele>1211.4</ele>
        <time>2015-06-07T13:34:20Z</time>
      </trkpt>
      <trkpt lat="46.45427" lon="6.10377">
        <ele>1211.88</ele>
        <time>2015-06-07T13:34:28Z</time>
      </trkpt>
      <trkpt lat="46.45427" lon="6.10379">
        <ele>1211.88</ele>
        <time>2015-06-07T13:34:29Z</time>
      </trkpt>
      <trkpt lat="46.45427" lon="6.10388">
        <ele>1211.4</ele>
        <time>2015-06-07T13:34:34Z</time>
      </trkpt>
      <trkpt lat="46.45426" lon="6.10407">
        <ele>1211.88</ele>
        <time>2015-06-07T13:34:43Z</time>
      </trkpt>
      <trkpt lat="46.45428" lon="6.10423">
        <ele>1211.88</ele>
        <time>2015-06-07T13:34:51Z</time>
      </trkpt>
      <trkpt lat="46.45427" lon="6.10437">
        <ele>1211.88</ele>
        <time>2015-06-07T13:34:58Z</time>
      </trkpt>
      <trkpt lat="46.45425" lon="6.10457">
        <ele>1211.4</ele>
        <time>2015-06-07T13:35:07Z</time>
      </trkpt>
      <trkpt lat="46.45425" lon="6.10466">
        <ele>1211.4</ele>
        <time>2015-06-07T13:35:12Z</time>
      </trkpt>
      <trkpt lat="46.45425" lon="6.10476">
        <ele>1211.4</ele>
        <time>2015-06-07T13:35:17Z</time>
      </trkpt>
      <trkpt lat="46.45425" lon="6.1049">
        <ele>1211.4</ele>
        <time>2015-06-07T13:35:23Z</time>
      </trkpt>
      <trkpt lat="46.45425" lon="6.10501">
        <ele>1211.4</ele>
        <time>2015-06-07T13:35:28Z</time>
      </trkpt>
      <trkpt lat="46.45425" lon="6.10515">
        <ele>1211.4</ele>
        <time>2015-06-07T13:35:34Z</time>
      </trkpt>
      <trkpt lat="46.45424" lon="6.1053">
        <ele>1211.4</ele>
        <time>2015-06-07T13:35:41Z</time>
      </trkpt>
      <trkpt lat="46.45424" lon="6.10542">
        <ele>1211.4</ele>
        <time>2015-06-07T13:35:47Z</time>
      </trkpt>
      <trkpt lat="46.45423" lon="6.10551">
        <ele>1211.4</ele>
        <time>2015-06-07T13:35:52Z</time>
      </trkpt>
      <trkpt lat="46.45423" lon="6.10554">
        <ele>1211.88</ele>
        <time>2015-06-07T13:35:53Z</time>
      </trkpt>
      <trkpt lat="46.45422" lon="6.10571">
        <ele>1212.36</ele>
        <time>2015-06-07T13:36:01Z</time>
      </trkpt>
      <trkpt lat="46.45423" lon="6.10584">
        <ele>1212.36</ele>
        <time>2015-06-07T13:36:07Z</time>
      </trkpt>
      <trkpt lat="46.45423" lon="6.10594">
        <ele>1212.84</ele>
        <time>2015-06-07T13:36:12Z</time>
      </trkpt>
      <trkpt lat="46.45423" lon="6.10606">
        <ele>1212.84</ele>
        <time>2015-06-07T13:36:18Z</time>
      </trkpt>
      <trkpt lat="46.45424" lon="6.10616">
        <ele>1212.84</ele>
        <time>2015-06-07T13:36:24Z</time>
      </trkpt>
      <trkpt lat="46.45424" lon="6.10631">
        <ele>1212.84</ele>
        <time>2015-06-07T13:36:31Z</time>
      </trkpt>
      <trkpt lat="46.45424" lon="6.1064">
        <ele>1212.84</ele>
        <time>2015-06-07T13:36:35Z</time>
      </trkpt>
      <trkpt lat="46.45425" lon="6.10653">
        <ele>1212.36</ele>
        <time>2015-06-07T13:36:41Z</time>
      </trkpt>
      <trkpt lat="46.45425" lon="6.10668">
        <ele>1211.88</ele>
        <time>2015-06-07T13:36:47Z</time>
      </trkpt>
      <trkpt lat="46.45426" lon="6.10682">
        <ele>1211.88</ele>
        <time>2015-06-07T13:36:53Z</time>
      </trkpt>
      <trkpt lat="46.45427" lon="6.10697">
        <ele>1212.36</ele>
        <time>2015-06-07T13:37:00Z</time>
      </trkpt>
      <trkpt lat="46.45427" lon="6.10711">
        <ele>1212.36</ele>
        <time>2015-06-07T13:37:07Z</time>
      </trkpt>
      <trkpt lat="46.45429" lon="6.10725">
        <ele>1211.88</ele>
        <time>2015-06-07T13:37:14Z</time>
      </trkpt>
      <trkpt lat="46.45429" lon="6.10738">
        <ele>1211.88</ele>
        <time>2015-06-07T13:37:20Z</time>
      </trkpt>
      <trkpt lat="46.4543" lon="6.10754">
        <ele>1211.88</ele>
        <time>2015-06-07T13:37:27Z</time>
      </trkpt>
      <trkpt lat="46.45431" lon="6.10771">
        <ele>1211.88</ele>
        <time>2015-06-07T13:37:34Z</time>
      </trkpt>
      <trkpt lat="46.45431" lon="6.10786">
        <ele>1211.88</ele>
        <time>2015-06-07T13:37:41Z</time>
      </trkpt>
      <trkpt lat="46.45431" lon="6.10799">
        <ele>1211.88</ele>
        <time>2015-06-07T13:37:47Z</time>
      </trkpt>
      <trkpt lat="46.45431" lon="6.10811">
        <ele>1212.36</ele>
        <time>2015-06-07T13:37:53Z</time>
      </trkpt>
      <trkpt lat="46.45431" lon="6.10823">
        <ele>1212.36</ele>
        <time>2015-06-07T13:37:58Z</time>
      </trkpt>
      <trkpt lat="46.45432" lon="6.10836">
        <ele>1212.36</ele>
        <time>2015-06-07T13:38:04Z</time>
      </trkpt>
      <trkpt lat="46.45432" lon="6.10842">
        <ele>1212.36</ele>
        <time>2015-06-07T13:38:08Z</time>
      </trkpt>
      <trkpt lat="46.45438" lon="6.10852">
        <ele>1212.84</ele>
        <time>2015-06-07T13:38:15Z</time>
      </trkpt>
      <trkpt lat="46.4544" lon="6.10853">
        <ele>1212.84</ele>
        <time>2015-06-07T13:38:16Z</time>
      </trkpt>
      <trkpt lat="46.45443" lon="6.10855">
        <ele>1212.84</ele>
        <time>2015-06-07T13:38:20Z</time>
      </trkpt>
      <trkpt lat="46.45451" lon="6.10865">
        <ele>1213.32</ele>
        <time>2015-06-07T13:38:28Z</time>
      </trkpt>
      <trkpt lat="46.4546" lon="6.10871">
        <ele>1213.32</ele>
        <time>2015-06-07T13:38:36Z</time>
      </trkpt>
      <trkpt lat="46.45464" lon="6.10873">
        <ele>1212.84</ele>
        <time>2015-06-07T13:38:45Z</time>
      </trkpt>
      <trkpt lat="46.45464" lon="6.10873">
        <ele>1212.84</ele>
        <time>2015-06-07T13:38:59Z</time>
      </trkpt>
    </trkseg>
  </trk>
</gpx>